# Wetter Temperatur Luftdruck Luftfeuchtigkeit Sichtweite Windgeschwindigkeit Windrichtung Zeit
1 Clear 17 1011 19 10000 1.54 0 12:30 22.04.2021
2 Clear 17 1011 18 10000 3.09 210 11:50 22.04.2021
3 Clear 17 1011 18 10000 3.09 210 11:26 22.04.2021
4 Clear 18 1010 21 10000 0.45 0 10:47 22.04.2021
5 Clear 18 1011 15 10000 3.6 210 10:29 22.04.2021
6 Clear 18 1009 20 10000 0.89 260 09:58 22.04.2021
7 Clear 17 1009 19 10000 3.77 179 09:33 22.04.2021
8 Clear 19 1011 12 10000 3.6 230 08:47 22.04.2021
9 Clear 20 1011 12 10000 3.6 230 08:23 22.04.2021
10 Clear 20 1010 15 10000 0.89 0 07:47 22.04.2021
11 Clear 21 1009 16 10000 1.34 281 07:29 22.04.2021
12 Clear 17 1009 12 10000 5.66 240 06:41 22.04.2021
13 Clear 24 1008 12 10000 4.12 240 05:53 22.04.2021
14 Clear 24 1008 12 10000 4.12 240 05:20 22.04.2021
15 Clear 29 1007 9 10000 9.77 180 01:41 22.04.2021
16 Clear 30 1009 10 10000 6.69 220 23:54 21.04.2021
17 Clear 30 1009 10 10000 6.69 220 23:35 21.04.2021
18 Clouds 29 1010 9 10000 10.29 220 22:45 21.04.2021
19 Clouds 29 1010 9 10000 10.29 220 22:25 21.04.2021
20 Clouds 29 1011 11 10000 8.23 230 21:57 21.04.2021
21 Clouds 29 1011 11 10000 8.23 230 21:38 21.04.2021
22 Clouds 28 1011 11 10000 8.23 230 21:18 21.04.2021
23 Clear 28 1012 12 10000 9.77 190 20:23 21.04.2021
24 Clear 27 1013 11 10000 7.2 200 19:46 21.04.2021
25 Clear 27 1013 11 10000 7.2 200 19:27 21.04.2021
26 Clear 26 1012 15 10000 2.24 0 18:50 21.04.2021
27 Clear 25 1013 11 10000 5.66 190 18:31 21.04.2021
28 Clear 25 1013 11 10000 5.66 190 18:31 21.04.2021
29 Clear 24 1012 14 10000 2.68 0 17:57 21.04.2021
30 Clear 23 1012 14 10000 2.24 181 17:39 21.04.2021
31 Clear 22 1013 11 10000 2.57 140 17:19 21.04.2021
32 Clear 20 1014 12 10000 4.63 150 16:32 21.04.2021
33 Clear 17 1013 15 10000 4.12 150 15:43 21.04.2021
34 Clear 16 1012 18 10000 3.6 90 15:18 21.04.2021
35 Clear 16 1012 18 10000 3.6 90 15:18 21.04.2021
36 Clear 16 1012 17 10000 3.09 90 14:44 21.04.2021
37 Clear 17 1012 17 10000 3.09 90 14:23 21.04.2021
38 Clear 17 1013 15 10000 2.57 130 13:45 21.04.2021
39 Clear 17 1013 15 10000 2.57 130 13:21 21.04.2021
40 Clear 18 1012 11 10000 4.12 150 12:32 21.04.2021
41 Clear 18 1012 14 10000 3.09 160 11:58 21.04.2021
42 Clear 18 1012 14 10000 3.09 160 11:39 21.04.2021
43 Clear 18 1012 14 10000 3.09 160 11:21 21.04.2021
44 Clear 19 1013 10 10000 4.12 170 10:36 21.04.2021
45 Clear 19 1013 13 10000 3.6 190 09:56 21.04.2021
46 Clear 19 1013 13 10000 3.6 190 09:20 21.04.2021
47 Clear 20 1013 13 10000 3.09 140 08:41 21.04.2021
48 Clear 20 1013 13 10000 3.09 140 08:22 21.04.2021
49 Clear 21 1013 12 10000 4.12 140 07:32 21.04.2021
50 Clear 22 1012 9 10000 3.09 200 06:59 21.04.2021
51 Clear 23 1011 7 10000 3.09 240 05:45 21.04.2021
52 Clear 31 1011 6 10000 5.66 270 01:34 21.04.2021
53 Clear 31 1013 7 10000 3.09 270 23:59 20.04.2021
54 Clear 30 1013 7 10000 3.09 270 23:32 20.04.2021
55 Clear 30 1014 8 10000 2.57 20 22:42 20.04.2021
56 Clouds 29 1014 8 10000 3.6 310 22:23 20.04.2021
57 Clear 29 1015 8 10000 4.12 340 21:47 20.04.2021
58 Clouds 28 1015 8 10000 0.99 255 21:27 20.04.2021
59 Clear 28 1016 8 10000 1.54 360 20:57 20.04.2021
60 Clear 27 1016 9 10000 0.99 255 20:38 20.04.2021
61 Clear 27 1016 9 10000 0.99 255 20:38 20.04.2021
62 Clear 27 1016 9 10000 1.29 249 20:18 20.04.2021
63 Clear 26 1016 10 10000 1.34 237 19:42 20.04.2021
64 Clear 26 1016 10 10000 1.28 214 19:24 20.04.2021
65 Clear 25 1016 15 10000 1.34 189 18:39 20.04.2021
66 Clear 22 1010 18 10000 1.34 1 17:55 20.04.2021
67 Clear 22 1016 20 10000 0.45 0 17:37 20.04.2021
68 Clear 19 1016 20 10000 6.17 140 16:50 20.04.2021
69 Clear 12 1015 28 10000 4.63 130 15:53 20.04.2021
70 Clear 13 1015 24 10000 4.63 140 15:29 20.04.2021
71 Clear 12 1015 28 10000 5.14 140 14:58 20.04.2021
72 Clear 13 1015 28 10000 5.14 140 14:35 20.04.2021
73 Clear 14 1015 26 10000 3.6 140 13:52 20.04.2021
74 Clear 14 1015 26 10000 3.6 140 13:24 20.04.2021
75 Clear 13 1015 24 10000 4.12 150 12:44 20.04.2021
76 Clear 14 1015 24 10000 4.12 150 12:22 20.04.2021
77 Clear 14 1015 24 10000 4.12 140 11:45 20.04.2021
78 Clear 14 1015 24 10000 4.12 140 11:21 20.04.2021
79 Clear 15 1015 23 10000 2.57 180 10:44 20.04.2021
80 Clear 15 1015 23 10000 2.57 180 10:23 20.04.2021
81 Clear 16 1015 23 10000 3.6 180 09:40 20.04.2021
82 Clear 17 1015 22 10000 2.57 290 08:56 20.04.2021
83 Clear 17 1015 22 10000 2.57 290 08:25 20.04.2021
84 Clear 18 1015 21 10000 2.57 310 07:49 20.04.2021
85 Clear 20 1015 16 10000 3.6 300 06:47 20.04.2021
86 Clear 22 1014 13 10000 4.63 300 05:40 20.04.2021
87 Clear 23 1013 14 10000 4.63 300 04:42 20.04.2021
88 Clear 27 1013 12 10000 4.63 290 01:57 20.04.2021
89 Clear 28 1014 11 10000 3.6 290 00:38 20.04.2021
90 Clear 27 1015 14 10000 4.63 270 23:37 19.04.2021
91 Clear 27 1016 15 10000 2.06 300 22:57 19.04.2021
92 Clear 27 1016 15 10000 2.06 300 22:36 19.04.2021
93 Clear 25 1016 19 10000 1.54 0 21:51 19.04.2021
94 Clear 25 1016 19 10000 1.54 0 21:51 19.04.2021
95 Clear 25 1016 19 10000 1.54 0 21:33 19.04.2021
96 Clear 25 1016 23 10000 2.06 10 20:55 19.04.2021
97 Clear 24 1016 23 10000 2.06 10 20:37 19.04.2021
98 Clear 24 1016 23 10000 2.06 10 20:19 19.04.2021
99 Clear 23 1016 24 10000 2.57 20 19:40 19.04.2021
100 Clear 23 1016 24 10000 2.57 20 19:22 19.04.2021
101 Clear 22 1017 28 10000 4.12 90 18:46 19.04.2021
102 Clear 21 1017 28 10000 4.12 90 18:22 19.04.2021
103 Clear 20 1017 32 10000 3.6 120 17:54 19.04.2021
104 Clear 19 1017 32 10000 3.6 120 17:29 19.04.2021
105 Clear 18 1017 39 10000 3.09 120 16:51 19.04.2021
106 Clear 17 1017 39 10000 3.09 120 16:31 19.04.2021
107 Clear 16 1016 39 10000 4.12 110 15:52 19.04.2021
108 Clear 14 1016 44 10000 2.57 140 15:29 19.04.2021
109 Clear 14 1015 41 10000 2.57 90 14:53 19.04.2021
110 Clear 14 1015 41 10000 2.57 90 14:34 19.04.2021
111 Clear 15 1015 38 10000 2.57 60 13:53 19.04.2021
112 Clear 15 1015 38 10000 2.57 60 13:30 19.04.2021
113 Clear 15 1015 41 10000 2.57 70 12:55 19.04.2021
114 Clear 15 1015 41 10000 2.57 70 12:36 19.04.2021
115 Clear 15 1015 41 10000 2.57 70 12:18 19.04.2021
116 Clear 16 1015 44 10000 2.06 110 11:43 19.04.2021
117 Clear 16 1015 44 10000 2.06 110 11:20 19.04.2021
118 Clear 17 1015 36 10000 5.14 60 10:44 19.04.2021
119 Clear 17 1015 36 10000 5.14 60 10:19 19.04.2021
120 Clouds 17 1015 34 10000 6.69 70 09:43 19.04.2021
121 Clouds 17 1015 34 10000 6.69 70 09:24 19.04.2021
122 Clear 18 1015 34 10000 7.2 70 08:37 19.04.2021
123 Clear 18 1014 27 10000 11.32 60 07:50 19.04.2021
124 Clear 18 1014 27 10000 11.32 60 07:24 19.04.2021
125 Clouds 19 1014 24 10000 5.14 50 06:52 19.04.2021
126 Clouds 21 1012 21 10000 6.17 70 04:47 19.04.2021
127 Clouds 24 1011 12 10000 4.12 20 01:49 19.04.2021
128 Clouds 25 1011 10 10000 4.63 20 00:41 19.04.2021
129 Clouds 25 1011 10 10000 4.12 120 23:21 18.04.2021
130 Clouds 25 1012 11 10000 2.57 320 22:58 18.04.2021
131 Clouds 25 1012 11 10000 2.57 320 22:33 18.04.2021
132 Clear 25 1012 12 10000 3.09 80 21:53 18.04.2021
133 Clear 25 1012 12 10000 3.09 80 21:28 18.04.2021
134 Clear 24 1013 13 10000 6.69 140 20:44 18.04.2021
135 Clear 24 1014 12 10000 6.17 140 20:25 18.04.2021
136 Clear 23 1013 16 10000 3.09 100 19:57 18.04.2021
137 Clear 23 1013 16 10000 3.09 100 19:38 18.04.2021
138 Clear 22 1013 16 10000 3.09 100 19:18 18.04.2021
139 Clear 21 1014 18 10000 4.12 130 18:44 18.04.2021
140 Clear 21 1014 18 10000 4.12 130 18:25 18.04.2021
141 Clear 20 1015 19 10000 3.6 130 17:45 18.04.2021
142 Clear 18 1014 20 10000 3.09 140 17:27 18.04.2021
143 Clear 17 1014 26 10000 1.34 0 16:46 18.04.2021
144 Clear 16 1014 22 10000 3.09 130 16:24 18.04.2021
145 Clear 14 1014 19 10000 2.06 200 15:43 18.04.2021
146 Clear 13 1013 20 10000 4.12 130 15:25 18.04.2021
147 Clear 13 1013 20 10000 4.12 130 15:25 18.04.2021
148 Clear 13 1013 19 10000 3.6 100 14:46 18.04.2021
149 Clear 13 1013 19 10000 3.6 100 14:21 18.04.2021
150 Clear 13 1013 22 10000 3.09 100 13:55 18.04.2021
151 Clear 13 1013 22 10000 3.09 100 13:34 18.04.2021
152 Clear 13 1013 20 10000 3.09 170 12:50 18.04.2021
153 Clear 13 1013 20 10000 3.09 170 12:26 18.04.2021
154 Clear 14 1013 19 10000 3.6 100 11:42 18.04.2021
155 Clear 14 1013 19 10000 3.6 100 11:21 18.04.2021
156 Clear 15 1013 15 10000 2.06 240 10:47 18.04.2021
157 Clear 15 1013 15 10000 2.06 240 10:22 18.04.2021
158 Clear 16 1013 15 10000 3.09 220 09:52 18.04.2021
159 Clear 16 1013 15 10000 3.09 220 09:34 18.04.2021
160 Clear 17 1013 13 10000 1.54 170 08:56 18.04.2021
161 Clear 17 1013 13 10000 1.54 170 08:35 18.04.2021
162 Clear 17 1013 13 10000 3.09 270 07:55 18.04.2021
163 Clear 18 1013 13 10000 3.09 270 07:37 18.04.2021
164 Clear 21 1011 10 10000 4.63 310 05:42 18.04.2021
165 Clear 21 1011 10 10000 4.63 310 05:23 18.04.2021
166 Clear 25 1010 7 10000 5.66 290 02:39 18.04.2021
167 Clear 26 1010 7 10000 5.66 290 02:20 18.04.2021
168 Clear 26 1011 6 10000 4.63 280 00:37 18.04.2021
169 Clear 26 1011 7 10000 3.09 320 23:33 17.04.2021
170 Clear 26 1013 6 10000 1.54 0 22:51 17.04.2021
171 Clear 26 1013 6 10000 1.54 0 22:30 17.04.2021
172 Clear 26 1013 7 10000 1.54 0 21:50 17.04.2021
173 Clear 26 1013 7 10000 1.54 0 21:28 17.04.2021
174 Clear 25 1014 7 10000 2.57 350 20:47 17.04.2021
175 Clear 25 1014 7 10000 2.57 350 20:27 17.04.2021
176 Clear 24 1014 9 10000 1.64 255 19:44 17.04.2021
177 Clear 23 1014 9 10000 0.92 220 19:20 17.04.2021
178 Clear 22 1013 13 10000 0.89 189 18:55 17.04.2021
179 Clear 21 1013 11 10000 1.2 167 18:28 17.04.2021
180 Clear 20 1013 15 10000 0.89 0 17:56 17.04.2021
181 Clear 20 1013 15 10000 0.89 0 17:38 17.04.2021
182 Clear 15 1013 18 10000 3.6 160 16:42 17.04.2021
183 Clear 15 1013 18 10000 3.6 160 16:24 17.04.2021
184 Clear 11 1013 19 10000 4.12 140 15:38 17.04.2021
185 Clear 11 1013 19 10000 2.57 140 14:49 17.04.2021
186 Clear 10 1012 22 10000 3.09 140 14:29 17.04.2021
187 Clear 11 1012 22 10000 3.09 140 13:45 17.04.2021
188 Clear 11 1012 22 10000 3.09 140 13:18 17.04.2021
189 Clear 12 1013 16 10000 3.6 140 12:35 17.04.2021
190 Clear 13 1013 15 10000 2.57 130 11:58 17.04.2021
191 Clear 13 1013 15 10000 2.57 130 11:38 17.04.2021
192 Clear 13 1013 15 10000 2.57 130 11:19 17.04.2021
193 Clear 14 1013 14 10000 2.06 150 10:39 17.04.2021
194 Clear 14 1013 17 10000 3.09 200 10:18 17.04.2021
195 Clear 15 1012 14 10000 2.57 200 08:55 17.04.2021
196 Clear 16 1012 14 10000 2.57 200 08:33 17.04.2021
197 Clear 17 1012 14 10000 2.06 260 07:54 17.04.2021
198 Clear 18 1012 13 10000 2.57 280 06:34 17.04.2021
199 Clouds 23 1010 10 10000 5.66 280 03:48 17.04.2021
200 Clouds 25 1010 8 10000 2.06 280 02:26 17.04.2021
201 Clouds 24 1011 9 10000 6.17 310 00:42 17.04.2021
202 Clouds 24 1011 9 10000 6.17 310 00:20 17.04.2021
203 Clouds 25 1011 8 10000 5.66 280 23:43 16.04.2021
204 Clouds 24 1012 7 10000 1.54 40 22:52 16.04.2021
205 Clouds 24 1012 7 10000 1.54 40 22:25 16.04.2021
206 Clouds 24 1012 8 10000 2.57 300 21:58 16.04.2021
207 Clouds 24 1012 8 10000 2.57 300 21:40 16.04.2021
208 Clouds 23 1012 8 10000 2.57 300 21:21 16.04.2021
209 Clouds 23 1013 11 10000 1.81 260 20:45 16.04.2021
210 Clouds 22 1013 11 10000 1.59 228 20:18 16.04.2021
211 Clouds 22 1013 13 10000 3.09 170 19:47 16.04.2021
212 Clouds 22 1013 13 10000 3.09 170 19:20 16.04.2021
213 Clouds 21 1013 14 10000 1.36 179 18:28 16.04.2021
214 Clouds 20 1013 17 10000 0.89 0 17:51 16.04.2021
215 Clouds 19 1013 16 10000 0.58 173 17:20 16.04.2021
216 Clear 18 1013 16 10000 2.57 150 16:56 16.04.2021
217 Clear 17 1013 16 10000 2.57 150 16:38 16.04.2021
218 Clouds 16 1012 20 10000 2.57 140 16:19 16.04.2021
219 Clouds 15 1012 18 10000 2.06 130 15:39 16.04.2021
220 Clouds 15 1012 17 10000 0.44 11 14:47 16.04.2021
221 Clouds 15 1012 17 10000 0.57 301 14:28 16.04.2021
222 Clouds 15 1012 17 10000 0.57 301 13:58 16.04.2021
223 Clouds 15 1012 17 10000 0.95 296 13:23 16.04.2021
224 Clouds 15 1012 17 10000 2.57 210 12:58 16.04.2021
225 Clouds 15 1012 17 10000 2.57 210 12:39 16.04.2021
226 Clouds 15 1012 17 10000 2.57 210 12:21 16.04.2021
227 Clouds 16 1012 18 10000 1.54 220 11:41 16.04.2021
228 Clouds 16 1012 18 10000 1.54 220 11:20 16.04.2021
229 Clouds 16 1013 17 10000 1.54 270 10:41 16.04.2021
230 Clouds 17 1013 17 10000 1.54 270 10:21 16.04.2021
231 Clear 18 1013 15 10000 3.09 270 09:44 16.04.2021
232 Clear 18 1013 15 10000 3.09 270 09:22 16.04.2021
233 Clouds 19 1013 13 10000 3.09 280 08:45 16.04.2021
234 Clouds 19 1013 13 10000 3.09 280 08:19 16.04.2021
235 Clouds 20 1013 12 10000 3.6 290 07:43 16.04.2021
236 Clouds 20 1013 12 10000 3.6 290 07:25 16.04.2021
237 Clouds 20 1013 11 10000 4.12 290 06:41 16.04.2021
238 Clouds 21 1012 13 10000 5.66 290 05:32 16.04.2021
239 Clouds 26 1010 10 10000 4.47 0 01:47 16.04.2021
240 Clear 27 1010 7 10000 7.72 260 00:45 16.04.2021
241 Clear 27 1011 8 10000 7.72 290 00:21 16.04.2021
242 Clouds 27 1011 9 10000 7.2 280 23:56 15.04.2021
243 Clouds 27 1012 9 10000 4.12 260 23:32 15.04.2021
244 Clouds 26 1012 12 10000 4.12 290 22:50 15.04.2021
245 Clouds 26 1012 12 10000 4.12 290 22:23 15.04.2021
246 Clouds 25 1013 13 10000 5.14 300 21:44 15.04.2021
247 Clouds 25 1013 13 10000 5.14 300 21:26 15.04.2021
248 Clouds 24 1014 15 10000 1.54 220 20:49 15.04.2021
249 Clouds 24 1014 15 10000 1.54 220 20:25 15.04.2021
250 Clear 23 1014 14 10000 2.06 0 19:57 15.04.2021
251 Clear 23 1014 17 10000 3.13 266 19:39 15.04.2021
252 Clear 23 1014 17 10000 2.43 237 19:20 15.04.2021
253 Clear 22 1014 16 10000 1.54 0 18:39 15.04.2021
254 Clear 21 1013 18 10000 2.06 320 18:18 15.04.2021
255 Clear 20 1013 18 10000 2.48 217 17:53 15.04.2021
256 Clear 19 1013 18 10000 2.48 217 17:30 15.04.2021
257 Clear 17 1014 20 10000 1.54 110 16:44 15.04.2021
258 Clear 16 1013 23 10000 1.58 185 16:24 15.04.2021
259 Clear 15 1012 24 10000 2.06 230 15:50 15.04.2021
260 Clear 14 1012 24 10000 2.06 230 15:27 15.04.2021
261 Clear 15 1012 23 10000 1.54 90 14:44 15.04.2021
262 Clear 15 1012 23 10000 1.54 90 14:44 15.04.2021
263 Clear 15 1012 23 10000 1.54 90 14:26 15.04.2021
264 Clouds 16 1012 17 10000 3.09 200 13:49 15.04.2021
265 Clouds 16 1012 17 10000 3.09 200 13:25 15.04.2021
266 Clouds 16 1012 16 10000 4.12 190 12:53 15.04.2021
267 Clouds 17 1012 16 10000 4.12 190 12:27 15.04.2021
268 Clear 18 1012 18 10000 1.54 230 11:48 15.04.2021
269 Clear 18 1012 18 10000 1.54 230 11:29 15.04.2021
270 Clouds 18 1012 22 10000 1.29 169 10:58 15.04.2021
271 Clouds 18 1012 22 10000 1.29 169 10:40 15.04.2021
272 Clouds 18 1012 22 10000 1.29 169 10:40 15.04.2021
273 Clouds 19 1012 22 10000 1.83 194 10:22 15.04.2021
274 Clear 19 1012 22 10000 3.6 290 09:30 15.04.2021
275 Clear 20 1013 24 10000 2.06 260 08:53 15.04.2021
276 Clear 21 1013 24 10000 2.06 260 08:34 15.04.2021
277 Clouds 22 1012 17 10000 2.57 250 07:37 15.04.2021
278 Clouds 23 1012 15 10000 4.12 220 06:57 15.04.2021
279 Clouds 23 1012 15 10000 4.12 220 06:36 15.04.2021
280 Clouds 25 1011 10 10000 4.63 230 04:55 15.04.2021
281 Clouds 26 1010 12 10000 1.34 0 03:59 15.04.2021
282 Clear 30 1011 9 10000 5.66 200 00:18 15.04.2021
283 Clouds 29 1011 8 10000 3.6 230 23:34 14.04.2021
284 Clouds 29 1012 7 10000 3.6 230 22:58 14.04.2021
285 Clouds 29 1012 7 10000 3.6 230 22:37 14.04.2021
286 Clouds 28 1012 7 10000 3.6 230 22:19 14.04.2021
287 Clouds 28 1012 11 10000 4.63 250 21:41 14.04.2021
288 Clouds 28 1012 11 10000 4.63 250 21:22 14.04.2021
289 Clouds 27 1013 11 10000 5.14 240 20:45 14.04.2021
290 Clouds 26 1013 11 10000 5.14 240 20:27 14.04.2021
291 Clear 25 1013 14 10000 4.12 160 19:46 14.04.2021
292 Clear 25 1014 12 10000 6.17 200 19:19 14.04.2021
293 Clear 24 1013 16 10000 2.24 0 18:54 14.04.2021
294 Clear 23 1013 17 10000 3.6 140 18:20 14.04.2021
295 Clear 22 1014 21 10000 4.12 100 17:57 14.04.2021
296 Clear 21 1013 21 10000 3.6 130 17:24 14.04.2021
297 Clear 20 1013 25 10000 2.06 120 16:48 14.04.2021
298 Clear 18 1013 25 10000 2.06 120 16:24 14.04.2021
299 Clear 17 1012 31 10000 2.57 100 15:41 14.04.2021
300 Clear 15 1012 31 10000 2.57 100 15:22 14.04.2021
301 Clear 16 1012 29 10000 2.12 146 14:44 14.04.2021
302 Clear 16 1012 29 10000 1.85 159 14:23 14.04.2021
303 Clear 17 1011 25 10000 2.06 90 13:53 14.04.2021
304 Clear 17 1011 27 10000 2.57 230 12:59 14.04.2021
305 Clear 18 1011 27 10000 2.57 230 12:36 14.04.2021
306 Clouds 19 1011 26 10000 4.63 210 11:43 14.04.2021
307 Clouds 19 1011 26 10000 4.63 210 11:24 14.04.2021
308 Clear 20 1012 23 10000 4.63 210 10:35 14.04.2021
309 Clear 21 1011 24 10000 3.09 240 09:59 14.04.2021
310 Clear 21 1011 24 10000 3.09 240 09:41 14.04.2021
311 Clear 21 1011 24 10000 3.09 240 09:19 14.04.2021
312 Clear 21 1011 24 10000 3.09 220 08:34 14.04.2021
313 Clear 22 1010 25 10000 3.6 230 07:56 14.04.2021
314 Clouds 23 1009 23 10000 3.09 270 06:46 14.04.2021
315 Clouds 23 1009 23 10000 3.09 270 06:23 14.04.2021
316 Clouds 27 1008 14 10000 1.79 0 03:59 14.04.2021
317 Clear 30 1008 9 10000 4.63 190 01:41 14.04.2021
318 Clouds 30 1008 6 10000 7.2 180 00:34 14.04.2021
319 Clear 30 1008 8 10000 4.63 240 23:39 13.04.2021
320 Clear 30 1009 7 10000 6.69 220 22:59 13.04.2021
321 Clear 30 1009 7 10000 6.69 220 22:40 13.04.2021
322 Clear 29 1009 7 10000 4.12 200 22:18 13.04.2021
323 Clouds 29 1010 10 10000 4.12 220 21:44 13.04.2021
324 Clouds 28 1010 10 10000 4.12 220 21:24 13.04.2021
325 Clear 28 1011 10 10000 5.66 210 20:41 13.04.2021
326 Clear 27 1011 10 10000 5.66 210 20:21 13.04.2021
327 Clear 26 1011 13 10000 6.69 200 19:40 13.04.2021
328 Clear 26 1011 13 10000 6.69 200 19:22 13.04.2021
329 Clear 24 1011 18 10000 1.79 190 18:36 13.04.2021
330 Clear 23 1012 23 10000 1.79 0 17:47 13.04.2021
331 Clear 22 1012 26 10000 3.6 160 17:25 13.04.2021
332 Clear 21 1011 31 10000 1.34 0 16:59 13.04.2021
333 Clear 20 1011 35 10000 0.89 0 16:41 13.04.2021
334 Clear 18 1011 36 10000 4.12 140 16:20 13.04.2021
335 Clear 17 1011 38 10000 2.06 160 15:40 13.04.2021
336 Clear 16 1011 38 10000 2.06 160 15:18 13.04.2021
337 Clear 16 1010 36 10000 1.99 148 14:41 13.04.2021
338 Clear 16 1010 36 10000 1.99 148 14:41 13.04.2021
339 Clear 16 1010 36 10000 2.11 159 14:18 13.04.2021
340 Clear 16 1010 31 10000 3.09 130 13:45 13.04.2021
341 Clear 17 1010 31 10000 3.09 130 13:23 13.04.2021
342 Clear 17 1010 33 10000 1.97 158 12:53 13.04.2021
343 Clear 17 1010 33 10000 2.14 172 12:24 13.04.2021
344 Clear 17 1010 31 10000 3.09 130 11:50 13.04.2021
345 Clear 18 1010 31 10000 3.09 130 11:29 13.04.2021
346 Clear 18 1010 27 10000 3.09 130 10:45 13.04.2021
347 Clear 19 1010 27 10000 3.09 130 10:20 13.04.2021
348 Clear 19 1011 26 10000 3.09 120 09:53 13.04.2021
349 Clear 19 1011 26 10000 3.09 120 09:34 13.04.2021
350 Clear 20 1011 30 10000 1.54 200 08:51 13.04.2021
351 Clear 21 1011 30 10000 1.54 200 08:25 13.04.2021
352 Clear 21 1010 27 10000 3.09 250 07:52 13.04.2021
353 Clear 22 1010 27 10000 3.09 250 07:32 13.04.2021
354 Clear 24 1009 19 10000 3.6 250 06:29 13.04.2021
355 Clear 27 1007 9 10000 4.63 240 04:27 13.04.2021
356 Clear 31 1007 7 10000 6.17 230 01:37 13.04.2021
357 Clear 31 1007 8 10000 6.69 200 23:59 12.04.2021
358 Clear 31 1007 8 10000 5.66 200 23:39 12.04.2021
359 Clear 31 1007 8 10000 3.6 230 23:18 12.04.2021
360 Clear 30 1008 10 10000 6.17 240 22:38 12.04.2021
361 Clear 29 1009 12 10000 5.95 231 21:56 12.04.2021
362 Clear 29 1009 12 10000 4.63 260 21:36 12.04.2021
363 Clear 29 1009 12 10000 4.63 260 21:18 12.04.2021
364 Clear 28 1009 16 10000 4.12 250 20:37 12.04.2021
365 Clear 28 1009 16 10000 4.12 250 20:19 12.04.2021
366 Clear 27 1010 17 10000 2.06 0 19:42 12.04.2021
367 Clear 26 1010 20 10000 1.54 240 19:21 12.04.2021
368 Clear 26 1010 20 10000 1.54 240 19:21 12.04.2021
369 Clear 26 1009 21 10000 1.34 144 18:53 12.04.2021
370 Clear 26 1009 21 10000 1.34 144 18:53 12.04.2021
371 Clear 25 1009 25 10000 1.54 110 18:35 12.04.2021
372 Clear 25 1009 25 10000 0.89 0 17:59 12.04.2021
373 Clear 24 1009 27 10000 1.34 194 17:41 12.04.2021
374 Clear 23 1009 28 10000 4.12 130 17:19 12.04.2021
375 Clouds 21 1009 38 10000 0.45 0 16:42 12.04.2021
376 Clear 20 1009 37 10000 5.14 130 16:24 12.04.2021
377 Clouds 19 1008 32 10000 1.54 130 15:45 12.04.2021
378 Clouds 18 1008 32 10000 1.54 130 15:21 12.04.2021
379 Clouds 18 1008 30 10000 2.57 110 14:48 12.04.2021
380 Clouds 18 1008 30 10000 2.57 110 14:28 12.04.2021
381 Clouds 19 1008 31 10000 2.06 90 13:42 12.04.2021
382 Clouds 19 1008 31 10000 2.06 90 13:21 12.04.2021
383 Clouds 20 1008 27 10000 1.54 80 12:44 12.04.2021
384 Clouds 20 1008 27 10000 1.54 80 12:23 12.04.2021
385 Clear 20 1008 28 10000 1.54 100 11:47 12.04.2021
386 Clear 20 1009 26 10000 3.09 160 10:53 12.04.2021
387 Clear 20 1009 26 10000 3.09 160 10:28 12.04.2021
388 Clouds 21 1009 25 10000 1.29 169 09:54 12.04.2021
389 Clouds 21 1009 25 10000 1.29 169 09:33 12.04.2021
390 Clouds 22 1009 27 10000 1.54 200 08:59 12.04.2021
391 Clouds 22 1009 27 10000 1.54 200 08:27 12.04.2021
392 Clear 23 1008 25 10000 3.6 250 07:31 12.04.2021
393 Clear 24 1008 21 10000 4.63 230 06:47 12.04.2021
394 Clear 25 1006 11 10000 3.6 220 05:48 12.04.2021
395 Clear 29 1005 8 10000 5.14 250 03:58 12.04.2021
396 Clouds 31 1006 8 10000 2.06 280 00:46 12.04.2021
397 Clouds 31 1006 8 10000 2.06 280 00:23 12.04.2021
398 Clouds 31 1007 8 10000 3.6 310 23:44 11.04.2021
399 Clouds 31 1007 8 10000 3.6 310 23:22 11.04.2021
400 Clouds 30 1008 8 10000 3.09 60 22:39 11.04.2021
401 Clouds 30 1008 8 10000 3.09 60 22:20 11.04.2021
402 Clear 29 1009 8 10000 1.54 20 21:45 11.04.2021
403 Clear 29 1009 8 10000 1.54 20 21:25 11.04.2021
404 Clouds 28 1010 9 10000 2.06 200 20:49 11.04.2021
405 Clouds 28 1010 9 10000 2.06 200 20:25 11.04.2021
406 Clear 28 1011 10 10000 3.09 170 19:44 11.04.2021
407 Clear 27 1011 10 10000 3.09 170 19:21 11.04.2021
408 Clouds 27 1010 13 10000 0.89 180 18:58 11.04.2021
409 Clouds 26 1010 13 10000 0.89 209 18:40 11.04.2021
410 Clear 25 1011 11 10000 3.09 180 18:22 11.04.2021
411 Clear 23 1011 13 10000 4.63 150 17:41 11.04.2021
412 Clear 22 1011 13 10000 4.63 150 17:22 11.04.2021
413 Clear 18 1010 16 10000 4.63 150 16:46 11.04.2021
414 Clear 18 1011 14 10000 5.14 160 16:22 11.04.2021
415 Clear 15 1009 18 10000 3.09 130 15:47 11.04.2021
416 Clear 15 1009 18 10000 3.09 130 15:26 11.04.2021
417 Clear 15 1009 17 10000 2.06 130 14:52 11.04.2021
418 Clear 15 1009 17 10000 2.06 130 14:27 11.04.2021
419 Clear 17 1009 17 10000 3.6 130 13:47 11.04.2021
420 Clear 16 1009 17 10000 3.6 130 13:28 11.04.2021
421 Clear 16 1009 15 10000 2.06 160 12:44 11.04.2021
422 Clear 16 1009 15 10000 2.06 160 12:20 11.04.2021
423 Clear 17 1009 17 10000 3.09 140 11:48 11.04.2021
424 Clear 18 1009 17 10000 3.09 140 11:22 11.04.2021
425 Clear 18 1010 15 10000 4.12 140 10:47 11.04.2021
426 Clear 19 1010 15 10000 4.12 140 10:26 11.04.2021
427 Clear 19 1010 14 10000 3.6 140 09:53 11.04.2021
428 Clear 19 1010 14 10000 3.6 140 09:32 11.04.2021
429 Clear 21 1010 12 10000 3.09 140 08:41 11.04.2021
430 Clear 22 1010 10 10000 3.09 270 07:59 11.04.2021
431 Clear 23 1010 10 10000 3.09 270 07:21 11.04.2021
432 Clear 26 1009 7 10000 4.63 240 05:59 11.04.2021
433 Clear 26 1009 7 10000 4.63 240 05:37 11.04.2021
434 Clear 26 1009 7 10000 4.63 240 05:18 11.04.2021
435 Clear 28 1008 6 10000 4.12 270 04:33 11.04.2021
436 Clear 32 1008 5 10000 3.6 240 01:31 11.04.2021
437 Clear 32 1009 5 10000 5.14 300 00:32 11.04.2021
438 Clear 31 1009 5 10000 6.17 240 23:46 10.04.2021
439 Clear 31 1011 5 10000 5.66 270 22:58 10.04.2021
440 Clear 30 1011 5 10000 4.12 240 22:30 10.04.2021
441 Clear 30 1011 6 10000 6.17 180 21:54 10.04.2021
442 Clear 30 1012 6 10000 3.6 290 21:32 10.04.2021
443 Clear 29 1014 5 10000 1.98 268 20:58 10.04.2021
444 Clear 29 1013 7 10000 1.98 268 20:40 10.04.2021
445 Clear 28 1013 7 10000 1.51 257 20:21 10.04.2021
446 Clouds 27 1013 7 10000 2.57 190 19:43 10.04.2021
447 Clouds 27 1013 7 10000 2.57 190 19:24 10.04.2021
448 Clear 25 1013 12 10000 0.89 201 18:42 10.04.2021
449 Clouds 24 1013 9 10000 3.09 160 18:24 10.04.2021
450 Clear 22 1013 15 10000 0.89 76 17:36 10.04.2021
451 Clear 16 1013 15 10000 4.12 150 16:54 10.04.2021
452 Clear 16 1013 15 10000 4.12 150 16:26 10.04.2021
453 Clear 13 1013 15 10000 3.09 150 15:53 10.04.2021
454 Clear 13 1013 18 10000 4.12 160 14:57 10.04.2021
455 Clear 14 1013 18 10000 4.12 160 14:37 10.04.2021
456 Clear 12 1013 15 10000 1.54 150 13:59 10.04.2021
457 Clear 12 1013 15 10000 1.54 150 13:39 10.04.2021
458 Clear 14 1013 17 10000 4.63 150 12:48 10.04.2021
459 Clear 15 1013 17 10000 4.63 150 12:26 10.04.2021
460 Clear 16 1013 13 10000 4.12 150 11:46 10.04.2021
461 Clear 14 1013 13 10000 4.12 150 11:23 10.04.2021
462 Clear 17 1013 13 10000 3.09 160 10:52 10.04.2021
463 Clear 18 1013 13 10000 3.09 160 10:31 10.04.2021
464 Clear 19 1013 12 10000 3.09 160 09:45 10.04.2021
465 Clear 18 1013 12 10000 3.09 160 09:19 10.04.2021
466 Clear 18 1013 12 10000 3.09 160 09:19 10.04.2021
467 Clear 19 1013 11 10000 3.6 250 08:38 10.04.2021
468 Clear 19 1013 11 10000 3.6 250 08:18 10.04.2021
469 Clear 21 1013 11 10000 2.57 260 07:27 10.04.2021
470 Clear 22 1012 9 10000 2.57 310 06:46 10.04.2021
471 Clear 24 1012 8 10000 2.06 320 05:36 10.04.2021
472 Clear 28 1011 7 10000 6.69 310 03:46 10.04.2021
473 Clear 29 1011 6 10000 7.72 310 02:49 10.04.2021
474 Clear 30 1011 7 10000 6.69 330 01:43 10.04.2021
475 Clear 30 1012 6 10000 6.17 280 00:37 10.04.2021
476 Clear 30 1013 7 10000 5.14 290 23:59 09.04.2021
477 Clear 30 1013 7 10000 5.14 290 23:36 09.04.2021
478 Clear 30 1013 10 10000 3.6 280 22:57 09.04.2021
479 Clear 30 1013 10 10000 3.6 280 22:37 09.04.2021
480 Clouds 29 1014 11 10000 4.63 330 21:41 09.04.2021
481 Clouds 29 1014 11 10000 4.63 330 21:22 09.04.2021
482 Clear 29 1015 14 10000 3.63 290 20:59 09.04.2021
483 Clear 28 1014 16 10000 4.12 290 20:40 09.04.2021
484 Clear 28 1014 16 10000 4.12 290 20:21 09.04.2021
485 Clear 27 1014 19 10000 1.54 330 19:43 09.04.2021
486 Clear 26 1014 19 10000 1.54 330 19:22 09.04.2021
487 Clear 25 1014 21 10000 0.45 193 18:44 09.04.2021
488 Clear 24 1014 21 10000 1.54 230 18:25 09.04.2021
489 Clear 23 1014 25 10000 0.89 0 17:49 09.04.2021
490 Clear 22 1014 24 10000 2.57 160 17:31 09.04.2021
491 Clear 21 1005 28 10000 1.34 160 16:55 09.04.2021
492 Clear 19 1014 29 10000 2.57 150 16:30 09.04.2021
493 Clear 15 1012 33 10000 4.12 140 15:47 09.04.2021
494 Clear 16 1012 33 10000 4.12 140 15:24 09.04.2021
495 Clear 16 1012 31 10000 2.57 120 14:47 09.04.2021
496 Clear 16 1012 31 10000 2.57 120 14:29 09.04.2021
497 Clear 17 1012 27 10000 3.6 100 13:47 09.04.2021
498 Clear 16 1012 27 10000 3.6 100 13:22 09.04.2021
499 Clear 17 1012 27 10000 2.57 120 12:47 09.04.2021
500 Clear 17 1012 27 10000 2.57 120 12:47 09.04.2021
501 Clear 17 1012 27 10000 2.57 120 12:24 09.04.2021
502 Clear 18 1012 25 10000 3.09 120 11:43 09.04.2021
503 Clear 19 1012 25 10000 3.09 120 11:20 09.04.2021
504 Clear 19 1012 24 10000 3.09 160 10:37 09.04.2021
505 Clear 20 1012 21 10000 1.54 140 09:59 09.04.2021
506 Clear 21 1012 21 10000 1.54 140 09:28 09.04.2021
507 Clear 21 1012 18 10000 1.54 230 08:56 09.04.2021
508 Clear 21 1012 18 10000 1.54 230 08:33 09.04.2021
509 Clear 22 1012 17 10000 3.6 230 07:32 09.04.2021
510 Clear 24 1012 14 10000 3.6 230 06:30 09.04.2021
511 Clear 24 1012 14 10000 3.6 230 06:30 09.04.2021
512 Clear 25 1011 12 10000 4.63 260 05:44 09.04.2021
513 Clear 29 1010 10 10000 7.72 270 03:43 09.04.2021
514 Clear 31 1012 8 10000 6.17 280 00:39 09.04.2021
515 Clear 31 1012 8 10000 6.17 280 00:21 09.04.2021
516 Clear 31 1013 9 10000 7.2 250 23:38 08.04.2021
517 Clear 30 1013 9 10000 5.14 290 22:56 08.04.2021
518 Clear 30 1013 9 10000 5.66 240 22:36 08.04.2021
519 Clear 30 1013 10 10000 4.63 230 22:18 08.04.2021
520 Clear 29 1014 10 10000 6.69 310 21:41 08.04.2021
521 Clear 29 1014 10 10000 6.69 310 21:22 08.04.2021
522 Clear 29 1016 9 10000 3.09 290 20:59 08.04.2021
523 Clear 28 1015 10 10000 7.2 290 20:40 08.04.2021
524 Clear 28 1015 10 10000 7.2 290 20:19 08.04.2021
525 Clear 27 1015 11 10000 4.63 300 19:40 08.04.2021
526 Clear 27 1015 11 10000 4.63 300 19:19 08.04.2021
527 Clear 26 1016 13 10000 3.09 270 18:42 08.04.2021
528 Clear 25 1016 13 10000 3.09 270 18:42 08.04.2021
529 Clear 25 1016 13 10000 3.09 270 18:19 08.04.2021
530 Clouds 23 1018 14 10000 0.89 260 17:42 08.04.2021
531 Clear 22 1016 14 10000 1.4 155 17:20 08.04.2021
532 Clear 19 1015 13 10000 3.09 150 16:45 08.04.2021
533 Clear 17 1015 13 10000 3.09 150 16:22 08.04.2021
534 Clear 14 1015 12 10000 2.57 150 15:46 08.04.2021
535 Clear 14 1015 12 10000 2.57 150 15:26 08.04.2021
536 Clear 16 1015 11 10000 1.73 146 14:43 08.04.2021
537 Clear 13 1015 11 10000 1.47 145 14:21 08.04.2021
538 Clear 14 1015 10 10000 3.6 130 13:49 08.04.2021
539 Clear 14 1015 10 10000 3.6 130 13:24 08.04.2021
540 Clear 16 1015 10 10000 4.12 140 12:58 08.04.2021
541 Clear 17 1015 10 10000 4.12 140 12:34 08.04.2021
542 Clear 16 1016 10 10000 3.09 120 11:57 08.04.2021
543 Clear 17 1016 10 10000 3.09 120 11:27 08.04.2021
544 Clear 18 1016 8 10000 3.09 150 10:56 08.04.2021
545 Clear 18 1016 8 10000 3.09 150 10:26 08.04.2021
546 Clear 19 1017 7 10000 2.57 160 09:46 08.04.2021
547 Clear 18 1016 8 10000 2.57 200 09:27 08.04.2021
548 Clear 19 1016 8 10000 2.57 200 08:44 08.04.2021
549 Clear 19 1016 8 10000 2.57 200 08:22 08.04.2021
550 Clear 20 1016 7 10000 2.57 220 07:46 08.04.2021
551 Clear 22 1016 6 10000 1.07 322 06:46 08.04.2021
552 Clear 30 1015 3 10000 6.17 280 01:27 08.04.2021
553 Clear 30 1016 3 10000 5.66 300 00:32 08.04.2021
554 Clear 30 1017 5 10000 3.09 240 23:48 07.04.2021
555 Clear 30 1017 5 10000 3.09 240 23:27 07.04.2021
556 Clear 29 1017 5 10000 4.12 310 22:58 07.04.2021
557 Clear 29 1017 5 10000 4.12 310 22:39 07.04.2021
558 Clear 29 1017 5 10000 4.12 310 22:20 07.04.2021
559 Clear 28 1018 4 10000 2.06 140 21:34 07.04.2021
560 Clear 27 1018 6 10000 1.54 320 20:56 07.04.2021
561 Clear 26 1018 6 10000 1.54 320 20:37 07.04.2021
562 Clear 26 1018 6 10000 1.54 320 20:18 07.04.2021
563 Clear 25 1019 6 10000 2.48 280 19:40 07.04.2021
564 Clear 24 1019 6 10000 1.1 240 19:22 07.04.2021
565 Clear 23 1018 8 10000 1.1 240 18:42 07.04.2021
566 Clear 22 1018 8 10000 0.98 186 18:18 07.04.2021
567 Clear 21 1018 14 10000 2.06 130 17:47 07.04.2021
568 Clear 20 1018 14 10000 2.06 130 17:28 07.04.2021
569 Clear 17 1017 22 10000 3.6 160 16:46 07.04.2021
570 Clear 15 1017 22 10000 3.6 160 16:21 07.04.2021
571 Clear 13 1017 22 10000 4.12 140 15:53 07.04.2021
572 Clear 13 1017 22 10000 4.12 140 15:53 07.04.2021
573 Clear 13 1017 22 10000 4.12 140 15:32 07.04.2021
574 Clear 13 1016 22 10000 4.12 150 14:43 07.04.2021
575 Clear 14 1016 22 10000 4.12 150 14:20 07.04.2021
576 Clear 15 1016 22 10000 3.6 240 13:39 07.04.2021
577 Clear 15 1016 22 10000 3.6 240 13:20 07.04.2021
578 Clear 16 1016 21 10000 2.57 220 12:46 07.04.2021
579 Clear 16 1016 21 10000 2.57 220 12:19 07.04.2021
580 Clear 16 1016 18 10000 2.06 150 11:45 07.04.2021
581 Clear 17 1016 18 10000 2.06 150 11:22 07.04.2021
582 Clear 17 1016 17 10000 1.54 190 10:50 07.04.2021
583 Clear 19 1016 16 10000 2.06 200 09:50 07.04.2021
584 Clear 19 1016 16 10000 2.06 200 09:28 07.04.2021
585 Clear 19 1016 15 10000 2.57 230 08:53 07.04.2021
586 Clear 20 1016 15 10000 2.57 230 08:31 07.04.2021
587 Clear 21 1015 13 10000 2.57 220 07:54 07.04.2021
588 Clear 21 1015 13 10000 2.57 220 07:29 07.04.2021
589 Clear 22 1014 12 10000 3.09 280 06:42 07.04.2021
590 Clear 24 1013 12 10000 4.12 300 05:42 07.04.2021
591 Clear 29 1011 7 10000 6.17 270 01:52 07.04.2021
592 Clear 30 1011 8 10000 8.75 280 23:49 06.04.2021
593 Clear 29 1011 8 10000 8.75 280 23:22 06.04.2021
594 Clear 29 1012 8 10000 5.14 240 22:57 06.04.2021
595 Clear 29 1012 8 10000 4.63 250 22:21 06.04.2021
596 Clear 28 1012 9 10000 7.2 240 21:55 06.04.2021
597 Clear 28 1012 9 10000 6.17 280 21:37 06.04.2021
598 Clear 28 1012 9 10000 6.17 280 21:18 06.04.2021
599 Clear 27 1013 11 10000 4.63 300 20:41 06.04.2021
600 Clear 27 1013 11 10000 4.63 300 20:20 06.04.2021
601 Clear 26 1013 10 10000 3.09 230 19:44 06.04.2021
602 Clear 25 1013 12 10000 4.63 200 19:25 06.04.2021
603 Clear 24 1013 13 10000 3.09 270 18:45 06.04.2021
604 Clear 24 1013 13 10000 3.09 270 18:22 06.04.2021
605 Clear 23 1012 14 10000 2.06 260 17:45 06.04.2021
606 Clear 22 1012 14 10000 2.06 260 17:20 06.04.2021
607 Clear 21 1011 18 10000 3.09 230 16:49 06.04.2021
608 Clear 20 1011 18 10000 3.09 230 16:30 06.04.2021
609 Clear 19 1011 19 10000 3.21 254 15:28 06.04.2021
610 Clear 19 1010 21 10000 2.06 260 14:51 06.04.2021
611 Clear 19 1010 21 10000 2.06 260 14:32 06.04.2021
612 Clear 20 1009 21 10000 2.57 250 13:59 06.04.2021
613 Clear 20 1009 21 10000 2.57 250 13:39 06.04.2021
614 Clear 20 1009 21 10000 2.57 250 13:20 06.04.2021
615 Clear 20 1009 19 10000 3.6 260 12:38 06.04.2021
616 Clear 21 1009 19 10000 3.6 260 12:19 06.04.2021
617 Clear 21 1010 18 10000 1.54 220 11:48 06.04.2021
618 Clear 21 1010 18 10000 1.54 220 11:20 06.04.2021
619 Clear 21 1010 17 10000 2.89 273 10:46 06.04.2021
620 Clear 21 1010 17 10000 3.08 269 10:24 06.04.2021
621 Clear 21 1010 15 10000 2.06 250 09:47 06.04.2021
622 Clear 22 1010 15 10000 2.06 250 09:26 06.04.2021
623 Clear 23 1010 14 10000 3.6 250 08:34 06.04.2021
624 Clear 24 1009 9 10000 3.8 277 07:33 06.04.2021
625 Clear 24 1009 7 10000 2.57 200 06:55 06.04.2021
626 Clear 27 1008 6 10000 3.09 260 04:53 06.04.2021
627 Clear 32 1009 5 10000 5.66 260 01:34 06.04.2021
628 Clear 33 1009 5 10000 6.69 290 00:42 06.04.2021
629 Clear 33 1009 5 10000 6.17 270 00:20 06.04.2021
630 Clear 33 1009 6 10000 7.2 260 23:42 05.04.2021
631 Clear 32 1010 6 10000 4.63 280 23:18 05.04.2021
632 Clear 32 1012 6 10000 2.57 0 22:41 05.04.2021
633 Clear 32 1012 6 10000 2.57 0 22:22 05.04.2021
634 Clouds 31 1011 9 10000 0.89 308 21:39 05.04.2021
635 Clouds 30 1012 6 10000 2.57 250 21:19 05.04.2021
636 Clouds 29 1013 7 10000 2.06 360 20:42 05.04.2021
637 Clouds 29 1013 7 10000 2.06 360 20:22 05.04.2021
638 Clouds 28 1013 8 10000 1.54 170 19:39 05.04.2021
639 Clouds 27 1013 8 10000 1.54 170 19:19 05.04.2021
640 Clear 26 1013 12 10000 3.09 120 18:42 05.04.2021
641 Clear 25 1013 12 10000 3.09 120 18:23 05.04.2021
642 Clear 23 1014 14 10000 3.09 150 17:47 05.04.2021
643 Clear 22 1014 14 10000 3.09 150 17:24 05.04.2021
644 Clear 17 1013 17 10000 4.63 130 16:56 05.04.2021
645 Clear 16 1013 17 10000 4.63 130 16:37 05.04.2021
646 Clear 16 1013 17 10000 4.63 130 16:18 05.04.2021
647 Clear 14 1012 23 10000 3.09 140 15:40 05.04.2021
648 Clear 15 1012 23 10000 3.09 140 15:21 05.04.2021
649 Clear 16 1012 21 10000 3.6 120 14:36 05.04.2021
650 Clear 17 1012 21 10000 3.6 120 14:36 05.04.2021
651 Clear 16 1012 20 10000 3.09 130 13:54 05.04.2021
652 Clear 18 1012 20 10000 3.09 130 13:29 05.04.2021
653 Clear 18 1013 17 10000 2.57 150 12:47 05.04.2021
654 Clear 18 1013 17 10000 2.57 150 12:47 05.04.2021
655 Clear 18 1013 17 10000 2.57 150 12:26 05.04.2021
656 Clear 18 1013 17 10000 3.09 150 11:52 05.04.2021
657 Clear 19 1013 17 10000 3.09 150 11:30 05.04.2021
658 Clear 20 1014 14 10000 2.06 120 10:56 05.04.2021
659 Clear 20 1014 14 10000 2.06 120 10:56 05.04.2021
660 Clear 21 1014 14 10000 2.06 120 10:35 05.04.2021
661 Clear 21 1014 14 10000 2.57 170 09:49 05.04.2021
662 Clear 22 1014 14 10000 2.57 170 09:26 05.04.2021
663 Clear 23 1014 15 10000 3.09 150 08:50 05.04.2021
664 Clear 23 1014 15 10000 3.09 150 08:27 05.04.2021
665 Clear 24 1014 13 10000 1.64 311 07:58 05.04.2021
666 Clear 25 1014 13 10000 1.64 311 07:33 05.04.2021
667 Clear 31 1013 7 10000 5.14 300 03:42 05.04.2021
668 Clear 34 1014 7 10000 4.63 270 00:56 05.04.2021
669 Clear 34 1014 7 10000 4.63 270 00:19 05.04.2021
670 Clear 34 1016 8 10000 2.57 330 23:32 04.04.2021
671 Clear 33 1017 8 10000 1.54 210 22:58 04.04.2021
672 Clear 33 1017 8 10000 1.54 210 22:34 04.04.2021
673 Clear 33 1017 8 10000 1.54 210 22:34 04.04.2021
674 Clear 33 1017 9 10000 2.57 350 21:57 04.04.2021
675 Clear 32 1017 9 10000 2.57 350 21:21 04.04.2021
676 Clear 31 1018 10 10000 1.21 266 20:43 04.04.2021
677 Clear 30 1018 12 10000 2.06 360 20:23 04.04.2021
678 Clear 29 1018 14 10000 0.61 232 19:40 04.04.2021
679 Clear 28 1018 14 10000 0.92 163 19:19 04.04.2021
680 Clear 27 1018 18 10000 0.89 292 18:51 04.04.2021
681 Clear 26 1018 16 10000 1.26 151 18:25 04.04.2021
682 Clear 25 1018 21 10000 0.45 0 17:59 04.04.2021
683 Clear 23 1018 19 10000 4.12 150 17:25 04.04.2021
684 Clear 16 1018 29 10000 4.12 160 16:57 04.04.2021
685 Clear 15 1018 29 10000 4.12 160 16:38 04.04.2021
686 Clear 14 1017 28 10000 1.54 120 15:54 04.04.2021
687 Clear 14 1017 28 10000 1.54 120 15:31 04.04.2021
688 Clear 15 1017 26 10000 3.09 140 14:40 04.04.2021
689 Clear 15 1017 26 10000 3.09 140 14:20 04.04.2021
690 Clear 17 1017 26 10000 3.6 150 13:27 04.04.2021
691 Clear 16 1017 25 10000 2.57 150 12:52 04.04.2021
692 Clear 16 1017 25 10000 2.57 150 12:28 04.04.2021
693 Clear 17 1017 23 10000 3.09 140 11:50 04.04.2021
694 Clear 18 1017 23 10000 3.09 140 11:30 04.04.2021
695 Clear 18 1018 24 10000 3.09 160 10:54 04.04.2021
696 Clear 19 1018 24 10000 3.09 160 10:32 04.04.2021
697 Clear 20 1018 20 10000 2.57 140 09:50 04.04.2021
698 Clear 21 1018 20 10000 2.57 140 09:23 04.04.2021
699 Clear 21 1017 19 10000 2.06 180 08:48 04.04.2021
700 Clear 21 1017 19 10000 2.06 180 08:30 04.04.2021
701 Clear 23 1017 14 10000 1.83 3 06:40 04.04.2021
702 Clear 25 1016 13 10000 3.09 290 05:44 04.04.2021
703 Clear 25 1016 13 10000 3.09 290 05:44 04.04.2021
704 Clear 30 1016 10 10000 5.66 290 02:59 04.04.2021
705 Clear 32 1016 9 10000 2.57 50 00:55 04.04.2021
706 Clear 32 1016 9 10000 2.57 50 00:18 04.04.2021
707 Clear 32 1017 8 10000 2.92 290 23:41 03.04.2021
708 Clear 31 1017 11 10000 2.57 280 22:56 03.04.2021
709 Clear 31 1017 11 10000 2.57 280 22:38 03.04.2021
710 Clear 31 1017 11 10000 2.57 280 22:19 03.04.2021
711 Clear 31 1018 9 10000 2.65 286 21:46 03.04.2021
712 Clear 30 1018 11 10000 4.12 300 21:22 03.04.2021
713 Clear 29 1019 10 10000 2.06 0 20:43 03.04.2021
714 Clear 29 1019 10 10000 2.06 0 20:24 03.04.2021
715 Clear 27 1019 11 10000 1.54 160 19:46 03.04.2021
716 Clear 27 1019 11 10000 1.54 160 19:20 03.04.2021
717 Clear 25 1018 17 10000 0.45 215 18:46 03.04.2021
718 Clear 24 1018 16 10000 2.06 180 18:23 03.04.2021
719 Clear 23 1018 21 10000 0.89 0 17:50 03.04.2021
720 Clear 21 1019 19 10000 3.09 170 17:21 03.04.2021
721 Clear 14 1017 25 10000 4.12 150 16:45 03.04.2021
722 Clear 16 1017 25 10000 4.12 150 16:21 03.04.2021
723 Clear 16 1017 25 10000 4.12 150 16:21 03.04.2021
724 Clear 13 1017 28 10000 4.63 150 15:46 03.04.2021
725 Clear 13 1017 28 10000 4.63 150 15:21 03.04.2021
726 Clear 12 1016 28 10000 3.6 140 14:42 03.04.2021
727 Clear 12 1016 28 10000 3.6 140 14:22 03.04.2021
728 Clear 15 1016 26 10000 3.6 150 13:48 03.04.2021
729 Clear 15 1016 26 10000 3.6 150 13:23 03.04.2021
730 Clear 17 1016 25 10000 4.12 140 12:49 03.04.2021
731 Clear 17 1016 25 10000 4.12 140 12:21 03.04.2021
732 Clear 17 1016 25 10000 4.12 140 12:21 03.04.2021
733 Clear 17 1016 23 10000 4.12 150 11:38 03.04.2021
734 Clear 18 1016 21 10000 3.6 160 10:51 03.04.2021
735 Clear 18 1017 19 10000 2.06 170 10:31 03.04.2021
736 Clear 18 1016 19 10000 3.09 150 09:54 03.04.2021
737 Clear 19 1016 19 10000 3.09 150 09:28 03.04.2021
738 Clear 20 1015 18 10000 1.54 200 08:47 03.04.2021
739 Clear 21 1015 18 10000 1.54 200 08:28 03.04.2021
740 Clear 22 1015 16 10000 2.57 290 07:28 03.04.2021
741 Clear 24 1014 11 10000 3.6 290 05:50 03.04.2021
742 Clear 27 1013 12 10000 2.24 0 03:50 03.04.2021
743 Clear 29 1013 10 10000 6.69 280 02:49 03.04.2021
744 Clear 30 1013 10 10000 6.69 280 02:23 03.04.2021
745 Clear 31 1013 10 10000 2.57 270 00:20 03.04.2021
746 Clear 31 1013 10 10000 4.12 290 23:48 02.04.2021
747 Clear 30 1013 10 10000 4.12 290 23:24 02.04.2021
748 Clear 30 1014 11 10000 2.06 290 22:52 02.04.2021
749 Clear 30 1014 11 10000 2.06 290 22:33 02.04.2021
750 Clear 30 1014 13 10000 2.57 330 21:46 02.04.2021
751 Clear 29 1014 13 10000 2.57 330 21:23 02.04.2021
752 Clear 29 1015 10 10000 2.57 0 20:48 02.04.2021
753 Clear 28 1015 12 10000 3.09 320 20:28 02.04.2021
754 Clear 28 1015 11 10000 1.54 250 19:57 02.04.2021
755 Clear 28 1015 11 10000 1.54 250 19:38 02.04.2021
756 Clear 26 1015 11 10000 1.54 250 19:20 02.04.2021
757 Clear 26 1015 14 10000 4.12 170 18:38 02.04.2021
758 Clear 25 1015 14 10000 4.12 170 18:20 02.04.2021
759 Clear 23 1015 18 10000 4.63 150 17:37 02.04.2021
760 Clear 20 1015 26 10000 0.89 0 16:48 02.04.2021
761 Clouds 18 1014 25 10000 3.6 130 15:54 02.04.2021
762 Clouds 17 1014 25 10000 3.6 130 15:32 02.04.2021
763 Clouds 18 1013 22 10000 4.12 130 14:48 02.04.2021
764 Clouds 18 1014 20 10000 4.63 150 14:27 02.04.2021
765 Clouds 19 1014 20 10000 4.63 150 13:42 02.04.2021
766 Clouds 19 1014 20 10000 4.63 150 13:19 02.04.2021
767 Clouds 19 1013 19 10000 3.09 110 12:40 02.04.2021
768 Clouds 20 1013 19 10000 3.09 110 12:20 02.04.2021
769 Clouds 20 1013 19 10000 3.09 110 12:20 02.04.2021
770 Clouds 20 1013 15 10000 5.14 170 11:53 02.04.2021
771 Clouds 21 1013 15 10000 5.14 170 11:20 02.04.2021
772 Clouds 21 1013 15 10000 5.14 170 11:20 02.04.2021
773 Clouds 21 1013 16 10000 6.69 130 10:45 02.04.2021
774 Clouds 21 1013 16 10000 6.69 130 10:27 02.04.2021
775 Clear 22 1013 16 10000 3.6 130 09:52 02.04.2021
776 Clear 22 1013 16 10000 3.6 130 09:26 02.04.2021
777 Clear 22 1013 16 10000 3.6 130 09:26 02.04.2021
778 Clear 23 1013 15 10000 2.06 100 08:49 02.04.2021
779 Clear 23 1013 15 10000 2.06 100 08:28 02.04.2021
780 Clear 24 1013 15 10000 3.09 80 07:23 02.04.2021
781 Clear 24 1013 15 10000 5.66 80 06:46 02.04.2021
782 Clear 28 1012 10 10000 5.66 70 04:18 02.04.2021
783 Clear 31 1012 8 10000 7.2 70 02:20 02.04.2021
784 Clear 31 1014 7 10000 8.23 110 00:47 02.04.2021
785 Clear 31 1013 8 10000 9.26 130 00:18 02.04.2021
786 Clear 31 1013 8 10000 9.26 130 00:18 02.04.2021
787 Clouds 31 1014 8 10000 8.75 130 23:30 01.04.2021
788 Clear 30 1015 8 10000 10.29 140 22:52 01.04.2021
789 Clear 30 1015 8 10000 10.29 140 22:19 01.04.2021
790 Clear 29 1016 8 10000 11.32 140 21:49 01.04.2021
791 Clear 29 1016 8 10000 11.32 140 21:25 01.04.2021
792 Clear 28 1017 9 10000 10.8 130 20:43 01.04.2021
793 Clear 27 1017 9 10000 10.8 130 20:24 01.04.2021
794 Clear 26 1017 10 10000 11.83 130 19:46 01.04.2021
795 Clear 25 1017 10 10000 11.83 130 19:27 01.04.2021
796 Clear 24 1017 9 10000 3.6 90 18:45 01.04.2021
797 Clear 24 1017 9 10000 3.6 90 18:18 01.04.2021
798 Clear 23 1018 11 10000 3.6 120 17:51 01.04.2021
799 Clear 22 1018 11 10000 3.6 120 17:29 01.04.2021
800 Clear 20 1018 11 10000 7.72 130 16:51 01.04.2021
801 Clear 19 1017 15 10000 4.63 100 16:27 01.04.2021
802 Clear 18 1017 15 10000 5.14 120 15:46 01.04.2021
803 Clear 18 1017 15 10000 5.14 120 15:19 01.04.2021
804 Clear 18 1017 15 10000 5.14 120 15:19 01.04.2021
805 Clear 17 1017 15 10000 4.12 120 14:43 01.04.2021
806 Clear 18 1017 15 10000 4.12 120 14:24 01.04.2021
807 Clear 19 1017 12 10000 4.63 120 13:55 01.04.2021
808 Clear 19 1017 12 10000 4.63 120 13:30 01.04.2021
809 Clear 19 1018 11 10000 6.17 130 12:51 01.04.2021
810 Clear 19 1018 11 10000 6.17 130 12:31 01.04.2021
811 Clouds 19 1018 12 10000 2.57 110 11:49 01.04.2021
812 Clouds 20 1018 12 10000 2.57 110 11:24 01.04.2021
813 Clear 19 1018 11 10000 2.57 120 10:53 01.04.2021
814 Clear 20 1018 11 10000 2.57 120 10:35 01.04.2021
815 Clear 19 1019 10 10000 2.06 110 09:54 01.04.2021
816 Clear 19 1019 10 10000 2.06 110 09:27 01.04.2021
817 Clear 19 1019 14 10000 2.57 110 08:33 01.04.2021
818 Clear 21 1019 12 10000 1.54 80 07:59 01.04.2021
819 Clear 20 1019 12 10000 1.54 80 07:20 01.04.2021
820 Clear 21 1018 9 10000 3.6 340 06:47 01.04.2021
821 Clear 26 1017 9 10000 1.79 0 03:52 01.04.2021
822 Clear 30 1018 6 10000 3.09 340 00:59 01.04.2021
823 Clear 29 1019 6 10000 3.24 96 23:44 31.03.2021
824 Clear 29 1019 6 10000 3.24 96 23:44 31.03.2021
825 Clear 29 1019 6 10000 3.22 102 23:19 31.03.2021
826 Clear 28 1019 7 10000 1.54 80 22:41 31.03.2021
827 Clear 28 1019 7 10000 1.54 80 22:20 31.03.2021
828 Clear 28 1021 7 10000 3.6 10 21:46 31.03.2021
829 Clear 27 1020 7 10000 1.54 120 21:23 31.03.2021
830 Clear 27 1022 8 10000 2.57 80 20:56 31.03.2021
831 Clear 26 1022 8 10000 2.57 80 20:38 31.03.2021
832 Clear 25 1021 10 10000 3.6 30 20:18 31.03.2021
833 Clear 24 1022 11 10000 2.57 40 19:38 31.03.2021
834 Clear 23 1022 12 10000 2.57 60 19:18 31.03.2021
835 Clear 22 1022 13 10000 3.67 105 18:49 31.03.2021
836 Clear 20 1021 16 10000 4.12 150 17:58 31.03.2021
837 Clear 19 1021 16 10000 4.12 150 17:36 31.03.2021
838 Clear 18 1021 16 10000 4.12 150 17:18 31.03.2021
839 Clear 10 1021 24 10000 2.99 98 16:42 31.03.2021
840 Clear 12 1021 24 10000 3.14 88 16:22 31.03.2021
841 Clear 9 1020 27 10000 4.12 150 15:50 31.03.2021
842 Clear 9 1020 27 10000 4.12 150 15:19 31.03.2021
843 Clear 11 1020 23 10000 1.54 50 14:44 31.03.2021
844 Clear 10 1020 23 10000 1.54 50 14:22 31.03.2021
845 Clear 12 1019 20 10000 2.57 170 13:42 31.03.2021
846 Clear 12 1019 22 10000 4.12 150 12:43 31.03.2021
847 Clear 12 1019 22 10000 4.12 150 12:42 31.03.2021
848 Clear 13 1019 22 10000 4.12 150 12:21 31.03.2021
849 Clear 13 1019 20 10000 4.12 160 11:59 31.03.2021
850 Clear 14 1019 16 10000 2.57 160 11:21 31.03.2021
851 Clear 15 1018 18 10000 2.06 160 10:47 31.03.2021
852 Clear 15 1018 18 10000 2.06 160 10:26 31.03.2021
853 Clear 15 1018 15 10000 2.57 170 09:45 31.03.2021
854 Clear 16 1018 15 10000 2.57 170 09:26 31.03.2021
855 Clear 17 1017 16 10000 2.57 190 08:39 31.03.2021
856 Clear 18 1017 13 10000 3.09 290 07:54 31.03.2021
857 Clear 20 1016 11 10000 3.6 280 06:49 31.03.2021
858 Clear 25 1013 9 10000 2.24 0 03:52 31.03.2021
859 Clear 29 1012 5 10000 7.2 260 01:43 31.03.2021
860 Clear 29 1012 4 10000 7.72 270 00:53 31.03.2021
861 Clear 29 1012 4 10000 7.72 270 00:21 31.03.2021
862 Clear 29 1012 5 10000 6.69 260 23:46 30.03.2021
863 Clear 29 1012 5 10000 6.69 260 23:19 30.03.2021
864 Clear 29 1013 6 10000 5.66 260 22:41 30.03.2021
865 Clear 28 1013 6 10000 5.66 260 22:23 30.03.2021
866 Clear 28 1014 6 10000 8.23 240 21:51 30.03.2021
867 Clear 28 1014 6 10000 8.23 240 21:23 30.03.2021
868 Clear 27 1014 8 10000 1.54 300 20:55 30.03.2021
869 Clear 26 1014 8 10000 1.54 300 20:28 30.03.2021
870 Clear 26 1014 8 10000 2.06 240 19:51 30.03.2021
871 Clear 25 1014 8 10000 2.06 240 19:28 30.03.2021
872 Clear 23 1014 10 10000 2.06 60 18:40 30.03.2021
873 Clear 22 1014 11 10000 2.06 110 18:20 30.03.2021
874 Clear 20 1014 16 10000 0.89 63 17:42 30.03.2021
875 Clear 19 1014 13 10000 3.09 140 17:23 30.03.2021
876 Clear 16 1013 21 10000 3.6 120 16:45 30.03.2021
877 Clear 15 1013 21 10000 3.6 120 16:24 30.03.2021
878 Clear 13 1012 22 10000 3.6 120 15:21 30.03.2021
879 Clear 14 1012 24 10000 4.63 130 14:57 30.03.2021
880 Clear 14 1012 24 10000 4.63 130 14:22 30.03.2021
881 Clear 15 1012 17 10000 2.57 140 13:59 30.03.2021
882 Clear 15 1012 17 10000 2.57 140 13:37 30.03.2021
883 Clear 15 1012 14 10000 1.54 110 12:49 30.03.2021
884 Clear 15 1012 14 10000 1.54 110 12:29 30.03.2021
885 Clear 16 1012 17 10000 2.36 147 11:58 30.03.2021
886 Clear 16 1012 17 10000 2.29 156 11:23 30.03.2021
887 Clear 16 1012 16 10000 3.6 180 10:46 30.03.2021
888 Clear 17 1012 16 10000 3.6 180 10:28 30.03.2021
889 Clear 17 1012 15 10000 2.06 160 09:50 30.03.2021
890 Clear 17 1012 15 10000 2.06 160 09:31 30.03.2021
891 Clouds 18 1011 22 10000 0.45 0 08:56 30.03.2021
892 Clouds 18 1011 21 10000 0.89 0 08:38 30.03.2021
893 Clear 20 1011 12 10000 1.54 210 07:52 30.03.2021
894 Clear 21 1011 12 10000 1.54 210 07:22 30.03.2021
895 Clear 23 1009 8 10000 2.06 230 05:40 30.03.2021
896 Clear 23 1009 8 10000 2.06 230 05:19 30.03.2021
897 Clear 29 1010 6 10000 5.14 280 00:33 30.03.2021
898 Clear 30 1011 8 10000 5.14 330 23:34 29.03.2021
899 Clear 30 1013 8 10000 1.54 0 22:51 29.03.2021
900 Clouds 29 1012 9 10000 3.09 360 22:26 29.03.2021
901 Clouds 29 1013 7 10000 2.06 250 21:47 29.03.2021
902 Clouds 28 1013 7 10000 2.06 250 21:27 29.03.2021
903 Clouds 28 1013 11 10000 1.79 198 20:48 29.03.2021
904 Clouds 27 1014 11 10000 2.06 150 20:27 29.03.2021
905 Clouds 27 1008 13 10000 0.89 293 19:49 29.03.2021
906 Clear 25 1015 14 10000 6.17 140 19:22 29.03.2021
907 Clouds 24 1015 17 10000 1.34 130 18:44 29.03.2021
908 Clear 22 1015 18 10000 6.17 150 18:26 29.03.2021
909 Clouds 21 1015 23 10000 1.79 0 17:50 29.03.2021
910 Clear 18 1016 23 10000 4.12 160 17:30 29.03.2021
911 Clear 16 1015 28 10000 6.69 140 16:41 29.03.2021
912 Clear 15 1015 28 10000 6.69 140 16:20 29.03.2021
913 Clear 13 1016 28 10000 4.12 150 15:35 29.03.2021
914 Clear 14 1015 25 10000 3.09 110 14:57 29.03.2021
915 Clear 14 1015 25 10000 3.09 110 14:38 29.03.2021
916 Clear 16 1016 22 10000 4.12 120 13:54 29.03.2021
917 Clear 16 1016 22 10000 4.12 120 13:30 29.03.2021
918 Clear 16 1016 22 10000 8.23 130 12:51 29.03.2021
919 Clear 16 1016 22 10000 8.23 130 12:30 29.03.2021
920 Clear 16 1017 20 10000 2.57 130 11:41 29.03.2021
921 Clear 16 1017 20 10000 2.57 130 11:22 29.03.2021
922 Clear 17 1017 19 10000 8.23 140 10:40 29.03.2021
923 Clear 18 1018 19 10000 4.63 130 09:56 29.03.2021
924 Clear 19 1019 20 10000 4.12 130 08:59 29.03.2021
925 Clear 20 1019 16 10000 5.66 110 08:29 29.03.2021
926 Clear 20 1019 18 10000 3.6 110 07:42 29.03.2021
927 Clear 21 1019 18 10000 4.12 110 06:42 29.03.2021
928 Rain 23 1019 12 10000 4.12 30 04:22 29.03.2021
929 Clear 27 1019 9 10000 5.66 30 02:21 29.03.2021
930 Clear 27 1020 10 10000 3.09 360 00:24 29.03.2021
931 Clear 27 1021 10 10000 6.69 60 23:51 28.03.2021
932 Clear 26 1021 10 10000 6.69 60 23:20 28.03.2021
933 Clear 26 1022 10 10000 4.63 110 22:42 28.03.2021
934 Clear 26 1022 10 10000 4.63 110 22:21 28.03.2021
935 Clear 25 1022 10 10000 8.23 70 21:42 28.03.2021
936 Clear 25 1023 9 10000 6.69 40 21:23 28.03.2021
937 Clear 24 1024 14 10000 3.09 110 20:50 28.03.2021
938 Clear 24 1024 14 10000 3.09 110 20:32 28.03.2021
939 Clear 23 1025 15 10000 3.09 60 19:46 28.03.2021
940 Clear 22 1025 17 10000 5.55 87 19:23 28.03.2021
941 Clear 22 1025 18 10000 2.24 0 18:58 28.03.2021
942 Clear 21 1021 19 10000 2.24 318 18:32 28.03.2021
943 Clear 19 1025 25 10000 3.6 120 17:55 28.03.2021
944 Clear 17 1025 25 10000 3.6 120 17:32 28.03.2021
945 Clear 16 1025 30 10000 0.89 182 16:47 28.03.2021
946 Clear 16 1025 30 10000 3.75 90 16:47 28.03.2021
947 Clear 12 1025 40 10000 3.09 150 16:23 28.03.2021
948 Clear 9 1024 42 10000 3.6 180 15:43 28.03.2021
949 Clear 9 1024 42 10000 3.6 180 15:22 28.03.2021
950 Clear 9 1024 37 10000 2.06 140 14:37 28.03.2021
951 Clear 10 1024 43 10000 3.09 140 13:49 28.03.2021
952 Clear 10 1024 43 10000 3.09 140 13:24 28.03.2021
953 Clear 10 1024 43 10000 3.6 140 12:52 28.03.2021
954 Clear 10 1024 43 10000 3.6 140 12:33 28.03.2021
955 Clear 11 1024 40 10000 3.6 130 11:46 28.03.2021
956 Clear 11 1024 40 10000 3.6 130 11:26 28.03.2021
957 Clear 12 1024 33 10000 1.54 190 10:45 28.03.2021
958 Clear 13 1024 33 10000 1.54 190 10:26 28.03.2021
959 Clear 13 1024 30 10000 0.49 91 09:47 28.03.2021
960 Clear 13 1024 30 10000 0.82 342 09:25 28.03.2021
961 Clear 13 1024 30 10000 0.82 342 09:25 28.03.2021
962 Clear 14 1023 33 10000 4.63 290 08:46 28.03.2021
963 Clear 15 1023 29 10000 2.06 300 07:51 28.03.2021
964 Clear 15 1023 29 10000 2.06 300 07:19 28.03.2021
965 Clear 18 1021 22 10000 3.6 280 04:54 28.03.2021
966 Clear 22 1020 17 10000 5.14 290 01:26 28.03.2021
967 Clear 22 1020 17 10000 5.66 280 00:22 28.03.2021
968 Clear 22 1020 19 10000 4.12 310 23:44 27.03.2021
969 Clear 22 1020 19 10000 4.12 310 23:21 27.03.2021
970 Clear 21 1020 21 10000 2.57 300 22:38 27.03.2021
971 Clear 20 1022 22 10000 2.06 0 21:59 27.03.2021
972 Clear 20 1022 22 10000 2.06 0 21:40 27.03.2021
973 Clear 20 1021 27 10000 4.63 340 21:19 27.03.2021
974 Clear 19 1022 27 10000 4.08 333 20:44 27.03.2021
975 Clear 18 1022 27 10000 3.5 319 20:24 27.03.2021
976 Clear 17 1022 36 10000 3.6 360 19:44 27.03.2021
977 Clear 16 1021 36 10000 4.12 310 19:23 27.03.2021
978 Clear 16 1022 38 10000 4.12 290 18:50 27.03.2021
979 Clear 15 1021 41 10000 4.12 290 18:29 27.03.2021
980 Clear 14 1021 44 10000 2.57 330 17:56 27.03.2021
981 Clear 13 1021 44 10000 2.57 330 17:26 27.03.2021
982 Clear 12 1020 53 10000 2.14 302 16:51 27.03.2021
983 Clear 12 1020 53 10000 2.14 302 16:51 27.03.2021
984 Clear 11 1020 53 10000 2.14 302 16:30 27.03.2021
985 Clear 9 1019 65 10000 2.57 260 15:54 27.03.2021
986 Clear 8 1019 65 10000 2.57 260 15:27 27.03.2021
987 Clear 7 1018 65 10000 1.54 250 14:50 27.03.2021
988 Clear 6 1018 65 10000 2.57 200 13:56 27.03.2021
989 Clear 6 1018 65 10000 2.57 200 13:26 27.03.2021
990 Clear 7 1017 61 10000 1.54 110 12:55 27.03.2021
991 Clear 7 1017 61 10000 1.54 110 12:24 27.03.2021
992 Clear 7 1017 61 10000 2.06 180 11:42 27.03.2021
993 Clear 7 1017 61 10000 2.06 180 11:20 27.03.2021
994 Clear 8 1017 61 10000 2.06 200 10:45 27.03.2021
995 Clear 8 1017 61 10000 2.06 200 10:22 27.03.2021
996 Clear 10 1016 57 10000 3.6 230 09:28 27.03.2021
997 Clouds 11 1016 50 10000 2.06 230 08:43 27.03.2021
998 Clouds 11 1016 50 10000 2.06 230 08:21 27.03.2021
999 Clouds 12 1016 47 10000 3.09 250 07:34 27.03.2021
1000 Clouds 12 1016 47 10000 2.06 280 06:47 27.03.2021
1001 Clouds 12 1016 47 10000 2.06 280 06:27 27.03.2021
1002 Clouds 13 1015 47 10000 5.66 300 04:39 27.03.2021
1003 Clouds 16 1013 37 10000 3.58 0 00:50 27.03.2021
1004 Clouds 16 1012 34 10000 3.13 0 00:29 27.03.2021
1005 Clouds 17 1012 25 10000 5.66 270 23:54 26.03.2021
1006 Clouds 18 1012 25 10000 5.66 270 23:19 26.03.2021
1007 Clouds 18 1012 24 10000 6.17 260 22:35 26.03.2021
1008 Clear 18 1012 20 10000 6.69 270 21:36 26.03.2021
1009 Clear 18 1012 20 10000 6.69 270 21:18 26.03.2021
1010 Clear 17 1013 22 10000 6.17 260 20:33 26.03.2021
1011 Clear 16 1013 26 10000 5.14 320 19:57 26.03.2021
1012 Clear 16 1013 26 10000 5.14 320 19:39 26.03.2021
1013 Clear 16 1013 26 10000 5.14 320 19:20 26.03.2021
1014 Clear 15 1013 28 10000 5.66 230 18:42 26.03.2021
1015 Clear 14 1013 28 10000 5.66 230 18:20 26.03.2021
1016 Clear 14 1014 33 10000 3.09 0 17:45 26.03.2021
1017 Clear 13 1014 35 10000 2.06 210 16:56 26.03.2021
1018 Clear 12 1014 35 10000 2.06 210 16:33 26.03.2021
1019 Clear 11 1013 40 10000 1.54 90 15:51 26.03.2021
1020 Clear 10 1012 46 10000 1.31 216 15:21 26.03.2021
1021 Clear 8 1011 45 10000 1.55 191 14:24 26.03.2021
1022 Clear 8 1011 40 10000 4.12 210 13:34 26.03.2021
1023 Clear 9 1010 40 10000 1.54 170 12:50 26.03.2021
1024 Clear 9 1010 40 10000 1.54 170 12:24 26.03.2021
1025 Clear 9 1011 42 10000 3.09 210 11:34 26.03.2021
1026 Clear 9 1011 37 10000 4.12 170 10:52 26.03.2021
1027 Clear 10 1011 37 10000 4.12 170 10:33 26.03.2021
1028 Clear 10 1011 35 10000 4.12 220 09:42 26.03.2021
1029 Clear 11 1011 35 10000 3.6 80 09:19 26.03.2021
1030 Clear 11 1011 35 10000 3.6 80 08:38 26.03.2021
1031 Clear 12 1011 35 10000 3.6 80 08:20 26.03.2021
1032 Clear 12 1011 28 10000 2.57 210 07:23 26.03.2021
1033 Clear 12 1010 24 10000 5.92 214 06:58 26.03.2021
1034 Clear 12 1010 24 10000 5.92 214 06:30 26.03.2021
1035 Clouds 14 1010 26 10000 1.34 0 05:26 26.03.2021
1036 Clouds 18 1008 12 10000 7.72 230 01:58 26.03.2021
1037 Clouds 18 1009 12 10000 7.2 230 00:27 26.03.2021
1038 Clouds 19 1009 13 10000 8.23 230 23:44 25.03.2021
1039 Clouds 19 1009 12 10000 6.17 200 22:57 25.03.2021
1040 Clouds 19 1009 12 10000 6.17 200 22:29 25.03.2021
1041 Clouds 20 1011 15 10000 10.8 220 21:53 25.03.2021
1042 Clouds 19 1011 15 10000 10.8 220 21:33 25.03.2021
1043 Clouds 19 1011 15 10000 10.8 220 21:33 25.03.2021
1044 Clouds 18 1012 20 10000 5.66 200 20:45 25.03.2021
1045 Clouds 18 1012 20 10000 5.66 200 20:25 25.03.2021
1046 Clouds 18 1012 22 10000 6.17 200 19:45 25.03.2021
1047 Clouds 17 1013 21 10000 8.23 210 19:27 25.03.2021
1048 Clouds 16 1013 26 10000 1.34 0 18:47 25.03.2021
1049 Clouds 15 1014 26 10000 3.6 200 18:27 25.03.2021
1050 Clear 15 1015 38 10000 4.12 170 17:51 25.03.2021
1051 Clear 14 1015 38 10000 4.12 170 17:33 25.03.2021
1052 Clouds 13 1014 36 10000 0.89 0 16:51 25.03.2021
1053 Clouds 13 1014 36 10000 0.45 0 16:51 25.03.2021
1054 Clear 12 1015 46 10000 3.09 100 16:30 25.03.2021
1055 Clear 10 1014 53 10000 4.63 110 15:45 25.03.2021
1056 Clear 8 1014 56 10000 2.57 140 15:21 25.03.2021
1057 Clear 8 1014 57 10000 3.6 110 14:46 25.03.2021
1058 Clear 7 1014 56 10000 2.57 100 13:56 25.03.2021
1059 Clear 7 1014 56 10000 2.57 100 13:24 25.03.2021
1060 Clear 7 1013 52 10000 3.6 120 12:45 25.03.2021
1061 Clear 7 1013 52 10000 3.6 120 12:21 25.03.2021
1062 Clear 7 1013 45 10000 4.12 150 11:52 25.03.2021
1063 Clear 8 1013 45 10000 4.12 150 11:30 25.03.2021
1064 Clear 8 1013 42 10000 3.09 150 10:55 25.03.2021
1065 Clear 8 1013 42 10000 3.09 150 10:27 25.03.2021
1066 Clear 8 1013 53 10000 4.63 140 09:57 25.03.2021
1067 Clear 8 1013 53 10000 4.63 140 09:38 25.03.2021
1068 Clear 9 1013 57 10000 4.63 140 08:57 25.03.2021
1069 Clear 9 1013 57 10000 4.63 140 08:29 25.03.2021
1070 Clear 9 1013 49 10000 3.6 150 07:23 25.03.2021
1071 Clear 10 1013 46 10000 3.09 160 06:26 25.03.2021
1072 Clear 10 1013 40 10000 1.66 246 05:49 25.03.2021
1073 Clouds 13 1011 28 10000 3.09 290 03:55 25.03.2021
1074 Clouds 16 1009 31 10000 6.69 300 00:35 25.03.2021
1075 Clouds 16 1009 31 10000 6.69 300 00:35 25.03.2021
1076 Clouds 16 1009 33 10000 7.2 290 23:53 24.03.2021
1077 Clouds 16 1009 33 10000 7.2 290 23:30 24.03.2021
1078 Clouds 15 1010 38 10000 4.63 300 22:50 24.03.2021
1079 Clouds 15 1010 38 10000 4.63 300 22:30 24.03.2021
1080 Clouds 15 1010 44 10000 4.63 270 21:47 24.03.2021
1081 Clouds 14 1011 38 10000 5.66 300 21:25 24.03.2021
1082 Clouds 13 1011 41 10000 4.63 300 20:45 24.03.2021
1083 Clouds 13 1011 47 10000 5.14 290 20:20 24.03.2021
1084 Clouds 13 1011 50 10000 3.09 280 19:52 24.03.2021
1085 Clouds 13 1011 50 10000 3.09 280 19:31 24.03.2021
1086 Clouds 13 1011 54 10000 4.12 250 18:51 24.03.2021
1087 Clouds 13 1011 54 10000 4.12 250 18:51 24.03.2021
1088 Clouds 12 1011 54 10000 4.12 250 18:24 24.03.2021
1089 Clouds 11 1010 62 10000 4.63 320 17:52 24.03.2021
1090 Clouds 10 1010 62 10000 4.63 320 17:32 24.03.2021
1091 Clouds 10 1009 53 10000 4.12 290 16:53 24.03.2021
1092 Clouds 10 1009 53 10000 4.12 290 16:31 24.03.2021
1093 Clouds 9 1008 61 10000 4.04 266 15:55 24.03.2021
1094 Clouds 9 1008 61 10000 4.04 266 15:33 24.03.2021
1095 Clouds 9 1008 61 10000 2.06 250 14:48 24.03.2021
1096 Clouds 9 1008 61 10000 2.06 250 14:27 24.03.2021
1097 Drizzle 9 1008 61 10000 3.6 260 13:57 24.03.2021
1098 Clouds 9 1007 61 10000 2.06 240 13:28 24.03.2021
1099 Clouds 9 1007 66 10000 2.06 250 12:45 24.03.2021
1100 Drizzle 9 1007 71 10000 1.54 200 12:23 24.03.2021
1101 Clouds 9 1008 71 10000 1.54 190 11:49 24.03.2021
1102 Clouds 9 1008 71 10000 2.57 190 10:59 24.03.2021
1103 Clouds 9 1008 71 10000 2.57 190 10:41 24.03.2021
1104 Clouds 9 1008 71 10000 2.57 190 10:22 24.03.2021
1105 Clouds 9 1008 81 10000 2.06 130 09:53 24.03.2021
1106 Clouds 9 1008 81 10000 2.06 130 09:22 24.03.2021
1107 Clouds 8 1008 81 10000 1.54 160 08:52 24.03.2021
1108 Clouds 8 1008 81 10000 1.54 160 08:26 24.03.2021
1109 Clouds 9 1008 76 10000 1.54 160 07:40 24.03.2021
1110 Clouds 10 1008 66 10000 2.06 210 06:54 24.03.2021
1111 Clouds 10 1008 71 10000 2.57 280 06:54 24.03.2021
1112 Clouds 10 1008 66 10000 2.06 270 05:30 24.03.2021
1113 Clouds 14 1003 31 10000 10.8 300 00:55 24.03.2021
1114 Clouds 15 1004 37 10000 4.47 0 00:25 24.03.2021
1115 Clouds 18 1003 14 10000 9.26 220 23:22 23.03.2021
1116 Clouds 19 1003 14 10000 9.26 220 22:55 23.03.2021
1117 Clouds 19 1003 14 10000 9.26 220 22:36 23.03.2021
1118 Clouds 20 1004 13 10000 8.75 250 21:54 23.03.2021
1119 Clouds 21 1004 13 10000 8.75 250 21:34 23.03.2021
1120 Clouds 20 1005 14 10000 7.72 240 20:56 23.03.2021
1121 Clouds 21 1005 13 10000 7.72 230 20:38 23.03.2021
1122 Clouds 21 1005 13 10000 7.72 230 20:38 23.03.2021
1123 Clouds 20 1005 13 10000 7.72 230 20:20 23.03.2021
1124 Clear 20 1007 12 10000 8.23 200 19:41 23.03.2021
1125 Clear 19 1007 12 10000 8.23 200 19:22 23.03.2021
1126 Clear 19 1008 14 10000 4.12 200 18:38 23.03.2021
1127 Clear 18 1008 14 10000 4.12 200 18:19 23.03.2021
1128 Clear 18 1008 14 10000 4.12 200 18:19 23.03.2021
1129 Clear 17 1009 14 10000 3.6 150 17:43 23.03.2021
1130 Clear 16 1009 15 10000 3.6 190 17:21 23.03.2021
1131 Clear 13 1009 17 10000 4.12 140 16:26 23.03.2021
1132 Clear 11 1009 24 10000 0.45 0 15:51 23.03.2021
1133 Clear 9 1009 21 10000 3.6 140 15:24 23.03.2021
1134 Clear 8 1009 21 10000 4.63 140 14:49 23.03.2021
1135 Clear 7 1009 21 10000 4.63 140 14:20 23.03.2021
1136 Clear 8 1010 19 10000 4.63 140 13:47 23.03.2021
1137 Clear 8 1010 19 10000 4.63 140 13:25 23.03.2021
1138 Clear 8 1010 18 10000 3.09 170 12:46 23.03.2021
1139 Clear 8 1010 18 10000 3.09 170 12:26 23.03.2021
1140 Clear 9 1011 18 10000 4.63 150 11:49 23.03.2021
1141 Clear 9 1011 18 10000 4.63 150 11:26 23.03.2021
1142 Clear 9 1012 18 10000 4.12 150 10:42 23.03.2021
1143 Clear 9 1012 18 10000 4.12 150 10:21 23.03.2021
1144 Clear 9 1013 18 10000 3.6 150 09:51 23.03.2021
1145 Clear 9 1013 18 10000 3.6 150 09:23 23.03.2021
1146 Clear 9 1013 19 10000 3.6 150 08:55 23.03.2021
1147 Clear 9 1013 19 10000 3.6 150 08:37 23.03.2021
1148 Clear 9 1013 19 10000 3.6 150 08:37 23.03.2021
1149 Clear 9 1013 19 10000 3.6 150 08:19 23.03.2021
1150 Clear 11 1014 18 10000 3.6 150 07:27 23.03.2021
1151 Clear 10 1014 18 10000 2.06 180 06:53 23.03.2021
1152 Clear 15 1013 10 10000 4.63 320 03:25 23.03.2021
1153 Clear 16 1013 13 10000 1.79 0 02:46 23.03.2021
1154 Clear 18 1015 8 10000 5.14 260 23:47 22.03.2021
1155 Clear 18 1015 8 10000 5.14 260 23:18 22.03.2021
1156 Clear 17 1015 9 10000 5.66 270 22:42 22.03.2021
1157 Clear 17 1015 9 10000 5.66 270 22:20 22.03.2021
1158 Clear 17 1015 11 10000 7.72 290 21:47 22.03.2021
1159 Clear 16 1015 11 10000 7.72 290 21:26 22.03.2021
1160 Clear 16 1016 11 10000 6.17 330 20:44 22.03.2021
1161 Clear 16 1016 11 10000 8.23 310 20:25 22.03.2021
1162 Clear 15 1016 14 10000 7.72 300 19:58 22.03.2021
1163 Clear 15 1016 14 10000 7.72 300 19:58 22.03.2021
1164 Clear 15 1016 14 10000 7.72 300 19:38 22.03.2021
1165 Clear 14 1016 14 10000 7.72 300 19:19 22.03.2021
1166 Clear 14 1015 15 10000 7.72 270 18:41 22.03.2021
1167 Clear 14 1015 15 10000 7.72 270 18:22 22.03.2021
1168 Clear 14 1015 15 10000 7.72 270 18:22 22.03.2021
1169 Clear 13 1015 21 10000 6.69 280 17:49 22.03.2021
1170 Clear 13 1015 21 10000 6.69 280 17:22 22.03.2021
1171 Clear 13 1014 22 10000 6.17 250 16:49 22.03.2021
1172 Clear 13 1014 22 10000 6.17 250 16:49 22.03.2021
1173 Clear 12 1014 22 10000 6.17 250 16:22 22.03.2021
1174 Clear 11 1014 23 10000 3.09 220 15:42 22.03.2021
1175 Clear 11 1014 23 10000 3.09 220 15:42 22.03.2021
1176 Clear 11 1014 23 10000 3.09 220 15:22 22.03.2021
1177 Clear 10 1013 23 10000 3.09 240 14:57 22.03.2021
1178 Clear 10 1013 23 10000 3.09 240 14:34 22.03.2021
1179 Clear 10 1012 22 10000 3.6 250 13:50 22.03.2021
1180 Clear 10 1012 22 10000 3.6 250 13:29 22.03.2021
1181 Clear 11 1012 22 10000 2.06 280 12:57 22.03.2021
1182 Clear 11 1012 22 10000 2.06 280 12:26 22.03.2021
1183 Clouds 11 1012 22 10000 3.6 270 11:51 22.03.2021
1184 Clouds 12 1012 22 10000 3.6 270 11:29 22.03.2021
1185 Clear 12 1012 16 10000 2.06 180 10:46 22.03.2021
1186 Clear 12 1012 16 10000 2.06 180 10:26 22.03.2021
1187 Clear 12 1012 16 10000 3.09 240 09:56 22.03.2021
1188 Clear 12 1012 16 10000 3.09 240 09:34 22.03.2021
1189 Clear 13 1012 16 10000 4.12 250 08:47 22.03.2021
1190 Clear 13 1012 16 10000 4.12 250 08:28 22.03.2021
1191 Clear 14 1012 12 10000 3.09 290 07:54 22.03.2021
1192 Clear 14 1012 12 10000 3.09 290 07:34 22.03.2021
1193 Clear 15 1012 12 10000 3.09 250 06:51 22.03.2021
1194 Clear 15 1012 12 10000 3.09 250 06:51 22.03.2021
1195 Clouds 21 1010 8 10000 3.13 0 02:51 22.03.2021
1196 Clear 25 1011 10 10000 6.69 260 00:49 22.03.2021
1197 Clear 25 1011 9 10000 6.69 260 23:59 21.03.2021
1198 Clear 25 1011 9 10000 6.69 260 23:39 21.03.2021
1199 Clear 25 1011 9 10000 6.69 260 23:18 21.03.2021
1200 Clear 26 1013 10 10000 6.69 280 22:41 21.03.2021
1201 Clouds 25 1014 17 10000 6.17 270 21:43 21.03.2021
1202 Clouds 25 1014 17 10000 6.17 270 21:25 21.03.2021
1203 Clouds 24 1015 21 10000 1.54 320 20:56 21.03.2021
1204 Clouds 24 1015 21 10000 1.54 320 20:38 21.03.2021
1205 Clouds 24 1015 21 10000 1.54 320 20:19 21.03.2021
1206 Clear 23 1016 17 10000 3.09 0 19:39 21.03.2021
1207 Clear 23 1016 17 10000 3.09 0 19:19 21.03.2021
1208 Clear 22 1017 20 10000 2.57 280 18:41 21.03.2021
1209 Clear 22 1016 30 10000 1.87 258 18:18 21.03.2021
1210 Clear 20 1016 32 10000 2.06 250 17:41 21.03.2021
1211 Clear 20 1016 32 10000 2.06 250 17:18 21.03.2021
1212 Clear 19 1016 35 10000 0.45 0 16:49 21.03.2021
1213 Clear 18 1016 34 10000 2.06 230 16:23 21.03.2021
1214 Clear 16 1016 41 10000 1.54 200 15:42 21.03.2021
1215 Clear 14 1015 44 10000 2.06 180 15:21 21.03.2021
1216 Clouds 14 1015 41 10000 1.27 285 14:47 21.03.2021
1217 Clouds 14 1015 41 10000 1.75 288 14:27 21.03.2021
1218 Clouds 14 1015 38 10000 2.06 190 13:57 21.03.2021
1219 Clouds 14 1015 38 10000 2.06 190 13:38 21.03.2021
1220 Clear 15 1015 36 10000 1.52 300 12:43 21.03.2021
1221 Clear 15 1015 36 10000 1.4 285 12:25 21.03.2021
1222 Clear 15 1015 36 10000 1.4 285 12:25 21.03.2021
1223 Clear 15 1015 36 10000 1.4 285 12:25 21.03.2021
1224 Clouds 16 1015 33 10000 1.54 160 11:41 21.03.2021
1225 Clouds 16 1015 33 10000 1.54 160 11:20 21.03.2021
1226 Clouds 16 1016 31 10000 1.54 170 10:44 21.03.2021
1227 Clouds 17 1016 31 10000 1.54 170 10:26 21.03.2021
1228 Clear 17 1016 27 10000 1.54 330 09:47 21.03.2021
1229 Clear 18 1016 27 10000 1.54 330 09:29 21.03.2021
1230 Clouds 18 1016 29 10000 1.04 271 08:54 21.03.2021
1231 Clouds 18 1016 29 10000 1.88 288 08:28 21.03.2021
1232 Clouds 19 1016 24 10000 2.06 150 07:50 21.03.2021
1233 Clouds 20 1016 24 10000 2.06 150 07:23 21.03.2021
1234 Clear 20 1016 20 10000 3.09 250 05:59 21.03.2021
1235 Clear 25 1015 17 10000 2.68 0 02:48 21.03.2021
1236 Clear 28 1016 12 10000 3.6 290 00:56 21.03.2021
1237 Clear 28 1016 12 10000 3.6 290 00:36 21.03.2021
1238 Clear 28 1016 12 10000 3.6 290 00:18 21.03.2021
1239 Clear 28 1016 12 10000 5.66 250 23:40 20.03.2021
1240 Clear 28 1016 12 10000 3.6 320 23:18 20.03.2021
1241 Clear 28 1017 12 10000 3.09 320 22:24 20.03.2021
1242 Clear 27 1018 12 10000 4.12 260 21:48 20.03.2021
1243 Clear 27 1018 12 10000 4.12 260 21:26 20.03.2021
1244 Clear 27 1020 11 10000 2.57 0 20:49 20.03.2021
1245 Clear 26 1019 14 10000 3.6 320 20:24 20.03.2021
1246 Clear 25 1020 13 10000 2.26 288 19:52 20.03.2021
1247 Clear 25 1020 13 10000 1.48 279 19:29 20.03.2021
1248 Clear 24 1019 16 10000 0.89 221 18:52 20.03.2021
1249 Clear 23 1020 15 10000 2.06 170 18:29 20.03.2021
1250 Clear 22 1020 18 10000 0.89 196 17:58 20.03.2021
1251 Clear 21 1020 18 10000 0.89 138 17:40 20.03.2021
1252 Clear 20 1020 19 10000 0.89 59 17:20 20.03.2021
1253 Clear 14 1020 22 10000 3.6 130 16:40 20.03.2021
1254 Clear 13 1019 31 10000 1.54 150 16:18 20.03.2021
1255 Clear 9 1019 31 10000 1.54 150 15:42 20.03.2021
1256 Clear 12 1019 31 10000 1.54 150 15:24 20.03.2021
1257 Clear 9 1019 31 10000 2.57 160 14:32 20.03.2021
1258 Clear 11 1019 29 10000 3.6 150 13:59 20.03.2021
1259 Clear 10 1019 29 10000 3.6 150 13:30 20.03.2021
1260 Clear 11 1019 29 10000 4.12 150 12:39 20.03.2021
1261 Clear 12 1019 29 10000 4.12 150 12:20 20.03.2021
1262 Clear 11 1019 29 10000 3.6 160 11:42 20.03.2021
1263 Clear 11 1019 29 10000 3.6 160 11:21 20.03.2021
1264 Clear 13 1020 26 10000 2.06 140 10:45 20.03.2021
1265 Clear 13 1020 26 10000 2.06 140 10:23 20.03.2021
1266 Clear 12 1019 28 10000 3.09 180 09:44 20.03.2021
1267 Clear 13 1019 28 10000 3.09 180 09:22 20.03.2021
1268 Clear 15 1019 24 10000 3.09 190 08:51 20.03.2021
1269 Clear 14 1019 24 10000 3.09 190 08:19 20.03.2021
1270 Clear 16 1019 23 10000 4.12 150 07:47 20.03.2021
1271 Clear 16 1019 23 10000 4.12 150 07:29 20.03.2021
1272 Clear 17 1019 16 10000 2.06 250 06:39 20.03.2021
1273 Clear 19 1018 15 10000 2.57 290 05:28 20.03.2021
1274 Clear 22 1017 12 10000 3.09 310 03:44 20.03.2021
1275 Clear 27 1017 8 10000 4.63 300 01:31 20.03.2021
1276 Clear 28 1017 11 10000 5.14 320 23:46 19.03.2021
1277 Clear 28 1017 11 10000 5.14 320 23:19 19.03.2021
1278 Clear 27 1018 10 10000 4.12 310 22:43 19.03.2021
1279 Clear 27 1018 10 10000 4.12 310 22:22 19.03.2021
1280 Clear 27 1019 13 10000 2.57 350 21:42 19.03.2021
1281 Clear 26 1019 13 10000 2.57 350 21:20 19.03.2021
1282 Clear 26 1020 11 10000 2.06 350 20:45 19.03.2021
1283 Clear 25 1019 14 10000 1.54 310 20:26 19.03.2021
1284 Clear 24 1020 15 10000 0.28 337 19:48 19.03.2021
1285 Clear 23 1020 15 10000 0.28 97 19:23 19.03.2021
1286 Clear 22 1020 18 10000 2.06 150 18:49 19.03.2021
1287 Clear 21 1020 18 10000 2.06 150 18:30 19.03.2021
1288 Clouds 20 1020 19 10000 4.12 160 17:58 19.03.2021
1289 Clear 20 1021 24 10000 0.45 0 17:38 19.03.2021
1290 Clear 18 1021 20 10000 3.6 140 17:18 19.03.2021
1291 Clear 13 1021 26 10000 5.14 150 16:44 19.03.2021
1292 Clear 13 1021 26 10000 5.14 150 16:25 19.03.2021
1293 Clear 8 1020 36 10000 1.54 180 15:34 19.03.2021
1294 Clear 9 1019 34 10000 3.6 160 14:53 19.03.2021
1295 Clear 9 1019 34 10000 3.6 160 14:33 19.03.2021
1296 Clear 9 1019 34 10000 3.09 160 13:50 19.03.2021
1297 Clear 9 1019 34 10000 3.09 160 13:19 19.03.2021
1298 Clear 9 1019 37 10000 2.57 120 12:42 19.03.2021
1299 Clear 10 1019 37 10000 2.57 120 12:18 19.03.2021
1300 Clear 10 1019 37 10000 3.6 150 11:33 19.03.2021
1301 Clear 12 1020 35 10000 2.57 120 10:47 19.03.2021
1302 Clear 12 1020 35 10000 3.09 180 10:22 19.03.2021
1303 Clear 13 1020 35 10000 3.09 180 09:44 19.03.2021
1304 Clear 13 1020 35 10000 3.09 180 09:25 19.03.2021
1305 Clear 13 1019 30 10000 3.6 150 08:52 19.03.2021
1306 Clear 14 1019 30 10000 3.6 150 08:28 19.03.2021
1307 Clear 15 1019 25 10000 2.57 180 07:50 19.03.2021
1308 Clear 15 1019 25 10000 2.57 180 07:31 19.03.2021
1309 Clear 18 1018 19 10000 3.6 280 05:28 19.03.2021
1310 Clear 25 1017 10 10000 3.6 320 01:58 19.03.2021
1311 Clear 26 1017 8 10000 2.57 240 23:55 18.03.2021
1312 Clear 26 1017 8 10000 2.57 240 23:29 18.03.2021
1313 Clear 26 1018 7 10000 3.09 30 22:46 18.03.2021
1314 Clear 26 1017 10 10000 0.61 297 22:25 18.03.2021
1315 Clear 26 1019 8 10000 2.06 10 21:48 18.03.2021
1316 Clear 25 1018 11 10000 2.57 320 21:30 18.03.2021
1317 Clear 24 1020 14 10000 2.06 310 20:42 18.03.2021
1318 Clear 23 1019 16 10000 0.72 109 20:22 18.03.2021
1319 Clouds 22 1019 21 10000 1.34 0 19:42 18.03.2021
1320 Clear 21 1020 19 10000 2.06 330 19:23 18.03.2021
1321 Clouds 20 1020 22 10000 1.85 123 18:47 18.03.2021
1322 Clouds 18 1020 27 10000 0.89 130 17:58 18.03.2021
1323 Clear 16 1020 25 10000 1.54 200 17:27 18.03.2021
1324 Clear 13 1020 32 10000 3.6 150 16:59 18.03.2021
1325 Clear 10 1020 32 10000 3.6 150 16:41 18.03.2021
1326 Clear 12 1020 32 10000 3.6 150 16:22 18.03.2021
1327 Clear 5 1020 45 10000 3.09 140 15:41 18.03.2021
1328 Clear 6 1019 45 10000 3.09 160 15:19 18.03.2021
1329 Clear 5 1019 45 10000 3.09 160 14:45 18.03.2021
1330 Clear 5 1019 45 10000 3.09 160 14:23 18.03.2021
1331 Clear 8 1018 45 10000 3.09 140 13:40 18.03.2021
1332 Clear 7 1018 45 10000 3.09 140 13:21 18.03.2021
1333 Clear 8 1019 45 10000 2.06 160 12:38 18.03.2021
1334 Clear 7 1019 45 10000 2.06 160 12:19 18.03.2021
1335 Clear 8 1019 42 10000 2.57 160 11:45 18.03.2021
1336 Clear 8 1019 42 10000 3.09 130 11:22 18.03.2021
1337 Clear 9 1019 42 10000 3.09 130 10:41 18.03.2021
1338 Clear 9 1019 42 10000 3.09 130 10:23 18.03.2021
1339 Clear 11 1019 40 10000 4.12 150 09:52 18.03.2021
1340 Clear 11 1019 40 10000 4.12 150 09:27 18.03.2021
1341 Clear 11 1019 37 10000 2.57 150 08:45 18.03.2021
1342 Clear 11 1019 40 10000 1.54 180 08:25 18.03.2021
1343 Clear 11 1019 40 10000 1.54 180 07:47 18.03.2021
1344 Clear 14 1019 35 10000 1.54 190 06:49 18.03.2021
1345 Clear 14 1019 35 10000 1.54 190 06:25 18.03.2021
1346 Clear 14 1018 29 10000 2.57 280 05:26 18.03.2021
1347 Clear 21 1017 13 10000 3.6 300 00:49 18.03.2021
1348 Clear 21 1017 15 10000 2.57 320 23:39 17.03.2021
1349 Clear 20 1018 15 10000 2.23 303 22:43 17.03.2021
1350 Clear 20 1018 15 10000 1.26 323 22:24 17.03.2021
1351 Clear 19 1018 20 10000 1.34 0 21:52 17.03.2021
1352 Clear 19 1019 20 10000 1.54 260 21:32 17.03.2021
1353 Clear 17 1021 19 10000 1.54 80 20:55 17.03.2021
1354 Clear 17 1021 19 10000 1.54 80 20:37 17.03.2021
1355 Clear 16 1021 19 10000 1.54 80 20:19 17.03.2021
1356 Clear 15 1021 24 10000 2.06 0 19:41 17.03.2021
1357 Clear 15 1020 26 10000 0.33 197 19:20 17.03.2021
1358 Clear 15 1020 26 10000 0.33 197 19:20 17.03.2021
1359 Clear 14 1020 28 10000 1.54 130 18:52 17.03.2021
1360 Clear 13 1020 28 10000 1.54 130 18:32 17.03.2021
1361 Clear 11 1020 32 10000 4.63 130 17:42 17.03.2021
1362 Clear 10 1020 32 10000 4.63 130 17:23 17.03.2021
1363 Clear 8 1020 45 10000 3.6 140 16:43 17.03.2021
1364 Clear 8 1020 50 10000 1.99 88 16:21 17.03.2021
1365 Clear 2 1020 60 10000 1.99 88 15:49 17.03.2021
1366 Clear 3 1020 60 10000 1.69 84 15:29 17.03.2021
1367 Clear 3 1019 52 10000 3.6 140 14:40 17.03.2021
1368 Clear 4 1019 52 10000 3.6 140 14:20 17.03.2021
1369 Clear 3 1018 56 10000 2.57 140 13:55 17.03.2021
1370 Clear 2 1018 56 10000 2.57 140 13:26 17.03.2021
1371 Clear 3 1018 64 10000 3.09 150 12:49 17.03.2021
1372 Clear 3 1018 64 10000 3.09 150 12:28 17.03.2021
1373 Clear 4 1019 56 10000 3.09 120 11:43 17.03.2021
1374 Clear 4 1019 56 10000 3.09 130 11:23 17.03.2021
1375 Clear 4 1019 56 10000 3.09 130 10:53 17.03.2021
1376 Clear 4 1019 56 10000 3.09 130 10:24 17.03.2021
1377 Clear 5 1019 60 10000 3.6 160 09:47 17.03.2021
1378 Clear 5 1019 60 10000 3.6 160 09:21 17.03.2021
1379 Clear 5 1019 65 10000 2.06 160 08:55 17.03.2021
1380 Clear 6 1020 45 10000 1.21 83 08:35 17.03.2021
1381 Clear 6 1019 60 10000 1.08 48 07:48 17.03.2021
1382 Clear 6 1019 60 10000 1.08 48 07:30 17.03.2021
1383 Clear 7 1018 46 10000 1.2 25 06:38 17.03.2021
1384 Clear 9 1017 32 10000 1.54 350 04:20 17.03.2021
1385 Clear 11 1017 31 10000 1.34 0 02:49 17.03.2021
1386 Clear 13 1015 24 10000 6.69 240 00:40 17.03.2021
1387 Clear 13 1015 24 10000 6.17 250 23:28 16.03.2021
1388 Clouds 13 1015 28 10000 5.14 250 22:48 16.03.2021
1389 Clouds 12 1015 28 10000 5.66 240 22:29 16.03.2021
1390 Clouds 12 1015 32 10000 6.17 280 21:47 16.03.2021
1391 Clouds 11 1015 32 10000 6.17 280 21:29 16.03.2021
1392 Clouds 11 1015 34 10000 5.66 230 20:58 16.03.2021
1393 Clouds 10 1015 34 10000 5.66 230 20:20 16.03.2021
1394 Clouds 10 1015 49 10000 3.6 360 19:58 16.03.2021
1395 Clouds 9 1015 49 10000 3.6 360 19:39 16.03.2021
1396 Clouds 9 1015 49 10000 3.6 360 19:19 16.03.2021
1397 Clouds 8 1016 70 10000 4.12 150 18:40 16.03.2021
1398 Clouds 7 1016 70 10000 4.12 150 18:21 16.03.2021
1399 Clouds 6 1015 75 10000 1.54 130 17:46 16.03.2021
1400 Clouds 5 1015 81 10000 2.22 299 17:26 16.03.2021
1401 Drizzle 4 1013 87 10000 2.22 299 16:51 16.03.2021
1402 Clouds 4 1013 87 10000 2.57 310 16:28 16.03.2021
1403 Rain 3 1012 87 10000 5.14 290 15:47 16.03.2021
1404 Clouds 3 1012 87 10000 6.17 290 15:21 16.03.2021
1405 Clouds 3 1012 87 10000 7.2 280 14:58 16.03.2021
1406 Clouds 4 1012 83 10000 3.58 302 14:40 16.03.2021
1407 Clouds 5 1010 49 10000 8.23 290 14:20 16.03.2021
1408 Clouds 7 1010 51 10000 3.58 41 13:47 16.03.2021
1409 Clouds 8 1009 50 10000 8.75 250 13:25 16.03.2021
1410 Clear 11 1008 28 10000 4.63 260 12:50 16.03.2021
1411 Clear 10 1008 28 10000 4.63 260 12:31 16.03.2021
1412 Clear 10 1008 19 10000 5.14 230 11:41 16.03.2021
1413 Clear 11 1008 19 10000 5.14 230 11:21 16.03.2021
1414 Clear 12 1009 25 10000 4.63 230 10:27 16.03.2021
1415 Clear 12 1009 22 10000 6.09 214 09:49 16.03.2021
1416 Clear 12 1009 22 10000 6.14 203 09:30 16.03.2021
1417 Clear 12 1009 30 10000 6.14 203 08:59 16.03.2021
1418 Clear 12 1009 30 10000 6.14 203 08:40 16.03.2021
1419 Clear 13 1009 30 10000 4.57 182 08:20 16.03.2021
1420 Clear 13 1010 26 10000 2.57 230 07:35 16.03.2021
1421 Clear 14 1010 28 10000 3.09 150 06:39 16.03.2021
1422 Clear 14 1010 28 10000 2.57 150 05:52 16.03.2021
1423 Clear 14 1010 28 10000 2.57 150 05:34 16.03.2021
1424 Clouds 18 1010 17 10000 0.45 0 02:45 16.03.2021
1425 Clouds 19 1011 15 10000 2.06 230 02:23 16.03.2021
1426 Clouds 19 1013 16 10000 4.63 320 23:57 15.03.2021
1427 Clouds 19 1013 16 10000 4.63 320 23:28 15.03.2021
1428 Clouds 19 1013 15 10000 2.06 60 22:51 15.03.2021
1429 Clouds 19 1013 15 10000 2.06 60 22:33 15.03.2021
1430 Clouds 19 1013 15 10000 2.06 60 22:33 15.03.2021
1431 Clouds 19 1014 15 10000 2.06 20 21:55 15.03.2021
1432 Clouds 19 1014 15 10000 2.06 20 21:34 15.03.2021
1433 Clouds 19 1015 15 10000 1.77 195 20:58 15.03.2021
1434 Clouds 19 1015 15 10000 1.77 195 20:40 15.03.2021
1435 Clouds 18 1015 15 10000 1.74 193 20:21 15.03.2021
1436 Clouds 18 1015 17 10000 3.09 90 19:50 15.03.2021
1437 Clouds 18 1015 17 10000 3.09 90 19:50 15.03.2021
1438 Clouds 17 1015 17 10000 3.09 90 19:31 15.03.2021
1439 Clouds 16 1016 31 10000 2.57 120 18:57 15.03.2021
1440 Clouds 16 1016 31 10000 2.57 120 18:28 15.03.2021
1441 Clouds 15 1017 31 10000 0.89 0 17:56 15.03.2021
1442 Clouds 13 1017 33 10000 0.45 0 17:32 15.03.2021
1443 Clouds 11 1017 40 10000 3.6 160 16:52 15.03.2021
1444 Clouds 10 1017 40 10000 3.6 160 16:34 15.03.2021
1445 Clear 5 1017 52 10000 5.14 160 15:47 15.03.2021
1446 Clear 7 1017 52 10000 5.14 160 15:26 15.03.2021
1447 Clear 6 1016 60 10000 3.09 160 14:45 15.03.2021
1448 Clear 6 1016 60 10000 3.09 160 14:23 15.03.2021
1449 Clear 6 1016 56 10000 5.14 150 13:49 15.03.2021
1450 Clear 6 1016 56 10000 5.14 150 13:27 15.03.2021
1451 Clear 6 1016 56 10000 4.12 140 12:50 15.03.2021
1452 Clear 7 1016 56 10000 4.12 140 12:20 15.03.2021
1453 Clear 7 1017 61 10000 4.63 140 11:56 15.03.2021
1454 Clear 7 1017 61 10000 4.63 140 11:37 15.03.2021
1455 Clear 8 1017 57 10000 2.06 80 10:56 15.03.2021
1456 Clear 8 1017 57 10000 2.06 80 10:32 15.03.2021
1457 Clear 9 1017 57 10000 3.09 130 09:54 15.03.2021
1458 Clear 9 1017 57 10000 3.09 130 09:35 15.03.2021
1459 Clear 9 1018 49 10000 3.6 160 08:59 15.03.2021
1460 Clear 9 1018 49 10000 3.6 160 08:40 15.03.2021
1461 Clear 9 1018 57 10000 2.06 140 07:56 15.03.2021
1462 Clear 10 1018 57 10000 2.06 140 07:32 15.03.2021
1463 Clear 10 1018 46 10000 1.55 257 06:41 15.03.2021
1464 Clear 12 1018 40 10000 0.86 294 05:33 15.03.2021
1465 Clear 17 1017 25 10000 5.14 280 01:47 15.03.2021
1466 Clear 18 1018 22 10000 6.17 280 23:59 14.03.2021
1467 Clear 17 1018 25 10000 6.17 310 23:21 14.03.2021
1468 Clear 17 1019 25 10000 5.66 330 22:47 14.03.2021
1469 Clear 17 1019 25 10000 5.66 330 22:23 14.03.2021
1470 Clear 17 1019 25 10000 5.66 330 22:23 14.03.2021
1471 Clear 16 1020 27 10000 7.2 350 21:49 14.03.2021
1472 Clear 16 1020 27 10000 4.12 280 21:20 14.03.2021
1473 Clear 15 1021 30 10000 5.14 280 20:50 14.03.2021
1474 Clear 15 1021 30 10000 5.14 280 20:27 14.03.2021
1475 Clear 14 1022 38 10000 5.28 296 19:50 14.03.2021
1476 Clear 13 1021 40 10000 3.64 275 19:24 14.03.2021
1477 Clear 13 1022 43 10000 2.06 210 18:56 14.03.2021
1478 Clear 12 1022 43 10000 2.06 210 18:28 14.03.2021
1479 Clear 11 1022 48 10000 0.89 0 17:41 14.03.2021
1480 Clear 10 1022 49 10000 1.54 160 17:23 14.03.2021
1481 Clear 9 1023 58 10000 0.89 0 16:49 14.03.2021
1482 Clear 8 1022 65 10000 1.85 259 16:28 14.03.2021
1483 Clear 7 1014 63 10000 0.45 158 15:53 14.03.2021
1484 Clear 6 1014 72 10000 1.85 259 15:34 14.03.2021
1485 Clear 5 1021 75 10000 2.57 160 14:41 14.03.2021
1486 Clear 5 1021 75 10000 2.57 160 14:21 14.03.2021
1487 Clouds 6 1021 81 10000 3.6 130 13:49 14.03.2021
1488 Clear 6 1022 70 10000 2.57 130 13:28 14.03.2021
1489 Clear 6 1022 70 10000 2.06 140 12:46 14.03.2021
1490 Clear 6 1022 70 10000 2.06 140 12:28 14.03.2021
1491 Clouds 6 1021 75 10000 2.06 180 11:51 14.03.2021
1492 Clouds 6 1021 75 10000 2.06 180 11:33 14.03.2021
1493 Clouds 6 1022 70 10000 2.57 150 10:56 14.03.2021
1494 Clouds 6 1022 70 10000 2.57 150 10:36 14.03.2021
1495 Clouds 6 1022 70 10000 2.57 150 10:18 14.03.2021
1496 Clouds 6 1022 70 10000 2.57 150 10:18 14.03.2021
1497 Clouds 6 1022 75 10000 4.21 259 09:43 14.03.2021
1498 Clouds 6 1022 73 10000 3.3 254 09:22 14.03.2021
1499 Clouds 7 1022 65 10000 2.57 360 08:41 14.03.2021
1500 Clouds 7 1022 65 10000 2.57 360 08:18 14.03.2021
1501 Clouds 7 1021 65 10000 2.57 190 07:35 14.03.2021
1502 Clouds 8 1021 65 10000 2.06 200 06:41 14.03.2021
1503 Clouds 11 1020 40 10000 4.12 240 02:21 14.03.2021
1504 Clouds 11 1020 35 10000 5.14 260 00:50 14.03.2021
1505 Clouds 12 1020 35 10000 5.14 260 00:19 14.03.2021
1506 Clouds 12 1021 37 10000 5.14 260 23:42 13.03.2021
1507 Clouds 12 1021 37 10000 5.14 260 23:22 13.03.2021
1508 Clouds 12 1022 43 10000 4.63 230 22:50 13.03.2021
1509 Clouds 11 1022 43 10000 4.63 230 22:25 13.03.2021
1510 Clouds 10 1022 57 10000 1.54 170 21:41 13.03.2021
1511 Clouds 10 1022 57 10000 1.54 170 21:20 13.03.2021
1512 Clouds 9 1023 57 10000 1.54 360 20:48 13.03.2021
1513 Rain 9 1023 57 10000 2.97 242 20:28 13.03.2021
1514 Clouds 8 1023 76 10000 2.97 242 19:47 13.03.2021
1515 Clouds 7 1023 76 10000 2.37 222 19:29 13.03.2021
1516 Clouds 5 1023 81 10000 3.6 40 18:43 13.03.2021
1517 Clouds 5 1023 81 10000 2.57 90 18:21 13.03.2021
1518 Clouds 4 1023 87 10000 2.06 70 17:56 13.03.2021
1519 Clouds 4 1022 93 10000 2.06 40 17:34 13.03.2021
1520 Clouds 3 1022 93 10000 4.3 266 16:57 13.03.2021
1521 Drizzle 3 1022 93 10000 2.57 250 16:39 13.03.2021
1522 Clouds 2 1021 93 10000 5.13 279 15:58 13.03.2021
1523 Rain 2 1021 93 10000 4.12 280 15:22 13.03.2021
1524 Mist 2 1020 93 10000 2.06 220 14:43 13.03.2021
1525 Rain 2 1020 93 8047 1.54 270 14:24 13.03.2021
1526 Rain 2 1019 93 8047 3.09 260 13:45 13.03.2021
1527 Rain 3 1019 93 8047 3.09 260 13:21 13.03.2021
1528 Rain 3 1019 93 10000 2.06 240 12:42 13.03.2021
1529 Rain 3 1018 87 10000 4.63 270 11:59 13.03.2021
1530 Rain 3 1018 93 10000 5.66 280 11:40 13.03.2021
1531 Rain 3 1019 93 10000 6.69 250 11:22 13.03.2021
1532 Rain 5 1018 93 10000 5.66 240 10:46 13.03.2021
1533 Clouds 5 1018 81 10000 2.57 310 10:24 13.03.2021
1534 Rain 6 1018 81 10000 4.12 270 09:34 13.03.2021
1535 Drizzle 6 1018 81 10000 1.54 320 08:55 13.03.2021
1536 Clouds 6 1018 87 10000 3.6 330 08:36 13.03.2021
1537 Clouds 6 1018 87 10000 3.6 300 08:18 13.03.2021
1538 Clouds 6 1018 87 10000 5.14 310 07:39 13.03.2021
1539 Clouds 9 1018 57 10000 6.17 300 05:31 13.03.2021
1540 Clouds 12 1015 33 10000 7.72 310 02:42 13.03.2021
1541 Clear 17 1015 20 10000 6.17 230 00:37 13.03.2021
1542 Clouds 17 1016 22 10000 6.69 250 23:48 12.03.2021
1543 Clouds 17 1016 22 10000 6.69 250 23:30 12.03.2021
1544 Clear 17 1016 25 10000 8.23 220 22:41 12.03.2021
1545 Clear 17 1016 25 10000 8.23 220 22:21 12.03.2021
1546 Clouds 16 1017 29 10000 3.09 240 21:39 12.03.2021
1547 Clouds 15 1017 29 10000 3.09 240 21:21 12.03.2021
1548 Clouds 15 1018 38 10000 2.57 210 20:55 12.03.2021
1549 Clouds 14 1018 38 10000 2.57 210 20:31 12.03.2021
1550 Clear 14 1019 47 10000 5.66 240 19:54 12.03.2021
1551 Clear 13 1019 47 10000 5.66 240 19:34 12.03.2021
1552 Clouds 13 1019 41 10000 6.17 230 18:54 12.03.2021
1553 Clouds 12 1019 44 10000 5.14 270 18:32 12.03.2021
1554 Clouds 11 1018 58 10000 3.6 260 17:46 12.03.2021
1555 Clouds 11 1018 58 10000 3.6 260 17:27 12.03.2021
1556 Clouds 10 1018 50 10000 2.06 140 16:51 12.03.2021
1557 Clouds 10 1018 50 10000 2.06 140 16:29 12.03.2021
1558 Clouds 9 1017 53 10000 3.09 130 15:45 12.03.2021
1559 Clouds 8 1017 53 10000 3.09 130 15:21 12.03.2021
1560 Clouds 8 1017 57 10000 2.57 140 14:42 12.03.2021
1561 Clouds 8 1017 57 10000 2.57 140 14:19 12.03.2021
1562 Clouds 8 1016 57 10000 1.54 230 13:40 12.03.2021
1563 Clouds 8 1016 57 10000 1.54 230 13:20 12.03.2021
1564 Clouds 8 1016 53 10000 2.57 110 12:50 12.03.2021
1565 Clouds 8 1016 53 10000 2.57 110 12:30 12.03.2021
1566 Clouds 8 1016 53 10000 2.57 110 12:30 12.03.2021
1567 Clouds 8 1016 49 10000 3.58 188 11:57 12.03.2021
1568 Clouds 8 1016 49 10000 3.58 188 11:38 12.03.2021
1569 Clouds 8 1017 53 10000 3.03 190 10:59 12.03.2021
1570 Clouds 8 1017 53 10000 3.03 190 10:41 12.03.2021
1571 Clouds 8 1017 53 10000 3.48 189 10:20 12.03.2021
1572 Clouds 9 1017 50 10000 2.57 280 09:29 12.03.2021
1573 Clouds 10 1017 46 10000 3.09 300 08:57 12.03.2021
1574 Clouds 10 1017 46 10000 3.09 300 08:38 12.03.2021
1575 Clouds 11 1017 50 10000 4.12 290 07:41 12.03.2021
1576 Clouds 11 1017 50 10000 4.12 290 07:19 12.03.2021
1577 Clouds 12 1017 47 10000 2.24 0 06:40 12.03.2021
1578 Clear 16 1014 22 10000 5.14 250 03:29 12.03.2021
1579 Clear 20 1014 13 10000 4.12 200 00:52 12.03.2021
1580 Clear 20 1014 12 10000 5.66 220 23:40 11.03.2021
1581 Clear 20 1015 10 10000 5.14 220 22:58 11.03.2021
1582 Clear 20 1015 10 10000 5.14 220 22:38 11.03.2021
1583 Clear 20 1015 10 10000 5.14 220 22:18 11.03.2021
1584 Clear 19 1016 15 10000 7.68 238 21:42 11.03.2021
1585 Clear 19 1016 15 10000 6.26 232 21:21 11.03.2021
1586 Clear 18 1017 17 10000 3.6 240 20:49 11.03.2021
1587 Clear 17 1017 17 10000 3.6 240 20:22 11.03.2021
1588 Clear 17 1018 20 10000 5.14 180 19:48 11.03.2021
1589 Clear 16 1017 23 10000 3.09 170 19:30 11.03.2021
1590 Clear 15 1018 28 10000 3.09 150 18:51 11.03.2021
1591 Clear 15 1018 28 10000 3.09 150 18:33 11.03.2021
1592 Clear 14 1014 30 10000 2.6 198 17:50 11.03.2021
1593 Clear 13 1018 28 10000 2.57 180 17:30 11.03.2021
1594 Clear 11 1018 33 10000 1.34 0 16:31 11.03.2021
1595 Clear 8 1018 39 10000 3.09 140 15:50 11.03.2021
1596 Clear 6 1017 38 10000 3.6 140 15:31 11.03.2021
1597 Clear 6 1016 36 10000 3.09 130 14:58 11.03.2021
1598 Clear 6 1016 36 10000 3.09 130 14:38 11.03.2021
1599 Clear 6 1016 36 10000 3.09 130 14:18 11.03.2021
1600 Clear 6 1016 36 10000 2.06 90 13:43 11.03.2021
1601 Clear 7 1016 36 10000 2.06 90 13:21 11.03.2021
1602 Clear 7 1016 33 10000 1.54 110 12:49 11.03.2021
1603 Clear 7 1016 33 10000 1.54 110 12:27 11.03.2021
1604 Clear 7 1016 33 10000 2.06 100 11:45 11.03.2021
1605 Clear 7 1016 33 10000 2.06 100 11:27 11.03.2021
1606 Clear 7 1017 29 10000 2.06 120 10:48 11.03.2021
1607 Clear 8 1017 29 10000 2.06 120 10:22 11.03.2021
1608 Clear 8 1017 27 10000 2.06 180 09:45 11.03.2021
1609 Clear 8 1017 27 10000 2.06 180 09:25 11.03.2021
1610 Clear 9 1017 25 10000 1.9 232 08:48 11.03.2021
1611 Clear 10 1017 25 10000 2.56 269 08:23 11.03.2021
1612 Clear 10 1017 25 10000 2.57 280 07:44 11.03.2021
1613 Clear 11 1016 22 10000 2.57 240 06:51 11.03.2021
1614 Clear 12 1016 22 10000 2.57 240 06:31 11.03.2021
1615 -273 0 0 0 0 0 04:48 11.03.2021
1616 Clear 18 1014 14 10000 6.17 270 01:39 11.03.2021
1617 Clear 20 1014 15 10000 5.66 260 23:53 10.03.2021
1618 Clear 20 1014 15 10000 5.66 260 23:51 10.03.2021
1619 -273 0 0 0 0 0 23:21 10.03.2021
1620 Clear 19 1015 19 10000 3.6 240 22:39 10.03.2021
1621 Clear 19 1017 20 10000 1.54 330 21:47 10.03.2021
1622 Clear 19 1017 20 10000 1.54 330 21:26 10.03.2021
1623 Clear 18 1018 23 10000 2.06 0 20:58 10.03.2021
1624 Clear 18 1018 23 10000 2.06 0 20:37 10.03.2021
1625 Clear 17 1018 23 10000 2.06 0 20:19 10.03.2021
1626 Clear 17 1017 26 10000 0.89 0 19:39 10.03.2021
1627 Clear 16 1018 29 10000 1.54 0 19:20 10.03.2021
1628 Clear 15 1019 30 10000 1.54 200 18:37 10.03.2021
1629 Clear 15 1019 30 10000 1.54 200 18:18 10.03.2021
1630 Clear 13 1018 32 10000 2.29 251 17:41 10.03.2021
1631 Clear 13 1018 32 10000 2.02 261 17:19 10.03.2021
1632 Clear 12 1018 37 10000 0.89 0 16:52 10.03.2021
1633 Clear 11 1018 40 10000 1.34 0 16:29 10.03.2021
1634 Clear 8 1017 45 10000 2.57 170 15:54 10.03.2021
1635 Clear 6 1017 45 10000 2.57 170 15:36 10.03.2021
1636 Clear 6 1017 45 10000 2.57 170 15:18 10.03.2021
1637 Clear 7 1017 45 10000 1.54 180 14:23 10.03.2021
1638 Clear 7 1017 42 10000 2.06 140 13:58 10.03.2021
1639 Clear 8 1017 42 10000 2.06 140 13:31 10.03.2021
1640 Clear 8 1016 45 10000 3.09 160 12:53 10.03.2021
1641 Clear 8 1016 45 10000 3.09 160 12:28 10.03.2021
1642 Clear 9 1017 49 10000 3.09 140 11:53 10.03.2021
1643 Clear 9 1017 49 10000 3.09 140 11:28 10.03.2021
1644 Clear 9 1017 43 10000 1.79 309 10:51 10.03.2021
1645 Clear 9 1017 43 10000 1.79 309 10:33 10.03.2021
1646 Clear 10 1017 40 10000 3.6 150 09:56 10.03.2021
1647 Clear 11 1017 40 10000 3.6 150 09:38 10.03.2021
1648 Clear 11 1017 40 10000 3.6 150 09:19 10.03.2021
1649 Clear 11 1017 37 10000 2.25 298 08:44 10.03.2021
1650 Clear 12 1017 37 10000 2.82 279 08:26 10.03.2021
1651 Clear 12 1018 33 10000 4.12 220 07:44 10.03.2021
1652 Clear 13 1018 33 10000 4.12 220 07:24 10.03.2021
1653 Clear 14 1018 31 10000 2.11 250 06:52 10.03.2021
1654 Clear 20 1016 18 10000 1.79 0 02:44 10.03.2021
1655 Clouds 24 1014 13 10000 10.8 210 00:31 10.03.2021
1656 Clouds 24 1015 14 10000 8.75 190 23:33 09.03.2021
1657 Clouds 24 1015 17 10000 4.63 220 22:52 09.03.2021
1658 Clouds 23 1015 17 10000 4.63 220 22:34 09.03.2021
1659 Clouds 23 1015 17 10000 7.72 200 21:58 09.03.2021
1660 Clouds 23 1016 16 10000 4.63 180 21:38 09.03.2021
1661 Clouds 23 1016 16 10000 4.63 180 21:19 09.03.2021
1662 Clouds 22 1017 18 10000 5.14 110 20:45 09.03.2021
1663 Clouds 21 1017 18 10000 5.14 110 20:23 09.03.2021
1664 Clouds 21 1018 21 10000 2.06 60 19:59 09.03.2021
1665 Clouds 21 1018 21 10000 2.06 60 19:29 09.03.2021
1666 Clouds 20 1019 21 10000 3.6 320 18:55 09.03.2021
1667 Clouds 20 1019 21 10000 3.6 320 18:31 09.03.2021
1668 Clouds 20 1018 21 10000 1.54 260 17:59 09.03.2021
1669 Clouds 20 1018 21 10000 1.54 260 17:39 09.03.2021
1670 Clouds 20 1018 21 10000 1.54 260 17:20 09.03.2021
1671 Clouds 18 1018 24 10000 1.54 350 16:40 09.03.2021
1672 Clouds 17 1017 25 10000 1.54 110 16:21 09.03.2021
1673 Clouds 17 1018 23 10000 1.7 213 15:47 09.03.2021
1674 Clouds 16 1018 26 10000 2.06 90 15:24 09.03.2021
1675 Clouds 16 1018 26 10000 1.54 100 14:46 09.03.2021
1676 Clouds 16 1018 26 10000 1.54 100 14:24 09.03.2021
1677 Clouds 16 1017 25 10000 2.06 120 13:39 09.03.2021
1678 Clouds 17 1017 25 10000 2.06 120 13:21 09.03.2021
1679 Clouds 17 1016 22 10000 3.09 60 12:54 09.03.2021
1680 Clouds 17 1016 22 10000 3.09 60 12:35 09.03.2021
1681 Clouds 17 1018 20 10000 1.54 170 11:43 09.03.2021
1682 Clouds 17 1018 20 10000 1.54 170 11:22 09.03.2021
1683 Clouds 17 1018 19 10000 2.57 70 10:57 09.03.2021
1684 Clouds 17 1018 19 10000 2.57 70 10:39 09.03.2021
1685 Clouds 18 1018 19 10000 2.57 70 10:20 09.03.2021
1686 Clouds 18 1019 20 10000 1.8 155 09:45 09.03.2021
1687 Clouds 18 1019 20 10000 1.48 163 09:26 09.03.2021
1688 Clouds 17 1019 20 10000 1.54 150 08:48 09.03.2021
1689 Clouds 19 1019 20 10000 1.54 150 08:29 09.03.2021
1690 Clouds 19 1019 16 10000 2.2 207 07:41 09.03.2021
1691 Clouds 18 1019 16 10000 0.84 194 07:22 09.03.2021
1692 Clouds 18 1019 14 10000 0.84 194 06:44 09.03.2021
1693 Clouds 20 1018 12 10000 2.06 240 05:48 09.03.2021
1694 Clear 26 1018 8 10000 5.66 200 00:43 09.03.2021
1695 Clouds 27 1018 7 10000 6.17 220 23:45 08.03.2021
1696 Clouds 27 1018 7 10000 6.17 220 23:27 08.03.2021
1697 Clear 27 1019 6 10000 7.72 230 22:58 08.03.2021
1698 Clear 27 1019 6 10000 7.72 230 22:39 08.03.2021
1699 Clouds 27 1019 10 10000 2.06 230 22:20 08.03.2021
1700 Clear 26 1020 10 10000 3.09 310 21:40 08.03.2021
1701 Clouds 25 1019 11 10000 2.57 280 21:20 08.03.2021
1702 Clouds 24 1020 15 10000 4.63 280 20:38 08.03.2021
1703 Clouds 24 1020 15 10000 4.63 280 20:18 08.03.2021
1704 Clouds 23 1020 18 10000 2.57 300 19:38 08.03.2021
1705 Clear 23 1020 18 10000 2.57 280 18:48 08.03.2021
1706 Clouds 22 1019 23 10000 2.77 187 18:23 08.03.2021
1707 Clouds 22 1019 23 10000 2.77 187 17:57 08.03.2021
1708 Clouds 21 1019 23 10000 2.77 187 17:38 08.03.2021
1709 Clouds 20 1018 22 10000 2.54 144 16:58 08.03.2021
1710 Clouds 20 1018 22 10000 2.54 144 16:33 08.03.2021
1711 Clouds 19 1018 22 10000 1.54 110 15:59 08.03.2021
1712 Clouds 18 1018 22 10000 1.54 110 15:31 08.03.2021
1713 Clouds 18 1018 20 10000 3.05 117 14:59 08.03.2021
1714 Clouds 18 1018 20 10000 0.99 111 14:21 08.03.2021
1715 Clouds 18 1018 22 10000 4.12 150 13:44 08.03.2021
1716 Clouds 18 1018 22 10000 4.12 150 13:22 08.03.2021
1717 Clouds 17 1018 20 10000 3.6 120 12:49 08.03.2021
1718 Clouds 17 1018 20 10000 3.6 120 12:29 08.03.2021
1719 Clouds 17 1018 20 10000 1.54 120 11:45 08.03.2021
1720 Clouds 17 1018 20 10000 1.54 120 11:20 08.03.2021
1721 Clouds 17 1018 20 10000 2.21 109 10:45 08.03.2021
1722 Clouds 17 1018 20 10000 1.14 111 10:27 08.03.2021
1723 Clear 17 1018 17 10000 2.06 110 09:45 08.03.2021
1724 Clear 17 1018 17 10000 2.06 110 09:23 08.03.2021
1725 Clouds 17 1018 18 10000 1.54 130 08:30 08.03.2021
1726 Clouds 18 1018 17 10000 3.09 150 07:48 08.03.2021
1727 Clouds 18 1018 17 10000 3.09 150 07:20 08.03.2021
1728 Clear 21 1017 14 10000 1.69 183 05:19 08.03.2021
1729 Clear 28 1015 7 10000 5 223 01:28 08.03.2021
1730 Clear 28 1015 7 10000 5 223 01:28 08.03.2021
1731 Clear 29 1016 7 10000 1.54 290 00:38 08.03.2021
1732 Clouds 29 1016 8 10000 3.6 300 23:51 07.03.2021
1733 Clouds 29 1016 8 10000 3.6 300 23:20 07.03.2021
1734 Clouds 29 1016 7 10000 5.66 230 22:45 07.03.2021
1735 Clouds 29 1016 7 10000 5.66 230 22:26 07.03.2021
1736 Clouds 30 1017 8 10000 4.12 240 21:49 07.03.2021
1737 Clouds 29 1017 8 10000 4.12 240 21:30 07.03.2021
1738 Clear 29 1018 10 10000 2.66 156 20:50 07.03.2021
1739 Clouds 28 1018 11 10000 2.66 156 20:32 07.03.2021
1740 Clear 27 1019 14 10000 3.6 150 19:59 07.03.2021
1741 Clear 27 1019 14 10000 3.6 150 19:39 07.03.2021
1742 Clouds 26 1018 15 10000 4.12 130 19:21 07.03.2021
1743 Clear 25 1018 18 10000 6.17 140 18:47 07.03.2021
1744 Clear 23 1018 18 10000 6.17 140 18:20 07.03.2021
1745 Clouds 21 1018 22 10000 1.34 0 17:45 07.03.2021
1746 Clear 20 1018 22 10000 6.17 130 17:21 07.03.2021
1747 Clear 19 1017 27 10000 6.69 140 16:59 07.03.2021
1748 Clear 17 1017 27 10000 6.69 140 16:39 07.03.2021
1749 Clear 18 1017 27 10000 6.69 140 16:39 07.03.2021
1750 Clear 16 1017 27 10000 6.69 140 16:19 07.03.2021
1751 Clear 13 1016 28 10000 4.12 150 15:45 07.03.2021
1752 Clear 13 1016 28 10000 4.12 150 15:24 07.03.2021
1753 Clear 13 1015 28 10000 4.12 150 14:39 07.03.2021
1754 Clear 13 1015 28 10000 4.12 150 14:20 07.03.2021
1755 Clear 13 1016 24 10000 5.14 140 13:41 07.03.2021
1756 Clear 13 1016 24 10000 5.14 140 13:21 07.03.2021
1757 Clear 13 1015 24 10000 4.63 150 12:47 07.03.2021
1758 Clear 13 1015 24 10000 4.63 150 12:47 07.03.2021
1759 Clear 14 1015 29 10000 5.66 140 12:28 07.03.2021
1760 Clear 14 1014 27 10000 3.6 130 11:49 07.03.2021
1761 Clear 15 1014 27 10000 3.6 130 11:22 07.03.2021
1762 Clear 15 1015 27 10000 6.17 120 10:44 07.03.2021
1763 Clear 16 1015 27 10000 6.17 120 10:26 07.03.2021
1764 Clear 15 1015 27 10000 4.63 140 09:44 07.03.2021
1765 Clear 16 1015 27 10000 4.63 140 09:25 07.03.2021
1766 Clear 16 1015 29 10000 4.63 140 08:46 07.03.2021
1767 Clear 17 1015 29 10000 4.63 140 08:24 07.03.2021
1768 Clear 17 1015 24 10000 2.57 130 07:51 07.03.2021
1769 Clear 24 1013 11 10000 2.06 10 02:43 07.03.2021
1770 Clear 27 1012 10 10000 1.54 100 01:19 07.03.2021
1771 Clear 27 1013 10 10000 4.16 100 23:50 06.03.2021
1772 Clear 27 1013 10 10000 4.53 110 23:30 06.03.2021
1773 Clear 27 1014 11 10000 4.63 60 22:48 06.03.2021
1774 Clear 27 1014 11 10000 4.63 60 22:29 06.03.2021
1775 Clear 27 1015 12 10000 5.66 120 21:58 06.03.2021
1776 Clear 26 1015 13 10000 4.63 130 21:22 06.03.2021
1777 Clear 25 1016 14 10000 8.23 110 20:53 06.03.2021
1778 Clear 25 1016 14 10000 8.23 110 20:33 06.03.2021
1779 Clear 24 1017 17 10000 8.23 120 19:50 06.03.2021
1780 Clear 23 1017 17 10000 8.23 120 19:22 06.03.2021
1781 Clear 22 1017 19 10000 9.77 120 18:56 06.03.2021
1782 Clear 22 1016 21 10000 13.38 130 18:37 06.03.2021
1783 Clear 21 1016 21 10000 13.38 130 18:18 06.03.2021
1784 Clear 20 1017 24 10000 11.32 130 17:44 06.03.2021
1785 Clear 19 1017 24 10000 11.32 130 17:22 06.03.2021
1786 Clear 18 1016 25 10000 4.63 120 16:43 06.03.2021
1787 Clear 17 1016 25 10000 4.63 120 16:25 06.03.2021
1788 Clear 16 1016 27 10000 5.66 120 15:51 06.03.2021
1789 Clear 15 1016 27 10000 5.66 120 15:31 06.03.2021
1790 Clear 15 1016 27 10000 9.77 120 14:53 06.03.2021
1791 Clear 15 1016 27 10000 9.77 120 14:29 06.03.2021
1792 Clear 15 1016 27 10000 9.77 120 14:29 06.03.2021
1793 Clear 16 1015 25 10000 9.26 120 13:42 06.03.2021
1794 Clear 16 1015 25 10000 9.26 120 13:20 06.03.2021
1795 Clear 16 1015 22 10000 9.26 130 12:44 06.03.2021
1796 Clear 17 1015 22 10000 9.26 130 12:20 06.03.2021
1797 Clear 17 1016 16 10000 7.2 140 11:55 06.03.2021
1798 Clear 17 1016 16 10000 7.2 140 11:22 06.03.2021
1799 Clear 17 1016 17 10000 7.2 140 10:49 06.03.2021
1800 Clear 17 1016 17 10000 7.2 140 10:24 06.03.2021
1801 Clear 17 1017 16 10000 7.2 130 09:47 06.03.2021
1802 Clear 17 1016 14 10000 8.23 130 09:20 06.03.2021
1803 Clear 18 1016 14 10000 8.23 120 08:51 06.03.2021
1804 Clear 19 1017 14 10000 6.17 110 07:59 06.03.2021
1805 Clear 19 1017 14 10000 6.17 110 07:41 06.03.2021
1806 Clear 19 1017 14 10000 6.17 110 07:20 06.03.2021
1807 Clear 20 1017 13 10000 4.63 110 05:38 06.03.2021
1808 Clear 23 1016 7 10000 3.09 100 02:39 06.03.2021
1809 Clear 26 1016 8 10000 6.42 87 01:20 06.03.2021
1810 Clear 26 1017 8 10000 2.57 20 00:36 06.03.2021
1811 Clear 26 1017 10 10000 5.22 92 23:31 05.03.2021
1812 Clear 25 1018 11 10000 1.54 50 22:50 05.03.2021
1813 Clear 25 1018 11 10000 1.54 50 22:25 05.03.2021
1814 Clear 24 1019 12 10000 3.09 60 21:57 05.03.2021
1815 Clear 24 1019 12 10000 3.09 60 21:39 05.03.2021
1816 Clear 23 1020 16 10000 4.54 94 20:59 05.03.2021
1817 Clear 23 1020 16 10000 4.54 94 20:41 05.03.2021
1818 Clear 22 1020 16 10000 4.44 94 20:23 05.03.2021
1819 Clear 21 1021 18 10000 2.57 140 19:43 05.03.2021
1820 Clear 20 1021 18 10000 2.57 140 19:21 05.03.2021
1821 Clear 19 1021 23 10000 4.18 90 18:43 05.03.2021
1822 Clear 17 1021 23 10000 3.92 98 18:25 05.03.2021
1823 Clear 17 1021 23 10000 3.92 98 18:25 05.03.2021
1824 Clear 16 1021 31 10000 3.09 160 17:39 05.03.2021
1825 Clear 14 1021 31 10000 3.09 160 17:20 05.03.2021
1826 Clear 13 1021 46 10000 3.6 160 16:41 05.03.2021
1827 Clear 11 1021 46 10000 3.6 160 16:22 05.03.2021
1828 Clear 7 1021 53 10000 4.63 110 15:53 05.03.2021
1829 Clear 7 1021 53 10000 4.63 110 15:26 05.03.2021
1830 Clear 6 1021 57 10000 1.85 92 14:40 05.03.2021
1831 Clear 6 1021 57 10000 1.49 84 14:19 05.03.2021
1832 Clear 7 1021 61 10000 1.49 84 13:42 05.03.2021
1833 Clear 7 1021 61 10000 1.02 96 13:20 05.03.2021
1834 Clear 8 1021 57 10000 1.02 96 12:40 05.03.2021
1835 Clear 9 1022 53 10000 0.48 116 11:38 05.03.2021
1836 Clear 9 1022 53 10000 0.27 116 11:18 05.03.2021
1837 Clear 9 1023 53 10000 3.09 160 10:43 05.03.2021
1838 Clear 9 1023 53 10000 3.09 160 10:24 05.03.2021
1839 Clear 10 1023 49 10000 0.62 63 09:52 05.03.2021
1840 Clear 11 1024 46 10000 1.1 55 09:27 05.03.2021
1841 Clear 11 1023 50 10000 1.1 55 08:56 05.03.2021
1842 Clear 11 1023 50 10000 1.1 55 08:36 05.03.2021
1843 Clear 11 1023 50 10000 1.28 52 08:18 05.03.2021
1844 Clear 12 1023 44 10000 2.06 290 07:30 05.03.2021
1845 Clear 13 1023 44 10000 2.06 290 06:33 05.03.2021
1846 Clear 13 1023 41 10000 3.6 260 05:33 05.03.2021
1847 Clear 18 1022 32 10000 6.17 310 00:53 05.03.2021
1848 Clear 18 1021 27 10000 6.69 290 23:45 04.03.2021
1849 Clear 19 1021 27 10000 6.69 290 23:22 04.03.2021
1850 Clear 18 1022 32 10000 1.54 360 22:29 04.03.2021
1851 Clear 18 1023 34 10000 1.54 220 21:53 04.03.2021
1852 Clear 18 1023 34 10000 1.54 220 21:29 04.03.2021
1853 Clear 17 1024 34 10000 3.09 310 20:43 04.03.2021
1854 Clear 17 1024 34 10000 3.09 310 20:24 04.03.2021
1855 Clear 16 1023 41 10000 2.57 230 19:59 04.03.2021
1856 Clear 16 1023 41 10000 2.57 230 19:40 04.03.2021
1857 Clear 16 1023 41 10000 2.57 230 19:21 04.03.2021
1858 Clouds 15 1023 43 10000 1.34 0 18:45 04.03.2021
1859 Clear 14 1023 54 10000 2.06 190 18:25 04.03.2021
1860 Clouds 13 1023 58 10000 2.06 120 17:46 04.03.2021
1861 Clouds 13 1023 58 10000 2.06 120 17:28 04.03.2021
1862 Clouds 12 1023 57 10000 0.89 0 16:48 04.03.2021
1863 Clouds 11 1023 59 10000 0.89 0 16:29 04.03.2021
1864 Clear 9 1022 70 10000 3.6 150 15:50 04.03.2021
1865 Clear 8 1022 70 10000 3.6 150 15:32 04.03.2021
1866 Clear 8 1021 65 10000 1.03 190 14:50 04.03.2021
1867 Clear 8 1021 65 10000 1.05 274 14:26 04.03.2021
1868 Clouds 8 1020 66 10000 1.05 274 13:50 04.03.2021
1869 Clouds 9 1020 66 10000 1.05 274 13:32 04.03.2021
1870 Clouds 9 1019 61 10000 1.48 259 12:53 04.03.2021
1871 Clouds 9 1019 61 10000 1.48 259 12:35 04.03.2021
1872 Clouds 9 1019 61 10000 1.55 239 11:47 04.03.2021
1873 Clouds 9 1019 61 10000 1.62 229 11:25 04.03.2021
1874 Clear 9 1019 62 10000 2.06 190 10:52 04.03.2021
1875 Clear 9 1019 62 10000 2.06 190 10:31 04.03.2021
1876 Clear 10 1018 54 10000 3.09 170 09:42 04.03.2021
1877 Clear 10 1018 54 10000 3.09 170 09:21 04.03.2021
1878 Clear 11 1018 58 10000 2.57 130 08:35 04.03.2021
1879 Clear 12 1018 38 10000 2.57 230 07:53 04.03.2021
1880 Clear 12 1018 38 10000 2.57 230 07:28 04.03.2021
1881 Clear 13 1017 35 10000 3.09 170 06:24 04.03.2021
1882 Clear 14 1016 31 10000 2.06 250 05:27 04.03.2021
1883 Clear 25 1011 12 10000 10.8 220 01:41 04.03.2021
1884 Clouds 27 1011 13 10000 9.77 180 22:44 03.03.2021
1885 Clouds 27 1011 13 10000 9.77 180 22:26 03.03.2021
1886 Clouds 26 1012 11 10000 9.26 200 21:44 03.03.2021
1887 Clouds 26 1012 11 10000 9.26 200 21:24 03.03.2021
1888 Clouds 26 1014 7 10000 3.6 190 20:59 03.03.2021
1889 Clouds 26 1013 8 10000 7.72 210 20:41 03.03.2021
1890 Clear 25 1014 6 10000 2.57 150 19:59 03.03.2021
1891 Clear 25 1014 6 10000 2.57 150 19:40 03.03.2021
1892 Clear 24 1014 6 10000 2.57 150 19:21 03.03.2021
1893 Clear 23 1015 6 10000 5.06 165 18:47 03.03.2021
1894 Clear 21 1015 6 10000 4.59 141 18:25 03.03.2021
1895 Clouds 20 1016 8 10000 3.09 170 17:50 03.03.2021
1896 Clouds 17 1016 8 10000 3.09 170 17:18 03.03.2021
1897 Clear 16 1014 12 10000 2.57 160 16:44 03.03.2021
1898 Clear 14 1014 12 10000 2.57 160 16:23 03.03.2021
1899 Clear 9 1014 14 10000 5.66 150 15:34 03.03.2021
1900 Clear 9 1014 18 10000 3.09 150 14:58 03.03.2021
1901 Clear 10 1014 18 10000 3.09 150 14:30 03.03.2021
1902 Clear 10 1014 14 10000 5.14 140 13:53 03.03.2021
1903 Clear 10 1014 14 10000 5.14 140 13:33 03.03.2021
1904 Clear 11 1014 12 10000 6.17 140 12:46 03.03.2021
1905 Clear 11 1014 12 10000 6.17 140 12:46 03.03.2021
1906 Clear 11 1014 12 10000 6.17 140 12:28 03.03.2021
1907 Clear 8 1014 12 10000 3.09 120 11:48 03.03.2021
1908 Clear 11 1014 16 10000 4.63 120 11:28 03.03.2021
1909 Clear 10 1014 16 10000 4.63 120 10:53 03.03.2021
1910 Clear 10 1014 16 10000 4.63 120 10:32 03.03.2021
1911 Clear 10 1014 18 10000 5.66 140 09:53 03.03.2021
1912 Clear 11 1014 18 10000 5.66 140 09:35 03.03.2021
1913 Clear 12 1014 19 10000 4.63 120 08:46 03.03.2021
1914 Clear 12 1014 19 10000 4.63 120 08:22 03.03.2021
1915 Clear 13 1014 17 10000 4.12 140 07:50 03.03.2021
1916 Clear 13 1014 13 10000 4.12 120 06:51 03.03.2021
1917 Clear 15 1014 14 10000 3.6 70 05:49 03.03.2021
1918 Clear 16 1013 13 10000 1.54 190 04:59 03.03.2021
1919 Clear 17 1013 13 10000 1.54 190 04:35 03.03.2021
1920 Clear 18 1012 9 10000 3.09 50 03:51 03.03.2021
1921 Clear 24 1013 7 10000 4.63 120 23:59 02.03.2021
1922 Clear 24 1013 7 10000 4.63 120 23:31 02.03.2021
1923 Clear 24 1014 7 10000 5.14 100 22:42 02.03.2021
1924 Clear 23 1014 7 10000 5.14 100 22:19 02.03.2021
1925 Clear 23 1016 8 10000 7.2 120 21:41 02.03.2021
1926 Clear 22 1016 8 10000 7.2 120 21:22 02.03.2021
1927 Clear 22 1016 8 10000 7.2 120 21:22 02.03.2021
1928 Clear 21 1016 10 10000 8.75 130 20:48 02.03.2021
1929 Clear 21 1016 10 10000 8.75 130 20:23 02.03.2021
1930 Clear 19 1017 11 10000 9.26 130 19:57 02.03.2021
1931 Clear 19 1017 11 10000 9.26 130 19:39 02.03.2021
1932 Clear 18 1017 11 10000 9.26 130 19:20 02.03.2021
1933 Clear 18 1018 12 10000 10.8 130 18:41 02.03.2021
1934 Clear 17 1018 12 10000 10.8 130 18:21 02.03.2021
1935 Clear 16 1018 15 10000 7.2 110 17:49 02.03.2021
1936 Clear 15 1018 15 10000 7.2 110 17:30 02.03.2021
1937 Clear 14 1018 15 10000 7.2 110 17:30 02.03.2021
1938 Clear 15 1018 15 10000 7.2 110 17:30 02.03.2021
1939 Clear 15 1018 15 10000 7.2 110 17:30 02.03.2021
1940 Clear 14 1018 15 10000 7.2 110 17:30 02.03.2021
1941 Clear 13 1017 16 10000 4.63 90 16:54 02.03.2021
1942 Clear 12 1017 16 10000 4.63 90 16:22 02.03.2021
1943 Clear 10 1017 20 10000 3.6 110 15:49 02.03.2021
1944 Clear 9 1017 20 10000 3.6 110 15:22 02.03.2021
1945 Clear 9 1017 19 10000 7.2 120 14:23 02.03.2021
1946 Clear 10 1017 20 10000 5.66 130 13:49 02.03.2021
1947 Clear 10 1017 20 10000 5.66 130 13:30 02.03.2021
1948 Clear 10 1017 19 10000 4.63 140 12:55 02.03.2021
1949 Clear 10 1017 19 10000 4.63 140 12:29 02.03.2021
1950 Clear 11 1017 17 10000 4.12 120 11:53 02.03.2021
1951 Clear 11 1017 17 10000 4.12 120 11:32 02.03.2021
1952 Clear 12 1019 16 10000 5.14 120 10:57 02.03.2021
1953 Clear 12 1019 16 10000 5.14 120 10:31 02.03.2021
1954 Clear 12 1019 16 10000 6.69 120 09:44 02.03.2021
1955 Clear 12 1019 16 10000 6.69 120 09:25 02.03.2021
1956 Clear 13 1019 15 10000 13.89 130 08:56 02.03.2021
1957 Clear 13 1019 15 10000 13.89 130 08:35 02.03.2021
1958 Clear 13 1021 15 10000 7.72 120 07:52 02.03.2021
1959 Clear 14 1021 15 10000 10.29 130 06:59 02.03.2021
1960 Clear 14 1021 14 10000 9.26 130 05:54 02.03.2021
1961 Clear 15 1021 14 10000 9.26 130 05:34 02.03.2021
1962 Clear 15 1020 17 10000 7.2 90 04:58 02.03.2021
1963 Clear 18 1020 9 10000 4.63 320 01:43 02.03.2021
1964 Clear 18 1020 9 10000 4.63 320 01:43 02.03.2021
1965 Clear 18 1020 9 10000 4.63 320 01:43 02.03.2021
1966 Clear 18 1020 9 10000 4.63 320 01:43 02.03.2021
1967 Clear 18 1020 9 10000 4.63 320 01:22 02.03.2021
1968 Clear 19 1021 12 10000 2.57 320 23:40 01.03.2021
1969 Clear 18 1021 12 10000 2.57 320 23:19 01.03.2021
1970 Clear 18 1022 13 10000 2.57 350 22:38 01.03.2021
1971 Clear 17 1022 13 10000 2.57 350 22:19 01.03.2021
1972 Clear 17 1023 12 10000 2.06 300 21:42 01.03.2021
1973 Clear 17 1023 12 10000 2.06 300 21:23 01.03.2021
1974 Clear 17 1023 12 10000 2.06 300 21:23 01.03.2021
1975 Clear 16 1025 12 10000 3.6 60 20:45 01.03.2021
1976 Clear 15 1025 14 10000 1.31 76 20:26 01.03.2021
1977 Clear 14 1026 11 10000 3.09 360 19:45 01.03.2021
1978 Clear 13 1026 11 10000 3.09 360 19:26 01.03.2021
1979 Clear 12 1026 10 10000 2.06 300 18:44 01.03.2021
1980 Clear 11 1026 10 10000 2.06 300 18:23 01.03.2021
1981 Clear 10 1026 15 10000 1.34 0 17:48 01.03.2021
1982 Clear 8 1026 16 10000 0.89 0 17:23 01.03.2021
1983 Clear 7 1025 17 10000 1.33 62 16:47 01.03.2021
1984 Clear 7 1025 17 10000 1.33 62 16:47 01.03.2021
1985 Clear 6 1025 17 10000 0.82 43 16:29 01.03.2021
1986 Clear 2 1024 18 10000 1.54 90 15:56 01.03.2021
1987 Clear 2 1024 18 10000 1.54 90 15:36 01.03.2021
1988 Clear 1 1024 18 10000 1.54 90 15:18 01.03.2021
1989 Clear 1 1024 19 10000 2.06 130 14:40 01.03.2021
1990 Clear 2 1023 18 10000 2.57 90 13:57 01.03.2021
1991 Clear 2 1023 18 10000 2.57 90 13:37 01.03.2021
1992 Clear 2 1023 18 10000 2.57 90 13:19 01.03.2021
1993 Clear 2 1023 18 10000 2.57 130 12:42 01.03.2021
1994 Clear 3 1023 18 10000 2.57 130 12:24 01.03.2021
1995 Clear 3 1022 12 10000 0.47 198 11:49 01.03.2021
1996 Clear 4 1022 12 10000 0.59 149 11:23 01.03.2021
1997 Clear 4 1022 12 10000 0.59 149 11:23 01.03.2021
1998 Clear 5 1022 12 10000 1.54 240 10:37 01.03.2021
1999 Clear 5 1022 12 10000 1.54 240 10:19 01.03.2021
2000 Clear 6 1022 14 10000 2.06 170 09:50 01.03.2021
2001 Clear 6 1022 14 10000 2.06 170 09:28 01.03.2021
2002 Clear 6 1022 13 10000 2.57 190 08:55 01.03.2021
2003 Clear 6 1022 13 10000 2.57 190 08:55 01.03.2021
2004 Clear 6 1022 13 10000 2.57 190 08:22 01.03.2021
2005 Clear 8 1022 9 10000 2.06 340 07:19 01.03.2021
2006 Clear 8 1022 11 10000 5.14 310 06:24 01.03.2021
2007 Clear 10 1019 12 10000 9.26 290 02:38 01.03.2021
2008 Clear 12 1018 9 10000 8.75 280 23:44 28.02.2021
2009 Clear 12 1018 7 10000 7.72 280 22:57 28.02.2021
2010 Clear 12 1018 7 10000 7.72 280 22:37 28.02.2021
2011 Clear 12 1018 7 10000 7.72 280 22:18 28.02.2021
2012 Clear 12 1018 9 10000 11.32 320 21:37 28.02.2021
2013 Clear 12 1018 9 10000 11.32 320 21:18 28.02.2021
2014 Clear 12 1018 10 10000 9.26 300 20:39 28.02.2021
2015 Clear 12 1018 10 10000 9.26 300 20:18 28.02.2021
2016 Clear 11 1018 11 10000 6.17 310 19:46 28.02.2021
2017 Clear 11 1018 12 10000 6.17 280 19:25 28.02.2021
2018 Clear 11 1018 11 10000 5.14 300 18:44 28.02.2021
2019 Clear 11 1018 11 10000 5.14 300 18:26 28.02.2021
2020 Clear 10 1018 17 10000 3.09 240 17:53 28.02.2021
2021 Clear 9 1018 17 10000 3.09 240 17:28 28.02.2021
2022 Clear 9 1018 17 10000 3.09 240 17:28 28.02.2021
2023 Clear 9 1018 19 10000 3.6 270 16:57 28.02.2021
2024 Clear 9 1018 21 10000 2.06 290 16:38 28.02.2021
2025 Clear 7 1018 21 10000 2.06 290 16:19 28.02.2021
2026 Clear 7 1017 26 10000 3.55 285 15:49 28.02.2021
2027 Clear 7 1017 26 10000 3.74 293 15:25 28.02.2021
2028 Clear 7 1016 24 10000 3.74 293 14:53 28.02.2021
2029 Clear 7 1016 24 10000 3.24 294 14:30 28.02.2021
2030 Clear 7 1016 26 10000 2.57 230 13:52 28.02.2021
2031 Clear 7 1016 26 10000 2.57 230 13:21 28.02.2021
2032 Clear 8 1016 25 10000 2.57 260 12:57 28.02.2021
2033 Clear 8 1015 24 10000 2.57 210 12:39 28.02.2021
2034 Clear 8 1015 24 10000 2.57 210 12:20 28.02.2021
2035 Clear 8 1015 24 10000 2.06 160 11:52 28.02.2021
2036 Clear 9 1015 23 10000 3.6 270 11:26 28.02.2021
2037 Clear 9 1015 21 10000 1.54 150 10:57 28.02.2021
2038 Clear 10 1015 21 10000 1.54 150 10:29 28.02.2021
2039 Clear 10 1014 21 10000 3.09 150 09:56 28.02.2021
2040 Clear 9 1014 21 10000 3.09 150 09:34 28.02.2021
2041 Clear 10 1014 19 10000 2.57 280 08:52 28.02.2021
2042 Clear 11 1014 19 10000 2.57 280 08:33 28.02.2021
2043 Clear 11 1014 19 10000 3.09 260 07:57 28.02.2021
2044 Clear 12 1014 19 10000 3.09 260 07:39 28.02.2021
2045 Clear 11 1014 19 10000 3.09 260 07:18 28.02.2021
2046 Clear 12 1014 17 10000 1.54 190 06:23 28.02.2021
2047 Clear 16 1011 9 10000 4.12 270 03:46 28.02.2021
2048 Clear 19 1011 7 10000 5.66 280 02:20 28.02.2021
2049 Clear 22 1010 6 10000 4.63 270 00:58 28.02.2021
2050 Clear 22 1010 6 10000 4.63 270 00:58 28.02.2021
2051 Clear 22 1010 6 10000 4.63 270 00:37 28.02.2021
2052 Clear 22 1010 7 10000 3.6 290 23:48 27.02.2021
2053 Clear 22 1010 7 10000 3.6 290 23:20 27.02.2021
2054 Clear 22 1011 7 10000 3.6 220 22:49 27.02.2021
2055 Clear 21 1011 7 10000 3.6 220 22:23 27.02.2021
2056 Clear 21 1012 6 10000 2.06 280 21:51 27.02.2021
2057 Clear 21 1012 6 10000 2.06 280 21:33 27.02.2021
2058 Clear 20 1013 7 10000 3.09 310 20:54 27.02.2021
2059 Clear 20 1013 7 10000 3.09 310 20:34 27.02.2021
2060 Clear 19 1014 8 10000 1.78 274 19:55 27.02.2021
2061 Clear 19 1013 9 10000 1.78 274 19:37 27.02.2021
2062 Clear 19 1013 9 10000 1.11 223 19:19 27.02.2021
2063 Clear 17 1013 11 10000 1.13 234 18:37 27.02.2021
2064 Clear 17 1013 11 10000 1.3 170 18:18 27.02.2021
2065 Clouds 15 1013 15 10000 0.45 0 17:42 27.02.2021
2066 Clear 14 1013 15 10000 3.09 150 17:19 27.02.2021
2067 Clear 11 1013 17 10000 5.66 150 16:50 27.02.2021
2068 Clear 10 1013 17 10000 5.66 150 16:30 27.02.2021
2069 Clear 10 1013 17 10000 5.66 150 16:30 27.02.2021
2070 Clear 3 1013 26 10000 4.12 140 15:47 27.02.2021
2071 Clear 4 1012 24 10000 4.63 140 15:20 27.02.2021
2072 Clear 5 1012 24 10000 4.63 140 14:41 27.02.2021
2073 Clear 6 1012 24 10000 4.63 140 14:22 27.02.2021
2074 Clear 5 1012 26 10000 3.6 130 13:47 27.02.2021
2075 Clear 5 1012 26 10000 3.6 130 13:22 27.02.2021
2076 Clear 5 1012 28 10000 5.14 140 12:49 27.02.2021
2077 Clear 6 1012 28 10000 5.14 140 12:26 27.02.2021
2078 Clear 6 1012 28 10000 5.66 150 11:54 27.02.2021
2079 Clear 6 1012 28 10000 5.66 150 11:31 27.02.2021
2080 Clear 5 1013 28 10000 4.63 150 10:59 27.02.2021
2081 Clear 5 1013 28 10000 4.63 150 10:41 27.02.2021
2082 Clear 5 1013 28 10000 4.63 150 10:18 27.02.2021
2083 Clear 7 1013 26 10000 2.06 130 09:35 27.02.2021
2084 Clear 8 1013 24 10000 2.06 170 08:45 27.02.2021
2085 Clear 8 1013 24 10000 2.06 170 08:24 27.02.2021
2086 Clear 9 1013 24 10000 3.09 170 07:59 27.02.2021
2087 Clear 8 1013 24 10000 3.09 170 07:31 27.02.2021
2088 Clouds 17 1012 15 10000 0.89 0 02:31 27.02.2021
2089 Clear 20 1013 8 10000 2.06 260 00:33 27.02.2021
2090 Clear 20 1014 7 10000 2.7 298 23:43 26.02.2021
2091 Clear 20 1014 7 10000 2.15 290 23:24 26.02.2021
2092 Clear 20 1015 8 10000 1.54 340 22:40 26.02.2021
2093 Clear 19 1014 10 10000 1.67 278 22:21 26.02.2021
2094 Clear 19 1016 8 10000 3.09 20 21:36 26.02.2021
2095 Clouds 18 1016 13 10000 1.34 0 20:57 26.02.2021
2096 Clear 17 1016 11 10000 2.06 310 20:38 26.02.2021
2097 Clear 17 1016 11 10000 2.06 310 20:19 26.02.2021
2098 Clear 17 1016 11 10000 2.06 310 20:19 26.02.2021
2099 Clear 15 1017 14 10000 0.82 222 19:27 26.02.2021
2100 Clouds 14 1018 18 10000 0.89 0 18:57 26.02.2021
2101 Clouds 13 1018 16 10000 1.04 279 18:36 26.02.2021
2102 Clear 13 1018 16 10000 0.29 274 18:18 26.02.2021
2103 Clear 11 1020 19 10000 0.89 247 17:38 26.02.2021
2104 Clear 10 1018 20 10000 2.06 180 17:19 26.02.2021
2105 Clear 3 1018 26 10000 1.54 140 16:46 26.02.2021
2106 Clear 5 1018 26 10000 1.54 140 16:28 26.02.2021
2107 Clear 1 1017 30 10000 3.6 160 15:45 26.02.2021
2108 Clear 1 1017 30 10000 3.6 160 15:27 26.02.2021
2109 Clear 0 1017 32 10000 3.6 110 14:58 26.02.2021
2110 Clear 1 1017 32 10000 3.6 110 14:36 26.02.2021
2111 Clear 2 1017 27 10000 1.54 70 13:59 26.02.2021
2112 Clear 3 1017 27 10000 1.54 70 13:39 26.02.2021
2113 Clear 3 1018 30 10000 2.06 160 13:20 26.02.2021
2114 Clear 3 1018 30 10000 2.06 160 13:20 26.02.2021
2115 Clear 3 1017 28 10000 2.06 140 12:33 26.02.2021
2116 Clear 4 1017 28 10000 3.09 160 11:47 26.02.2021
2117 Clear 4 1017 26 10000 3.09 120 11:20 26.02.2021
2118 Clear 4 1017 26 10000 3.09 120 11:20 26.02.2021
2119 Clear 4 1017 26 10000 3.09 120 10:44 26.02.2021
2120 Clear 6 1018 26 10000 1.54 90 09:49 26.02.2021
2121 Clear 6 1018 26 10000 1.54 90 09:29 26.02.2021
2122 Clear 7 1017 24 10000 2.06 160 08:41 26.02.2021
2123 Clear 7 1018 21 10000 2.57 210 07:59 26.02.2021
2124 Clear 8 1018 21 10000 2.57 210 07:27 26.02.2021
2125 Clear 8 1018 20 10000 3.09 180 06:35 26.02.2021
2126 Clear 11 1017 17 10000 2.57 290 05:21 26.02.2021
2127 Clear 15 1017 15 10000 2.68 0 02:54 26.02.2021
2128 Clear 20 1016 9 10000 5.66 270 00:36 26.02.2021
2129 Clear 20 1016 10 10000 4.63 320 23:41 25.02.2021
2130 Clear 20 1016 10 10000 4.63 320 23:21 25.02.2021
2131 Clear 20 1017 12 10000 6.17 310 22:42 25.02.2021
2132 Clear 19 1017 10 10000 8.23 300 21:56 25.02.2021
2133 Clear 19 1017 10 10000 8.23 300 21:35 25.02.2021
2134 Clear 19 1018 13 10000 9.26 310 20:58 25.02.2021
2135 Clear 19 1018 13 10000 9.26 310 20:38 25.02.2021
2136 Clear 18 1018 13 10000 9.26 310 20:20 25.02.2021
2137 Clear 18 1019 14 10000 4.12 310 19:49 25.02.2021
2138 Clear 18 1019 14 10000 4.12 310 19:21 25.02.2021
2139 Clear 17 1019 11 10000 2.06 340 18:48 25.02.2021
2140 Clear 16 1019 12 10000 2.14 237 18:18 25.02.2021
2141 Clear 16 1018 12 10000 1.54 190 17:42 25.02.2021
2142 Clear 15 1018 12 10000 1.54 190 17:23 25.02.2021
2143 Clear 11 1018 15 10000 2.06 150 16:38 25.02.2021
2144 Clear 11 1018 15 10000 2.06 150 16:20 25.02.2021
2145 Clear 4 1017 19 10000 2.57 160 15:29 25.02.2021
2146 Clear 7 1017 15 10000 2.06 150 14:41 25.02.2021
2147 Clear 7 1017 15 10000 2.06 150 14:21 25.02.2021
2148 Clear 9 1016 17 10000 4.12 150 13:49 25.02.2021
2149 Clear 8 1016 17 10000 4.12 150 13:24 25.02.2021
2150 Clear 9 1016 18 10000 2.06 160 12:46 25.02.2021
2151 Clear 9 1016 18 10000 2.06 160 12:21 25.02.2021
2152 Clear 9 1016 18 10000 2.06 160 12:21 25.02.2021
2153 Clear 9 1016 17 10000 0.93 153 11:43 25.02.2021
2154 Clear 9 1016 17 10000 1.1 147 11:18 25.02.2021
2155 Clear 10 1017 17 10000 4.12 170 10:38 25.02.2021
2156 Clear 12 1017 16 10000 4.12 110 09:56 25.02.2021
2157 Clear 11 1017 16 10000 4.12 110 09:38 25.02.2021
2158 Clear 12 1017 15 10000 2.06 150 08:46 25.02.2021
2159 Clear 12 1017 15 10000 2.06 150 08:22 25.02.2021
2160 Clear 13 1017 12 10000 0.14 224 07:43 25.02.2021
2161 Clear 13 1017 12 10000 1.02 262 07:19 25.02.2021
2162 Clear 15 1016 11 10000 3.6 140 05:57 25.02.2021
2163 Clear 23 1014 7 10000 5.14 330 01:52 25.02.2021
2164 Clear 24 1014 7 10000 5.14 330 01:34 25.02.2021
2165 Clear 24 1014 7 10000 5.66 230 00:38 25.02.2021
2166 Clear 25 1015 7 10000 1.54 250 23:46 24.02.2021
2167 Clear 25 1016 7 10000 2.06 270 22:59 24.02.2021
2168 Clear 24 1016 7 10000 2.06 270 22:31 24.02.2021
2169 Clear 24 1017 8 10000 2.06 290 21:57 24.02.2021
2170 Clear 24 1017 8 10000 2.06 290 21:36 24.02.2021
2171 Clear 23 1018 8 10000 2.38 273 20:52 24.02.2021
2172 Clear 23 1018 8 10000 1.24 229 20:29 24.02.2021
2173 Clear 22 1019 11 10000 2.57 150 19:52 24.02.2021
2174 Clear 22 1019 11 10000 2.57 150 19:24 24.02.2021
2175 Clear 20 1019 12 10000 0.89 146 18:54 24.02.2021
2176 Clear 19 1019 11 10000 1.54 160 18:33 24.02.2021
2177 Clear 17 1021 15 10000 1.34 232 17:45 24.02.2021
2178 Clear 16 1019 16 10000 4.63 160 17:25 24.02.2021
2179 Clear 7 1019 23 10000 3.09 170 16:49 24.02.2021
2180 Clear 7 1019 23 10000 3.09 170 16:22 24.02.2021
2181 Clear 6 1018 24 10000 1.8 136 15:56 24.02.2021
2182 Clear 6 1018 24 10000 1.8 136 15:35 24.02.2021
2183 Clear 6 1017 23 10000 2.57 120 14:52 24.02.2021
2184 Clear 6 1017 23 10000 2.57 120 14:30 24.02.2021
2185 Clear 8 1017 23 10000 4.12 150 13:55 24.02.2021
2186 Clear 8 1017 23 10000 4.12 150 13:37 24.02.2021
2187 Clear 7 1017 23 10000 4.12 150 13:18 24.02.2021
2188 Clear 8 1017 24 10000 2.57 120 12:41 24.02.2021
2189 Clear 8 1017 24 10000 2.57 120 12:23 24.02.2021
2190 Clear 9 1017 21 10000 1.54 140 11:36 24.02.2021
2191 Clear 9 1017 21 10000 5.66 140 10:47 24.02.2021
2192 Clear 10 1017 21 10000 5.66 140 10:26 24.02.2021
2193 Clear 10 1017 23 10000 4.63 150 09:30 24.02.2021
2194 Clear 10 1017 20 10000 1.54 130 08:51 24.02.2021
2195 Clear 11 1017 20 10000 1.54 130 08:32 24.02.2021
2196 Clear 13 1017 17 10000 3.09 170 07:42 24.02.2021
2197 Clear 13 1017 17 10000 3.09 170 07:18 24.02.2021
2198 Clear 15 1016 12 10000 2.57 200 05:27 24.02.2021
2199 Clear 22 1015 8 10000 6.17 290 02:22 24.02.2021
2200 Clear 25 1015 6 10000 2.57 300 23:39 23.02.2021
2201 Clear 26 1016 5 10000 4.17 299 22:51 23.02.2021
2202 Clear 25 1016 5 10000 3.16 289 22:23 23.02.2021
2203 Clear 25 1017 7 10000 2.06 320 21:49 23.02.2021
2204 Clear 24 1016 7 10000 1.85 263 21:26 23.02.2021
2205 Clouds 24 1016 10 10000 0.89 0 20:59 23.02.2021
2206 Clear 23 1017 8 10000 1.54 10 20:38 23.02.2021
2207 Clear 22 1017 8 10000 1.54 10 20:20 23.02.2021
2208 Clear 21 1019 10 10000 1.42 213 19:44 23.02.2021
2209 Clear 20 1019 10 10000 1.18 188 19:26 23.02.2021
2210 Clear 18 1019 12 10000 1.54 120 18:44 23.02.2021
2211 Clear 17 1019 12 10000 1.54 120 18:25 23.02.2021
2212 Clear 14 1019 14 10000 1.43 136 17:52 23.02.2021
2213 Clear 14 1019 14 10000 1.91 115 17:27 23.02.2021
2214 Clear 7 1018 19 10000 2.06 150 16:46 23.02.2021
2215 Clear 7 1018 19 10000 2.06 150 16:23 23.02.2021
2216 Clear 5 1018 22 10000 5.14 140 15:49 23.02.2021
2217 Clear 5 1018 22 10000 5.14 140 15:29 23.02.2021
2218 Clear 6 1018 21 10000 3.6 140 14:50 23.02.2021
2219 Clear 6 1018 21 10000 3.6 140 14:28 23.02.2021
2220 Clear 8 1018 23 10000 4.12 140 13:59 23.02.2021
2221 Clear 8 1018 23 10000 4.12 140 13:36 23.02.2021
2222 Clear 7 1018 22 10000 4.12 150 12:57 23.02.2021
2223 Clear 7 1018 22 10000 4.12 150 12:28 23.02.2021
2224 Clear 8 1019 23 10000 4.12 160 11:58 23.02.2021
2225 Clear 8 1019 23 10000 4.12 160 11:28 23.02.2021
2226 Clear 8 1019 23 10000 4.12 140 10:56 23.02.2021
2227 Clear 8 1019 23 10000 4.12 140 10:38 23.02.2021
2228 Clear 8 1019 23 10000 4.63 150 09:58 23.02.2021
2229 Clear 9 1019 23 10000 4.63 150 09:38 23.02.2021
2230 Clear 9 1019 23 10000 4.63 150 09:20 23.02.2021
2231 Clear 9 1019 23 10000 4.63 150 09:20 23.02.2021
2232 Clear 9 1020 20 10000 2.57 140 08:44 23.02.2021
2233 Clear 11 1020 20 10000 2.57 140 08:20 23.02.2021
2234 Clear 12 1020 19 10000 3.09 160 06:52 23.02.2021
2235 Clear 15 1020 15 10000 3.09 170 05:25 23.02.2021
2236 Clear 20 1019 8 10000 3.09 290 02:37 23.02.2021
2237 Clear 23 1019 7 10000 5.14 300 01:55 23.02.2021
2238 Clear 24 1020 6 10000 5.14 320 00:19 23.02.2021
2239 Clear 24 1020 6 10000 3.09 280 23:28 22.02.2021
2240 Clear 24 1022 6 10000 3.6 360 22:42 22.02.2021
2241 Clear 23 1021 7 10000 2.06 300 22:21 22.02.2021
2242 Clear 23 1022 7 10000 1.54 320 21:56 22.02.2021
2243 Clear 23 1022 7 10000 1.54 320 21:37 22.02.2021
2244 Clear 22 1022 7 10000 1.54 320 21:19 22.02.2021
2245 Clear 21 1023 9 10000 2.22 43 20:42 22.02.2021
2246 Clear 21 1023 9 10000 2.62 75 20:23 22.02.2021
2247 Clear 19 1025 12 10000 2.06 320 19:39 22.02.2021
2248 Clear 19 1024 10 10000 2.66 81 19:21 22.02.2021
2249 Clear 17 1025 11 10000 3.6 120 18:46 22.02.2021
2250 Clear 16 1025 11 10000 3.6 120 18:28 22.02.2021
2251 Clear 14 1025 13 10000 4.12 150 17:43 22.02.2021
2252 Clear 12 1025 13 10000 4.12 150 17:18 22.02.2021
2253 Clear 9 1025 18 10000 3.09 120 16:47 22.02.2021
2254 Clear 9 1025 18 10000 3.09 120 16:25 22.02.2021
2255 Clear 3 1024 26 10000 2.32 72 15:31 22.02.2021
2256 Clear 4 1024 22 10000 2.25 82 14:49 22.02.2021
2257 Clear 4 1024 22 10000 2.25 82 14:30 22.02.2021
2258 Clear 5 1024 22 10000 2.06 110 13:50 22.02.2021
2259 Clear 5 1024 22 10000 2.06 110 13:25 22.02.2021
2260 Clear 5 1024 24 10000 3.09 130 12:44 22.02.2021
2261 Clear 5 1024 24 10000 3.09 130 12:22 22.02.2021
2262 Clear 5 1025 26 10000 1.84 70 11:45 22.02.2021
2263 Clear 5 1025 26 10000 1.83 74 11:25 22.02.2021
2264 Clear 6 1025 24 10000 3.09 140 10:50 22.02.2021
2265 Clear 6 1025 24 10000 3.09 140 10:31 22.02.2021
2266 Clear 7 1026 22 10000 2.06 140 09:50 22.02.2021
2267 Clear 7 1026 22 10000 2.06 140 09:30 22.02.2021
2268 Clear 7 1025 24 10000 3.09 140 08:57 22.02.2021
2269 Clear 7 1025 24 10000 3.09 140 08:38 22.02.2021
2270 Clear 9 1025 21 10000 2.57 130 07:59 22.02.2021
2271 Clear 12 1026 17 10000 0.75 71 07:27 22.02.2021
2272 Clear 11 1025 17 10000 2.57 310 06:46 22.02.2021
2273 Clear 12 1024 16 10000 4.12 310 05:46 22.02.2021
2274 Clear 14 1024 15 10000 2.24 0 03:44 22.02.2021
2275 Clear 15 1023 12 10000 1.34 0 02:52 22.02.2021
2276 Clear 19 1022 10 10000 3.13 10 00:49 22.02.2021
2277 Clear 19 1023 6 10000 4.12 310 00:24 22.02.2021
2278 Clear 19 1023 9 10000 2.57 350 23:35 21.02.2021
2279 Clear 18 1024 13 10000 2.57 350 22:55 21.02.2021
2280 Clear 18 1024 13 10000 2.57 350 22:24 21.02.2021
2281 Clear 18 1024 13 10000 2.57 350 22:24 21.02.2021
2282 Clear 18 1025 15 10000 1.54 0 21:49 21.02.2021
2283 Clear 17 1025 15 10000 1.54 0 21:30 21.02.2021
2284 Clear 17 1025 18 10000 0.74 276 20:49 21.02.2021
2285 Clear 16 1025 18 10000 0.44 183 20:20 21.02.2021
2286 Clear 16 1025 22 10000 0.45 0 19:57 21.02.2021
2287 Clear 15 1026 21 10000 1.54 0 19:36 21.02.2021
2288 Clear 15 1026 21 10000 1.54 0 19:18 21.02.2021
2289 Clear 13 1025 25 10000 0.89 0 18:26 21.02.2021
2290 Clear 12 1025 25 10000 0.39 39 17:47 21.02.2021
2291 Clear 11 1025 25 10000 0.91 325 17:20 21.02.2021
2292 Clear 10 1025 33 10000 0.45 0 16:47 21.02.2021
2293 Clear 8 1024 31 10000 2.06 140 16:26 21.02.2021
2294 Clear 6 1024 31 10000 2.57 270 15:25 21.02.2021
2295 Clear 6 1023 31 10000 1.54 240 14:58 21.02.2021
2296 Clear 6 1023 31 10000 1.54 240 14:37 21.02.2021
2297 Clear 6 1023 31 10000 1.54 240 14:37 21.02.2021
2298 Clear 6 1022 29 10000 1.54 210 13:57 21.02.2021
2299 Clear 7 1022 29 10000 1.54 210 13:29 21.02.2021
2300 Clear 7 1021 29 10000 3.09 260 12:49 21.02.2021
2301 Clear 8 1021 29 10000 3.09 260 12:26 21.02.2021
2302 Clear 8 1021 27 10000 3.09 240 11:42 21.02.2021
2303 Clear 9 1021 23 10000 3.09 270 10:48 21.02.2021
2304 Clear 10 1021 23 10000 3.09 270 10:22 21.02.2021
2305 Clear 10 1021 22 10000 3.09 220 09:47 21.02.2021
2306 Clear 10 1021 22 10000 3.09 220 09:25 21.02.2021
2307 Clear 11 1020 24 10000 0.89 0 08:37 21.02.2021
2308 Clear 12 1020 22 10000 2.24 0 07:58 21.02.2021
2309 Clear 13 1020 22 10000 1.79 0 07:23 21.02.2021
2310 Clear 15 1019 19 10000 3.58 0 06:24 21.02.2021
2311 Clear 23 1013 5 10000 7.72 270 02:43 21.02.2021
2312 Clear 25 1013 4 10000 9.26 260 01:22 21.02.2021
2313 Clear 26 1014 6 10000 8.75 250 00:22 21.02.2021
2314 Clear 26 1015 7 10000 6.69 250 23:48 20.02.2021
2315 Clear 26 1015 7 10000 7.2 260 22:58 20.02.2021
2316 Clear 26 1015 7 10000 7.2 260 22:33 20.02.2021
2317 Clear 25 1017 8 10000 3.6 310 21:57 20.02.2021
2318 Clear 25 1017 8 10000 3.6 310 21:39 20.02.2021
2319 Clear 24 1017 8 10000 3.6 310 21:18 20.02.2021
2320 Clear 23 1018 9 10000 3.09 330 20:38 20.02.2021
2321 Clear 23 1018 9 10000 3.09 330 20:19 20.02.2021
2322 Clear 22 1019 11 10000 2.32 235 19:41 20.02.2021
2323 Clear 20 1018 16 10000 0.45 189 18:55 20.02.2021
2324 Clear 19 1019 16 10000 2.06 190 18:33 20.02.2021
2325 Clear 18 1017 20 10000 0.89 108 17:47 20.02.2021
2326 Clear 16 1017 21 10000 0.45 142 17:28 20.02.2021
2327 Clear 8 1018 27 10000 4.12 150 16:49 20.02.2021
2328 Clear 10 1018 27 10000 4.12 150 16:23 20.02.2021
2329 Clear 8 1018 29 10000 2.57 150 15:42 20.02.2021
2330 Clear 8 1018 29 10000 4.12 160 14:52 20.02.2021
2331 Clear 7 1018 29 10000 4.12 160 14:25 20.02.2021
2332 Clear 8 1019 27 10000 3.6 130 13:58 20.02.2021
2333 Clear 9 1019 27 10000 3.6 130 13:39 20.02.2021
2334 Clear 9 1019 27 10000 3.6 130 13:20 20.02.2021
2335 Clear 9 1019 26 10000 2.06 160 12:36 20.02.2021
2336 Clear 9 1019 25 10000 4.63 140 11:51 20.02.2021
2337 Clear 9 1019 25 10000 4.63 140 11:31 20.02.2021
2338 Clear 9 1020 27 10000 3.6 140 10:50 20.02.2021
2339 Clear 9 1020 27 10000 3.6 140 10:24 20.02.2021
2340 Clear 10 1021 23 10000 3.6 140 09:47 20.02.2021
2341 Clear 11 1021 23 10000 3.09 150 08:56 20.02.2021
2342 Clear 11 1021 23 10000 3.09 150 08:24 20.02.2021
2343 Clear 11 1022 20 10000 2.06 150 07:19 20.02.2021
2344 Clear 18 1020 16 10000 0.45 0 02:32 20.02.2021
2345 Clear 20 1020 13 10000 1.34 0 01:58 20.02.2021
2346 Clear 21 1020 10 10000 1.34 325 01:18 20.02.2021
2347 Clear 21 1020 10 10000 1.34 0 01:18 20.02.2021
2348 Clear 22 1021 8 10000 3.09 10 00:37 20.02.2021
2349 Clear 21 1021 8 10000 1.54 0 23:30 19.02.2021
2350 Clear 21 1022 8 10000 2.57 0 22:47 19.02.2021
2351 Clear 20 1022 8 10000 2.57 0 22:20 19.02.2021
2352 Clear 20 1023 10 10000 2.57 20 21:44 19.02.2021
2353 Clear 19 1023 10 10000 2.57 20 21:23 19.02.2021
2354 Clear 18 1024 12 10000 4.12 30 20:42 19.02.2021
2355 Clear 18 1024 12 10000 4.12 30 20:24 19.02.2021
2356 Clear 17 1025 13 10000 3.09 60 19:47 19.02.2021
2357 Clear 16 1025 13 10000 3.09 60 19:20 19.02.2021
2358 Clear 15 1026 15 10000 6.69 120 18:50 19.02.2021
2359 Clear 14 1026 15 10000 6.69 120 18:26 19.02.2021
2360 Clear 12 1026 17 10000 6.69 110 17:39 19.02.2021
2361 Clear 9 1026 23 10000 4.12 150 16:43 19.02.2021
2362 Clear 8 1026 23 10000 4.12 150 16:22 19.02.2021
2363 Clear 7 1025 26 10000 4.63 120 15:55 19.02.2021
2364 Clear 4 1025 26 10000 4.63 120 15:30 19.02.2021
2365 Clear 6 1025 28 10000 3.09 180 14:49 19.02.2021
2366 Clear 5 1024 30 10000 4.63 130 14:29 19.02.2021
2367 Clear 5 1024 30 10000 4.63 130 13:56 19.02.2021
2368 Clear 5 1024 30 10000 4.63 130 13:36 19.02.2021
2369 Clear 4 1025 32 10000 2.06 100 12:53 19.02.2021
2370 Clear 4 1025 32 10000 2.06 100 12:27 19.02.2021
2371 Clear 5 1025 32 10000 2.06 160 11:57 19.02.2021
2372 Clear 5 1025 32 10000 2.06 160 11:32 19.02.2021
2373 Clear 5 1025 30 10000 2.06 160 10:55 19.02.2021
2374 Clear 5 1025 30 10000 2.06 160 10:33 19.02.2021
2375 Clear 5 1025 30 10000 2.57 170 09:58 19.02.2021
2376 Clear 5 1025 30 10000 2.57 170 09:27 19.02.2021
2377 Clear 7 1025 25 10000 1.54 180 08:55 19.02.2021
2378 Clear 7 1025 25 10000 1.54 180 08:28 19.02.2021
2379 Clear 7 1025 25 10000 1.54 180 08:28 19.02.2021
2380 Clear 8 1025 26 10000 1.29 57 07:54 19.02.2021
2381 Clear 8 1025 26 10000 1.29 57 07:36 19.02.2021
2382 Clear 9 1025 23 10000 1.54 360 06:59 19.02.2021
2383 Clear 9 1025 23 10000 1.54 360 06:31 19.02.2021
2384 Clear 10 1024 17 10000 1.54 310 04:42 19.02.2021
2385 Clear 13 1023 14 10000 2.57 300 02:31 19.02.2021
2386 Clear 16 1022 12 10000 2.06 180 00:59 19.02.2021
2387 Clear 16 1022 12 10000 2.06 180 00:26 19.02.2021
2388 Clear 16 1022 13 10000 0.1 358 23:43 18.02.2021
2389 Clear 15 1022 13 10000 0.31 285 23:25 18.02.2021
2390 Clear 15 1023 14 10000 1.54 290 22:36 18.02.2021
2391 Clear 15 1023 14 10000 1.54 290 22:18 18.02.2021
2392 Clear 14 1024 16 10000 3.09 250 21:28 18.02.2021
2393 Clear 14 1025 18 10000 2.57 310 20:58 18.02.2021
2394 Clear 13 1025 18 10000 2.57 310 20:38 18.02.2021
2395 Clear 13 1024 19 10000 2.57 350 20:19 18.02.2021
2396 Clear 12 1025 24 10000 3.09 330 19:43 18.02.2021
2397 Clear 12 1025 24 10000 3.09 330 19:19 18.02.2021
2398 Clear 11 1025 27 10000 1.54 300 18:47 18.02.2021
2399 Clear 10 1025 27 10000 1.54 300 18:26 18.02.2021
2400 Clear 8 1024 33 10000 0.45 0 17:45 18.02.2021
2401 Clear 7 1024 28 10000 1.02 116 17:23 18.02.2021
2402 Clear 6 1023 35 10000 1.54 190 16:45 18.02.2021
2403 Clear 5 1023 35 10000 1.54 190 16:26 18.02.2021
2404 Clear 3 1021 43 10000 3.6 150 15:42 18.02.2021
2405 Clear 2 1021 43 10000 3.6 150 15:22 18.02.2021
2406 Clear 3 1020 40 10000 2.06 150 14:50 18.02.2021
2407 Clear 3 1020 40 10000 2.06 150 14:30 18.02.2021
2408 Clear 3 1019 38 10000 1.1 337 13:49 18.02.2021
2409 Clear 3 1019 38 10000 1.22 338 13:21 18.02.2021
2410 Clear 4 1018 35 10000 2.06 180 12:54 18.02.2021
2411 Clear 4 1018 35 10000 2.06 180 12:28 18.02.2021
2412 Clear 4 1017 35 10000 2.06 290 11:47 18.02.2021
2413 Clear 5 1017 35 10000 2.06 290 11:27 18.02.2021
2414 Clear 6 1017 33 10000 2.57 200 10:53 18.02.2021
2415 Clear 5 1017 33 10000 2.57 200 10:35 18.02.2021
2416 Clear 6 1016 24 10000 0.96 281 09:57 18.02.2021
2417 Clear 6 1016 24 10000 0.7 358 09:27 18.02.2021
2418 Clear 7 1015 23 10000 2.57 260 08:48 18.02.2021
2419 Clear 7 1015 23 10000 2.57 260 08:29 18.02.2021
2420 Clear 7 1014 21 10000 2.06 280 07:37 18.02.2021
2421 Clear 8 1014 18 10000 1.54 260 06:59 18.02.2021
2422 Clouds 11 1013 17 10000 5.14 280 04:48 18.02.2021
2423 Clouds 15 1010 17 10000 3.13 290 23:57 17.02.2021
2424 Clouds 15 1010 17 10000 4.47 337 23:38 17.02.2021
2425 Clouds 16 1011 14 10000 8.23 280 22:56 17.02.2021
2426 Clouds 16 1011 14 10000 8.23 280 22:29 17.02.2021
2427 Clear 16 1011 16 10000 6.17 280 21:58 17.02.2021
2428 Clear 16 1011 16 10000 6.17 280 21:23 17.02.2021
2429 Clear 16 1012 20 10000 7.72 270 20:56 17.02.2021
2430 Clear 15 1012 20 10000 7.72 270 20:37 17.02.2021
2431 Clear 15 1013 26 10000 4.12 290 19:55 17.02.2021
2432 Clear 14 1013 26 10000 4.12 290 19:35 17.02.2021
2433 Clear 13 1013 30 10000 1.54 260 18:52 17.02.2021
2434 Clear 13 1013 30 10000 1.54 260 18:33 17.02.2021
2435 Clear 12 1013 37 10000 1.54 170 17:46 17.02.2021
2436 Clear 11 1013 37 10000 1.54 170 17:21 17.02.2021
2437 Clear 9 1014 47 10000 0.45 0 16:51 17.02.2021
2438 Clear 7 1014 56 10000 3.09 160 16:29 17.02.2021
2439 Clear 4 1012 65 10000 3.09 120 15:46 17.02.2021
2440 Clear 4 1012 65 10000 3.09 120 15:28 17.02.2021
2441 Clear 4 1012 56 10000 3.09 100 14:59 17.02.2021
2442 Clear 5 1012 56 10000 3.09 100 14:39 17.02.2021
2443 Clear 5 1012 56 10000 3.09 100 14:21 17.02.2021
2444 Clear 6 1011 52 10000 2.57 170 13:40 17.02.2021
2445 Clear 6 1011 48 10000 2.06 160 12:58 17.02.2021
2446 Clear 6 1011 48 10000 2.06 160 12:26 17.02.2021
2447 Clear 7 1011 39 10000 2.79 280 11:48 17.02.2021
2448 Clear 7 1011 39 10000 3.11 275 11:29 17.02.2021
2449 Clear 8 1011 39 10000 3.09 260 10:57 17.02.2021
2450 Clear 7 1011 39 10000 3.09 260 10:39 17.02.2021
2451 Clear 8 1011 39 10000 3.09 260 10:20 17.02.2021
2452 Clear 8 1011 42 10000 3.09 240 09:40 17.02.2021
2453 Clear 9 1011 37 10000 2.57 240 08:58 17.02.2021
2454 Clear 9 1011 37 10000 2.57 240 08:37 17.02.2021
2455 Clear 9 1011 37 10000 2.57 240 08:18 17.02.2021
2456 Clouds 10 1011 19 10000 2.06 240 06:48 17.02.2021
2457 Clear 13 1010 18 10000 1.79 0 03:53 17.02.2021
2458 Clear 15 1008 20 10000 6.17 270 02:33 17.02.2021
2459 Clear 16 1008 23 10000 7.72 270 01:37 17.02.2021
2460 Clouds 17 1008 25 10000 7.2 250 00:28 17.02.2021
2461 Clouds 17 1008 29 10000 7.72 260 23:43 16.02.2021
2462 Clouds 17 1008 29 10000 7.72 260 23:23 16.02.2021
2463 Clouds 17 1008 31 10000 8.75 250 22:41 16.02.2021
2464 Clouds 17 1008 31 10000 8.75 250 22:21 16.02.2021
2465 Clouds 16 1010 38 10000 7.2 260 21:40 16.02.2021
2466 Clouds 16 1010 38 10000 7.2 260 21:22 16.02.2021
2467 Clouds 15 1011 41 10000 7.2 290 20:57 16.02.2021
2468 Clouds 15 1011 41 10000 7.2 290 20:38 16.02.2021
2469 Clouds 14 1011 41 10000 7.2 290 20:19 16.02.2021
2470 Clouds 13 1011 33 10000 4.12 10 19:39 16.02.2021
2471 Clouds 13 1011 33 10000 4.12 10 19:20 16.02.2021
2472 Clouds 13 1010 33 10000 7.72 220 18:38 16.02.2021
2473 Clouds 13 1010 33 10000 7.72 220 18:19 16.02.2021
2474 Clouds 12 1011 32 10000 2.06 200 17:48 16.02.2021
2475 Clouds 12 1011 32 10000 2.06 200 17:23 16.02.2021
2476 Clouds 11 1009 30 10000 7.72 220 16:45 16.02.2021
2477 Clouds 11 1009 28 10000 3.42 222 16:24 16.02.2021
2478 Clouds 11 1009 28 10000 3.42 222 16:24 16.02.2021
2479 Clouds 11 1009 28 10000 3.42 222 15:44 16.02.2021
2480 Clouds 11 1009 28 10000 1.55 199 15:26 16.02.2021
2481 Clouds 11 1009 30 10000 4.63 220 14:47 16.02.2021
2482 Clouds 11 1009 30 10000 4.63 220 14:28 16.02.2021
2483 Clouds 10 1009 29 10000 0.78 184 13:53 16.02.2021
2484 Clouds 10 1009 29 10000 1.44 175 13:30 16.02.2021
2485 Clear 10 1009 31 10000 3.6 160 12:44 16.02.2021
2486 Clear 10 1009 31 10000 3.6 160 12:22 16.02.2021
2487 Clouds 10 1013 27 10000 2.57 320 11:48 16.02.2021
2488 Clouds 10 1013 27 10000 2.57 320 11:23 16.02.2021
2489 Clear 9 1011 33 10000 3.6 140 10:51 16.02.2021
2490 Clear 9 1011 33 10000 3.6 140 10:32 16.02.2021
2491 Clear 10 1012 31 10000 2.57 100 09:56 16.02.2021
2492 Clear 9 1012 31 10000 2.57 100 09:36 16.02.2021
2493 Clear 9 1012 31 10000 2.57 100 09:18 16.02.2021
2494 Clear 8 1013 31 10000 2.06 130 08:39 16.02.2021
2495 Clear 9 1013 31 10000 2.06 130 08:18 16.02.2021
2496 Clear 9 1013 27 10000 2.57 140 07:20 16.02.2021
2497 Clear 11 1015 20 10000 1.54 270 04:33 16.02.2021
2498 Clouds 16 1014 14 10000 3.09 260 00:45 16.02.2021
2499 Clear 16 1015 14 10000 4.12 240 23:31 15.02.2021
2500 Clouds 16 1015 14 10000 3.6 250 22:59 15.02.2021
2501 Clouds 16 1015 14 10000 3.6 250 22:41 15.02.2021
2502 Clouds 15 1015 17 10000 2.06 260 21:59 15.02.2021
2503 Clouds 16 1015 17 10000 2.06 260 21:38 15.02.2021
2504 Clouds 15 1015 17 10000 2.06 260 21:19 15.02.2021
2505 Clouds 15 1016 18 10000 4.12 260 20:44 15.02.2021
2506 Clouds 14 1016 18 10000 4.12 260 20:24 15.02.2021
2507 Clouds 14 1016 18 10000 4.12 260 20:24 15.02.2021
2508 Clear 14 1018 18 10000 3.09 320 19:43 15.02.2021
2509 Clear 13 1017 19 10000 2.06 280 19:22 15.02.2021
2510 Clouds 13 1017 24 10000 0.89 0 18:44 15.02.2021
2511 Clear 12 1017 24 10000 1.95 173 18:25 15.02.2021
2512 Clouds 10 1017 29 10000 0.89 0 17:41 15.02.2021
2513 Clear 9 1017 29 10000 1.54 170 17:22 15.02.2021
2514 Clouds 8 1017 35 10000 0.45 0 16:55 15.02.2021
2515 Clear 7 1016 36 10000 2.57 170 16:27 15.02.2021
2516 Clear 4 1015 41 10000 2.06 160 15:50 15.02.2021
2517 Clear 2 1015 41 10000 2.06 160 15:22 15.02.2021
2518 Clear 4 1015 41 10000 3.09 140 14:54 15.02.2021
2519 Clear 4 1015 41 10000 3.09 140 14:22 15.02.2021
2520 Clear 4 1014 44 10000 4.12 140 13:58 15.02.2021
2521 Clear 4 1014 44 10000 4.12 140 13:58 15.02.2021
2522 Clear 4 1014 44 10000 4.12 140 13:39 15.02.2021
2523 Clear 4 1014 44 10000 4.12 140 13:18 15.02.2021
2524 Clear 5 1014 38 10000 3.6 160 12:39 15.02.2021
2525 Clear 5 1014 38 10000 3.6 160 12:19 15.02.2021
2526 Clear 5 1015 38 10000 4.12 160 11:41 15.02.2021
2527 Clear 5 1015 38 10000 4.12 160 11:19 15.02.2021
2528 Clear 5 1015 36 10000 4.63 180 10:46 15.02.2021
2529 Clear 6 1015 36 10000 4.63 180 10:22 15.02.2021
2530 Clear 6 1015 36 10000 2.57 190 09:53 15.02.2021
2531 Clear 6 1015 36 10000 2.57 190 09:33 15.02.2021
2532 Clear 6 1015 36 10000 2.57 190 09:33 15.02.2021
2533 Clear 6 1014 38 10000 2.57 160 08:41 15.02.2021
2534 Clear 7 1014 36 10000 2.06 200 07:38 15.02.2021
2535 Clear 9 1014 29 10000 2.76 273 06:45 15.02.2021
2536 Clear 9 1014 29 10000 3.06 273 06:27 15.02.2021
2537 Clear 13 1010 23 10000 4.63 260 02:28 15.02.2021
2538 Clear 15 1009 20 10000 5.66 290 00:35 15.02.2021
2539 Clear 15 1008 18 10000 4.63 260 23:33 14.02.2021
2540 Clear 15 1008 17 10000 6.69 250 22:54 14.02.2021
2541 Clear 15 1008 17 10000 6.69 250 22:54 14.02.2021
2542 Clear 15 1008 17 10000 6.69 250 22:35 14.02.2021
2543 Clear 15 1008 23 10000 6.69 260 21:58 14.02.2021
2544 Clear 15 1008 23 10000 6.69 260 21:38 14.02.2021
2545 Clear 15 1008 23 10000 6.69 260 21:19 14.02.2021
2546 Clear 14 1008 28 10000 6.69 290 20:39 14.02.2021
2547 Clear 14 1008 28 10000 6.69 290 20:20 14.02.2021
2548 Clear 13 1009 30 10000 4.12 270 19:40 14.02.2021
2549 Clouds 12 1008 32 10000 4.63 270 18:49 14.02.2021
2550 Clouds 12 1008 32 10000 4.63 270 18:29 14.02.2021
2551 Clouds 11 1008 46 10000 3.09 220 17:49 14.02.2021
2552 Clouds 10 1008 46 10000 3.09 220 17:30 14.02.2021
2553 Clouds 9 1007 53 10000 3.6 230 16:43 14.02.2021
2554 Clouds 9 1007 53 10000 3.6 230 16:24 14.02.2021
2555 Clear 8 1006 49 10000 5.66 250 15:46 14.02.2021
2556 Clear 8 1006 49 10000 5.66 250 15:26 14.02.2021
2557 Clear 9 1006 52 10000 2.24 294 14:42 14.02.2021
2558 Clear 9 1005 53 10000 4.63 250 14:20 14.02.2021
2559 Clear 10 1005 53 10000 2.24 297 13:38 14.02.2021
2560 Clouds 10 1004 54 10000 6.69 240 13:20 14.02.2021
2561 Clouds 11 1004 58 10000 5.14 240 12:24 14.02.2021
2562 Clear 11 1004 54 10000 3.6 230 11:52 14.02.2021
2563 Clear 11 1004 54 10000 3.6 230 11:28 14.02.2021
2564 Clouds 11 1004 50 10000 5.66 230 10:59 14.02.2021
2565 Clouds 12 1004 50 10000 5.66 230 10:21 14.02.2021
2566 Clouds 12 1004 44 10000 6.17 240 09:40 14.02.2021
2567 Clouds 12 1004 44 10000 6.17 240 09:21 14.02.2021
2568 Clouds 13 1004 38 10000 5.14 260 08:52 14.02.2021
2569 Clear 13 1004 35 10000 4.63 220 07:58 14.02.2021
2570 Clear 13 1004 38 10000 4.63 200 06:54 14.02.2021
2571 Clear 13 1004 38 10000 4.12 180 05:43 14.02.2021
2572 Clouds 15 1005 31 10000 4.63 200 03:33 14.02.2021
2573 Clouds 17 1005 25 10000 6.69 210 02:29 14.02.2021
2574 Clouds 19 1004 22 10000 5.14 260 00:54 14.02.2021
2575 Clouds 20 1004 22 10000 5.14 260 00:34 14.02.2021
2576 Clear 21 1003 19 10000 8.23 190 23:42 13.02.2021
2577 Clear 21 1003 19 10000 8.23 190 23:23 13.02.2021
2578 Clouds 21 1006 23 10000 7.2 200 22:47 13.02.2021
2579 Clouds 20 1006 23 10000 7.2 200 22:20 13.02.2021
2580 Clouds 19 1010 32 10000 1.54 110 21:44 13.02.2021
2581 Clouds 19 1010 32 10000 1.54 110 21:22 13.02.2021
2582 Clouds 17 1012 39 10000 3.6 150 20:30 13.02.2021
2583 Clear 16 1013 44 10000 3.09 170 19:59 13.02.2021
2584 Clear 16 1013 44 10000 3.09 170 19:40 13.02.2021
2585 Clear 15 1013 44 10000 3.09 170 19:21 13.02.2021
2586 Clouds 14 1013 47 10000 2.13 180 18:45 13.02.2021
2587 Clouds 14 1013 47 10000 2.25 147 18:23 13.02.2021
2588 Clouds 13 1014 50 10000 1.34 0 17:43 13.02.2021
2589 Clouds 11 1013 57 10000 4.12 160 17:23 13.02.2021
2590 Clear 8 1013 65 10000 3.6 160 16:44 13.02.2021
2591 Clear 8 1013 65 10000 3.6 160 16:26 13.02.2021
2592 Clear 7 1012 70 10000 4.12 140 15:40 13.02.2021
2593 Clear 7 1012 70 10000 0.65 214 14:58 13.02.2021
2594 Clear 7 1012 70 10000 0.65 214 14:32 13.02.2021
2595 Clear 7 1011 65 10000 3.09 130 13:48 13.02.2021
2596 Clear 8 1011 65 10000 3.09 130 13:25 13.02.2021
2597 Clear 8 1012 65 10000 1.54 230 12:50 13.02.2021
2598 Clear 8 1012 65 10000 1.54 230 12:19 13.02.2021
2599 Clear 8 1011 66 10000 2.06 150 11:45 13.02.2021
2600 Clear 9 1011 66 10000 2.06 150 11:20 13.02.2021
2601 Clear 9 1011 66 10000 2.57 170 10:46 13.02.2021
2602 Clear 9 1011 66 10000 2.57 170 10:25 13.02.2021
2603 Clear 9 1011 62 10000 1.54 200 09:56 13.02.2021
2604 Clear 10 1011 62 10000 1.54 200 09:30 13.02.2021
2605 Clear 10 1012 54 10000 3.09 210 08:59 13.02.2021
2606 Clear 11 1012 54 10000 3.09 210 08:39 13.02.2021
2607 Clear 11 1011 47 10000 2.06 270 07:52 13.02.2021
2608 Clouds 13 1011 47 10000 4.12 290 06:41 13.02.2021
2609 Clouds 13 1010 47 10000 5.66 300 05:27 13.02.2021
2610 Clouds 15 1009 47 10000 3.13 0 03:58 13.02.2021
2611 Clouds 19 1007 19 10000 8.23 270 01:48 13.02.2021
2612 Clouds 20 1007 21 10000 3.13 0 00:42 13.02.2021
2613 Clouds 22 1007 20 10000 2.24 0 23:54 12.02.2021
2614 Clouds 22 1007 16 10000 6.69 220 23:26 12.02.2021
2615 Clouds 22 1007 15 10000 7.2 200 22:44 12.02.2021
2616 Clouds 22 1007 16 10000 4.63 240 22:25 12.02.2021
2617 Clear 22 1008 15 10000 6.17 220 21:46 12.02.2021
2618 Clear 22 1008 15 10000 6.17 220 21:27 12.02.2021
2619 Clouds 21 1011 18 10000 1.54 300 20:46 12.02.2021
2620 Clouds 21 1011 18 10000 1.54 300 20:28 12.02.2021
2621 Clouds 20 1011 20 10000 5.58 225 19:57 12.02.2021
2622 Clouds 20 1011 20 10000 5.58 225 19:37 12.02.2021
2623 Clouds 19 1011 24 10000 0.89 153 18:57 12.02.2021
2624 Clouds 17 1011 26 10000 0.89 196 18:30 12.02.2021
2625 Clouds 14 1013 30 10000 6.69 130 17:46 12.02.2021
2626 Clouds 13 1012 35 10000 6.69 140 17:21 12.02.2021
2627 Clouds 11 1013 37 10000 4.63 130 16:28 12.02.2021
2628 Clouds 11 1013 37 10000 3.6 160 15:46 12.02.2021
2629 Clouds 10 1013 37 10000 3.6 160 15:21 12.02.2021
2630 Clouds 9 1013 40 10000 4.63 140 14:42 12.02.2021
2631 Clouds 10 1013 40 10000 4.63 140 14:23 12.02.2021
2632 Clouds 10 1013 37 10000 2.57 110 13:40 12.02.2021
2633 Clouds 10 1013 42 10000 4.63 150 12:56 12.02.2021
2634 Clouds 9 1013 42 10000 4.63 150 12:37 12.02.2021
2635 Clouds 9 1013 42 10000 4.63 150 12:18 12.02.2021
2636 Clear 6 1013 42 10000 4.12 140 11:38 12.02.2021
2637 Clear 7 1013 42 10000 4.12 140 11:19 12.02.2021
2638 Clear 9 1014 40 10000 2.06 130 10:41 12.02.2021
2639 Clear 11 1014 40 10000 0.52 152 09:49 12.02.2021
2640 Clear 11 1014 40 10000 0.72 169 09:25 12.02.2021
2641 Clear 11 1014 37 10000 4.63 140 08:49 12.02.2021
2642 Clear 11 1014 37 10000 4.63 140 08:28 12.02.2021
2643 Clear 11 1014 32 10000 3.09 180 07:57 12.02.2021
2644 Clear 12 1014 32 10000 3.09 180 07:31 12.02.2021
2645 Clear 12 1014 30 10000 2.06 160 06:55 12.02.2021
2646 Clear 13 1014 26 10000 2.06 270 05:47 12.02.2021
2647 Clear 16 1014 25 10000 3.09 310 04:30 12.02.2021
2648 Clear 21 1014 15 10000 5.66 300 01:28 12.02.2021
2649 Clear 22 1014 16 10000 2.57 320 23:40 11.02.2021
2650 Clear 22 1014 16 10000 2.57 320 23:22 11.02.2021
2651 Clear 22 1014 18 10000 2.06 280 22:46 11.02.2021
2652 Clear 22 1014 18 10000 2.06 280 22:24 11.02.2021
2653 Clear 22 1016 18 10000 1.54 0 21:57 11.02.2021
2654 Clear 21 1016 18 10000 1.54 0 21:36 11.02.2021
2655 Clear 21 1015 19 10000 1.07 251 21:18 11.02.2021
2656 Clear 21 1015 19 10000 1.07 251 21:18 11.02.2021
2657 Clear 20 1017 22 10000 1.07 251 20:41 11.02.2021
2658 Clear 20 1017 22 10000 0.5 213 20:21 11.02.2021
2659 Clear 19 1017 24 10000 0.89 0 19:47 11.02.2021
2660 Clear 18 1017 25 10000 0.39 213 19:27 11.02.2021
2661 Clear 17 1017 28 10000 0.89 192 18:47 11.02.2021
2662 Clear 16 1017 29 10000 0.72 181 18:25 11.02.2021
2663 Clear 14 1018 35 10000 0.89 0 17:50 11.02.2021
2664 Clear 13 1018 38 10000 0.45 0 17:22 11.02.2021
2665 Clear 7 1017 49 10000 4.12 160 16:49 11.02.2021
2666 Clear 10 1017 46 10000 4.12 160 16:30 11.02.2021
2667 Clear 6 1016 52 10000 3.6 140 15:49 11.02.2021
2668 Clear 6 1016 52 10000 3.6 140 15:29 11.02.2021
2669 Clear 6 1016 52 10000 4.12 140 14:58 11.02.2021
2670 Clear 6 1016 52 10000 4.12 140 14:32 11.02.2021
2671 Clear 8 1015 49 10000 2.57 150 13:45 11.02.2021
2672 Clear 8 1015 49 10000 2.57 150 13:21 11.02.2021
2673 Clear 9 1016 46 10000 2.57 140 12:58 11.02.2021
2674 Clear 9 1016 46 10000 2.57 140 12:36 11.02.2021
2675 Clear 9 1016 46 10000 2.57 170 11:57 11.02.2021
2676 Clear 9 1016 46 10000 2.57 170 11:57 11.02.2021
2677 Clear 9 1016 46 10000 2.57 170 11:39 11.02.2021
2678 Clear 10 1016 46 10000 2.57 170 11:18 11.02.2021
2679 Clear 11 1015 40 10000 1.32 307 10:39 11.02.2021
2680 Clear 11 1015 40 10000 1.91 307 10:21 11.02.2021
2681 Clear 11 1015 40 10000 2.57 220 09:41 11.02.2021
2682 Clear 11 1015 40 10000 2.57 220 09:19 11.02.2021
2683 Clouds 12 1015 37 10000 2.57 170 08:49 11.02.2021
2684 Clouds 13 1014 33 10000 2.57 220 07:53 11.02.2021
2685 Clouds 14 1014 28 10000 3.09 180 06:46 11.02.2021
2686 Clouds 14 1014 28 10000 3.09 180 06:23 11.02.2021
2687 Clear 17 1013 24 10000 3.09 310 03:46 11.02.2021
2688 Clear 19 1012 21 10000 2.57 230 02:25 11.02.2021
2689 Clouds 22 1012 17 10000 2.06 360 00:24 11.02.2021
2690 Clouds 22 1012 17 10000 3.6 190 23:59 10.02.2021
2691 Clouds 22 1012 17 10000 3.6 190 23:28 10.02.2021
2692 Clouds 22 1012 18 10000 3.6 300 22:48 10.02.2021
2693 Clouds 22 1012 18 10000 3.6 300 22:24 10.02.2021
2694 Clear 22 1013 18 10000 2.57 230 21:40 10.02.2021
2695 Clear 22 1013 18 10000 2.57 230 21:21 10.02.2021
2696 Clear 21 1014 19 10000 2.57 150 20:52 10.02.2021
2697 Clear 21 1014 19 10000 2.57 150 20:29 10.02.2021
2698 Clear 20 1016 20 10000 3.09 120 19:57 10.02.2021
2699 Clear 20 1016 20 10000 3.09 120 19:39 10.02.2021
2700 Clear 19 1015 23 10000 2.57 130 19:18 10.02.2021
2701 Clear 18 1016 27 10000 3.6 170 18:36 10.02.2021
2702 Clouds 17 1015 26 10000 1.88 164 18:18 10.02.2021
2703 Clouds 15 1015 30 10000 2.57 130 17:44 10.02.2021
2704 Clouds 14 1015 30 10000 2.57 130 17:21 10.02.2021
2705 Clouds 14 1015 30 10000 2.57 130 17:21 10.02.2021
2706 Clouds 13 1015 32 10000 4.12 140 16:48 10.02.2021
2707 Clouds 12 1015 32 10000 4.12 140 16:28 10.02.2021
2708 Clouds 11 1014 35 10000 3.09 140 15:39 10.02.2021
2709 Clouds 11 1014 35 10000 3.09 140 15:21 10.02.2021
2710 Clouds 11 1014 32 10000 1.54 180 14:39 10.02.2021
2711 Clouds 11 1013 34 10000 2.06 130 13:55 10.02.2021
2712 Clouds 11 1013 34 10000 2.06 130 13:31 10.02.2021
2713 Clouds 11 1014 32 10000 3.09 140 12:56 10.02.2021
2714 Clouds 11 1014 32 10000 3.09 140 12:37 10.02.2021
2715 Clouds 11 1014 32 10000 3.09 140 12:18 10.02.2021
2716 Clouds 11 1014 30 10000 2.06 140 11:41 10.02.2021
2717 Clouds 11 1014 30 10000 2.06 140 11:22 10.02.2021
2718 Clouds 11 1014 28 10000 1.73 124 10:37 10.02.2021
2719 Clouds 11 1014 28 10000 1.36 139 10:18 10.02.2021
2720 Clear 11 1014 28 10000 3.09 130 09:37 10.02.2021
2721 Clear 12 1014 28 10000 3.09 130 09:18 10.02.2021
2722 Clear 12 1015 30 10000 3.09 140 08:42 10.02.2021
2723 Clear 13 1015 28 10000 2.57 190 07:52 10.02.2021
2724 Clear 13 1015 24 10000 3.6 190 06:51 10.02.2021
2725 Clear 19 1014 12 10000 2.57 330 02:45 10.02.2021
2726 Clear 23 1014 11 10000 4.63 320 00:25 10.02.2021
2727 Clouds 23 1014 11 10000 4.63 10 23:34 09.02.2021
2728 Clouds 23 1014 11 10000 6.29 230 22:54 09.02.2021
2729 Clouds 23 1014 11 10000 4.49 221 22:24 09.02.2021
2730 Clear 23 1015 11 10000 1.54 130 21:52 09.02.2021
2731 Clear 23 1016 10 10000 3.09 0 21:32 09.02.2021
2732 Clear 22 1017 13 10000 3.09 170 20:49 09.02.2021
2733 Clear 22 1017 13 10000 3.09 170 20:26 09.02.2021
2734 Clouds 21 1017 16 10000 0.89 11 19:58 09.02.2021
2735 Clouds 21 1017 18 10000 1.34 0 19:36 09.02.2021
2736 Clouds 19 1017 20 10000 1.34 191 18:58 09.02.2021
2737 Clouds 19 1017 20 10000 1.34 191 18:58 09.02.2021
2738 Clouds 19 1017 20 10000 1.34 191 18:58 09.02.2021
2739 Clouds 19 1017 20 10000 1.34 191 18:58 09.02.2021
2740 Clouds 18 1018 21 10000 1.34 186 18:36 09.02.2021
2741 Clouds 17 1018 23 10000 0.89 0 17:57 09.02.2021
2742 Clouds 16 1018 23 10000 0.89 0 17:57 09.02.2021
2743 Clouds 16 1017 26 10000 0.45 202 17:37 09.02.2021
2744 Clear 14 1017 28 10000 4.12 180 17:19 09.02.2021
2745 Clear 9 1017 31 10000 4.12 150 16:41 09.02.2021
2746 Clear 8 1017 31 10000 4.12 150 16:18 09.02.2021
2747 Clear 7 1017 34 10000 3.09 130 15:48 09.02.2021
2748 Clear 8 1017 34 10000 3.09 130 15:25 09.02.2021
2749 Clear 8 1016 29 10000 4.63 140 14:53 09.02.2021
2750 Clear 8 1016 29 10000 4.63 140 14:28 09.02.2021
2751 Clear 8 1016 31 10000 5.14 150 13:51 09.02.2021
2752 Clear 8 1016 31 10000 5.14 150 13:25 09.02.2021
2753 Clear 8 1016 31 10000 3.09 160 12:51 09.02.2021
2754 Clear 8 1016 31 10000 3.09 160 12:32 09.02.2021
2755 Clear 8 1016 31 10000 4.12 130 11:56 09.02.2021
2756 Clear 8 1016 31 10000 4.12 130 11:38 09.02.2021
2757 Clear 8 1016 31 10000 4.12 130 11:20 09.02.2021
2758 Clear 10 1017 29 10000 4.63 150 10:43 09.02.2021
2759 Clear 10 1017 29 10000 4.63 150 10:18 09.02.2021
2760 Clear 11 1017 27 10000 4.12 150 09:42 09.02.2021
2761 Clear 10 1017 27 10000 4.12 150 09:24 09.02.2021
2762 Clear 11 1017 25 10000 2.06 130 08:42 09.02.2021
2763 Clear 11 1017 25 10000 2.06 130 08:22 09.02.2021
2764 Clear 13 1017 24 10000 3.09 170 06:18 09.02.2021
2765 Clear 16 1016 18 10000 1.54 300 04:18 09.02.2021
2766 Clear 17 1015 15 10000 2.06 310 03:34 09.02.2021
2767 Clear 24 1014 10 10000 1.54 350 00:33 09.02.2021
2768 Clear 24 1014 10 10000 1.54 40 23:57 08.02.2021
2769 Clear 24 1014 10 10000 1.54 40 23:21 08.02.2021
2770 Clear 23 1015 9 10000 1.04 284 22:44 08.02.2021
2771 Clear 23 1015 9 10000 0.82 262 22:24 08.02.2021
2772 Clear 23 1016 11 10000 1.54 50 21:55 08.02.2021
2773 Clear 23 1016 11 10000 1.54 50 21:32 08.02.2021
2774 Clear 22 1016 13 10000 0.99 235 20:59 08.02.2021
2775 Clear 22 1016 13 10000 0.99 235 20:38 08.02.2021
2776 Clear 21 1016 13 10000 1.67 198 20:20 08.02.2021
2777 Clear 20 1017 15 10000 2.57 120 19:42 08.02.2021
2778 Clear 20 1017 16 10000 1.54 80 19:22 08.02.2021
2779 Clear 18 1017 18 10000 0.45 0 18:48 08.02.2021
2780 Clear 17 1017 18 10000 2.06 130 18:23 08.02.2021
2781 Clear 16 1017 21 10000 0.45 144 17:45 08.02.2021
2782 Clear 14 1017 28 10000 5.14 140 17:25 08.02.2021
2783 Clear 7 1016 33 10000 4.12 150 16:44 08.02.2021
2784 Clear 7 1016 33 10000 4.12 150 16:21 08.02.2021
2785 Clear 7 1015 36 10000 3.6 140 15:43 08.02.2021
2786 Clear 7 1015 36 10000 3.6 140 15:20 08.02.2021
2787 Clear 7 1014 36 10000 3.6 140 14:52 08.02.2021
2788 Clear 7 1014 36 10000 3.6 140 14:32 08.02.2021
2789 Clear 7 1014 33 10000 4.12 140 13:57 08.02.2021
2790 Clear 7 1014 33 10000 4.12 140 13:33 08.02.2021
2791 Clear 7 1014 36 10000 5.14 140 12:55 08.02.2021
2792 Clear 7 1014 36 10000 5.14 140 12:37 08.02.2021
2793 Clear 9 1014 36 10000 3.6 140 11:49 08.02.2021
2794 Clear 9 1014 36 10000 3.6 140 11:22 08.02.2021
2795 Clear 9 1014 34 10000 3.6 160 10:45 08.02.2021
2796 Clear 8 1014 34 10000 3.6 160 10:24 08.02.2021
2797 Clear 8 1014 34 10000 4.12 150 09:53 08.02.2021
2798 Clear 8 1014 34 10000 4.12 150 09:35 08.02.2021
2799 Clear 9 1015 29 10000 2.57 100 08:50 08.02.2021
2800 Clear 10 1015 29 10000 2.57 100 08:21 08.02.2021
2801 Clouds 11 1014 28 10000 3.6 140 07:35 08.02.2021
2802 Clouds 12 1014 28 10000 4.12 140 06:29 08.02.2021
2803 Clear 18 1012 13 10000 4.12 300 02:37 08.02.2021
2804 Clear 20 1011 8 10000 6.17 330 01:48 08.02.2021
2805 Clear 22 1011 11 10000 6.17 330 00:21 08.02.2021
2806 Clear 23 1011 7 10000 2.57 290 23:50 07.02.2021
2807 Clear 23 1011 7 10000 2.57 290 23:50 07.02.2021
2808 Clear 23 1011 7 10000 2.57 290 23:21 07.02.2021
2809 Clear 23 1012 8 10000 2.06 340 22:45 07.02.2021
2810 Clear 22 1012 8 10000 2.06 340 22:27 07.02.2021
2811 Clear 22 1014 11 10000 1.82 277 21:53 07.02.2021
2812 Clear 22 1014 11 10000 1.43 262 21:28 07.02.2021
2813 Clear 21 1013 15 10000 0.89 0 20:59 07.02.2021
2814 Clear 21 1013 16 10000 0.89 0 20:40 07.02.2021
2815 Clear 20 1014 18 10000 2.06 60 20:22 07.02.2021
2816 Clear 20 1014 18 10000 2.06 60 20:22 07.02.2021
2817 Clear 18 1015 19 10000 1.54 150 19:39 07.02.2021
2818 Clear 18 1015 23 10000 1.21 172 19:20 07.02.2021
2819 Clear 16 1015 27 10000 0.45 0 18:40 07.02.2021
2820 Clear 15 1015 29 10000 0.45 0 18:22 07.02.2021
2821 Clear 13 1015 32 10000 2.57 160 17:44 07.02.2021
2822 Clear 10 1015 32 10000 2.57 160 17:21 07.02.2021
2823 Clear 7 1015 39 10000 3.6 150 16:50 07.02.2021
2824 Clear 8 1015 39 10000 3.6 150 16:30 07.02.2021
2825 Clear 6 1015 39 10000 3.6 150 15:59 07.02.2021
2826 Clear 6 1015 39 10000 3.6 150 15:40 07.02.2021
2827 Clear 6 1015 39 10000 3.6 150 15:21 07.02.2021
2828 Clear 6 1015 42 10000 5.66 150 14:40 07.02.2021
2829 Clear 5 1015 42 10000 5.66 150 14:22 07.02.2021
2830 Clear 7 1015 39 10000 5.14 140 13:37 07.02.2021
2831 Clear 7 1015 39 10000 5.14 140 13:19 07.02.2021
2832 Clear 6 1015 42 10000 4.63 150 12:39 07.02.2021
2833 Clear 6 1015 42 10000 4.63 150 12:20 07.02.2021
2834 Clear 6 1015 42 10000 4.63 150 11:39 07.02.2021
2835 Clear 6 1015 42 10000 4.63 150 11:18 07.02.2021
2836 Clear 8 1015 39 10000 4.12 140 10:29 07.02.2021
2837 Clear 7 1016 42 10000 3.6 130 09:51 07.02.2021
2838 Clear 8 1016 42 10000 3.6 130 09:25 07.02.2021
2839 Clear 8 1016 42 10000 3.6 130 09:25 07.02.2021
2840 Clear 8 1016 39 10000 3.09 140 08:50 07.02.2021
2841 Clear 10 1016 34 10000 3.09 160 07:56 07.02.2021
2842 Clear 13 1016 24 10000 2.57 280 05:58 07.02.2021
2843 Clear 14 1016 23 10000 3.09 310 04:34 07.02.2021
2844 Clear 17 1015 19 10000 4.63 320 02:25 07.02.2021
2845 Clear 20 1015 11 10000 4.63 300 00:37 07.02.2021
2846 Clear 21 1015 14 10000 2.57 340 23:51 06.02.2021
2847 Clear 21 1016 14 10000 2.06 320 22:54 06.02.2021
2848 Clear 20 1017 18 10000 2.57 300 21:57 06.02.2021
2849 Clear 20 1017 18 10000 2.57 300 21:36 06.02.2021
2850 Clear 19 1016 17 10000 1.54 350 21:18 06.02.2021
2851 Clear 19 1018 19 10000 1.54 0 20:43 06.02.2021
2852 Clear 18 1018 19 10000 1.54 0 20:21 06.02.2021
2853 Clear 17 1019 21 10000 1.54 0 19:45 06.02.2021
2854 Clear 16 1019 21 10000 1.54 0 19:22 06.02.2021
2855 Clear 15 1018 30 10000 0.45 0 18:43 06.02.2021
2856 Clear 14 1018 30 10000 1.62 118 18:24 06.02.2021
2857 Clear 12 1018 34 10000 1.62 118 17:41 06.02.2021
2858 Clear 11 1018 34 10000 1.57 108 17:21 06.02.2021
2859 Clear 4 1017 48 10000 2.06 160 16:50 06.02.2021
2860 Clear 4 1017 48 10000 2.06 160 16:30 06.02.2021
2861 Clear 4 1016 52 10000 1.37 102 15:52 06.02.2021
2862 Clear 4 1016 52 10000 1.37 102 15:33 06.02.2021
2863 Clear 4 1016 52 10000 1.08 104 14:57 06.02.2021
2864 Clear 4 1016 52 10000 1.08 104 14:37 06.02.2021
2865 Clear 4 1016 52 10000 0.91 118 14:18 06.02.2021
2866 Clear 5 1015 48 10000 3.09 150 13:43 06.02.2021
2867 Clear 4 1015 48 10000 2.57 140 12:36 06.02.2021
2868 Clear 4 1015 48 10000 2.57 140 12:18 06.02.2021
2869 Clear 4 1015 45 10000 1.54 90 11:40 06.02.2021
2870 Clear 6 1015 45 10000 1.54 90 11:20 06.02.2021
2871 Clear 7 1016 42 10000 4.12 150 10:52 06.02.2021
2872 Clear 7 1016 42 10000 4.12 150 10:25 06.02.2021
2873 Clear 8 1016 39 10000 3.09 120 09:38 06.02.2021
2874 Clear 8 1016 39 10000 3.09 120 09:38 06.02.2021
2875 Clear 8 1016 39 10000 3.09 120 09:19 06.02.2021
2876 Clear 9 1016 37 10000 3.6 210 08:58 06.02.2021
2877 Clear 9 1016 37 10000 3.6 210 08:29 06.02.2021
2878 Clear 11 1015 28 10000 3.6 300 06:51 06.02.2021
2879 Clear 11 1015 28 10000 3.6 300 05:41 06.02.2021
2880 Clear 14 1014 21 10000 5.66 330 02:50 06.02.2021
2881 Clear 18 1014 18 10000 5.66 330 00:58 06.02.2021
2882 Clear 18 1014 18 10000 5.66 330 00:40 06.02.2021
2883 Clear 19 1014 18 10000 5.66 330 00:18 06.02.2021
2884 Clear 19 1014 18 10000 6.69 320 23:34 05.02.2021
2885 Clear 19 1015 19 10000 3.6 310 22:51 05.02.2021
2886 Clear 19 1015 19 10000 3.6 310 22:25 05.02.2021
2887 Clear 18 1016 19 10000 2.57 330 21:57 05.02.2021
2888 Clear 18 1016 19 10000 2.57 330 21:37 05.02.2021
2889 Clear 18 1017 17 10000 2.57 0 20:58 05.02.2021
2890 Clear 17 1016 23 10000 0.89 0 20:34 05.02.2021
2891 Clear 17 1018 23 10000 1.58 283 19:46 05.02.2021
2892 Clear 16 1018 23 10000 0.61 186 19:18 05.02.2021
2893 Clear 14 1018 29 10000 1.79 0 18:43 05.02.2021
2894 Clear 13 1018 30 10000 1.54 140 18:19 05.02.2021
2895 Clear 12 1020 29 10000 1.79 252 17:38 05.02.2021
2896 Clear 11 1018 37 10000 3.6 160 17:19 05.02.2021
2897 Clear 6 1018 42 10000 2.06 150 16:43 05.02.2021
2898 Clear 7 1018 42 10000 2.06 150 16:21 05.02.2021
2899 Clear 4 1018 48 10000 3.6 160 15:50 05.02.2021
2900 Clear 4 1018 48 10000 3.6 160 15:23 05.02.2021
2901 Clear 5 1017 48 10000 2.06 150 14:39 05.02.2021
2902 Clear 5 1017 48 10000 2.06 150 14:21 05.02.2021
2903 Clear 6 1017 48 10000 3.09 120 13:52 05.02.2021
2904 Clear 6 1017 48 10000 3.09 120 13:32 05.02.2021
2905 Clear 7 1018 45 10000 4.12 140 12:45 05.02.2021
2906 Clear 7 1018 45 10000 4.12 140 12:23 05.02.2021
2907 Clear 8 1018 42 10000 4.12 150 11:39 05.02.2021
2908 Clear 8 1018 42 10000 4.12 150 11:20 05.02.2021
2909 Clear 8 1019 36 10000 2.57 150 10:49 05.02.2021
2910 Clear 9 1019 36 10000 2.57 150 10:25 05.02.2021
2911 Clear 9 1019 30 10000 2.06 190 09:43 05.02.2021
2912 Clear 9 1019 30 10000 2.06 190 09:24 05.02.2021
2913 Clear 10 1018 30 10000 3.09 290 08:45 05.02.2021
2914 Clear 12 1018 28 10000 3.6 290 07:45 05.02.2021
2915 Clear 12 1018 28 10000 3.6 290 07:26 05.02.2021
2916 Clear 13 1018 30 10000 3.6 290 06:41 05.02.2021
2917 Clear 13 1017 28 10000 3.6 280 05:35 05.02.2021
2918 Clear 18 1016 19 10000 3.58 0 02:26 05.02.2021
2919 Clear 19 1015 13 10000 6.69 320 01:55 05.02.2021
2920 Clear 21 1015 13 10000 6.69 280 00:38 05.02.2021
2921 Clear 21 1015 13 10000 6.69 280 00:19 05.02.2021
2922 Clear 21 1015 16 10000 7.2 280 23:44 04.02.2021
2923 Clear 22 1015 16 10000 7.2 280 23:25 04.02.2021
2924 Clear 21 1015 17 10000 7.2 290 22:55 04.02.2021
2925 Clear 22 1015 17 10000 7.2 290 22:37 04.02.2021
2926 Clear 21 1015 17 10000 7.2 290 22:18 04.02.2021
2927 Clear 21 1016 23 10000 5.14 300 21:41 04.02.2021
2928 Clear 21 1016 23 10000 5.14 300 21:18 04.02.2021
2929 Clear 21 1017 26 10000 5.14 290 20:45 04.02.2021
2930 Clear 20 1017 26 10000 5.14 290 20:25 04.02.2021
2931 Clear 20 1018 27 10000 3.6 290 19:41 04.02.2021
2932 Clouds 19 1018 30 10000 1.79 293 18:51 04.02.2021
2933 Clear 18 1018 36 10000 2.06 310 18:24 04.02.2021
2934 Clouds 17 1017 38 10000 1.79 355 17:51 04.02.2021
2935 Clear 17 1017 47 10000 2.56 303 17:24 04.02.2021
2936 Clouds 16 1017 52 10000 0.45 0 16:56 04.02.2021
2937 Clouds 15 1011 48 10000 2.56 303 16:37 04.02.2021
2938 Clear 13 1017 58 10000 2.06 170 16:18 04.02.2021
2939 Clear 12 1016 66 10000 3.09 160 15:39 04.02.2021
2940 Clear 12 1016 66 10000 3.09 160 15:20 04.02.2021
2941 Clear 12 1015 58 10000 1.52 292 14:41 04.02.2021
2942 Clear 13 1015 58 10000 2.04 307 14:20 04.02.2021
2943 Clouds 14 1015 51 10000 2.06 270 13:44 04.02.2021
2944 Clouds 14 1015 44 10000 1.54 350 12:58 04.02.2021
2945 Clouds 15 1015 44 10000 1.54 350 12:36 04.02.2021
2946 Clear 15 1016 51 10000 2.57 350 11:54 04.02.2021
2947 Clear 16 1016 51 10000 2.57 350 11:33 04.02.2021
2948 Clouds 16 1015 45 10000 4.12 320 10:51 04.02.2021
2949 Clouds 16 1015 45 10000 4.12 320 10:21 04.02.2021
2950 Clouds 17 1015 49 10000 0.45 0 09:44 04.02.2021
2951 Clouds 17 1015 39 10000 5.66 270 09:19 04.02.2021
2952 Clouds 18 1016 39 10000 6.69 290 08:48 04.02.2021
2953 Clouds 18 1016 39 10000 6.69 290 08:24 04.02.2021
2954 Clouds 19 1015 37 10000 4.63 300 07:43 04.02.2021
2955 Clouds 19 1015 37 10000 4.63 300 07:24 04.02.2021
2956 Clouds 19 1015 37 10000 3.09 310 06:43 04.02.2021
2957 Clear 20 1015 32 10000 3.6 260 04:31 04.02.2021
2958 Clouds 23 1015 27 10000 6.69 290 02:27 04.02.2021
2959 Clouds 25 1014 21 10000 4.63 290 00:57 04.02.2021
2960 Clear 26 1014 19 10000 6.69 300 23:44 03.02.2021
2961 Clear 26 1014 19 10000 6.69 300 23:24 03.02.2021
2962 Clear 26 1015 19 10000 4.12 270 22:24 03.02.2021
2963 Clear 25 1016 22 10000 2.06 270 21:59 03.02.2021
2964 Clear 25 1016 22 10000 2.06 270 21:41 03.02.2021
2965 Clear 25 1016 22 10000 2.06 270 21:21 03.02.2021
2966 Clear 24 1017 22 10000 1.54 330 20:46 03.02.2021
2967 Clear 24 1017 22 10000 1.54 330 20:26 03.02.2021
2968 Clear 24 1018 24 10000 1.35 241 19:51 03.02.2021
2969 Clear 23 1018 24 10000 1.47 173 19:23 03.02.2021
2970 Clouds 22 1018 30 10000 0.45 189 18:51 03.02.2021
2971 Clear 20 1018 32 10000 2.06 200 18:21 03.02.2021
2972 Clouds 19 1018 34 10000 0.89 0 17:57 03.02.2021
2973 Clouds 18 1018 37 10000 0.89 0 17:36 03.02.2021
2974 Clouds 17 1018 36 10000 4.12 150 17:18 03.02.2021
2975 Clouds 15 1017 38 10000 3.09 150 16:35 03.02.2021
2976 Clouds 14 1017 44 10000 2.57 120 15:50 03.02.2021
2977 Clouds 14 1017 44 10000 2.57 120 15:30 03.02.2021
2978 Clouds 14 1017 44 10000 2.06 130 14:59 03.02.2021
2979 Clouds 14 1017 44 10000 2.06 130 14:40 03.02.2021
2980 Clouds 13 1016 44 10000 1.17 139 13:59 03.02.2021
2981 Clouds 14 1016 44 10000 1.17 139 13:30 03.02.2021
2982 Clouds 14 1017 41 10000 0.75 141 12:56 03.02.2021
2983 Clouds 14 1017 41 10000 0.75 141 12:37 03.02.2021
2984 Clouds 14 1017 41 10000 0.79 120 12:18 03.02.2021
2985 Clouds 14 1017 41 10000 2.06 140 11:41 03.02.2021
2986 Clouds 14 1017 41 10000 2.06 140 11:21 03.02.2021
2987 Clouds 14 1017 44 10000 4.12 140 10:27 03.02.2021
2988 Clouds 14 1017 44 10000 4.12 140 09:54 03.02.2021
2989 Clouds 14 1017 44 10000 4.12 140 09:35 03.02.2021
2990 Clear 15 1019 47 10000 3.09 140 08:55 03.02.2021
2991 Clouds 15 1018 47 10000 3.09 180 08:37 03.02.2021
2992 Clouds 16 1018 44 10000 2.57 150 07:48 03.02.2021
2993 Clouds 16 1018 47 10000 3.6 140 06:42 03.02.2021
2994 Clouds 17 1018 39 10000 2.06 150 04:55 03.02.2021
2995 Clouds 17 1018 39 10000 2.06 150 04:37 03.02.2021
2996 Clouds 18 1018 36 10000 3.09 170 03:49 03.02.2021
2997 Clouds 19 1017 28 10000 1.58 310 02:38 03.02.2021
2998 Clouds 22 1018 21 10000 2.16 330 01:21 03.02.2021
2999 Clouds 23 1017 20 10000 1.54 160 00:23 03.02.2021
3000 Clouds 24 1017 20 10000 2.06 130 23:41 02.02.2021
3001 Clouds 24 1017 20 10000 2.06 130 23:41 02.02.2021
3002 Clouds 24 1017 20 10000 2.06 130 23:22 02.02.2021
3003 Clouds 24 1017 20 10000 3.6 160 22:39 02.02.2021
3004 Clouds 24 1017 20 10000 3.6 160 22:19 02.02.2021
3005 Clouds 24 1018 20 10000 3.09 140 21:44 02.02.2021
3006 Clouds 24 1018 20 10000 3.09 140 21:23 02.02.2021
3007 Clouds 24 1019 18 10000 4.12 130 20:48 02.02.2021
3008 Clouds 23 1019 18 10000 4.12 130 20:21 02.02.2021
3009 Clouds 22 1020 21 10000 5.66 130 19:50 02.02.2021
3010 Clouds 21 1020 21 10000 5.66 130 19:32 02.02.2021
3011 Clouds 20 1020 24 10000 7.72 130 18:54 02.02.2021
3012 Clouds 19 1020 24 10000 7.72 130 18:36 02.02.2021
3013 Clouds 18 1019 24 10000 7.72 130 18:18 02.02.2021
3014 Clouds 17 1019 24 10000 7.72 130 17:37 02.02.2021
3015 Clear 15 1020 39 10000 4.12 150 17:19 02.02.2021
3016 Clouds 15 1019 29 10000 6.69 140 16:43 02.02.2021
3017 Clouds 14 1019 29 10000 6.69 140 16:24 02.02.2021
3018 Clouds 14 1018 33 10000 4.63 120 15:42 02.02.2021
3019 Clouds 14 1018 33 10000 4.63 120 15:23 02.02.2021
3020 Clouds 14 1019 33 10000 4.12 110 14:50 02.02.2021
3021 Clouds 13 1019 33 10000 4.12 110 14:31 02.02.2021
3022 Clouds 13 1019 33 10000 5.14 120 13:56 02.02.2021
3023 Clear 13 1019 47 10000 1.54 150 13:37 02.02.2021
3024 Clear 13 1019 47 10000 1.54 150 13:19 02.02.2021
3025 Clouds 13 1019 40 10000 0.89 312 12:41 02.02.2021
3026 Clouds 14 1019 29 10000 5.14 130 11:45 02.02.2021
3027 Clouds 14 1019 29 10000 5.14 130 11:24 02.02.2021
3028 Clouds 14 1018 47 10000 0.45 69 10:56 02.02.2021
3029 Clouds 14 1019 29 10000 4.63 120 10:31 02.02.2021
3030 Clouds 15 1019 29 10000 3.09 120 09:48 02.02.2021
3031 Clouds 14 1019 29 10000 3.09 120 09:26 02.02.2021
3032 Clouds 15 1019 29 10000 4.63 130 08:59 02.02.2021
3033 Clouds 15 1019 29 10000 4.63 130 08:32 02.02.2021
3034 Clouds 15 1019 31 10000 4.12 130 07:37 02.02.2021
3035 Clouds 15 1020 33 10000 4.12 140 06:43 02.02.2021
3036 Clouds 15 1020 29 10000 4.12 140 05:53 02.02.2021
3037 Clouds 16 1020 25 10000 3.89 93 04:57 02.02.2021
3038 Clouds 19 1019 24 10000 2.57 80 02:44 02.02.2021
3039 Clouds 19 1019 24 10000 2.57 80 02:23 02.02.2021
3040 Clouds 22 1019 20 10000 2.06 50 00:35 02.02.2021
3041 Clouds 23 1018 17 10000 1.54 60 23:20 01.02.2021
3042 Clouds 22 1019 18 10000 2.57 80 22:50 01.02.2021
3043 Clouds 22 1019 18 10000 2.57 80 22:32 01.02.2021
3044 Clouds 22 1019 18 10000 6.17 120 21:53 01.02.2021
3045 Clouds 21 1019 18 10000 6.17 120 21:34 01.02.2021
3046 Clouds 21 1019 17 10000 10.29 130 20:56 01.02.2021
3047 Clouds 21 1019 17 10000 10.29 130 20:36 01.02.2021
3048 Clouds 21 1019 17 10000 10.29 130 20:18 01.02.2021
3049 Clouds 20 1020 20 10000 9.26 120 19:38 01.02.2021
3050 Clouds 19 1020 20 10000 9.26 120 19:18 01.02.2021
3051 Clear 18 1021 20 10000 9.26 130 18:46 01.02.2021
3052 Clear 18 1021 20 10000 9.26 130 18:26 01.02.2021
3053 Clear 16 1021 22 10000 6.69 120 17:47 01.02.2021
3054 Clear 16 1021 22 10000 6.69 120 17:23 01.02.2021
3055 Clouds 15 1020 30 10000 7.2 130 16:46 01.02.2021
3056 Clouds 14 1020 30 10000 7.2 130 16:28 01.02.2021
3057 Clouds 14 1020 26 10000 5.66 140 15:42 01.02.2021
3058 Clouds 14 1020 26 10000 5.66 140 15:19 01.02.2021
3059 Clouds 14 1020 28 10000 5.66 130 14:51 01.02.2021
3060 Clouds 14 1020 28 10000 5.66 130 14:27 01.02.2021
3061 Clouds 13 1019 30 10000 4.12 130 13:47 01.02.2021
3062 Clouds 13 1019 30 10000 4.12 130 13:26 01.02.2021
3063 Clear 13 1020 28 10000 6.69 120 12:45 01.02.2021
3064 Clear 13 1020 28 10000 6.69 120 12:45 01.02.2021
3065 Clear 13 1020 28 10000 6.69 120 12:25 01.02.2021
3066 Clear 13 1020 33 10000 4.63 110 11:51 01.02.2021
3067 Clear 13 1020 33 10000 4.63 110 11:21 01.02.2021
3068 Clear 13 1020 33 10000 4.63 110 11:21 01.02.2021
3069 Clear 14 1020 33 10000 4.63 120 10:52 01.02.2021
3070 Clear 14 1020 33 10000 4.63 120 10:22 01.02.2021
3071 Clear 14 1021 30 10000 4.63 110 09:55 01.02.2021
3072 Clear 14 1021 30 10000 4.63 110 09:35 01.02.2021
3073 Clouds 14 1021 33 10000 4.63 130 08:56 01.02.2021
3074 Clouds 14 1021 33 10000 4.63 130 08:26 01.02.2021
3075 Clear 14 1021 38 10000 5.66 130 07:30 01.02.2021
3076 Clear 15 1020 31 10000 4.44 86 04:34 01.02.2021
3077 Clear 18 1020 26 10000 4.12 70 02:40 01.02.2021
3078 Clear 23 1019 17 10000 5.14 110 00:18 01.02.2021
3079 Clear 22 1020 18 10000 5.66 110 22:57 31.01.2021
3080 Clear 22 1020 18 10000 5.66 110 22:38 31.01.2021
3081 Clear 22 1020 21 10000 8.23 130 22:19 31.01.2021
3082 Clear 22 1021 21 10000 7.2 110 21:46 31.01.2021
3083 Clear 21 1020 22 10000 9.26 130 21:19 31.01.2021
3084 Clear 20 1021 24 10000 9.77 130 20:43 31.01.2021
3085 Clear 19 1021 24 10000 9.77 130 20:21 31.01.2021
3086 Clear 18 1022 24 10000 8.23 90 19:39 31.01.2021
3087 Clear 17 1022 25 10000 10.8 120 19:21 31.01.2021
3088 Clear 17 1022 25 10000 10.8 120 19:21 31.01.2021
3089 Clear 16 1022 38 10000 3.6 140 18:55 31.01.2021
3090 Clear 15 1022 38 10000 3.6 140 18:37 31.01.2021
3091 Clear 14 1022 38 10000 3.6 140 18:18 31.01.2021
3092 Clear 12 1022 46 10000 5.14 150 17:39 31.01.2021
3093 Clear 10 1022 46 10000 5.14 150 17:20 31.01.2021
3094 Clear 8 1022 53 10000 5.66 150 16:42 31.01.2021
3095 Clear 7 1022 53 10000 5.66 150 16:20 31.01.2021
3096 Clear 5 1022 57 10000 3.09 130 15:49 31.01.2021
3097 Clear 5 1022 57 10000 3.09 130 15:25 31.01.2021
3098 Clear 4 1021 81 10000 2.91 80 14:36 31.01.2021
3099 Clear 4 1021 81 10000 2.29 78 14:18 31.01.2021
3100 Clear 4 1021 81 10000 2.29 78 13:44 31.01.2021
3101 Clear 4 1021 81 10000 1.99 68 13:19 31.01.2021
3102 Clear 5 1021 81 10000 1.93 70 12:46 31.01.2021
3103 Clear 4 1021 81 10000 1.7 71 12:20 31.01.2021
3104 Clear 5 1021 81 10000 1.7 71 11:40 31.01.2021
3105 Clear 5 1021 81 10000 1.66 79 11:20 31.01.2021
3106 Clear 6 1021 75 10000 2.06 90 10:46 31.01.2021
3107 Clear 6 1021 75 10000 2.06 90 10:27 31.01.2021
3108 Clear 6 1022 81 10000 1.54 120 09:41 31.01.2021
3109 Clear 7 1021 87 10000 2.57 170 08:53 31.01.2021
3110 Clear 7 1021 87 10000 2.57 170 08:31 31.01.2021
3111 Clear 7 1022 76 10000 2.57 210 06:47 31.01.2021
3112 Clear 10 1020 62 10000 3.6 290 03:53 31.01.2021
3113 Clear 15 1019 47 10000 3.6 310 00:28 31.01.2021
3114 Clear 15 1019 38 10000 3.65 304 00:00 31.01.2021
3115 Clear 15 1019 38 10000 3.29 292 23:28 30.01.2021
3116 Clear 15 1019 38 10000 3.6 330 22:45 30.01.2021
3117 Clear 15 1019 38 10000 3.6 330 22:23 30.01.2021
3118 Clear 14 1020 41 10000 2.06 360 21:39 30.01.2021
3119 Clear 14 1020 41 10000 2.06 360 21:20 30.01.2021
3120 Clear 14 1021 50 10000 2.12 298 20:41 30.01.2021
3121 Clear 13 1021 50 10000 1.06 316 20:23 30.01.2021
3122 Clear 13 1022 54 10000 1.06 316 19:40 30.01.2021
3123 Clear 12 1022 54 10000 0.63 124 19:19 30.01.2021
3124 Clear 11 1021 62 10000 2.57 40 18:40 30.01.2021
3125 Clear 11 1021 62 10000 2.57 40 18:20 30.01.2021
3126 Clear 10 1021 68 10000 1.7 130 17:47 30.01.2021
3127 Clear 8 1021 76 10000 2.57 120 17:19 30.01.2021
3128 Clear 7 1020 80 10000 2.13 107 16:41 30.01.2021
3129 Clear 6 1020 87 10000 2.14 87 16:22 30.01.2021
3130 Clear 5 1020 87 10000 2.14 87 15:49 30.01.2021
3131 Clear 4 1020 87 10000 1.49 54 15:25 30.01.2021
3132 Clear 5 1020 87 10000 2.57 120 14:58 30.01.2021
3133 Clear 5 1020 87 10000 2.57 120 14:38 30.01.2021
3134 Clear 5 1020 87 10000 2.57 120 14:18 30.01.2021
3135 Clear 5 1019 87 10000 0.87 24 13:23 30.01.2021
3136 Clear 5 1019 87 10000 2.57 120 12:46 30.01.2021
3137 Clear 5 1019 87 10000 2.57 120 12:27 30.01.2021
3138 Clear 6 1019 87 10000 3.09 140 11:53 30.01.2021
3139 Clear 6 1019 87 10000 3.09 140 11:21 30.01.2021
3140 Clear 6 1019 87 10000 3.6 150 10:29 30.01.2021
3141 Clouds 6 1019 89 10000 1.32 335 09:43 30.01.2021
3142 Clouds 7 1018 87 10000 1.82 318 09:24 30.01.2021
3143 Clouds 7 1018 87 10000 1.82 318 08:45 30.01.2021
3144 Clouds 8 1018 87 10000 3.6 270 07:44 30.01.2021
3145 Rain 8 1018 93 10000 4.63 290 06:35 30.01.2021
3146 Clouds 12 1014 76 10000 2.24 277 03:57 30.01.2021
3147 Clouds 13 1014 51 10000 7.2 260 03:33 30.01.2021
3148 Clouds 15 1013 39 10000 9.26 240 02:23 30.01.2021
3149 Clouds 19 1011 20 10000 8.75 240 00:58 30.01.2021
3150 Clouds 18 1011 20 10000 8.75 240 00:34 30.01.2021
3151 Clear 20 1011 18 10000 11.32 220 23:55 29.01.2021
3152 Clear 20 1011 18 10000 11.32 220 23:28 29.01.2021
3153 Clear 20 1012 13 10000 10.29 220 22:55 29.01.2021
3154 Clear 20 1012 13 10000 10.29 220 22:37 29.01.2021
3155 Clear 21 1013 12 10000 9.26 220 21:59 29.01.2021
3156 Clear 21 1013 12 10000 9.26 220 21:28 29.01.2021
3157 Clouds 21 1014 15 10000 6.17 220 20:43 29.01.2021
3158 Clouds 20 1014 15 10000 6.17 220 20:24 29.01.2021
3159 Clear 20 1014 20 10000 1.79 163 19:40 29.01.2021
3160 Clear 19 1016 19 10000 4.12 200 19:21 29.01.2021
3161 Clear 18 1016 22 10000 2.06 130 18:56 29.01.2021
3162 Clouds 16 1015 31 10000 3.25 191 17:51 29.01.2021
3163 Clear 13 1015 35 10000 1.77 153 17:23 29.01.2021
3164 Clear 14 1015 37 10000 1.54 120 16:58 29.01.2021
3165 Clear 13 1015 40 10000 3.09 140 16:38 29.01.2021
3166 Clear 12 1015 40 10000 3.09 140 16:19 29.01.2021
3167 Clear 12 1015 37 10000 3.09 130 15:41 29.01.2021
3168 Clear 12 1015 37 10000 3.09 130 15:41 29.01.2021
3169 Clear 11 1015 37 10000 3.09 130 15:21 29.01.2021
3170 Clouds 12 1015 35 10000 2.57 140 14:23 29.01.2021
3171 Clouds 12 1015 30 10000 4.12 140 13:57 29.01.2021
3172 Clouds 13 1015 30 10000 4.12 140 13:33 29.01.2021
3173 Clouds 13 1015 35 10000 4.12 190 12:43 29.01.2021
3174 Clouds 13 1015 35 10000 4.12 190 12:19 29.01.2021
3175 Clouds 13 1015 41 10000 4.63 150 11:45 29.01.2021
3176 Clouds 13 1015 41 10000 4.63 150 11:18 29.01.2021
3177 Clouds 13 1016 41 10000 4.63 150 10:46 29.01.2021
3178 Clouds 14 1017 35 10000 3.09 160 10:23 29.01.2021
3179 Clouds 14 1017 35 10000 3.09 160 09:39 29.01.2021
3180 Clouds 13 1017 35 10000 4.08 121 08:50 29.01.2021
3181 Clouds 14 1017 35 10000 4.01 119 08:27 29.01.2021
3182 Clouds 13 1017 35 10000 5.66 140 07:48 29.01.2021
3183 Clouds 13 1017 35 10000 5.66 140 07:30 29.01.2021
3184 Clear 13 1017 35 10000 6.17 140 06:49 29.01.2021
3185 Clear 14 1017 33 10000 6.69 140 04:53 29.01.2021
3186 Clear 19 1016 22 10000 6.17 140 01:50 29.01.2021
3187 Clear 21 1016 19 10000 6.17 130 00:37 29.01.2021
3188 Clear 21 1016 19 10000 6.17 130 00:19 29.01.2021
3189 Clouds 21 1017 21 10000 6.17 120 23:39 28.01.2021
3190 Clouds 20 1017 21 10000 6.17 120 23:20 28.01.2021
3191 Clouds 19 1017 24 10000 8.75 130 22:42 28.01.2021
3192 Clouds 19 1017 24 10000 8.75 130 22:24 28.01.2021
3193 Clear 19 1018 23 10000 10.29 130 21:45 28.01.2021
3194 Clear 18 1018 23 10000 10.29 130 21:27 28.01.2021
3195 Clear 18 1019 29 10000 7.2 120 20:47 28.01.2021
3196 Clouds 17 1019 26 10000 10.8 130 20:20 28.01.2021
3197 Clear 16 1020 30 10000 8.75 130 19:57 28.01.2021
3198 Clear 15 1020 30 10000 8.75 130 19:32 28.01.2021
3199 Clear 14 1019 30 10000 9.77 130 18:55 28.01.2021
3200 Clear 13 1019 30 10000 9.77 130 18:36 28.01.2021
3201 Clear 13 1019 30 10000 9.77 130 18:18 28.01.2021
3202 Clear 12 1019 35 10000 8.23 140 17:43 28.01.2021
3203 Clouds 11 1018 37 10000 9.77 130 17:24 28.01.2021
3204 Clouds 11 1018 37 10000 10.29 140 16:43 28.01.2021
3205 Clouds 10 1018 37 10000 10.29 140 16:21 28.01.2021
3206 Clouds 9 1018 40 10000 7.72 130 15:38 28.01.2021
3207 Clouds 9 1018 40 10000 5.66 130 14:58 28.01.2021
3208 Clouds 9 1018 40 10000 5.66 130 14:39 28.01.2021
3209 Clouds 9 1018 40 10000 5.66 130 14:39 28.01.2021
3210 Clouds 9 1018 40 10000 5.66 130 14:20 28.01.2021
3211 Clouds 9 1018 43 10000 5.66 110 13:40 28.01.2021
3212 Clouds 8 1018 43 10000 6.69 120 12:52 28.01.2021
3213 Clouds 8 1018 43 10000 6.69 120 12:52 28.01.2021
3214 Clouds 8 1018 43 10000 6.69 120 12:33 28.01.2021
3215 Clouds 8 1019 46 10000 6.69 110 11:59 28.01.2021
3216 Clouds 8 1019 46 10000 6.69 110 11:39 28.01.2021
3217 Clouds 8 1019 46 10000 6.69 110 11:19 28.01.2021
3218 Clear 8 1019 46 10000 5.66 110 10:49 28.01.2021
3219 Clear 9 1019 46 10000 5.66 110 10:27 28.01.2021
3220 Clear 9 1019 46 10000 8.23 110 09:44 28.01.2021
3221 Clear 9 1019 46 10000 8.23 110 09:22 28.01.2021
3222 Clear 9 1020 46 10000 7.72 110 08:48 28.01.2021
3223 Clear 9 1020 46 10000 5.14 110 07:55 28.01.2021
3224 Clear 9 1020 46 10000 5.14 110 07:37 28.01.2021
3225 Clear 9 1020 46 10000 5.14 110 06:48 28.01.2021
3226 Clear 9 1020 40 10000 5.14 110 05:28 28.01.2021
3227 Clear 10 1019 43 10000 5.14 90 03:49 28.01.2021
3228 Clear 14 1020 29 10000 9.26 130 00:57 28.01.2021
3229 Clear 15 1020 29 10000 7.2 110 23:43 27.01.2021
3230 Clear 15 1020 29 10000 7.2 110 23:23 27.01.2021
3231 Clear 15 1021 33 10000 8.23 120 22:41 27.01.2021
3232 Clear 15 1021 33 10000 8.23 120 22:21 27.01.2021
3233 Clear 14 1022 33 10000 9.26 120 21:42 27.01.2021
3234 Clear 14 1022 33 10000 9.26 120 21:22 27.01.2021
3235 Clear 13 1024 37 10000 10.8 120 20:47 27.01.2021
3236 Clear 12 1024 37 10000 10.8 120 20:20 27.01.2021
3237 Clear 12 1024 40 10000 10.8 120 19:43 27.01.2021
3238 Clear 10 1024 40 10000 10.8 120 19:21 27.01.2021
3239 Clear 9 1024 46 10000 7.72 110 18:44 27.01.2021
3240 Clear 8 1024 46 10000 7.72 110 18:23 27.01.2021
3241 Clear 7 1024 52 10000 8.75 120 17:52 27.01.2021
3242 Clear 6 1024 52 10000 8.75 120 17:32 27.01.2021
3243 Clear 5 1024 59 10000 1.79 0 16:54 27.01.2021
3244 Clear 4 1025 55 10000 3.13 134 16:36 27.01.2021
3245 Clear 3 1024 69 10000 5.66 160 16:18 27.01.2021
3246 Clear 2 1024 56 10000 7.2 110 15:41 27.01.2021
3247 Clear 2 1024 56 10000 7.2 110 15:23 27.01.2021
3248 Clear 1 1024 69 10000 3.6 130 14:23 27.01.2021
3249 Clear 1 1023 69 10000 4.12 150 13:49 27.01.2021
3250 Clear 1 1023 69 10000 4.12 150 13:49 27.01.2021
3251 Clear 1 1023 69 10000 4.12 150 13:29 27.01.2021
3252 Clear 1 1023 75 10000 5.14 140 12:42 27.01.2021
3253 Clear 2 1023 75 10000 5.14 140 12:22 27.01.2021
3254 Clear 2 1023 65 10000 5.14 110 11:46 27.01.2021
3255 Clear 2 1023 65 10000 5.14 110 11:23 27.01.2021
3256 Clear 3 1023 70 10000 5.14 110 10:41 27.01.2021
3257 Clear 3 1023 70 10000 5.14 110 10:21 27.01.2021
3258 Clear 2 1023 70 10000 4.12 140 09:50 27.01.2021
3259 Clear 3 1023 70 10000 4.12 140 09:25 27.01.2021
3260 Clear 3 1024 75 10000 3.09 100 08:39 27.01.2021
3261 Clear 3 1024 75 10000 3.09 100 08:39 27.01.2021
3262 Clear 4 1023 70 10000 3.09 100 07:45 27.01.2021
3263 Clear 4 1023 70 10000 3.09 100 07:21 27.01.2021
3264 Clouds 4 1022 65 10000 4.12 120 06:21 27.01.2021
3265 Clouds 5 1022 70 10000 4.12 170 05:46 27.01.2021
3266 Clouds 6 1020 68 10000 0.89 196 03:37 27.01.2021
3267 Clouds 6 1019 61 10000 3.79 268 02:23 27.01.2021
3268 Clouds 7 1018 57 10000 2.57 220 01:52 27.01.2021
3269 Clouds 8 1018 53 10000 7.2 220 00:48 27.01.2021
3270 Clouds 8 1017 49 10000 5.66 220 23:51 26.01.2021
3271 Clouds 8 1017 49 10000 5.66 220 23:32 26.01.2021
3272 Clouds 7 1016 81 10000 3.09 160 22:52 26.01.2021
3273 Clouds 6 1016 81 10000 3.09 160 22:33 26.01.2021
3274 Rain 6 1016 81 10000 3.09 160 21:57 26.01.2021
3275 Clouds 6 1016 75 10000 7.49 265 21:39 26.01.2021
3276 Clouds 6 1016 75 10000 8.7 270 21:21 26.01.2021
3277 Clouds 6 1016 87 10000 2.06 130 20:40 26.01.2021
3278 Clouds 5 1016 93 10000 8.45 268 20:21 26.01.2021
3279 Clouds 5 1017 87 10000 1.54 70 19:46 26.01.2021
3280 Clouds 4 1016 93 10000 2.06 50 19:24 26.01.2021
3281 Mist 3 1016 93 4828 2.06 270 18:49 26.01.2021
3282 Mist 2 1016 93 2816 4.12 210 18:28 26.01.2021
3283 Mist 2 1015 93 2012 3.09 300 17:58 26.01.2021
3284 Mist 3 1015 87 3219 5.14 280 17:40 26.01.2021
3285 Rain 3 1013 87 10000 4.63 190 17:19 26.01.2021
3286 Clouds 3 1013 87 10000 4.63 190 16:40 26.01.2021
3287 Clouds 2 1013 87 10000 4.63 190 16:19 26.01.2021
3288 Drizzle 2 1013 87 10000 3.09 210 15:47 26.01.2021
3289 Snow 2 1012 87 10000 5.14 270 15:26 26.01.2021
3290 Clouds 1 1012 93 10000 5.57 238 14:48 26.01.2021
3291 Snow 1 1012 93 10000 6.61 241 14:29 26.01.2021
3292 Clouds 1 1011 93 10000 4.63 210 13:37 26.01.2021
3293 Snow 1 1011 93 10000 2.57 190 13:18 26.01.2021
3294 Rain 1 1011 93 10000 3.6 280 12:43 26.01.2021
3295 Snow 1 1011 93 10000 3.6 290 12:22 26.01.2021
3296 Rain 2 1011 87 10000 3.6 270 11:51 26.01.2021
3297 Clouds 2 1010 81 10000 4.63 220 11:30 26.01.2021
3298 Clouds 2 1010 81 10000 4.63 220 10:44 26.01.2021
3299 Clouds 3 1010 81 10000 4.63 220 10:25 26.01.2021
3300 Clouds 2 1010 87 10000 5.66 180 09:40 26.01.2021
3301 Clouds 2 1010 87 10000 5.66 180 09:22 26.01.2021
3302 Clouds 2 1011 89 10000 0.89 162 08:50 26.01.2021
3303 Clouds 2 1009 81 10000 3.6 220 08:20 26.01.2021
3304 Clouds 2 1009 81 10000 3.6 220 07:25 26.01.2021
3305 Rain 2 1009 87 10000 8.23 280 05:58 26.01.2021
3306 Rain 2 1009 87 10000 6.69 300 05:39 26.01.2021
3307 Rain 5 1008 87 10000 1.54 150 03:51 26.01.2021
3308 Rain 4 1008 81 10000 6.17 300 01:46 26.01.2021
3309 Clouds 7 1007 76 10000 6.17 220 00:36 26.01.2021
3310 Rain 9 1006 54 10000 6.69 210 23:34 25.01.2021
3311 Clouds 12 1007 50 10000 10.8 210 22:52 25.01.2021
3312 Clouds 11 1007 50 10000 10.8 210 22:33 25.01.2021
3313 Clouds 11 1009 50 10000 9.26 220 21:48 25.01.2021
3314 Clouds 10 1009 50 10000 9.26 220 21:22 25.01.2021
3315 Clouds 10 1010 57 10000 10.29 200 20:47 25.01.2021
3316 Clouds 9 1010 57 10000 10.29 200 20:28 25.01.2021
3317 Clouds 9 1012 66 10000 7.2 190 19:50 25.01.2021
3318 Clouds 9 1012 66 10000 7.2 190 19:27 25.01.2021
3319 Clouds 8 1012 66 10000 8.75 210 18:48 25.01.2021
3320 Clouds 7 1012 76 10000 6.69 180 18:27 25.01.2021
3321 Clouds 7 1012 87 10000 3.09 90 17:50 25.01.2021
3322 Clouds 6 1012 87 10000 3.09 90 17:31 25.01.2021
3323 Clouds 5 1012 81 10000 4.63 110 16:59 25.01.2021
3324 Clouds 5 1012 87 10000 2.57 90 16:40 25.01.2021
3325 Clouds 5 1013 87 10000 4.35 191 16:21 25.01.2021
3326 Clouds 4 1012 87 10000 2.06 140 15:43 25.01.2021
3327 Clouds 4 1012 87 10000 2.57 140 15:23 25.01.2021
3328 Clouds 5 1012 87 10000 2.06 140 14:40 25.01.2021
3329 Rain 5 1012 87 10000 2.76 172 14:19 25.01.2021
3330 Clouds 5 1012 81 10000 2.06 110 13:47 25.01.2021
3331 Clouds 5 1012 81 10000 2.06 110 13:25 25.01.2021
3332 Clouds 5 1013 81 10000 3.6 130 12:45 25.01.2021
3333 Clouds 5 1013 81 10000 3.6 130 12:19 25.01.2021
3334 Clouds 5 1013 81 10000 2.06 140 11:47 25.01.2021
3335 Clouds 5 1013 81 10000 2.06 140 11:18 25.01.2021
3336 Clear 4 1014 75 10000 4.12 190 10:39 25.01.2021
3337 Clear 5 1014 75 10000 4.12 190 10:18 25.01.2021
3338 Clouds 5 1013 81 10000 2.06 180 09:42 25.01.2021
3339 Clouds 5 1013 81 10000 2.06 180 09:23 25.01.2021
3340 Clouds 5 1014 81 10000 2.06 170 08:27 25.01.2021
3341 Clouds 5 1014 81 10000 1.54 130 07:31 25.01.2021
3342 Clouds 5 1014 81 10000 2.06 220 06:53 25.01.2021
3343 Clouds 5 1012 93 10000 4.7 260 03:39 25.01.2021
3344 Clouds 5 1012 87 10000 2.57 270 01:22 25.01.2021
3345 Clouds 6 1010 71 10000 7.2 280 23:40 24.01.2021
3346 Clouds 7 1011 75 10000 3.58 349 23:19 24.01.2021
3347 Clouds 7 1011 75 10000 2.24 319 22:42 24.01.2021
3348 Clouds 8 1010 57 10000 6.69 280 22:20 24.01.2021
3349 Clouds 9 1011 50 10000 5.66 270 21:46 24.01.2021
3350 Clouds 10 1011 50 10000 5.66 270 21:23 24.01.2021
3351 Clouds 10 1012 62 10000 3.6 260 20:44 24.01.2021
3352 Clouds 10 1012 62 10000 3.6 260 20:21 24.01.2021
3353 Clouds 8 1012 78 7936 1.34 0 19:51 24.01.2021
3354 Rain 8 1012 81 3550 1.79 193 19:27 24.01.2021
3355 Clouds 9 1012 76 10000 3.09 170 18:57 24.01.2021
3356 Clouds 8 1012 76 10000 3.09 170 18:38 24.01.2021
3357 Clouds 8 1012 76 10000 3.09 170 18:20 24.01.2021
3358 Clouds 7 1012 81 10000 5.14 200 17:49 24.01.2021
3359 Clouds 7 1012 81 10000 5.14 200 17:25 24.01.2021
3360 Clouds 7 1011 76 10000 3.09 190 16:43 24.01.2021
3361 Clouds 7 1011 76 10000 3.09 190 16:25 24.01.2021
3362 Clouds 8 1011 81 10000 2.24 188 15:58 24.01.2021
3363 Clouds 8 1011 81 10000 1.79 184 15:40 24.01.2021
3364 Rain 9 1011 66 10000 2.06 140 15:18 24.01.2021
3365 Clouds 9 1010 64 10000 1.79 198 14:38 24.01.2021
3366 Clouds 9 1010 64 10000 1.79 198 14:38 24.01.2021
3367 Clouds 10 1010 62 10000 4.63 220 13:45 24.01.2021
3368 Clouds 10 1010 62 10000 4.63 220 13:24 24.01.2021
3369 Clouds 10 1011 62 10000 3.86 188 12:47 24.01.2021
3370 Clouds 10 1011 62 10000 3.13 194 12:20 24.01.2021
3371 Clouds 11 1012 62 10000 1.54 260 11:50 24.01.2021
3372 Clouds 11 1012 62 10000 1.54 260 11:24 24.01.2021
3373 Clouds 11 1012 58 10000 2.06 280 10:45 24.01.2021
3374 Clouds 11 1011 61 10000 0.45 0 10:18 24.01.2021
3375 Clouds 11 1011 58 10000 2.06 300 09:22 24.01.2021
3376 Clouds 11 1012 62 10000 2.57 270 08:57 24.01.2021
3377 Clouds 11 1012 62 10000 2.57 270 08:22 24.01.2021
3378 Clouds 15 1011 39 10000 0.89 0 02:41 24.01.2021
3379 Clouds 16 1011 38 10000 1.34 0 01:49 24.01.2021
3380 Clouds 18 1011 27 10000 7.2 230 00:25 24.01.2021
3381 Clouds 18 1011 30 10000 5.66 210 23:53 23.01.2021
3382 Clouds 18 1011 30 10000 5.66 210 23:26 23.01.2021
3383 Clear 18 1012 32 10000 6.69 220 22:51 23.01.2021
3384 Clear 18 1012 32 10000 6.69 220 22:33 23.01.2021
3385 Clouds 18 1013 36 10000 5.14 200 21:53 23.01.2021
3386 Clouds 17 1013 36 10000 5.14 200 21:22 23.01.2021
3387 Clouds 17 1014 39 10000 4.63 200 20:48 23.01.2021
3388 Clouds 17 1014 39 10000 4.63 200 20:25 23.01.2021
3389 Clear 16 1015 47 10000 4.63 170 19:47 23.01.2021
3390 Clear 15 1015 47 10000 4.63 170 19:23 23.01.2021
3391 Clear 15 1015 51 10000 4.63 170 18:51 23.01.2021
3392 Clear 14 1015 51 10000 4.63 170 18:26 23.01.2021
3393 Clouds 13 1015 54 10000 0.89 0 17:55 23.01.2021
3394 Clouds 12 1014 64 10000 2.17 152 17:27 23.01.2021
3395 Clouds 11 1014 72 10000 2.17 152 16:50 23.01.2021
3396 Clouds 10 1014 74 10000 2.17 152 16:31 23.01.2021
3397 Clouds 9 1015 81 10000 1.54 140 15:48 23.01.2021
3398 Clouds 8 1015 81 10000 1.54 140 15:26 23.01.2021
3399 Clear 9 1014 76 10000 2.06 100 14:35 23.01.2021
3400 Clear 9 1014 71 10000 2.57 100 13:56 23.01.2021
3401 Clear 9 1014 71 10000 2.57 100 13:36 23.01.2021
3402 Clear 10 1014 66 10000 2.06 200 12:57 23.01.2021
3403 Clear 9 1014 66 10000 2.06 200 12:37 23.01.2021
3404 Clear 10 1014 66 10000 2.06 200 12:18 23.01.2021
3405 Clear 10 1015 71 10000 2.57 150 11:33 23.01.2021
3406 Clear 10 1015 66 10000 3.6 220 10:52 23.01.2021
3407 Clear 10 1015 66 10000 3.6 220 10:22 23.01.2021
3408 Clear 10 1015 62 10000 2.27 180 09:49 23.01.2021
3409 Clear 10 1015 62 10000 2.57 220 08:57 23.01.2021
3410 Clear 11 1015 62 10000 2.57 220 08:31 23.01.2021
3411 Clear 11 1015 58 10000 3.7 197 07:37 23.01.2021
3412 Clear 13 1015 51 10000 2.57 200 05:32 23.01.2021
3413 Clear 18 1014 32 10000 4.63 240 00:54 23.01.2021
3414 Clear 19 1014 37 10000 4.63 230 23:51 22.01.2021
3415 Clear 19 1014 37 10000 4.63 230 23:30 22.01.2021
3416 Clear 19 1015 39 10000 1.54 190 22:40 22.01.2021
3417 Clear 18 1016 45 10000 1.54 190 21:47 22.01.2021
3418 Clear 18 1016 45 10000 1.54 190 21:29 22.01.2021
3419 Clear 17 1016 45 10000 1.34 0 20:59 22.01.2021
3420 Clear 17 1018 51 10000 3.09 190 20:39 22.01.2021
3421 Clear 16 1017 50 10000 1.34 0 19:59 22.01.2021
3422 Clear 15 1019 58 10000 2.57 120 19:26 22.01.2021
3423 Clear 14 1018 55 10000 0.89 0 18:59 22.01.2021
3424 Clear 13 1019 71 10000 3.6 130 18:40 22.01.2021
3425 Clear 13 1019 71 10000 3.6 130 18:21 22.01.2021
3426 Clear 11 1019 70 10000 0.89 0 17:43 22.01.2021
3427 Clear 10 1019 73 10000 1.79 0 17:24 22.01.2021
3428 Clouds 7 1019 93 10000 5.14 150 16:40 22.01.2021
3429 Mist 6 1019 93 9656 3.09 150 16:20 22.01.2021
3430 Fog 6 1018 93 805 3.09 140 15:29 22.01.2021
3431 Clear 7 1018 87 10000 4.12 150 14:58 22.01.2021
3432 Clear 7 1018 87 10000 4.12 150 14:30 22.01.2021
3433 Clear 7 1018 87 10000 4.12 150 14:30 22.01.2021
3434 Clear 8 1018 87 10000 4.12 130 13:47 22.01.2021
3435 Clear 8 1018 87 10000 4.12 130 13:28 22.01.2021
3436 Clear 7 1018 93 10000 4.12 150 12:45 22.01.2021
3437 Clear 8 1018 93 10000 4.12 150 12:22 22.01.2021
3438 Clear 8 1018 87 10000 4.12 160 11:46 22.01.2021
3439 Clear 8 1019 87 10000 3.09 150 10:55 22.01.2021
3440 Clear 8 1019 87 10000 3.09 150 10:35 22.01.2021
3441 Clouds 8 1019 93 10000 2.57 170 09:57 22.01.2021
3442 Clouds 8 1019 93 10000 2.57 170 09:27 22.01.2021
3443 Clear 9 1019 87 10000 2.06 160 08:50 22.01.2021
3444 Clear 10 1019 87 10000 2.06 160 08:25 22.01.2021
3445 Clear 10 1019 82 10000 0.8 352 07:31 22.01.2021
3446 Clear 13 1017 67 10000 2.57 110 02:46 22.01.2021
3447 Clouds 15 1017 59 10000 2.06 0 00:38 22.01.2021
3448 Rain 13 1017 82 10000 2.57 290 23:51 21.01.2021
3449 Rain 12 1017 82 10000 2.57 290 23:29 21.01.2021
3450 Rain 15 1016 51 10000 6.69 290 22:49 21.01.2021
3451 Rain 17 1016 51 10000 6.69 290 22:23 21.01.2021
3452 Clear 18 1016 42 10000 2.06 120 21:43 21.01.2021
3453 Clear 19 1016 42 10000 2.06 120 21:20 21.01.2021
3454 Clouds 19 1017 48 10000 1.54 0 20:48 21.01.2021
3455 Clouds 19 1017 48 10000 1.54 0 20:27 21.01.2021
3456 Clouds 19 1016 46 10000 1.79 0 19:51 21.01.2021
3457 Clouds 18 1018 59 10000 3.09 150 19:29 21.01.2021
3458 Clouds 17 1017 52 10000 2.68 0 18:56 21.01.2021
3459 Clouds 17 1017 55 10000 2.24 0 18:38 21.01.2021
3460 Clear 16 1018 67 10000 4.12 180 18:19 21.01.2021
3461 Clouds 15 1018 67 10000 4.63 180 17:42 21.01.2021
3462 Clouds 14 1018 67 10000 4.63 180 17:19 21.01.2021
3463 Clouds 13 1018 76 10000 2.57 180 16:42 21.01.2021
3464 Clouds 12 1018 76 10000 2.57 180 16:24 21.01.2021
3465 Clouds 12 1018 76 10000 1.54 120 15:58 21.01.2021
3466 Clouds 12 1018 76 10000 1.54 120 15:33 21.01.2021
3467 Clouds 12 1018 71 10000 8.75 130 14:52 21.01.2021
3468 Clouds 11 1018 71 10000 8.75 130 14:31 21.01.2021
3469 Clouds 11 1018 71 10000 7.2 120 13:48 21.01.2021
3470 Clouds 11 1017 79 10000 0.45 169 13:27 21.01.2021
3471 Clouds 11 1019 82 10000 4.12 120 12:47 21.01.2021
3472 Clouds 11 1019 82 10000 4.12 120 12:27 21.01.2021
3473 Clouds 11 1019 82 10000 6.69 150 11:59 21.01.2021
3474 Clouds 11 1019 82 10000 6.69 150 11:41 21.01.2021
3475 Rain 11 1020 82 10000 7.2 120 10:57 21.01.2021
3476 Clouds 11 1020 82 10000 7.2 120 10:39 21.01.2021
3477 Rain 11 1020 82 10000 7.2 120 10:20 21.01.2021
3478 Clouds 12 1020 82 10000 6.17 120 09:39 21.01.2021
3479 Clouds 12 1020 82 10000 6.17 120 09:18 21.01.2021
3480 Rain 12 1020 76 10000 9.26 130 08:35 21.01.2021
3481 Rain 12 1019 84 8843 1.34 0 07:48 21.01.2021
3482 Rain 13 1020 72 10000 3.09 200 07:26 21.01.2021
3483 Clouds 14 1020 58 10000 3.09 170 06:31 21.01.2021
3484 Clouds 15 1019 63 10000 7.72 160 04:55 21.01.2021
3485 Clouds 17 1018 48 10000 9.77 140 02:19 21.01.2021
3486 Clouds 20 1017 28 10000 5.14 130 00:42 21.01.2021
3487 Clouds 20 1016 33 10000 0.89 0 23:49 20.01.2021
3488 Clouds 20 1016 32 10000 0.89 0 23:25 20.01.2021
3489 Clear 21 1018 30 10000 3.6 110 22:52 20.01.2021
3490 Clear 21 1018 30 10000 3.6 110 22:30 20.01.2021
3491 Clear 21 1019 32 10000 3.6 90 21:54 20.01.2021
3492 Clear 20 1019 32 10000 3.6 90 21:23 20.01.2021
3493 Clear 20 1020 32 10000 4.63 110 20:52 20.01.2021
3494 Clear 19 1020 32 10000 4.63 110 20:24 20.01.2021
3495 Clear 18 1021 36 10000 7.72 120 19:49 20.01.2021
3496 Clear 18 1021 36 10000 7.72 120 19:31 20.01.2021
3497 Clear 17 1021 41 10000 9.77 130 18:49 20.01.2021
3498 Clear 15 1021 41 10000 9.77 130 18:30 20.01.2021
3499 Clear 15 1020 41 10000 5.14 140 17:52 20.01.2021
3500 Clear 15 1020 41 10000 5.14 140 17:34 20.01.2021
3501 Clear 13 1020 43 10000 3.09 130 16:51 20.01.2021
3502 Clear 12 1020 43 10000 3.09 130 16:24 20.01.2021
3503 Clear 11 1019 46 10000 4.63 130 15:45 20.01.2021
3504 Clear 12 1019 46 10000 4.63 130 15:19 20.01.2021
3505 Clear 12 1019 43 10000 4.12 130 14:43 20.01.2021
3506 Clear 12 1019 43 10000 4.12 130 14:21 20.01.2021
3507 Clear 12 1019 39 10000 1.34 0 13:40 20.01.2021
3508 Clouds 13 1019 38 10000 5.14 110 12:59 20.01.2021
3509 Clouds 13 1019 38 10000 5.14 110 12:27 20.01.2021
3510 Clouds 14 1019 35 10000 7.2 120 11:46 20.01.2021
3511 Clouds 14 1019 35 10000 7.2 120 11:22 20.01.2021
3512 Clouds 15 1019 31 10000 9.26 120 10:50 20.01.2021
3513 Clouds 15 1019 31 10000 9.26 120 10:27 20.01.2021
3514 Clouds 16 1018 29 10000 9.77 130 09:44 20.01.2021
3515 Clouds 15 1018 29 10000 9.77 130 09:23 20.01.2021
3516 Clouds 16 1017 29 10000 9.77 130 08:47 20.01.2021
3517 Clouds 15 1017 29 10000 9.77 130 08:24 20.01.2021
3518 Clouds 16 1017 25 10000 10.8 100 07:55 20.01.2021
3519 Clouds 16 1017 25 10000 10.8 100 07:25 20.01.2021
3520 Clouds 17 1016 23 10000 10.8 120 05:24 20.01.2021
3521 Clouds 20 1013 21 10000 6.17 140 02:59 20.01.2021
3522 Clouds 21 1012 16 10000 2.06 130 00:59 20.01.2021
3523 Clouds 21 1012 16 10000 2.06 130 00:25 20.01.2021
3524 Clouds 22 1012 14 10000 5.14 180 23:42 19.01.2021
3525 Clouds 22 1012 14 10000 5.14 180 23:18 19.01.2021
3526 Clouds 22 1012 13 10000 6.97 167 22:41 19.01.2021
3527 Clouds 22 1012 13 10000 10.86 165 22:21 19.01.2021
3528 Clouds 22 1012 14 10000 3.09 210 21:58 19.01.2021
3529 Clouds 22 1012 14 10000 3.09 210 21:39 19.01.2021
3530 Clouds 21 1013 17 10000 2.06 40 20:55 19.01.2021
3531 Clouds 21 1013 17 10000 2.06 40 20:36 19.01.2021
3532 Clouds 20 1013 17 10000 2.06 40 20:18 19.01.2021
3533 Clouds 19 1013 22 10000 5.1 137 19:37 19.01.2021
3534 Clouds 17 1013 22 10000 6 112 19:19 19.01.2021
3535 Clouds 15 1013 22 10000 2.06 220 18:39 19.01.2021
3536 Clouds 15 1013 22 10000 2.06 220 18:21 19.01.2021
3537 Clouds 15 1012 24 10000 3.09 80 17:45 19.01.2021
3538 Clouds 14 1012 24 10000 3.09 80 17:23 19.01.2021
3539 Clouds 13 1012 32 10000 3.09 100 16:44 19.01.2021
3540 Clouds 12 1012 32 10000 3.09 100 16:24 19.01.2021
3541 Clear 12 1012 38 10000 1.98 78 15:54 19.01.2021
3542 Clear 12 1012 38 10000 1.98 78 15:34 19.01.2021
3543 Clear 12 1011 33 10000 1.83 95 14:50 19.01.2021
3544 Clear 12 1011 33 10000 2.41 118 14:29 19.01.2021
3545 Clouds 12 1011 19 10000 2.06 330 13:52 19.01.2021
3546 Clouds 13 1011 19 10000 2.06 330 13:28 19.01.2021
3547 Clouds 13 1010 19 10000 4.63 140 12:58 19.01.2021
3548 Clouds 14 1010 19 10000 4.63 140 12:34 19.01.2021
3549 Clouds 14 1010 18 10000 3.09 120 11:57 19.01.2021
3550 Clouds 14 1010 18 10000 3.09 120 11:37 19.01.2021
3551 Clouds 14 1010 18 10000 3.09 120 11:19 19.01.2021
3552 Clouds 14 1010 19 10000 2.57 140 10:41 19.01.2021
3553 Clouds 14 1010 19 10000 2.57 140 10:19 19.01.2021
3554 Clouds 14 1010 18 10000 2.57 110 09:46 19.01.2021
3555 Clouds 14 1010 18 10000 2.57 110 09:46 19.01.2021
3556 Clouds 14 1010 18 10000 2.57 110 09:20 19.01.2021
3557 Clouds 14 1010 18 10000 3.6 130 08:34 19.01.2021
3558 Clouds 14 1010 18 10000 2.57 170 07:53 19.01.2021
3559 Clouds 14 1010 17 10000 1.3 126 06:59 19.01.2021
3560 Clouds 16 1009 12 10000 2.57 227 04:18 19.01.2021
3561 Clear 19 1009 10 10000 2.77 277 02:22 19.01.2021
3562 Clear 23 1009 7 10000 3.09 320 00:37 19.01.2021
3563 Clear 24 1009 7 10000 4.63 310 23:48 18.01.2021
3564 Clear 24 1009 7 10000 4.63 310 23:25 18.01.2021
3565 Clear 24 1009 7 10000 1.54 330 22:43 18.01.2021
3566 Clear 24 1009 7 10000 1.54 330 22:21 18.01.2021
3567 Clear 23 1011 9 10000 2.37 282 21:47 18.01.2021
3568 Clear 23 1011 9 10000 1.44 257 21:23 18.01.2021
3569 Clear 23 1012 10 10000 1.54 320 20:57 18.01.2021
3570 Clear 23 1012 10 10000 1.54 320 20:34 18.01.2021
3571 Clear 22 1012 13 10000 0.45 180 19:54 18.01.2021
3572 Clear 21 1012 19 10000 0.45 159 19:35 18.01.2021
3573 Clear 19 1013 13 10000 3.6 120 18:48 18.01.2021
3574 Clear 19 1013 13 10000 3.6 120 18:48 18.01.2021
3575 Clear 18 1013 13 10000 3.6 120 18:27 18.01.2021
3576 Clear 17 1012 16 10000 0.89 69 17:47 18.01.2021
3577 Clear 15 1014 17 10000 2.57 140 17:29 18.01.2021
3578 Clear 6 1013 22 10000 3.09 140 16:50 18.01.2021
3579 Clear 8 1013 22 10000 3.09 140 16:27 18.01.2021
3580 Clear 6 1013 21 10000 4.12 130 15:52 18.01.2021
3581 Clear 7 1013 21 10000 4.12 130 15:27 18.01.2021
3582 Clear 7 1013 19 10000 1.88 132 14:56 18.01.2021
3583 Clear 7 1013 19 10000 1.88 132 14:38 18.01.2021
3584 Clear 7 1013 19 10000 2.07 134 14:19 18.01.2021
3585 Clear 7 1014 18 10000 2.07 134 13:44 18.01.2021
3586 Clear 7 1014 18 10000 1.52 150 13:20 18.01.2021
3587 Clear 7 1013 17 10000 4.63 150 12:45 18.01.2021
3588 Clear 7 1013 17 10000 4.63 150 12:18 18.01.2021
3589 Clear 8 1014 17 10000 2.57 140 11:42 18.01.2021
3590 Clear 8 1014 17 10000 2.57 140 11:23 18.01.2021
3591 Clear 8 1014 19 10000 6.17 140 10:47 18.01.2021
3592 Clear 8 1014 19 10000 6.17 140 10:21 18.01.2021
3593 Clear 8 1014 17 10000 3.6 130 09:39 18.01.2021
3594 Clear 9 1014 17 10000 3.6 130 09:18 18.01.2021
3595 Clear 9 1015 17 10000 4.63 150 08:26 18.01.2021
3596 Clear 10 1015 18 10000 5.14 150 07:48 18.01.2021
3597 Clear 11 1016 17 10000 5.14 140 06:35 18.01.2021
3598 Clear 11 1016 17 10000 5.14 140 06:35 18.01.2021
3599 Clear 14 1016 14 10000 0.41 273 04:41 18.01.2021
3600 Clear 14 1016 14 10000 0.61 333 04:22 18.01.2021
3601 Clear 16 1016 12 10000 0.61 333 03:46 18.01.2021
3602 Clear 16 1016 12 10000 1.5 350 03:25 18.01.2021
3603 Clear 18 1016 10 10000 3.09 330 02:53 18.01.2021
3604 Clear 19 1016 10 10000 3.09 330 02:18 18.01.2021
3605 Clear 24 1016 5 10000 1.54 310 00:39 18.01.2021
3606 Clear 25 1016 6 10000 2.06 310 23:51 17.01.2021
3607 Clear 25 1016 6 10000 2.06 310 23:24 17.01.2021
3608 Clear 25 1017 6 10000 2.06 340 22:50 17.01.2021
3609 Clear 25 1017 6 10000 2.06 340 22:22 17.01.2021
3610 Clear 25 1017 6 10000 2.06 340 22:22 17.01.2021
3611 Clear 24 1018 6 10000 0.88 70 21:43 17.01.2021
3612 Clear 24 1018 8 10000 2.06 90 21:24 17.01.2021
3613 Clear 23 1020 8 10000 2.06 170 20:51 17.01.2021
3614 Clear 23 1020 8 10000 2.06 170 20:32 17.01.2021
3615 Clear 22 1020 10 10000 3.09 210 19:52 17.01.2021
3616 Clear 21 1020 10 10000 3.09 210 19:31 17.01.2021
3617 Clear 19 1020 12 10000 8.75 110 18:53 17.01.2021
3618 Clear 17 1020 12 10000 8.75 110 18:28 17.01.2021
3619 Clear 14 1020 20 10000 2.06 140 17:50 17.01.2021
3620 Clear 14 1019 17 10000 6.17 140 17:28 17.01.2021
3621 Clear 8 1019 17 10000 6.17 140 16:45 17.01.2021
3622 Clear 10 1019 17 10000 6.17 140 16:25 17.01.2021
3623 Clear 9 1019 19 10000 5.14 130 15:45 17.01.2021
3624 Clear 9 1019 19 10000 5.14 130 15:45 17.01.2021
3625 Clear 9 1019 19 10000 5.14 130 15:45 17.01.2021
3626 Clear 9 1019 19 10000 5.14 130 15:26 17.01.2021
3627 Clear 8 1019 23 10000 2.54 78 14:55 17.01.2021
3628 Clear 8 1019 23 10000 2.77 80 14:27 17.01.2021
3629 Clear 8 1019 21 10000 2.77 80 13:58 17.01.2021
3630 Clear 8 1019 21 10000 2.77 80 13:40 17.01.2021
3631 Clear 8 1019 21 10000 2.56 82 13:21 17.01.2021
3632 Clear 7 1019 24 10000 2.06 170 12:41 17.01.2021
3633 Clear 7 1019 24 10000 2.06 170 12:22 17.01.2021
3634 Clear 8 1019 24 10000 1.86 76 11:25 17.01.2021
3635 Clear 10 1018 20 10000 1.86 76 10:51 17.01.2021
3636 Clear 10 1018 20 10000 2.05 74 10:24 17.01.2021
3637 Clear 10 1018 21 10000 4.63 150 09:48 17.01.2021
3638 Clear 11 1018 18 10000 2.06 110 08:49 17.01.2021
3639 Clear 10 1018 18 10000 2.06 110 08:26 17.01.2021
3640 Clear 15 1017 11 10000 2.06 300 04:29 17.01.2021
3641 Clouds 18 1016 13 10000 0.89 0 02:50 17.01.2021
3642 Clear 23 1015 6 10000 5.66 280 00:54 17.01.2021
3643 Clear 24 1015 6 10000 5.66 280 00:21 17.01.2021
3644 Clear 24 1015 6 10000 6.69 270 23:52 16.01.2021
3645 Clear 25 1015 7 10000 5.66 310 23:21 16.01.2021
3646 Clear 24 1015 8 10000 1.54 290 22:52 16.01.2021
3647 Clear 24 1015 8 10000 1.54 290 22:18 16.01.2021
3648 Clear 23 1017 8 10000 2.06 0 21:43 16.01.2021
3649 Clear 23 1017 8 10000 2.06 0 21:22 16.01.2021
3650 Clear 22 1018 10 10000 2.06 310 20:47 16.01.2021
3651 Clear 21 1017 10 10000 1.71 286 20:23 16.01.2021
3652 Clear 20 1018 14 10000 0.45 0 19:48 16.01.2021
3653 Clear 19 1018 13 10000 2.57 180 19:29 16.01.2021
3654 Clouds 17 1019 15 10000 3.09 170 18:45 16.01.2021
3655 Clouds 14 1019 15 10000 3.09 170 18:26 16.01.2021
3656 Clear 8 1018 25 10000 2.57 160 17:50 16.01.2021
3657 Clear 11 1018 25 10000 2.57 160 17:30 16.01.2021
3658 Clear 8 1018 18 10000 6.17 330 16:50 16.01.2021
3659 Clear 8 1018 18 10000 6.17 330 16:31 16.01.2021
3660 Clear 7 1017 21 10000 6.17 140 15:55 16.01.2021
3661 Clear 7 1017 21 10000 6.17 140 15:36 16.01.2021
3662 Clear 7 1017 20 10000 3.6 150 14:31 16.01.2021
3663 Clear 7 1017 21 10000 4.63 150 13:50 16.01.2021
3664 Clear 10 1017 21 10000 4.63 150 13:30 16.01.2021
3665 Clear 9 1018 23 10000 4.12 160 12:47 16.01.2021
3666 Clear 9 1018 23 10000 4.12 160 12:22 16.01.2021
3667 Clear 9 1018 24 10000 2.16 101 11:54 16.01.2021
3668 Clear 8 1018 24 10000 1.75 116 11:25 16.01.2021
3669 Clear 9 1018 24 10000 3.6 140 10:50 16.01.2021
3670 Clear 9 1018 24 10000 3.6 140 10:30 16.01.2021
3671 Clear 8 1019 24 10000 3.6 140 09:42 16.01.2021
3672 Clear 8 1019 24 10000 3.6 140 09:19 16.01.2021
3673 Clear 10 1020 23 10000 2.57 130 07:53 16.01.2021
3674 Clear 10 1020 21 10000 3.09 160 06:44 16.01.2021
3675 Clear 14 1019 17 10000 0.78 100 04:51 16.01.2021
3676 Clear 16 1019 12 10000 2.57 330 02:56 16.01.2021
3677 Clear 18 1019 12 10000 2.57 330 02:21 16.01.2021
3678 Clear 22 1019 9 10000 4.12 330 00:43 16.01.2021
3679 Clear 22 1019 9 10000 4.12 330 00:19 16.01.2021
3680 Clear 23 1019 9 10000 3.09 300 23:25 15.01.2021
3681 Clear 22 1020 10 10000 3.09 290 22:27 15.01.2021
3682 Clear 22 1021 10 10000 2.57 320 21:48 15.01.2021
3683 Clear 21 1021 10 10000 2.57 320 21:25 15.01.2021
3684 Clear 20 1022 13 10000 3.6 20 20:42 15.01.2021
3685 Clear 19 1022 13 10000 3.6 20 20:23 15.01.2021
3686 Clear 18 1023 17 10000 2.57 350 19:43 15.01.2021
3687 Clear 17 1023 17 10000 2.57 350 19:24 15.01.2021
3688 Clear 16 1023 21 10000 0.91 29 18:45 15.01.2021
3689 Clear 15 1023 21 10000 1.04 94 18:20 15.01.2021
3690 Clear 14 1022 24 10000 1.04 94 17:54 15.01.2021
3691 Clear 12 1022 24 10000 1.06 116 17:28 15.01.2021
3692 Clear 7 1022 29 10000 1.06 116 16:59 15.01.2021
3693 Clear 7 1022 29 10000 1.06 116 16:40 15.01.2021
3694 Clear 7 1022 29 10000 1.28 54 16:20 15.01.2021
3695 Clear 5 1022 35 10000 2.06 160 15:37 15.01.2021
3696 Clear 5 1022 35 10000 2.06 160 15:18 15.01.2021
3697 Clear 6 1021 33 10000 1.62 44 14:38 15.01.2021
3698 Clear 6 1021 33 10000 1.57 61 14:18 15.01.2021
3699 Clear 6 1021 35 10000 2.57 170 13:40 15.01.2021
3700 Clear 6 1021 35 10000 2.57 170 13:19 15.01.2021
3701 Clear 7 1021 35 10000 2.06 190 12:45 15.01.2021
3702 Clear 7 1021 35 10000 2.06 190 12:22 15.01.2021
3703 Clear 7 1021 31 10000 1.08 35 11:42 15.01.2021
3704 Clear 8 1021 31 10000 0.73 100 11:18 15.01.2021
3705 Clear 8 1021 31 10000 4.12 130 10:48 15.01.2021
3706 Clear 7 1021 31 10000 4.12 130 10:21 15.01.2021
3707 Clear 7 1022 31 10000 4.63 150 09:48 15.01.2021
3708 Clear 7 1022 31 10000 4.63 150 09:29 15.01.2021
3709 Clear 8 1022 29 10000 2.06 130 08:28 15.01.2021
3710 Clear 8 1022 29 10000 2.06 130 08:28 15.01.2021
3711 Clear 9 1022 29 10000 3.09 220 07:44 15.01.2021
3712 Clear 10 1022 29 10000 3.09 220 07:23 15.01.2021
3713 Clear 11 1022 25 10000 2.06 150 06:35 15.01.2021
3714 Clear 16 1020 15 10000 3.6 330 02:43 15.01.2021
3715 Clouds 21 1020 15 10000 2.24 304 00:41 15.01.2021
3716 Clear 22 1020 12 10000 3.09 290 23:30 14.01.2021
3717 Clear 22 1021 9 10000 2.57 350 22:56 14.01.2021
3718 Clear 21 1021 9 10000 2.57 350 22:37 14.01.2021
3719 Clear 21 1021 9 10000 2.57 350 22:37 14.01.2021
3720 Clear 21 1020 10 10000 1.54 340 22:18 14.01.2021
3721 Clear 20 1021 10 10000 2.06 310 21:39 14.01.2021
3722 Clear 20 1021 10 10000 2.06 310 21:20 14.01.2021
3723 Clouds 19 1022 15 10000 0.89 296 20:44 14.01.2021
3724 Clear 18 1022 10 10000 2.06 340 20:18 14.01.2021
3725 Clear 18 1022 10 10000 2.06 340 20:18 14.01.2021
3726 Clear 17 1023 11 10000 1.54 360 19:38 14.01.2021
3727 Clouds 16 1023 17 10000 0.45 126 19:18 14.01.2021
3728 Clear 14 1023 13 10000 0.23 265 18:44 14.01.2021
3729 Clear 9 1023 17 10000 0.52 106 17:59 14.01.2021
3730 Clear 8 1023 17 10000 0.52 106 17:38 14.01.2021
3731 Clear 8 1023 17 10000 1.11 157 17:19 14.01.2021
3732 Clear 5 1022 28 10000 1.03 160 16:35 14.01.2021
3733 Clear 5 1022 20 10000 2.06 110 15:55 14.01.2021
3734 Clear 5 1022 20 10000 2.06 110 15:32 14.01.2021
3735 Clear 4 1021 20 10000 3.09 160 14:48 14.01.2021
3736 Clear 5 1021 20 10000 3.09 160 14:30 14.01.2021
3737 Clear 5 1021 22 10000 3.6 150 13:56 14.01.2021
3738 Clear 5 1021 22 10000 3.6 150 13:25 14.01.2021
3739 Clear 5 1021 24 10000 3.09 150 12:58 14.01.2021
3740 Clear 5 1021 24 10000 3.09 150 12:23 14.01.2021
3741 Clear 6 1022 22 10000 4.63 140 11:59 14.01.2021
3742 Clear 6 1022 22 10000 4.63 140 11:41 14.01.2021
3743 Clear 6 1022 22 10000 4.63 140 11:19 14.01.2021
3744 Clear 6 1022 21 10000 4.63 140 10:42 14.01.2021
3745 Clear 6 1022 21 10000 4.63 140 10:19 14.01.2021
3746 Clear 7 1022 24 10000 2.06 140 09:42 14.01.2021
3747 Clear 7 1022 24 10000 2.06 140 09:21 14.01.2021
3748 Clear 7 1022 22 10000 2.57 130 08:34 14.01.2021
3749 Clear 7 1022 22 10000 1.54 160 07:58 14.01.2021
3750 Clear 8 1022 22 10000 1.54 160 07:39 14.01.2021
3751 Clear 9 1022 23 10000 2.06 170 06:37 14.01.2021
3752 Clear 10 1022 15 10000 1.15 308 04:59 14.01.2021
3753 Clouds 19 1021 7 10000 5.66 340 00:34 14.01.2021
3754 Clear 20 1021 7 10000 3.7 305 23:33 13.01.2021
3755 Clear 19 1021 9 10000 2.06 290 22:51 13.01.2021
3756 Clear 19 1021 9 10000 2.06 290 22:26 13.01.2021
3757 Clear 19 1023 10 10000 2.56 302 21:48 13.01.2021
3758 Clear 18 1023 10 10000 0.49 256 21:22 13.01.2021
3759 Clear 17 1025 11 10000 0.49 256 20:51 13.01.2021
3760 Clear 16 1025 11 10000 1.62 145 20:26 13.01.2021
3761 Clear 15 1025 18 10000 0.89 148 19:52 13.01.2021
3762 Clear 13 1026 16 10000 2.06 170 19:27 13.01.2021
3763 Clear 12 1026 20 10000 1.79 130 18:52 13.01.2021
3764 Clear 10 1026 20 10000 1.99 127 18:33 13.01.2021
3765 Clear 6 1026 23 10000 1.52 118 17:51 13.01.2021
3766 Clear 6 1026 23 10000 0.86 103 17:18 13.01.2021
3767 Clear 1 1026 30 10000 0.86 103 16:47 13.01.2021
3768 Clear 3 1026 30 10000 0.89 54 16:21 13.01.2021
3769 Clear 1 1025 34 10000 1.54 180 15:49 13.01.2021
3770 Clear 1 1025 34 10000 1.54 180 15:31 13.01.2021
3771 Clear 3 1025 28 10000 5.14 160 14:33 13.01.2021
3772 Clear 3 1025 28 10000 6.69 140 13:50 13.01.2021
3773 Clear 4 1025 28 10000 6.69 140 13:26 13.01.2021
3774 Clear 3 1025 28 10000 5.14 150 12:46 13.01.2021
3775 Clear 4 1025 28 10000 5.14 150 12:27 13.01.2021
3776 Clear 4 1025 28 10000 4.12 140 11:53 13.01.2021
3777 Clear 4 1025 28 10000 4.12 140 11:34 13.01.2021
3778 Clear 5 1025 28 10000 5.14 150 10:50 13.01.2021
3779 Clear 4 1025 28 10000 5.14 150 10:29 13.01.2021
3780 Clear 4 1025 26 10000 4.12 170 09:49 13.01.2021
3781 Clear 4 1025 26 10000 4.12 170 09:28 13.01.2021
3782 Clear 5 1025 26 10000 4.63 150 08:48 13.01.2021
3783 Clear 5 1025 26 10000 4.63 150 08:25 13.01.2021
3784 Clear 5 1025 28 10000 2.57 140 07:30 13.01.2021
3785 Clear 7 1025 26 10000 1.55 65 06:26 13.01.2021
3786 Clear 9 1024 23 10000 2.06 140 04:19 13.01.2021
3787 Clear 10 1024 20 10000 1.54 350 03:44 13.01.2021
3788 Clear 11 1024 20 10000 1.54 350 03:23 13.01.2021
3789 Clear 16 1023 14 10000 0.89 47 01:18 13.01.2021
3790 Clear 17 1024 13 10000 1.54 20 23:52 12.01.2021
3791 Clear 17 1024 13 10000 1.54 20 23:20 12.01.2021
3792 Clear 17 1024 16 10000 1.39 30 22:45 12.01.2021
3793 Clear 17 1024 16 10000 1.7 53 22:23 12.01.2021
3794 Clear 16 1025 16 10000 1.54 0 21:49 12.01.2021
3795 Clear 16 1024 18 10000 1.54 330 21:26 12.01.2021
3796 Clear 15 1025 19 10000 2.06 40 20:48 12.01.2021
3797 Clear 15 1025 19 10000 2.06 40 20:27 12.01.2021
3798 Clear 14 1027 22 10000 3.09 120 19:47 12.01.2021
3799 Clear 13 1026 22 10000 2.57 150 19:26 12.01.2021
3800 Clear 11 1026 25 10000 2.89 105 18:42 12.01.2021
3801 Clear 10 1026 25 10000 2.41 102 18:23 12.01.2021
3802 Clear 9 1026 31 10000 5.14 130 17:39 12.01.2021
3803 Clear 8 1026 31 10000 5.14 130 17:19 12.01.2021
3804 Clear 6 1026 33 10000 6.17 120 16:43 12.01.2021
3805 Clear 5 1025 38 10000 4.12 150 16:22 12.01.2021
3806 Clear 4 1025 38 10000 1.54 150 15:29 12.01.2021
3807 Clear 4 1024 33 10000 1.54 10 14:59 12.01.2021
3808 Clear 4 1024 33 10000 1.54 10 14:41 12.01.2021
3809 Clear 5 1024 33 10000 1.54 10 14:19 12.01.2021
3810 Clear 5 1023 38 10000 4.12 180 13:50 12.01.2021
3811 Clear 6 1023 29 10000 1.54 50 12:50 12.01.2021
3812 Clear 6 1023 29 10000 1.54 50 12:21 12.01.2021
3813 Clear 7 1023 35 10000 4.12 120 11:40 12.01.2021
3814 Clear 7 1023 33 10000 3.09 130 10:50 12.01.2021
3815 Clear 7 1023 33 10000 3.09 130 10:20 12.01.2021
3816 Clear 7 1023 33 10000 4.12 140 09:57 12.01.2021
3817 Clear 8 1024 31 10000 2.06 180 09:27 12.01.2021
3818 Clear 8 1024 31 10000 4.63 150 08:46 12.01.2021
3819 Clear 8 1024 31 10000 4.63 150 08:23 12.01.2021
3820 Clear 8 1024 27 10000 3.09 190 07:35 12.01.2021
3821 Clear 9 1024 29 10000 6.69 100 06:26 12.01.2021
3822 Clear 9 1023 27 10000 2.06 160 05:30 12.01.2021
3823 Clear 11 1022 22 10000 7.72 70 03:26 12.01.2021
3824 Clear 12 1021 22 10000 7.2 80 02:19 12.01.2021
3825 Clear 14 1021 23 10000 1.34 0 01:28 12.01.2021
3826 Clear 15 1020 17 10000 7.72 70 23:51 11.01.2021
3827 Clear 16 1020 17 10000 7.72 70 23:23 11.01.2021
3828 Clear 15 1020 17 10000 6.17 50 22:58 11.01.2021
3829 Clear 16 1020 17 10000 7.72 50 22:39 11.01.2021
3830 Clear 15 1020 17 10000 7.72 50 22:18 11.01.2021
3831 Clear 15 1020 18 10000 2.06 50 21:37 11.01.2021
3832 Clear 15 1020 18 10000 2.06 50 21:18 11.01.2021
3833 Clear 14 1021 21 10000 5.66 140 20:41 11.01.2021
3834 Clear 14 1021 21 10000 5.66 140 20:41 11.01.2021
3835 Clear 14 1021 21 10000 5.66 140 20:22 11.01.2021
3836 Clear 14 1022 24 10000 3.09 20 19:54 11.01.2021
3837 Clear 13 1022 24 10000 3.09 20 19:25 11.01.2021
3838 Clear 12 1024 28 10000 5.66 140 18:45 11.01.2021
3839 Clear 11 1024 28 10000 5.66 140 18:25 11.01.2021
3840 Clouds 9 1023 34 10000 5.14 150 17:44 11.01.2021
3841 Clouds 9 1023 34 10000 5.14 150 17:26 11.01.2021
3842 Clouds 8 1022 36 10000 3.6 140 16:57 11.01.2021
3843 Clouds 7 1022 36 10000 3.6 140 16:36 11.01.2021
3844 Clouds 6 1022 36 10000 3.6 140 16:18 11.01.2021
3845 Clear 6 1022 39 10000 4.12 140 15:44 11.01.2021
3846 Clear 6 1022 39 10000 4.12 140 15:25 11.01.2021
3847 Clear 6 1022 36 10000 2.06 170 14:39 11.01.2021
3848 Clear 7 1021 39 10000 5.14 140 13:50 11.01.2021
3849 Clear 7 1021 39 10000 5.14 140 13:25 11.01.2021
3850 Clear 7 1022 39 10000 5.14 150 12:49 11.01.2021
3851 Clear 7 1022 39 10000 5.14 150 12:30 11.01.2021
3852 Clear 6 1022 36 10000 2.57 160 11:56 11.01.2021
3853 Clear 7 1022 36 10000 2.57 160 11:26 11.01.2021
3854 Clear 7 1022 34 10000 4.12 120 10:47 11.01.2021
3855 Clear 7 1022 34 10000 4.12 120 10:24 11.01.2021
3856 Clear 8 1022 31 10000 6.69 130 09:39 11.01.2021
3857 Clear 8 1022 31 10000 6.69 130 09:20 11.01.2021
3858 Clear 9 1022 31 10000 3.6 100 08:44 11.01.2021
3859 Clear 9 1022 31 10000 3.6 100 08:18 11.01.2021
3860 Clear 9 1022 29 10000 5.14 100 07:26 11.01.2021
3861 Clear 9 1022 27 10000 3.6 100 06:58 11.01.2021
3862 Clear 11 1021 22 10000 2.57 90 03:27 11.01.2021
3863 Clear 15 1020 18 10000 2.06 10 01:29 11.01.2021
3864 Clear 16 1020 18 10000 3.09 160 23:59 10.01.2021
3865 Clear 17 1020 18 10000 3.09 160 23:30 10.01.2021
3866 Clear 16 1020 18 10000 1.54 130 22:48 10.01.2021
3867 Clear 16 1020 18 10000 1.54 130 22:23 10.01.2021
3868 Clear 16 1021 20 10000 2.06 40 21:44 10.01.2021
3869 Clear 16 1021 20 10000 2.06 40 21:20 10.01.2021
3870 Clear 15 1022 21 10000 4.28 96 20:53 10.01.2021
3871 Clear 15 1022 21 10000 4.28 96 20:32 10.01.2021
3872 Clear 14 1023 21 10000 1.54 0 19:43 10.01.2021
3873 Clear 13 1023 24 10000 4.8 95 19:25 10.01.2021
3874 Clear 12 1023 27 10000 4.8 95 18:49 10.01.2021
3875 Clear 10 1023 27 10000 3.96 96 18:21 10.01.2021
3876 Clear 10 1023 27 10000 3.96 96 18:21 10.01.2021
3877 Clear 7 1023 30 10000 3.26 91 17:28 10.01.2021
3878 Clear 0 1022 37 10000 3.26 91 16:59 10.01.2021
3879 Clear 0 1022 37 10000 3.26 91 16:32 10.01.2021
3880 Clear 0 1022 40 10000 2.46 88 15:54 10.01.2021
3881 Clear 2 1022 40 10000 2.1 80 15:25 10.01.2021
3882 Clear 2 1022 40 10000 2.1 80 15:25 10.01.2021
3883 Clear 2 1021 35 10000 2.06 280 14:50 10.01.2021
3884 Clear 2 1021 35 10000 2.06 280 14:31 10.01.2021
3885 Clear 3 1020 37 10000 4.12 160 13:54 10.01.2021
3886 Clear 3 1020 37 10000 4.12 160 13:36 10.01.2021
3887 Clear 3 1020 37 10000 4.12 160 13:36 10.01.2021
3888 Clear 3 1020 37 10000 4.12 160 13:18 10.01.2021
3889 Clear 2 1020 35 10000 4.12 160 12:42 10.01.2021
3890 Clear 3 1020 30 10000 2.06 170 11:58 10.01.2021
3891 Clear 3 1020 30 10000 2.06 170 11:22 10.01.2021
3892 Clear 4 1020 30 10000 3.6 130 10:58 10.01.2021
3893 Clear 5 1020 30 10000 3.6 130 10:30 10.01.2021
3894 Clear 4 1019 30 10000 4.12 140 09:58 10.01.2021
3895 Clear 4 1019 30 10000 4.12 140 09:24 10.01.2021
3896 Clear 6 1019 26 10000 3.09 190 08:20 10.01.2021
3897 Clear 7 1019 26 10000 2.57 120 07:28 10.01.2021
3898 Clear 7 1018 24 10000 3.6 270 06:19 10.01.2021
3899 Clear 8 1018 20 10000 1.6 14 05:35 10.01.2021
3900 Clear 12 1016 16 10000 3.6 290 02:56 10.01.2021
3901 Clear 15 1015 16 10000 7.72 310 00:48 10.01.2021
3902 Clear 16 1015 14 10000 6.92 314 23:47 09.01.2021
3903 Clear 16 1015 14 10000 6.48 296 23:28 09.01.2021
3904 Clear 17 1015 15 10000 6.48 296 22:44 09.01.2021
3905 Clear 17 1015 15 10000 6.42 295 22:18 09.01.2021
3906 Clear 17 1016 17 10000 6.42 295 21:56 09.01.2021
3907 Clear 17 1016 17 10000 6.42 295 21:37 09.01.2021
3908 Clear 16 1016 17 10000 6.75 297 21:18 09.01.2021
3909 Clear 16 1016 16 10000 6.75 297 20:39 09.01.2021
3910 Clear 16 1017 19 10000 1.79 321 19:44 09.01.2021
3911 Clear 15 1016 18 10000 2.92 277 19:22 09.01.2021
3912 Clear 14 1017 20 10000 3.09 150 18:41 09.01.2021
3913 Clear 13 1017 20 10000 3.09 150 18:20 09.01.2021
3914 Clear 11 1016 25 10000 1.54 100 17:46 09.01.2021
3915 Clear 9 1016 25 10000 1.54 100 17:27 09.01.2021
3916 Clear 3 1016 32 10000 3.6 120 16:33 09.01.2021
3917 Clear 2 1016 32 10000 2.57 110 15:52 09.01.2021
3918 Clear 2 1016 32 10000 2.57 110 15:32 09.01.2021
3919 Clear 3 1017 32 10000 3.6 130 14:40 09.01.2021
3920 Clear 3 1017 32 10000 3.6 130 14:20 09.01.2021
3921 Clear 3 1017 32 10000 3.09 150 13:48 09.01.2021
3922 Clear 4 1017 32 10000 3.09 150 13:29 09.01.2021
3923 Clear 3 1017 32 10000 3.09 140 12:48 09.01.2021
3924 Clear 5 1017 32 10000 3.09 140 12:22 09.01.2021
3925 Clear 5 1017 30 10000 2.06 120 11:55 09.01.2021
3926 Clear 4 1017 30 10000 2.06 120 11:30 09.01.2021
3927 Clear 5 1017 28 10000 3.09 120 10:52 09.01.2021
3928 Clear 6 1017 28 10000 3.09 120 10:30 09.01.2021
3929 Clear 8 1017 26 10000 3.6 120 09:52 09.01.2021
3930 Clear 8 1017 26 10000 3.6 120 09:28 09.01.2021
3931 Clear 7 1017 26 10000 3.09 130 08:34 09.01.2021
3932 Clear 10 1018 25 10000 2.57 180 06:58 09.01.2021
3933 Clear 11 1018 25 10000 2.57 180 06:39 09.01.2021
3934 Clear 13 1017 19 10000 2.06 130 04:47 09.01.2021
3935 Clear 14 1017 17 10000 2.57 260 03:21 09.01.2021
3936 Clear 16 1017 15 10000 4.12 280 02:30 09.01.2021
3937 Clear 17 1017 12 10000 6.69 290 01:45 09.01.2021
3938 Clouds 20 1017 12 10000 2.68 0 00:35 09.01.2021
3939 Clouds 22 1016 11 10000 2.24 5 23:57 08.01.2021
3940 Clear 23 1018 8 10000 2.65 294 22:56 08.01.2021
3941 Clear 22 1018 8 10000 2.61 293 22:18 08.01.2021
3942 Clear 22 1019 8 10000 2.06 270 21:35 08.01.2021
3943 Clear 21 1020 10 10000 1.86 284 20:42 08.01.2021
3944 Clear 20 1020 10 10000 0.87 239 20:23 08.01.2021
3945 Clear 18 1020 14 10000 0.89 169 19:44 08.01.2021
3946 Clouds 17 1020 16 10000 0.45 178 19:21 08.01.2021
3947 Clouds 15 1017 18 10000 1.17 151 18:34 08.01.2021
3948 Clear 11 1021 20 10000 3.6 150 17:56 08.01.2021
3949 Clear 9 1021 20 10000 3.6 150 17:35 08.01.2021
3950 Clear 9 1021 24 10000 4.63 160 16:51 08.01.2021
3951 Clear 9 1021 24 10000 4.63 160 16:51 08.01.2021
3952 Clear 4 1021 24 10000 4.63 160 16:20 08.01.2021
3953 Clear 5 1020 24 10000 5.14 150 15:40 08.01.2021
3954 Clear 5 1020 24 10000 4.12 140 14:42 08.01.2021
3955 Clear 6 1020 24 10000 4.12 140 14:23 08.01.2021
3956 Clear 6 1020 24 10000 4.12 150 13:23 08.01.2021
3957 Clear 7 1020 23 10000 4.12 140 12:53 08.01.2021
3958 Clear 9 1020 23 10000 4.12 140 12:26 08.01.2021
3959 Clear 8 1020 24 10000 4.12 150 11:59 08.01.2021
3960 Clear 9 1020 24 10000 4.12 150 11:40 08.01.2021
3961 Clear 9 1020 24 10000 4.12 150 11:20 08.01.2021
3962 Clear 8 1020 23 10000 3.09 150 10:45 08.01.2021
3963 Clear 9 1021 23 10000 3.6 150 09:57 08.01.2021
3964 Clear 8 1021 23 10000 3.6 150 09:38 08.01.2021
3965 Clear 8 1021 23 10000 3.6 150 09:19 08.01.2021
3966 Clear 9 1020 23 10000 4.12 140 07:43 08.01.2021
3967 Clear 8 1020 23 10000 4.12 140 07:25 08.01.2021
3968 Clear 8 1020 23 10000 4.12 140 07:25 08.01.2021
3969 Clear 12 1019 19 10000 1.54 10 04:18 08.01.2021
3970 Clear 21 1018 9 10000 3.09 300 23:43 07.01.2021
3971 Clear 21 1018 10 10000 2.57 320 22:55 07.01.2021
3972 Clear 21 1018 10 10000 2.57 320 22:36 07.01.2021
3973 Clear 21 1019 9 10000 1.95 292 21:50 07.01.2021
3974 Clear 20 1019 11 10000 2.06 300 21:31 07.01.2021
3975 Clear 19 1019 11 10000 1.7 284 20:55 07.01.2021
3976 Clear 19 1019 11 10000 1.7 284 20:36 07.01.2021
3977 Clear 17 1020 12 10000 1.03 282 19:50 07.01.2021
3978 Clear 16 1020 12 10000 0.4 280 19:26 07.01.2021
3979 Clear 15 1021 15 10000 2.57 160 18:47 07.01.2021
3980 Clear 14 1021 15 10000 2.57 160 18:20 07.01.2021
3981 Clear 8 1021 20 10000 2.57 160 17:35 07.01.2021
3982 Clear 8 1021 20 10000 2.57 160 17:35 07.01.2021
3983 Clouds 5 1020 26 10000 3.6 160 16:57 07.01.2021
3984 Clouds 4 1020 26 10000 3.6 160 16:32 07.01.2021
3985 Clear 4 1020 24 10000 5.14 140 15:57 07.01.2021
3986 Clear 4 1020 24 10000 5.14 140 15:31 07.01.2021
3987 Clear 4 1020 24 10000 5.14 140 15:31 07.01.2021
3988 Clear 4 1020 26 10000 4.12 150 14:34 07.01.2021
3989 Clear 5 1020 26 10000 2.06 150 13:59 07.01.2021
3990 Clear 5 1020 26 10000 2.06 150 13:31 07.01.2021
3991 Clouds 6 1019 21 10000 0.45 342 12:56 07.01.2021
3992 Clear 5 1020 29 10000 3.6 140 12:24 07.01.2021
3993 Clear 4 1020 29 10000 3.6 140 11:43 07.01.2021
3994 Clear 4 1020 29 10000 3.6 140 11:25 07.01.2021
3995 Clear 6 1020 27 10000 3.6 140 10:38 07.01.2021
3996 Clouds 6 1020 24 10000 3.1 150 10:19 07.01.2021
3997 Clouds 6 1020 24 10000 3.1 150 09:41 07.01.2021
3998 Clear 7 1020 28 10000 2.6 140 08:53 07.01.2021
3999 Clear 8 1020 26 10000 3.1 150 08:24 07.01.2021
4000 Clear 8 1020 26 10000 3.1 150 07:43 07.01.2021
4001 Clear 9 1020 23 10000 2.1 20 06:51 07.01.2021
4002 Clear 13 1020 15 10000 2.6 260 03:18 07.01.2021
4003 Clear 20 1018 11 10000 5.1 50 00:25 07.01.2021
4004 Clear 21 1018 11 10000 5.1 50 23:35 06.01.2021
4005 Clear 20 1019 13 10000 4.6 70 22:36 06.01.2021
4006 Clear 19 1019 16 10000 2.6 70 21:42 06.01.2021
4007 Clear 19 1020 14 10000 3.1 10 21:22 06.01.2021
4008 Clear 18 1017 18 10000 1.34 153 20:50 06.01.2021
4009 Clear 17 1021 20 10000 0.89 355 20:22 06.01.2021
4010 Clear 16 1022 18 10000 1.5 280 19:48 06.01.2021
4011 Clear 15 1022 18 10000 1.5 280 19:29 06.01.2021
4012 Clear 14 1022 25 10000 1.85 99 18:50 06.01.2021
4013 Clear 13 1022 27 10000 1.46 87 18:32 06.01.2021
4014 Clear 9 1022 36 10000 1.46 87 17:47 06.01.2021
4015 Clear 9 1022 36 10000 2.02 86 17:28 06.01.2021
4016 Clear 3 1022 41 10000 1.5 180 16:59 06.01.2021
4017 Clear 3 1022 41 10000 1.5 180 16:36 06.01.2021
4018 Clear 5 1021 41 10000 1.9 93 16:18 06.01.2021
4019 Clear 4 1021 41 10000 1.9 93 15:43 06.01.2021
4020 Clear 4 1021 41 10000 0.94 105 15:23 06.01.2021
4021 Clear 3 1021 44 10000 3.6 160 14:32 06.01.2021
4022 Clear 4 1021 47 10000 1.5 160 13:55 06.01.2021
4023 Clear 4 1021 47 10000 1.5 160 13:27 06.01.2021
4024 Clear 5 1020 41 10000 3.1 160 12:58 06.01.2021
4025 Clear 5 1020 41 10000 3.1 160 12:32 06.01.2021
4026 Clear 6 1021 38 10000 3.1 160 11:46 06.01.2021
4027 Clear 6 1021 38 10000 3.1 160 11:23 06.01.2021
4028 Clear 7 1020 38 10000 4.1 140 10:43 06.01.2021
4029 Clear 6 1021 41 10000 3.6 140 09:52 06.01.2021
4030 Clear 6 1021 41 10000 3.6 140 09:31 06.01.2021
4031 Clear 6 1021 38 10000 2.6 120 08:52 06.01.2021
4032 Clear 7 1021 38 10000 2.6 150 08:19 06.01.2021
4033 Clear 8 1021 38 10000 2.6 150 07:51 06.01.2021
4034 Clear 8 1020 36 10000 3.6 180 06:44 06.01.2021
4035 Clear 11 1020 29 10000 1.5 220 05:28 06.01.2021
4036 Clear 13 1019 27 10000 0.45 0 02:59 06.01.2021
4037 Clear 14 1018 21 10000 2.32 303 02:40 06.01.2021
4038 Clear 15 1019 20 10000 1.5 270 02:19 06.01.2021
4039 Clear 20 1017 15 10000 6.7 30 23:48 05.01.2021
4040 Clear 20 1017 16 10000 4.1 40 22:55 05.01.2021
4041 Clear 20 1017 16 10000 4.1 40 22:36 05.01.2021
4042 Clear 20 1017 20 10000 3.13 325 22:18 05.01.2021
4043 Clear 20 1018 15 10000 2.1 271 21:19 05.01.2021
4044 Clear 19 1018 18 10000 2.1 330 20:30 05.01.2021
4045 Clear 18 1019 21 10000 1.54 262 19:45 05.01.2021
4046 Clear 17 1020 19 10000 1.86 314 19:24 05.01.2021
4047 Clear 16 1020 21 10000 1.86 314 18:49 05.01.2021
4048 Clear 15 1019 24 10000 4.6 160 18:28 05.01.2021
4049 Clear 8 1019 31 10000 5.1 160 17:54 05.01.2021
4050 Clear 10 1019 31 10000 5.1 160 17:31 05.01.2021
4051 Clear 5 1019 38 10000 2.6 150 16:54 05.01.2021
4052 Clear 4 1019 38 10000 1.5 220 16:24 05.01.2021
4053 Clear 5 1019 38 10000 1.5 220 15:59 05.01.2021
4054 Clear 5 1019 38 10000 1.5 220 15:35 05.01.2021
4055 Clear 5 1019 35 10000 3.6 120 14:48 05.01.2021
4056 Clear 5 1019 38 10000 2.1 140 13:57 05.01.2021
4057 Clear 5 1019 38 10000 2.1 140 13:36 05.01.2021
4058 Clear 7 1018 35 10000 3.1 140 13:18 05.01.2021
4059 Clear 6 1018 35 10000 3.1 140 12:46 05.01.2021
4060 Clear 7 1019 38 10000 3.1 150 12:18 05.01.2021
4061 Clear 6 1019 38 10000 3.1 150 11:29 05.01.2021
4062 -273 0 0 0 0 0 11:29 05.01.2021
4063 Clear 7 1019 35 10000 3.6 150 11:28 05.01.2021
4064 Clear 6 1019 35 10000 3.6 150 10:44 05.01.2021
4065 Clear 7 1019 35 10000 3.1 150 10:18 05.01.2021
4066 Clear 7 1019 35 10000 3.1 150 09:41 05.01.2021
4067 Clear 8 1019 35 10000 1.5 150 08:45 05.01.2021
4068 Clear 8 1019 36 10000 3.1 150 08:19 05.01.2021
4069 Clear 10 1019 31 10000 3.6 160 05:32 05.01.2021
4070 Clear 14 1018 21 10000 2.1 20 02:58 05.01.2021
4071 Clear 20 1018 15 10000 3.6 50 00:23 05.01.2021
4072 Clear 21 1018 15 10000 3.6 50 23:41 04.01.2021
4073 Clear 21 1019 15 10000 1.5 10 23:21 04.01.2021
4074 Clear 21 1019 15 10000 1.5 10 22:45 04.01.2021
4075 Clear 21 1019 14 10000 0.41 44 22:19 04.01.2021
4076 Clear 20 1019 17 10000 2.1 120 21:40 04.01.2021
4077 Clear 20 1019 17 10000 2.1 120 21:40 04.01.2021
4078 Clear 19 1020 21 10000 0.89 0 20:59 04.01.2021
4079 Clear 18 1021 18 10000 0.21 93 20:37 04.01.2021
4080 Clear 18 1022 18 10000 2.6 130 20:18 04.01.2021
4081 Clear 16 1022 21 10000 1.5 150 19:41 04.01.2021
4082 Clear 15 1022 26 10000 0.45 207 19:19 04.01.2021
4083 Clear 14 1023 24 10000 4.1 140 18:43 04.01.2021
4084 Clear 10 1022 29 10000 4.6 150 17:49 04.01.2021
4085 Clear 8 1022 29 10000 4.6 150 17:28 04.01.2021
4086 Clear 4 1022 33 10000 5.1 150 16:58 04.01.2021
4087 Clear 4 1022 33 10000 5.1 150 16:39 04.01.2021
4088 Clear 4 1022 38 10000 4.6 150 16:21 04.01.2021
4089 Clear 3 1022 38 10000 4.6 150 15:47 04.01.2021
4090 Clear 3 1021 38 10000 3.1 150 14:55 04.01.2021
4091 Clear 4 1021 33 10000 4.1 140 13:57 04.01.2021
4092 Clear 4 1021 33 10000 4.1 140 13:57 04.01.2021
4093 Clear 4 1021 33 10000 4.1 140 13:35 04.01.2021
4094 Clear 3 1021 38 10000 4.1 160 12:53 04.01.2021
4095 Clear 3 1021 38 10000 4.1 160 12:27 04.01.2021
4096 Clear 4 1021 35 10000 4.6 130 11:40 04.01.2021
4097 Clear 4 1021 35 10000 3.1 130 11:18 04.01.2021
4098 Clear 4 1021 35 10000 3.1 130 10:44 04.01.2021
4099 Clear 4 1021 35 10000 3.1 130 10:22 04.01.2021
4100 Clear 5 1021 35 10000 2.6 130 09:26 04.01.2021
4101 Clear 6 1021 35 10000 4.1 140 08:57 04.01.2021
4102 Clear 7 1021 33 10000 3.1 180 08:22 04.01.2021
4103 Clear 7 1021 33 10000 3.1 180 07:46 04.01.2021
4104 Clear 9 1021 25 10000 1.5 360 05:36 04.01.2021
4105 Clear 10 1021 25 10000 0.83 317 04:56 04.01.2021
4106 Clouds 13 1021 23 10000 0.45 0 02:24 04.01.2021
4107 Clear 17 1020 15 10000 3.1 330 00:20 04.01.2021
4108 Clear 18 1020 15 10000 3.1 330 23:37 03.01.2021
4109 Clear 18 1020 17 10000 2.24 297 22:57 03.01.2021
4110 Clear 17 1020 17 10000 2.24 297 22:39 03.01.2021
4111 Clear 17 1020 17 10000 1.62 302 22:21 03.01.2021
4112 Clear 17 1020 17 10000 1.62 302 21:40 03.01.2021
4113 Clear 16 1021 18 10000 0.32 192 20:56 03.01.2021
4114 Clear 16 1021 18 10000 0.32 192 20:38 03.01.2021
4115 Clear 15 1020 21 10000 0.89 307 20:18 03.01.2021
4116 Clear 14 1022 20 10000 2.1 120 19:44 03.01.2021
4117 Clear 13 1022 20 10000 2.1 120 19:22 03.01.2021
4118 Clear 11 1023 25 10000 1.38 166 18:43 03.01.2021
4119 Clear 10 1024 28 10000 2.6 180 18:21 03.01.2021
4120 Clear 8 1023 30 10000 2.1 140 17:51 03.01.2021
4121 Clear 6 1023 40 10000 1.14 109 17:26 03.01.2021
4122 Clear 1 1023 40 10000 1.14 109 16:45 03.01.2021
4123 Clear 1 1022 37 10000 3.6 150 16:20 03.01.2021
4124 Clear 1 1022 37 10000 3.6 150 15:48 03.01.2021
4125 Clear 1 1022 37 10000 3.6 150 15:29 03.01.2021
4126 Clear 1 1021 40 10000 2.1 170 14:57 03.01.2021
4127 Clear 1 1021 40 10000 2.1 170 14:30 03.01.2021
4128 Clear 3 1021 40 10000 5.1 140 13:45 03.01.2021
4129 Clear 2 1021 40 10000 5.1 140 13:23 03.01.2021
4130 Clear 2 1022 37 10000 1.5 170 12:36 03.01.2021
4131 Clear 3 1022 40 10000 4.1 160 11:42 03.01.2021
4132 Clear 2 1022 40 10000 4.1 160 11:24 03.01.2021
4133 Clear 3 1022 37 10000 4.1 130 10:36 03.01.2021
4134 Clear 3 1022 37 10000 4.1 130 10:36 03.01.2021
4135 Clear 4 1022 37 10000 4.1 130 10:36 03.01.2021
4136 Clear 4 1022 37 10000 2.1 130 10:18 03.01.2021
4137 Clear 5 1022 37 10000 2.1 130 09:40 03.01.2021
4138 Clear 5 1022 37 10000 2.1 130 09:21 03.01.2021
4139 Clear 6 1023 32 10000 3.6 160 07:38 03.01.2021
4140 Clear 8 1022 28 10000 2.1 270 05:58 03.01.2021
4141 Clear 12 1022 20 10000 4.6 40 02:27 03.01.2021
4142 Clouds 14 1022 18 10000 4.1 40 01:45 03.01.2021
4143 Clouds 16 1021 17 10000 2.6 320 00:18 03.01.2021
4144 Clouds 16 1021 17 10000 2.6 320 23:27 02.01.2021
4145 Clear 16 1022 18 10000 2.6 320 22:52 02.01.2021
4146 Clear 16 1022 18 10000 2.6 320 22:32 02.01.2021
4147 Clear 16 1023 16 10000 2.27 297 21:50 02.01.2021
4148 Clear 16 1023 19 10000 2.27 297 21:31 02.01.2021
4149 Clear 15 1025 20 10000 1.57 278 20:50 02.01.2021
4150 Clear 15 1025 20 10000 1.22 182 20:28 02.01.2021
4151 Clouds 14 1025 24 10000 0.89 0 19:52 02.01.2021
4152 Clear 13 1026 23 10000 2.1 150 19:20 02.01.2021
4153 Clear 12 1026 27 10000 5.1 150 18:53 02.01.2021
4154 Clear 11 1026 27 10000 5.1 150 18:33 02.01.2021
4155 Clouds 9 1025 34 10000 0.89 107 17:57 02.01.2021
4156 Clear 6 1026 35 10000 4.6 140 17:38 02.01.2021
4157 Clear 1 1025 43 10000 3.6 150 16:49 02.01.2021
4158 Clear 1 1025 43 10000 3.6 150 16:23 02.01.2021
4159 Clear 1 1024 47 10000 4.1 130 15:51 02.01.2021
4160 Clear 1 1024 47 10000 4.1 130 15:28 02.01.2021
4161 Clear 1 1024 47 10000 0.93 122 14:53 02.01.2021
4162 Clear 1 1024 47 10000 0.93 122 14:33 02.01.2021
4163 Clear 3 1023 43 10000 4.6 150 13:44 02.01.2021
4164 Clear 3 1023 40 10000 4.6 150 12:59 02.01.2021
4165 Clear 3 1023 40 10000 4.6 150 12:40 02.01.2021
4166 Clear 2 1023 43 10000 3.6 140 12:19 02.01.2021
4167 Clear 2 1023 43 10000 3.6 140 11:38 02.01.2021
4168 Clear 3 1023 40 10000 3.1 160 11:20 02.01.2021
4169 Clear 3 1023 40 10000 3.1 160 10:41 02.01.2021
4170 Clear 3 1023 40 10000 3.1 160 10:23 02.01.2021
4171 Clear 3 1023 40 10000 3.6 140 09:43 02.01.2021
4172 Clear 4 1023 38 10000 3.1 140 09:20 02.01.2021
4173 Clear 4 1023 38 10000 3.1 140 08:48 02.01.2021
4174 Clear 4 1022 38 10000 4.1 150 08:19 02.01.2021
4175 Clear 6 1022 38 10000 4.1 150 07:25 02.01.2021
4176 Clear 7 1022 33 10000 3.6 180 06:57 02.01.2021
4177 Clear 7 1022 33 10000 3.6 180 06:57 02.01.2021
4178 Clear 7 1022 28 10000 2.1 210 05:57 02.01.2021
4179 Clear 11 1020 23 10000 3.1 310 02:52 02.01.2021
4180 Clear 15 1018 19 10000 3.6 310 00:43 02.01.2021
4181 Clear 15 1018 18 10000 4.1 330 00:23 02.01.2021
4182 Clear 16 1018 18 10000 4.1 330 23:37 01.01.2021
4183 Clear 16 1017 21 10000 3.6 290 23:19 01.01.2021
4184 Clear 15 1017 21 10000 3.6 290 22:44 01.01.2021
4185 Clear 15 1017 21 10000 3.6 290 22:21 01.01.2021
4186 Clear 15 1017 22 10000 2.1 300 21:42 01.01.2021
4187 Clear 15 1018 18 10000 2.1 20 21:20 01.01.2021
4188 Clear 14 1018 20 10000 1.5 120 20:50 01.01.2021
4189 Clear 14 1018 20 10000 1.5 120 20:50 01.01.2021
4190 Clear 14 1018 17 10000 1.69 289 20:19 01.01.2021
4191 Clear 13 1018 25 10000 0.89 0 19:42 01.01.2021
4192 Clouds 12 1018 25 10000 0.89 0 19:22 01.01.2021
4193 Clouds 11 1016 26 10000 1.12 267 18:47 01.01.2021
4194 Clear 10 1017 26 10000 3.1 160 18:28 01.01.2021
4195 Clouds 9 1018 29 10000 0.45 85 17:50 01.01.2021
4196 Clouds 8 1017 32 10000 0.45 0 17:24 01.01.2021
4197 Clouds 3 1016 37 10000 4.1 150 16:52 01.01.2021
4198 Clouds 3 1016 37 10000 4.1 150 16:28 01.01.2021
4199 Clouds 2 1015 37 10000 4.1 150 15:42 01.01.2021
4200 Clear 3 1014 37 10000 1.5 160 14:50 01.01.2021
4201 Clear 3 1014 37 10000 1.5 160 14:31 01.01.2021
4202 Clear 3 1013 37 10000 2.6 160 13:40 01.01.2021
4203 Clear 4 1013 37 10000 2.6 160 13:20 01.01.2021
4204 Clear 5 1013 34 10000 3.1 150 12:37 01.01.2021
4205 Clear 5 1012 35 10000 2.1 140 12:18 01.01.2021
4206 Clear 5 1012 35 10000 2.1 140 12:18 01.01.2021
4207 Clear 5 1012 35 10000 2.1 140 11:38 01.01.2021
4208 Clear 6 1012 32 10000 0.58 269 11:18 01.01.2021
4209 Clear 6 1012 32 10000 0.58 269 10:34 01.01.2021
4210 Clouds 6 1011 28 10000 1.57 304 09:45 01.01.2021
4211 Clouds 7 1011 26 10000 1.5 200 08:52 01.01.2021
4212 Clouds 7 1012 26 10000 0.46 23 08:25 01.01.2021
4213 Clouds 10 1011 20 10000 2.6 90 04:52 01.01.2021
4214 Clouds 12 1010 17 10000 3.6 340 02:25 01.01.2021
4215 Clouds 14 1010 15 10000 3.6 330 00:38 01.01.2021
4216 Clouds 14 1010 13 10000 2.1 320 00:20 01.01.2021
4217 Clouds 15 1011 15 10000 0.64 338 23:22 31.12.2020
4218 Clouds 15 1011 15 10000 0.64 338 22:56 31.12.2020
4219 Clouds 15 1011 15 10000 0.64 338 22:37 31.12.2020
4220 Clouds 15 1012 17 10000 2.1 100 22:19 31.12.2020
4221 Clouds 15 1012 17 10000 2.1 100 21:44 31.12.2020
4222 Clear 14 1015 19 10000 4.6 150 21:21 31.12.2020
4223 Clear 13 1015 19 10000 4.6 150 20:47 31.12.2020
4224 Clear 12 1017 22 10000 4.1 170 19:59 31.12.2020
4225 Clear 12 1017 22 10000 4.1 170 19:38 31.12.2020
4226 Clear 11 1017 22 10000 4.1 170 19:20 31.12.2020
4227 Clouds 10 1017 28 10000 3.1 160 18:42 31.12.2020
4228 Clouds 9 1017 28 10000 3.1 160 18:23 31.12.2020
4229 Clear 8 1016 30 10000 5.1 150 17:42 31.12.2020
4230 Clear 7 1017 33 10000 3.6 160 17:21 31.12.2020
4231 Clear 4 1016 40 10000 4.1 170 16:40 31.12.2020
4232 Clear 4 1016 40 10000 5.7 160 16:21 31.12.2020
4233 Clear 1 1016 40 10000 5.7 160 15:45 31.12.2020
4234 Clear 1 1016 40 10000 4.1 150 15:21 31.12.2020
4235 Clear 3 1016 40 10000 4.1 150 14:54 31.12.2020
4236 Clear 3 1016 40 10000 4.1 150 14:36 31.12.2020
4237 Clear 2 1017 37 10000 4.1 150 14:18 31.12.2020
4238 Clear 3 1017 37 10000 4.1 150 13:38 31.12.2020
4239 Clear 2 1018 40 10000 2.1 160 13:19 31.12.2020
4240 Clear 2 1018 40 10000 2.1 160 12:50 31.12.2020
4241 Clear 3 1018 40 10000 2.1 160 12:32 31.12.2020
4242 Clear 2 1019 40 10000 4.1 130 11:48 31.12.2020
4243 Clear 3 1019 40 10000 4.1 130 11:30 31.12.2020
4244 Clear 3 1019 43 10000 3.1 210 10:46 31.12.2020
4245 Clear 2 1019 43 10000 3.1 210 10:27 31.12.2020
4246 Clear 3 1019 40 10000 2.1 220 09:50 31.12.2020
4247 Clear 3 1019 40 10000 2.1 220 09:26 31.12.2020
4248 Clear 4 1019 40 10000 2.6 200 08:50 31.12.2020
4249 Clear 4 1019 40 10000 2.6 200 08:31 31.12.2020
4250 Clear 4 1019 44 10000 3.1 210 07:56 31.12.2020
4251 Clear 5 1019 44 10000 3.1 210 07:25 31.12.2020
4252 Clear 7 1019 33 10000 2.6 260 05:30 31.12.2020
4253 Clear 9 1018 26 10000 0.34 54 03:37 31.12.2020
4254 Clear 10 1018 23 10000 2.6 50 02:38 31.12.2020
4255 Clear 11 1017 20 10000 1.5 80 02:20 31.12.2020
4256 Clear 12 1017 20 10000 1.5 80 01:42 31.12.2020
4257 Clear 13 1017 24 10000 3.6 50 01:21 31.12.2020
4258 Clear 14 1017 24 10000 3.6 50 00:41 31.12.2020
4259 Clear 14 1017 26 10000 3.1 50 23:41 30.12.2020
4260 Clear 14 1017 26 10000 4.1 30 23:19 30.12.2020
4261 Clear 14 1017 26 10000 4.1 30 22:43 30.12.2020
4262 Clear 13 1018 26 10000 1.5 300 22:23 30.12.2020
4263 Clear 13 1019 28 10000 5.1 330 21:38 30.12.2020
4264 Clear 12 1019 28 10000 5.1 330 21:19 30.12.2020
4265 Clear 12 1020 37 10000 3.1 340 20:41 30.12.2020
4266 Clear 11 1020 37 10000 3.1 340 20:20 30.12.2020
4267 Clear 10 1021 43 10000 1.74 319 19:39 30.12.2020
4268 Clear 9 1020 47 10000 1.34 0 19:19 30.12.2020
4269 Clear 8 1020 50 10000 0.45 0 18:42 30.12.2020
4270 Clear 8 1021 56 10000 1.5 340 18:23 30.12.2020
4271 Clear 7 1021 60 10000 0.89 0 17:50 30.12.2020
4272 Clear 6 1019 65 10000 0.45 154 17:31 30.12.2020
4273 Clear 4 1019 74 10000 2.6 110 16:52 30.12.2020
4274 Clear 2 1018 61 10000 3.1 150 16:25 30.12.2020
4275 Clear 1 1018 61 10000 3.1 150 15:45 30.12.2020
4276 Clear 1 1018 62 10000 3.6 140 15:24 30.12.2020
4277 Clear 1 1018 62 10000 3.6 140 14:43 30.12.2020
4278 Clear 1 1017 74 10000 3.6 150 14:22 30.12.2020
4279 Clear 2 1017 74 10000 3.6 160 13:20 30.12.2020
4280 Clear 4 1017 69 10000 2.6 230 12:27 30.12.2020
4281 Clear 4 1017 69 10000 2.6 230 11:49 30.12.2020
4282 Clear 4 1017 69 10000 2.6 170 11:23 30.12.2020
4283 Clear 4 1017 69 10000 2.6 170 10:59 30.12.2020
4284 Clear 5 1017 69 10000 2.6 170 10:39 30.12.2020
4285 Clear 5 1017 64 10000 2.1 160 10:20 30.12.2020
4286 Clear 5 1017 64 10000 2.1 160 09:46 30.12.2020
4287 Clear 5 1017 65 10000 2.6 260 08:55 30.12.2020
4288 Clear 6 1017 56 10000 2.1 340 07:59 30.12.2020
4289 Clear 6 1017 56 10000 2.1 340 07:28 30.12.2020
4290 Clear 7 1017 56 10000 2.87 348 06:42 30.12.2020
4291 Clear 7 1017 52 10000 4.1 20 05:50 30.12.2020
4292 Clear 8 1017 52 10000 4.1 20 05:30 30.12.2020
4293 Clear 9 1016 49 10000 3.6 20 03:44 30.12.2020
4294 Clear 9 1016 49 10000 3.6 20 03:24 30.12.2020
4295 Clear 10 1016 46 10000 4.6 40 02:36 30.12.2020
4296 Clouds 10 1016 40 10000 6.2 60 01:49 30.12.2020
4297 Clouds 11 1016 40 10000 6.2 60 01:30 30.12.2020
4298 Clear 12 1015 37 10000 5.7 40 00:46 30.12.2020
4299 Clear 12 1015 37 10000 5.7 40 00:26 30.12.2020
4300 Clear 12 1015 37 10000 4.1 30 23:52 29.12.2020
4301 Clear 13 1015 37 10000 4.1 30 23:34 29.12.2020
4302 Clouds 13 1015 45 10000 6.7 50 22:50 29.12.2020
4303 Clouds 12 1015 45 10000 6.7 50 22:31 29.12.2020
4304 Clouds 12 1015 46 10000 2.6 300 21:56 29.12.2020
4305 Clouds 12 1015 46 10000 2.6 300 21:37 29.12.2020
4306 Clouds 12 1016 43 10000 3.1 320 21:19 29.12.2020
4307 Clouds 12 1016 43 10000 3.1 320 20:42 29.12.2020
4308 Clouds 12 1017 57 10000 1.5 360 20:22 29.12.2020
4309 Clear 12 1018 54 10000 2.33 273 19:45 29.12.2020
4310 Clear 12 1018 54 10000 2.17 236 19:21 29.12.2020
4311 Clear 12 1018 54 10000 2.17 236 19:21 29.12.2020
4312 Clear 11 1018 57 10000 1.5 0 18:50 29.12.2020
4313 Clear 11 1018 57 10000 1.5 0 18:28 29.12.2020
4314 Clouds 10 1017 70 10000 1.5 220 17:47 29.12.2020
4315 Clouds 9 1015 75 10000 1.5 170 17:23 29.12.2020
4316 Clouds 8 1015 75 10000 1.5 170 16:54 29.12.2020
4317 Clouds 8 1015 75 10000 2.6 220 16:26 29.12.2020
4318 Clouds 7 1015 75 10000 2.6 220 15:42 29.12.2020
4319 Clouds 7 1014 70 10000 2.6 300 15:23 29.12.2020
4320 Clouds 7 1014 70 10000 2.6 300 14:45 29.12.2020
4321 Clouds 7 1014 70 10000 2.6 300 14:27 29.12.2020
4322 Clouds 8 1014 70 10000 4.6 340 13:54 29.12.2020
4323 Clouds 8 1014 70 10000 4.6 340 13:23 29.12.2020
4324 Clouds 8 1014 66 10000 6.2 320 12:44 29.12.2020
4325 Clouds 8 1014 66 10000 6.2 320 12:25 29.12.2020
4326 Clouds 9 1014 61 10000 4.1 320 11:57 29.12.2020
4327 Clouds 9 1014 61 10000 4.1 320 11:31 29.12.2020
4328 Clouds 10 1014 62 10000 2.6 330 10:38 29.12.2020
4329 Drizzle 11 1014 57 10000 2.1 310 09:50 29.12.2020
4330 Clouds 11 1014 57 10000 2.1 340 09:29 29.12.2020
4331 Clouds 11 1014 57 10000 2.75 268 08:56 29.12.2020
4332 Clouds 11 1014 57 10000 2.75 268 08:36 29.12.2020
4333 Clouds 11 1014 57 10000 3.03 247 07:30 29.12.2020
4334 Clouds 11 1014 54 10000 1.33 225 06:48 29.12.2020
4335 Clouds 12 1014 58 10000 2.1 20 05:32 29.12.2020
4336 Clear 22 1009 21 10000 10.3 220 00:56 29.12.2020
4337 Clear 21 1009 21 10000 10.3 220 00:23 29.12.2020
4338 Clear 22 1009 21 10000 8.7 230 23:36 28.12.2020
4339 Clear 22 1009 21 10000 10.8 210 22:30 28.12.2020
4340 Clouds 22 1011 21 10000 9.8 230 21:47 28.12.2020
4341 Clouds 21 1011 21 10000 9.8 230 21:28 28.12.2020
4342 Clouds 21 1012 26 10000 7.7 220 20:44 28.12.2020
4343 Clouds 21 1011 26 10000 2.24 0 20:25 28.12.2020
4344 Clear 21 1013 26 10000 5.7 200 19:50 28.12.2020
4345 Clear 21 1013 26 10000 5.7 200 19:26 28.12.2020
4346 Clear 21 1013 24 10000 3.6 240 18:59 28.12.2020
4347 Clear 20 1013 24 10000 3.6 240 18:32 28.12.2020
4348 Clouds 19 1013 24 10000 3.6 180 17:51 28.12.2020
4349 Clouds 18 1013 24 10000 3.6 180 17:33 28.12.2020
4350 Clouds 17 1012 30 10000 4.1 140 16:59 28.12.2020
4351 Clouds 17 1012 30 10000 4.1 140 16:31 28.12.2020
4352 Clouds 15 1011 30 10000 5.1 140 15:54 28.12.2020
4353 Clouds 15 1011 30 10000 5.1 140 15:33 28.12.2020
4354 Clouds 15 1011 30 10000 3.6 120 14:31 28.12.2020
4355 Clouds 15 1011 30 10000 3.6 120 13:47 28.12.2020
4356 Clouds 15 1012 33 10000 5.7 160 13:20 28.12.2020
4357 Clouds 15 1012 33 10000 5.7 160 12:27 28.12.2020
4358 Clouds 15 1013 33 10000 4.1 120 11:55 28.12.2020
4359 Clouds 15 1013 33 10000 4.1 120 11:36 28.12.2020
4360 Clouds 14 1013 37 10000 3.6 110 11:18 28.12.2020
4361 Clouds 14 1013 37 10000 3.6 110 10:29 28.12.2020
4362 Clouds 14 1014 35 10000 2.6 100 09:57 28.12.2020
4363 Clouds 14 1014 35 10000 2.6 100 09:37 28.12.2020
4364 Clouds 14 1014 37 10000 4.1 110 09:18 28.12.2020
4365 Clouds 14 1014 35 10000 4.6 150 06:53 28.12.2020
4366 Clouds 14 1014 33 10000 5.1 160 05:18 28.12.2020
4367 Clear 16 1014 29 10000 1.69 159 03:34 28.12.2020
4368 Clouds 19 1013 21 10000 2.1 320 01:54 28.12.2020
4369 Clouds 22 1013 19 10000 0.9 10 23:52 27.12.2020
4370 Clouds 22 1013 19 10000 0.26 8 23:27 27.12.2020
4371 Clouds 22 1013 20 10000 1.5 90 22:36 27.12.2020
4372 Clear 22 1015 18 10000 1.5 60 21:49 27.12.2020
4373 Clear 22 1017 21 10000 3.6 60 21:21 27.12.2020
4374 Clear 21 1016 24 10000 2.1 50 20:25 27.12.2020
4375 Clear 19 1018 25 10000 2.1 150 19:24 27.12.2020
4376 Clouds 17 1018 32 10000 0.45 86 18:50 27.12.2020
4377 Clear 15 1018 33 10000 3.1 150 18:21 27.12.2020
4378 Clouds 10 1018 39 10000 4.1 140 17:57 27.12.2020
4379 Clouds 10 1018 39 10000 4.1 140 17:35 27.12.2020
4380 Clouds 7 1017 45 10000 4.6 150 16:57 27.12.2020
4381 Clouds 7 1017 45 10000 4.6 150 16:23 27.12.2020
4382 Clouds 6 1017 56 10000 3.6 220 15:34 27.12.2020
4383 Clear 6 1017 48 10000 2.1 220 14:53 27.12.2020
4384 Clear 6 1017 48 10000 2.1 220 14:35 27.12.2020
4385 Clear 7 1017 52 10000 2.1 200 13:36 27.12.2020
4386 Clear 8 1017 45 10000 3.6 200 12:56 27.12.2020
4387 Clear 8 1017 45 10000 3.6 200 12:25 27.12.2020
4388 Clear 8 1017 45 10000 4.1 210 11:42 27.12.2020
4389 Clear 8 1017 45 10000 3.6 210 11:20 27.12.2020
4390 Clear 8 1017 45 10000 3.6 210 11:20 27.12.2020
4391 Clear 8 1017 45 10000 3.6 210 10:40 27.12.2020
4392 Clear 8 1017 42 10000 2.6 220 10:19 27.12.2020
4393 Clear 8 1017 42 10000 2.6 220 09:36 27.12.2020
4394 Clear 8 1018 39 10000 3.1 220 08:28 27.12.2020
4395 Clear 10 1018 39 10000 3.6 220 07:28 27.12.2020
4396 Clear 11 1018 37 10000 0.87 146 05:59 27.12.2020
4397 Clear 11 1018 37 10000 0.87 146 05:38 27.12.2020
4398 Clear 14 1018 26 10000 1.28 332 03:25 27.12.2020
4399 Clear 16 1017 23 10000 1.5 50 02:25 27.12.2020
4400 Clear 20 1017 21 10000 4.6 40 00:56 27.12.2020
4401 Clear 21 1018 21 10000 3.6 50 23:44 26.12.2020
4402 Clear 21 1018 22 10000 2.6 260 23:24 26.12.2020
4403 Clear 21 1018 22 10000 2.6 260 22:46 26.12.2020
4404 Clear 21 1019 19 10000 3.1 290 22:19 26.12.2020
4405 Clear 20 1018 25 10000 1.34 0 21:53 26.12.2020
4406 Clear 20 1018 25 10000 1.34 0 21:53 26.12.2020
4407 Clear 20 1019 25 10000 2.1 200 21:26 26.12.2020
4408 Clear 19 1019 25 10000 0.89 155 20:45 26.12.2020
4409 Clear 18 1020 26 10000 1.34 139 20:24 26.12.2020
4410 Clear 16 1021 26 10000 2.1 130 19:32 26.12.2020
4411 Clear 15 1022 32 10000 0.99 160 18:59 26.12.2020
4412 Clear 14 1022 32 10000 0.99 160 18:34 26.12.2020
4413 Clear 10 1021 37 10000 3.1 140 17:47 26.12.2020
4414 Clear 10 1021 37 10000 3.1 140 17:28 26.12.2020
4415 Clear 6 1021 45 10000 3.1 160 16:40 26.12.2020
4416 Clear 5 1021 38 10000 2.6 150 16:19 26.12.2020
4417 Clear 5 1020 39 10000 5.1 140 15:23 26.12.2020
4418 Clear 6 1020 39 10000 5.1 140 14:41 26.12.2020
4419 Clear 5 1020 41 10000 4.1 140 14:20 26.12.2020
4420 Clear 5 1020 41 10000 4.1 140 13:39 26.12.2020
4421 Clear 6 1021 42 10000 4.1 150 13:20 26.12.2020
4422 Clear 6 1021 42 10000 4.1 150 12:41 26.12.2020
4423 Clear 6 1021 42 10000 2.6 140 12:19 26.12.2020
4424 Clear 6 1021 42 10000 2.6 140 11:42 26.12.2020
4425 Clear 7 1021 42 10000 1.5 220 11:20 26.12.2020
4426 Clear 7 1021 42 10000 1.5 220 10:49 26.12.2020
4427 Clear 7 1021 42 10000 1.5 220 10:27 26.12.2020
4428 Clear 7 1020 39 10000 4.1 140 09:49 26.12.2020
4429 Clear 8 1021 39 10000 3.1 130 08:56 26.12.2020
4430 Clear 8 1022 39 10000 3.1 130 08:20 26.12.2020
4431 Clear 8 1022 39 10000 3.1 130 07:21 26.12.2020
4432 Clear 11 1021 30 10000 1.28 75 05:52 26.12.2020
4433 Clear 14 1019 28 10000 2.1 320 02:48 26.12.2020
4434 Clear 19 1019 24 10000 3.1 330 00:40 26.12.2020
4435 Clear 19 1019 20 10000 1.96 355 23:58 25.12.2020
4436 Clear 19 1019 20 10000 1.96 355 23:38 25.12.2020
4437 Clouds 19 1019 26 10000 0.89 292 23:20 25.12.2020
4438 Clear 19 1019 17 10000 1.5 30 22:28 25.12.2020
4439 Clouds 18 1020 16 10000 5.1 130 21:46 25.12.2020
4440 Clear 18 1020 16 10000 4.1 90 21:28 25.12.2020
4441 Clouds 17 1021 18 10000 5.7 140 20:47 25.12.2020
4442 Clouds 15 1021 18 10000 5.7 140 20:27 25.12.2020
4443 Clouds 14 1021 13 10000 7.7 130 19:43 25.12.2020
4444 Clouds 13 1022 16 10000 6.2 140 18:55 25.12.2020
4445 Clouds 13 1022 16 10000 6.2 140 18:35 25.12.2020
4446 Clouds 10 1022 17 10000 7.7 130 17:35 25.12.2020
4447 Clouds 10 1022 15 10000 8.2 130 16:56 25.12.2020
4448 Clouds 10 1020 14 10000 3.1 210 16:25 25.12.2020
4449 Clouds 9 1020 14 10000 3.1 210 15:50 25.12.2020
4450 Drizzle 9 1021 16 10000 3.6 90 15:32 25.12.2020
4451 Clouds 9 1021 10 10000 4.1 150 14:38 25.12.2020
4452 Clouds 8 1021 11 10000 2.6 160 14:19 25.12.2020
4453 Clouds 8 1021 18 10000 0.89 164 13:43 25.12.2020
4454 Clouds 8 1023 10 10000 6.7 100 13:24 25.12.2020
4455 Clouds 8 1023 10 10000 6.7 100 12:28 25.12.2020
4456 Clear 6 1022 12 10000 3.6 160 11:50 25.12.2020
4457 Clear 7 1022 12 10000 3.6 160 11:25 25.12.2020
4458 Clear 7 1022 12 10000 6.7 110 10:49 25.12.2020
4459 Clear 7 1022 12 10000 6.7 110 10:22 25.12.2020
4460 Clouds 8 1022 11 10000 8.7 110 09:27 25.12.2020
4461 Clouds 8 1022 11 10000 8.7 110 09:27 25.12.2020
4462 Clear 8 1023 11 10000 6.2 120 08:45 25.12.2020
4463 Clear 9 1023 11 10000 7.7 120 07:45 25.12.2020
4464 Clouds 9 1023 10 10000 6.7 110 06:44 25.12.2020
4465 Clouds 12 1023 7 10000 4.21 90 02:36 25.12.2020
4466 Clouds 15 1023 6 10000 6.2 140 00:38 25.12.2020
4467 Clouds 15 1023 6 10000 5.1 180 23:40 24.12.2020
4468 Clouds 15 1023 5 10000 6.2 130 23:21 24.12.2020
4469 Clouds 15 1024 6 10000 4.6 130 22:26 24.12.2020
4470 Clouds 15 1024 6 10000 4.6 130 21:54 24.12.2020
4471 Clouds 14 1024 6 10000 4.6 130 21:27 24.12.2020
4472 Clouds 13 1026 6 10000 8.2 140 20:18 24.12.2020
4473 Clear 10 1027 9 10000 6.2 130 18:22 24.12.2020
4474 Clear 9 1027 9 10000 6.2 130 17:45 24.12.2020
4475 Clear 8 1028 9 10000 9.3 120 17:26 24.12.2020
4476 Clear 5 1027 14 10000 5.7 150 16:26 24.12.2020
4477 Clear 6 1027 15 10000 3.6 140 15:49 24.12.2020
4478 Clear 6 1027 15 10000 3.6 140 15:26 24.12.2020
4479 Clear 5 1027 14 10000 4.6 140 14:57 24.12.2020
4480 Clear 5 1027 14 10000 4.6 140 14:38 24.12.2020
4481 Clear 5 1027 14 10000 4.6 140 14:38 24.12.2020
4482 Clear 5 1027 18 10000 4.1 130 14:20 24.12.2020
4483 Clear 5 1027 18 10000 4.1 130 13:39 24.12.2020
4484 Clear 4 1027 27 10000 2.1 170 13:19 24.12.2020
4485 Clear 3 1027 27 10000 2.1 170 12:40 24.12.2020
4486 Clear 3 1028 39 10000 3.1 200 12:19 24.12.2020
4487 Clear 4 1028 19 10000 1.5 170 11:39 24.12.2020
4488 Clear 4 1028 25 10000 1.5 210 11:20 24.12.2020
4489 Clear 4 1028 25 10000 1.5 210 10:46 24.12.2020
4490 Clear 4 1028 25 10000 1.5 210 10:28 24.12.2020
4491 Clear 5 1027 21 10000 2.1 270 09:51 24.12.2020
4492 Clear 5 1027 21 10000 2.1 270 09:23 24.12.2020
4493 Clear 7 1026 19 10000 4.6 150 07:57 24.12.2020
4494 Clear 7 1026 19 10000 4.6 150 07:37 24.12.2020
4495 Clear 8 1025 26 10000 7.2 90 06:34 24.12.2020
4496 Clear 10 1024 15 10000 2.1 20 04:24 24.12.2020
4497 Clear 15 1022 18 10000 7.2 290 01:53 24.12.2020
4498 Clear 15 1022 18 10000 7.2 290 01:53 24.12.2020
4499 Clear 15 1022 18 10000 7.2 290 01:28 24.12.2020
4500 Clear 16 1021 17 10000 7.7 320 00:44 24.12.2020
4501 Clear 17 1021 15 10000 8.2 310 00:19 24.12.2020
4502 Clear 17 1021 15 10000 8.2 310 23:40 23.12.2020
4503 Clear 18 1020 15 10000 7.2 320 23:21 23.12.2020
4504 Clear 18 1020 15 10000 7.2 320 22:48 23.12.2020
4505 Clear 18 1020 14 10000 6.7 290 22:27 23.12.2020
4506 Clear 19 1020 14 10000 6.7 290 21:48 23.12.2020
4507 Clear 19 1020 14 10000 6.7 290 21:23 23.12.2020
4508 Clear 18 1021 13 10000 4.1 310 20:46 23.12.2020
4509 Clear 18 1022 12 10000 2.6 300 20:28 23.12.2020
4510 Clear 17 1022 18 10000 1.5 350 19:58 23.12.2020
4511 Clear 17 1022 18 10000 1.5 350 19:37 23.12.2020
4512 Clear 16 1022 18 10000 1.5 350 19:19 23.12.2020
4513 Clear 14 1021 23 10000 1.5 170 18:40 23.12.2020
4514 Clear 13 1020 29 10000 2.6 150 17:58 23.12.2020
4515 Clear 11 1020 29 10000 2.6 150 17:36 23.12.2020
4516 Clear 10 1020 35 10000 4.1 150 17:18 23.12.2020
4517 Clear 4 1020 35 10000 4.1 150 16:40 23.12.2020
4518 Clear 4 1020 38 10000 2.1 130 16:22 23.12.2020
4519 Clear 4 1020 38 10000 2.1 130 15:46 23.12.2020
4520 Clear 4 1019 32 10000 2.1 150 15:26 23.12.2020
4521 Clear 4 1019 32 10000 2.1 150 14:58 23.12.2020
4522 Clear 4 1019 32 10000 2.1 150 14:37 23.12.2020
4523 Clear 5 1018 30 10000 3.6 150 14:18 23.12.2020
4524 Clear 6 1018 30 10000 3.6 150 13:43 23.12.2020
4525 Clear 4 1019 35 10000 4.6 140 13:19 23.12.2020
4526 Clear 4 1019 35 10000 4.6 140 12:46 23.12.2020
4527 Clear 4 1019 35 10000 4.6 140 12:21 23.12.2020
4528 Clear 5 1019 33 10000 4.6 150 11:46 23.12.2020
4529 Clear 8 1018 30 10000 4.6 160 10:59 23.12.2020
4530 Clear 7 1018 30 10000 4.6 160 10:41 23.12.2020
4531 Clear 5 1018 28 10000 3.6 150 10:22 23.12.2020
4532 Clear 6 1018 28 10000 3.6 150 09:28 23.12.2020
4533 Clear 8 1018 28 10000 3.1 210 08:44 23.12.2020
4534 Clear 9 1018 24 10000 3.1 190 08:19 23.12.2020
4535 Clear 11 1018 24 10000 3.1 190 07:27 23.12.2020
4536 Clear 12 1017 21 10000 3.1 220 06:39 23.12.2020
4537 Clear 13 1017 17 10000 2.6 270 05:26 23.12.2020
4538 Clear 13 1017 16 10000 3.1 280 04:53 23.12.2020
4539 Clear 22 1016 10 10000 3.1 80 00:34 23.12.2020
4540 Clouds 22 1016 10 10000 2.6 300 23:48 22.12.2020
4541 Clouds 23 1016 10 10000 2.6 300 23:28 22.12.2020
4542 Clouds 22 1016 10 10000 2.6 80 22:44 22.12.2020
4543 Clouds 22 1016 10 10000 2.6 80 22:25 22.12.2020
4544 Clouds 22 1017 12 10000 3.04 270 21:57 22.12.2020
4545 Clouds 22 1017 12 10000 3.04 270 21:38 22.12.2020
4546 Clouds 22 1017 12 10000 3.04 270 21:38 22.12.2020
4547 Clouds 21 1018 11 10000 1.87 247 21:18 22.12.2020
4548 Clouds 21 1018 11 10000 1.87 247 20:43 22.12.2020
4549 Clouds 20 1019 12 10000 2.1 270 20:20 22.12.2020
4550 Clouds 19 1019 12 10000 2.1 270 19:42 22.12.2020
4551 Clear 18 1020 12 10000 2.1 150 19:21 22.12.2020
4552 Clouds 17 1020 14 10000 2.6 220 18:48 22.12.2020
4553 Clouds 16 1020 14 10000 2.6 220 18:28 22.12.2020
4554 Clear 10 1019 18 10000 3.6 190 17:51 22.12.2020
4555 Clear 10 1019 18 10000 3.6 190 17:25 22.12.2020
4556 Clear 6 1019 22 10000 4.1 190 16:55 22.12.2020
4557 Clear 6 1019 22 10000 4.1 190 16:36 22.12.2020
4558 Clear 7 1018 24 10000 5.1 200 16:18 22.12.2020
4559 Clear 6 1018 24 10000 5.1 200 15:42 22.12.2020
4560 Clear 6 1018 24 10000 5.1 200 15:20 22.12.2020
4561 Clear 7 1018 20 10000 4.6 190 14:43 22.12.2020
4562 Clear 8 1018 22 10000 3.1 200 14:25 22.12.2020
4563 Clear 8 1018 22 10000 3.1 200 13:47 22.12.2020
4564 Clear 8 1018 18 10000 5.1 190 13:19 22.12.2020
4565 Clear 8 1018 18 10000 5.1 190 12:56 22.12.2020
4566 Clear 9 1018 18 10000 5.1 190 12:38 22.12.2020
4567 Clear 9 1018 16 10000 4.1 200 12:19 22.12.2020
4568 Clear 9 1018 16 10000 4.1 200 11:41 22.12.2020
4569 Clear 9 1018 18 10000 1.78 140 11:22 22.12.2020
4570 Clear 10 1018 18 10000 1.78 140 10:55 22.12.2020
4571 Clear 10 1018 18 10000 1.91 135 10:27 22.12.2020
4572 Clear 10 1018 17 10000 1.5 210 09:58 22.12.2020
4573 Clear 11 1018 17 10000 1.5 210 09:30 22.12.2020
4574 Clear 11 1018 16 10000 5.7 190 08:57 22.12.2020
4575 Clear 10 1018 16 10000 5.7 190 08:38 22.12.2020
4576 Clear 11 1018 19 10000 3.6 190 07:57 22.12.2020
4577 Clear 11 1018 19 10000 3.6 190 07:26 22.12.2020
4578 Clear 13 1018 18 10000 3.6 190 05:54 22.12.2020
4579 Clear 14 1018 18 10000 3.6 190 05:25 22.12.2020
4580 Clear 18 1015 17 10000 0.89 0 01:48 22.12.2020
4581 Clear 24 1015 5 10000 4.1 210 00:21 22.12.2020
4582 Clear 25 1015 5 10000 4.1 210 23:41 21.12.2020
4583 Clear 25 1016 4 10000 3.6 150 23:19 21.12.2020
4584 Clear 25 1016 5 10000 4.6 150 22:36 21.12.2020
4585 Clear 25 1015 5 10000 5.7 190 22:18 21.12.2020
4586 Clear 24 1016 5 10000 5.7 200 21:45 21.12.2020
4587 Clear 24 1016 5 10000 5.7 200 21:26 21.12.2020
4588 Clear 23 1017 7 10000 8.2 190 20:43 21.12.2020
4589 Clear 22 1018 6 10000 6.7 130 20:20 21.12.2020
4590 Clear 21 1018 10 10000 5.1 190 19:46 21.12.2020
4591 Clear 19 1019 12 10000 5.1 200 19:20 21.12.2020
4592 Clear 18 1019 12 10000 5.1 200 18:55 21.12.2020
4593 Clear 18 1019 12 10000 5.1 200 18:37 21.12.2020
4594 Clear 15 1018 16 10000 6.2 180 18:18 21.12.2020
4595 Clear 11 1018 16 10000 6.2 180 17:42 21.12.2020
4596 Clear 12 1018 16 10000 6.2 180 17:22 21.12.2020
4597 Clear 8 1018 21 10000 3.6 180 16:39 21.12.2020
4598 Clear 5 1018 28 10000 3.6 190 16:19 21.12.2020
4599 Clear 5 1018 28 10000 3.6 190 15:41 21.12.2020
4600 Clear 6 1018 24 10000 2.6 200 14:58 21.12.2020
4601 Clear 5 1018 23 10000 3.1 190 14:22 21.12.2020
4602 Clear 7 1018 23 10000 3.1 190 13:52 21.12.2020
4603 Clear 8 1018 23 10000 3.1 190 13:33 21.12.2020
4604 Clear 6 1018 24 10000 1.5 190 12:57 21.12.2020
4605 Clear 6 1018 24 10000 1.5 190 12:57 21.12.2020
4606 Clear 6 1018 24 10000 1.5 190 12:37 21.12.2020
4607 Clear 6 1018 20 10000 3.1 180 12:18 21.12.2020
4608 Clear 7 1018 20 10000 3.1 180 11:42 21.12.2020
4609 Clear 6 1019 22 10000 4.6 180 11:22 21.12.2020
4610 Clear 7 1019 22 10000 4.6 180 10:55 21.12.2020
4611 Clear 8 1019 22 10000 4.6 180 10:37 21.12.2020
4612 Clear 7 1019 28 10000 4.1 200 09:55 21.12.2020
4613 Clear 7 1019 28 10000 4.1 200 09:37 21.12.2020
4614 Clear 7 1020 28 10000 4.1 220 09:18 21.12.2020
4615 Clear 8 1020 33 10000 2.6 170 08:18 21.12.2020
4616 Clear 9 1020 33 10000 2.1 220 06:48 21.12.2020
4617 Clear 11 1020 29 10000 1.5 250 04:59 21.12.2020
4618 Clear 12 1019 24 10000 1.6 82 03:46 21.12.2020
4619 Clear 20 1019 11 10000 3.6 40 00:35 21.12.2020
4620 Clear 21 1019 12 10000 3.1 40 23:39 20.12.2020
4621 Clear 22 1020 9 10000 3.1 360 23:20 20.12.2020
4622 Clear 21 1020 12 10000 3.6 60 22:43 20.12.2020
4623 Clear 21 1021 10 10000 4.1 350 22:22 20.12.2020
4624 Clear 20 1022 15 10000 3.1 20 21:41 20.12.2020
4625 Clear 20 1022 15 10000 3.1 20 21:22 20.12.2020
4626 Clear 19 1021 16 10000 1.79 342 20:54 20.12.2020
4627 Clear 18 1023 20 10000 2.6 350 20:26 20.12.2020
4628 Clear 17 1024 22 10000 2.32 89 19:58 20.12.2020
4629 Clear 15 1024 22 10000 2.32 89 19:38 20.12.2020
4630 Clear 15 1024 27 10000 2.46 106 19:20 20.12.2020
4631 Clear 11 1024 29 10000 2.46 106 18:42 20.12.2020
4632 Clear 11 1024 29 10000 2.73 105 18:42 20.12.2020
4633 Clear 12 1025 34 10000 2.1 200 18:23 20.12.2020
4634 Clear 6 1024 38 10000 3.2 112 17:46 20.12.2020
4635 Clear 8 1024 38 10000 2.94 99 17:28 20.12.2020
4636 Clear 8 1024 38 10000 2.94 99 17:28 20.12.2020
4637 Clear 2 1024 47 10000 1.5 210 16:47 20.12.2020
4638 Clear 4 1024 47 10000 1.5 210 16:28 20.12.2020
4639 Clear 2 1023 50 10000 3.6 210 15:50 20.12.2020
4640 Clear 2 1023 50 10000 3.6 210 15:26 20.12.2020
4641 Clear 1 1023 50 10000 1.5 230 14:56 20.12.2020
4642 Clear 3 1023 50 10000 1.5 230 14:34 20.12.2020
4643 Clear 3 1023 50 10000 2.1 260 13:48 20.12.2020
4644 Clear 3 1023 50 10000 2.1 260 13:29 20.12.2020
4645 Clear 3 1024 47 10000 2.1 170 12:59 20.12.2020
4646 Clear 4 1024 47 10000 2.1 170 12:39 20.12.2020
4647 Clear 4 1024 47 10000 2.1 170 12:21 20.12.2020
4648 Clear 4 1024 41 10000 3.1 210 11:44 20.12.2020
4649 Clear 4 1024 47 10000 0.75 51 11:25 20.12.2020
4650 Clear 3 1024 47 10000 0.75 51 10:48 20.12.2020
4651 Clear 5 1024 44 10000 0.81 12 10:20 20.12.2020
4652 Clear 5 1024 44 10000 0.81 12 09:46 20.12.2020
4653 Clear 5 1024 44 10000 1.02 39 09:27 20.12.2020
4654 Clear 4 1024 48 10000 2.1 190 08:59 20.12.2020
4655 Clear 4 1024 48 10000 2.1 190 08:39 20.12.2020
4656 Clear 6 1025 44 10000 2.6 210 07:27 20.12.2020
4657 Clear 9 1024 36 10000 2.1 320 05:52 20.12.2020
4658 Clear 13 1024 24 10000 2.1 320 02:23 20.12.2020
4659 Clear 17 1023 16 10000 3.6 50 00:39 20.12.2020
4660 Clear 18 1023 14 10000 2.1 340 23:22 19.12.2020
4661 Clear 18 1024 18 10000 2.1 310 22:57 19.12.2020
4662 Clear 18 1024 18 10000 2.1 310 22:39 19.12.2020
4663 Clear 18 1024 18 10000 2.1 310 22:19 19.12.2020
4664 Clear 17 1025 20 10000 2.6 0 21:43 19.12.2020
4665 Clear 17 1025 20 10000 2.6 0 21:25 19.12.2020
4666 Clear 16 1026 21 10000 2.6 0 20:46 19.12.2020
4667 Clear 15 1026 21 10000 2.6 0 20:22 19.12.2020
4668 Clear 14 1026 26 10000 0.71 21 19:55 19.12.2020
4669 Clear 14 1026 26 10000 0.71 21 19:36 19.12.2020
4670 Clear 13 1026 28 10000 1.35 113 19:18 19.12.2020
4671 Clear 11 1026 36 10000 1.48 102 18:31 19.12.2020
4672 Clear 7 1026 41 10000 4.1 210 17:50 19.12.2020
4673 Clear 6 1026 48 10000 4.6 200 17:29 19.12.2020
4674 Clear 3 1026 48 10000 4.6 200 16:56 19.12.2020
4675 Clear 3 1026 48 10000 4.6 200 16:37 19.12.2020
4676 Clear 3 1026 48 10000 4.6 200 16:37 19.12.2020
4677 Clear 2 1025 51 10000 3.6 210 16:19 19.12.2020
4678 Clear 2 1025 51 10000 3.6 210 15:47 19.12.2020
4679 Clear 2 1024 48 10000 4.1 210 14:52 19.12.2020
4680 Clear 2 1024 48 10000 4.1 210 14:26 19.12.2020
4681 Clear 2 1025 51 10000 3.1 210 13:42 19.12.2020
4682 Clear 2 1025 55 10000 2.6 210 13:21 19.12.2020
4683 Clear 2 1025 55 10000 2.6 210 12:55 19.12.2020
4684 Clear 2 1025 55 10000 2.6 210 12:37 19.12.2020
4685 Clear 3 1025 51 10000 3.1 220 12:19 19.12.2020
4686 Clear 3 1025 51 10000 3.1 220 11:42 19.12.2020
4687 Clear 3 1024 55 10000 3.1 210 10:48 19.12.2020
4688 Clear 3 1024 55 10000 3.1 210 10:29 19.12.2020
4689 Clear 4 1024 51 10000 2.6 210 10:00 19.12.2020
4690 Clear 4 1024 51 10000 2.6 210 09:41 19.12.2020
4691 Clear 5 1024 51 10000 3.1 210 08:58 19.12.2020
4692 Clear 6 1024 48 10000 2.1 210 08:18 19.12.2020
4693 Clear 6 1023 45 10000 2.6 210 07:19 19.12.2020
4694 Clear 7 1023 45 10000 2.6 210 06:44 19.12.2020
4695 Clear 9 1022 32 10000 0.58 26 05:23 19.12.2020
4696 Clear 11 1021 30 10000 5.1 310 03:48 19.12.2020
4697 Clear 15 1019 19 10000 6.7 60 00:41 19.12.2020
4698 Clear 16 1018 17 10000 7.2 50 00:21 19.12.2020
4699 Clear 16 1018 17 10000 7.2 50 23:49 18.12.2020
4700 Clear 17 1018 17 10000 7.2 50 23:29 18.12.2020
4701 Clear 17 1018 16 10000 3.6 30 22:57 18.12.2020
4702 Clear 17 1018 16 10000 3.6 30 22:39 18.12.2020
4703 Clear 17 1018 15 10000 2.1 30 22:19 18.12.2020
4704 Clear 17 1018 15 10000 2.1 30 21:43 18.12.2020
4705 Clear 17 1019 13 10000 2.57 263 21:22 18.12.2020
4706 Clear 16 1020 15 10000 1.5 330 20:25 18.12.2020
4707 Clear 16 1019 19 10000 0.89 316 19:51 18.12.2020
4708 Clear 15 1020 17 10000 1.81 277 19:25 18.12.2020
4709 Clear 14 1019 23 10000 0.45 0 18:47 18.12.2020
4710 Clear 13 1019 23 10000 0.75 203 18:28 18.12.2020
4711 Clear 12 1019 29 10000 0.45 215 17:52 18.12.2020
4712 Clear 11 1019 39 10000 2.1 180 17:21 18.12.2020
4713 Clear 6 1017 48 10000 3.1 160 16:48 18.12.2020
4714 Clear 5 1017 48 10000 2.1 180 16:22 18.12.2020
4715 Clear 4 1017 48 10000 2.1 180 15:54 18.12.2020
4716 Clear 3 1017 44 10000 0.84 307 15:34 18.12.2020
4717 Clear 5 1017 44 10000 2.1 150 14:58 18.12.2020
4718 Clear 6 1017 44 10000 2.1 150 14:39 18.12.2020
4719 Clear 6 1015 41 10000 3.6 150 14:19 18.12.2020
4720 Clear 7 1015 41 10000 3.6 150 13:42 18.12.2020
4721 Clear 7 1015 41 10000 3.6 150 13:23 18.12.2020
4722 Clear 8 1015 33 10000 0.54 279 12:44 18.12.2020
4723 Clear 10 1015 25 10000 3.1 290 11:31 18.12.2020
4724 Clear 10 1015 21 10000 1.07 220 10:59 18.12.2020
4725 Clear 10 1015 21 10000 1.07 220 10:37 18.12.2020
4726 Clear 11 1014 15 10000 1.2 204 10:19 18.12.2020
4727 Clear 12 1014 15 10000 1.2 204 09:38 18.12.2020
4728 Clear 12 1015 15 10000 2.6 270 09:20 18.12.2020
4729 Clear 12 1015 15 10000 2.6 270 08:52 18.12.2020
4730 Clear 13 1014 15 10000 2.6 270 08:22 18.12.2020
4731 Clouds 13 1014 16 10000 3.6 270 07:20 18.12.2020
4732 Clouds 13 1014 16 10000 3.6 270 06:59 18.12.2020
4733 Clouds 14 1013 21 10000 2.1 240 05:45 18.12.2020
4734 Clouds 14 1013 21 10000 2.1 240 05:27 18.12.2020
4735 Clouds 14 1013 28 10000 1.5 200 04:43 18.12.2020
4736 Clear 17 1013 15 10000 2.6 70 01:47 18.12.2020
4737 Clear 17 1013 15 10000 2.6 70 01:47 18.12.2020
4738 Clear 17 1013 15 10000 2.6 70 01:47 18.12.2020
4739 Clear 17 1013 15 10000 2.6 70 01:47 18.12.2020
4740 Clouds 19 1013 18 10000 1.48 275 00:55 18.12.2020
4741 Clear 21 1013 10 10000 3.21 276 23:55 17.12.2020
4742 Clear 22 1013 10 10000 3.46 268 23:25 17.12.2020
4743 Clear 22 1013 10 10000 3.46 268 23:25 17.12.2020
4744 Clear 22 1014 10 10000 1.5 360 22:49 17.12.2020
4745 Clear 22 1014 10 10000 1.5 360 22:28 17.12.2020
4746 Clear 22 1015 10 10000 2.1 200 21:47 17.12.2020
4747 Clear 22 1015 10 10000 2.1 200 21:25 17.12.2020
4748 Clear 21 1016 12 10000 2.6 240 20:56 17.12.2020
4749 Clear 21 1016 12 10000 2.6 240 20:37 17.12.2020
4750 Clear 20 1017 13 10000 3.6 210 20:18 17.12.2020
4751 Clear 19 1017 13 10000 3.6 210 19:44 17.12.2020
4752 Clear 18 1018 16 10000 5.1 130 19:23 17.12.2020
4753 Clear 16 1018 17 10000 4.1 120 18:41 17.12.2020
4754 Clear 15 1018 17 10000 4.1 120 18:23 17.12.2020
4755 Clouds 13 1017 22 10000 0.45 117 17:53 17.12.2020
4756 Clear 12 1017 26 10000 3.6 240 17:32 17.12.2020
4757 Clear 12 1017 26 10000 3.6 240 17:32 17.12.2020
4758 Clear 7 1017 28 10000 5.7 210 16:44 17.12.2020
4759 Clear 7 1017 38 10000 2.6 230 16:24 17.12.2020
4760 Clear 5 1017 38 10000 2.6 230 15:52 17.12.2020
4761 Clear 5 1017 38 10000 2.6 230 15:31 17.12.2020
4762 Clear 5 1017 32 10000 4.1 170 14:55 17.12.2020
4763 Clear 5 1017 32 10000 4.1 170 14:31 17.12.2020
4764 Clear 6 1017 26 10000 5.1 200 13:52 17.12.2020
4765 Clear 6 1017 26 10000 5.1 200 13:33 17.12.2020
4766 Clear 5 1018 38 10000 3.1 220 12:47 17.12.2020
4767 Clear 6 1018 35 10000 3.6 150 12:25 17.12.2020
4768 Clear 6 1018 35 10000 3.6 150 11:45 17.12.2020
4769 Clear 6 1018 35 10000 3.6 150 11:25 17.12.2020
4770 Clear 5 1018 38 10000 1.5 150 10:55 17.12.2020
4771 Clear 5 1019 41 10000 3.1 140 10:18 17.12.2020
4772 Clear 5 1019 41 10000 3.1 140 09:26 17.12.2020
4773 Clear 6 1020 44 10000 2.6 140 07:54 17.12.2020
4774 Clear 6 1020 44 10000 2.6 140 07:54 17.12.2020
4775 Clear 6 1020 44 10000 2.6 140 07:34 17.12.2020
4776 Clear 7 1020 45 10000 0.47 36 06:54 17.12.2020
4777 Clear 8 1020 45 10000 0.53 80 06:32 17.12.2020
4778 Clear 8 1019 39 10000 0.85 71 05:33 17.12.2020
4779 Clear 16 1018 11 10000 3.6 320 00:38 17.12.2020
4780 Clear 17 1018 13 10000 1.5 360 23:52 16.12.2020
4781 Clear 17 1019 15 10000 2.1 360 23:20 16.12.2020
4782 Clear 17 1019 15 10000 2.1 360 22:55 16.12.2020
4783 Clear 17 1019 15 10000 2.1 360 22:34 16.12.2020
4784 Clear 16 1020 17 10000 2.6 50 21:52 16.12.2020
4785 Clear 16 1020 17 10000 2.6 50 21:34 16.12.2020
4786 Clear 15 1021 26 10000 1.72 351 20:55 16.12.2020
4787 Clear 14 1021 26 10000 1.72 351 20:37 16.12.2020
4788 Clear 14 1021 26 10000 1.72 351 20:37 16.12.2020
4789 Clear 14 1021 26 10000 1.12 50 20:18 16.12.2020
4790 Clear 11 1023 29 10000 1.94 99 19:20 16.12.2020
4791 Clear 10 1022 34 10000 1.34 333 18:54 16.12.2020
4792 Clear 9 1022 36 10000 2.12 84 18:27 16.12.2020
4793 Clear 6 1022 38 10000 2.12 84 17:47 16.12.2020
4794 Clear 7 1022 38 10000 2.14 89 17:28 16.12.2020
4795 Clear 2 1022 51 10000 2.6 230 16:39 16.12.2020
4796 Clear 2 1021 55 10000 2.27 104 16:21 16.12.2020
4797 Clear 2 1021 55 10000 2.27 104 15:50 16.12.2020
4798 Clear 2 1021 51 10000 1.5 330 15:26 16.12.2020
4799 Clear 2 1021 51 10000 1.5 330 14:47 16.12.2020
4800 Clear 2 1021 51 10000 1.5 330 14:28 16.12.2020
4801 Clear 2 1021 49 10000 2.1 160 13:46 16.12.2020
4802 Clear 2 1021 49 10000 2.1 160 13:27 16.12.2020
4803 Clear 2 1021 55 10000 1.5 180 12:55 16.12.2020
4804 Clear 2 1021 55 10000 1.5 180 12:34 16.12.2020
4805 Clear 2 1022 59 10000 2.1 150 11:39 16.12.2020
4806 Clear 2 1022 55 10000 3.1 120 11:20 16.12.2020
4807 Clear 2 1022 55 10000 3.1 120 10:43 16.12.2020
4808 Clear 3 1022 59 10000 3.6 160 10:19 16.12.2020
4809 Clear 2 1022 59 10000 3.6 160 09:40 16.12.2020
4810 Clear 3 1022 59 10000 4.1 140 08:27 16.12.2020
4811 Clear 4 1022 55 10000 3.1 160 07:49 16.12.2020
4812 Clear 4 1022 55 10000 3.1 160 07:30 16.12.2020
4813 Clear 5 1022 48 10000 2.6 160 06:41 16.12.2020
4814 Clear 10 1020 29 10000 3.1 20 02:26 16.12.2020
4815 Clear 14 1019 22 10000 5.1 290 00:23 16.12.2020
4816 Clear 14 1018 22 10000 3.1 320 23:44 15.12.2020
4817 Clear 14 1019 26 10000 1.5 300 22:46 15.12.2020
4818 Clear 14 1019 26 10000 1.5 300 22:24 15.12.2020
4819 Clear 14 1020 28 10000 1.56 247 21:51 15.12.2020
4820 Clear 13 1020 28 10000 1.05 231 21:25 15.12.2020
4821 Clear 13 1020 31 10000 0.89 0 20:58 15.12.2020
4822 Clear 12 1020 32 10000 0.89 0 20:39 15.12.2020
4823 Clear 12 1022 34 10000 2.1 230 20:21 15.12.2020
4824 Clear 11 1022 36 10000 0.89 0 19:41 15.12.2020
4825 Clear 11 1022 37 10000 0.45 0 19:23 15.12.2020
4826 Clear 10 1022 40 10000 0.89 0 18:39 15.12.2020
4827 Clear 9 1022 42 10000 0.77 49 18:20 15.12.2020
4828 Clear 8 1022 47 10000 0.45 217 17:43 15.12.2020
4829 Clear 7 1020 52 10000 0.89 189 17:22 15.12.2020
4830 Clear 0 1020 64 10000 2.6 210 16:38 15.12.2020
4831 Clear 2 1019 69 10000 2.6 220 16:19 15.12.2020
4832 Clear 0 1019 69 10000 2.6 220 15:37 15.12.2020
4833 Clear 2 1018 69 10000 2.6 220 14:59 15.12.2020
4834 Clear 2 1018 69 10000 2.6 220 14:41 15.12.2020
4835 Clear 2 1018 64 10000 2.6 210 14:19 15.12.2020
4836 Clear 2 1018 64 10000 2.6 210 13:47 15.12.2020
4837 Clear 3 1018 64 10000 2.6 210 13:22 15.12.2020
4838 Clear 3 1017 64 10000 2.1 210 12:44 15.12.2020
4839 Clear 3 1017 64 10000 3.1 230 12:19 15.12.2020
4840 Clear 4 1017 64 10000 3.1 230 11:49 15.12.2020
4841 Clear 4 1017 59 10000 2.6 270 11:21 15.12.2020
4842 Clear 4 1017 59 10000 2.6 270 10:45 15.12.2020
4843 Clear 4 1017 51 10000 3.1 280 10:19 15.12.2020
4844 Clear 5 1017 51 10000 3.1 280 09:41 15.12.2020
4845 Clear 5 1017 44 10000 3.1 270 09:22 15.12.2020
4846 Clear 5 1017 44 10000 3.1 270 08:39 15.12.2020
4847 Clear 6 1017 44 10000 2.6 250 08:20 15.12.2020
4848 Clear 6 1017 44 10000 2.6 250 07:41 15.12.2020
4849 Clear 6 1016 41 10000 2.6 270 06:51 15.12.2020
4850 Clear 8 1016 33 10000 2.1 10 05:34 15.12.2020
4851 Clouds 14 1014 26 10000 4.47 0 00:39 15.12.2020
4852 Clouds 15 1013 26 10000 4.02 0 23:48 14.12.2020
4853 Clear 16 1012 23 10000 8.2 290 23:19 14.12.2020
4854 Clouds 17 1012 25 10000 3.58 306 22:40 14.12.2020
4855 Clear 18 1013 12 10000 2.1 330 21:56 14.12.2020
4856 Clear 18 1013 12 10000 2.1 330 21:36 14.12.2020
4857 Clear 18 1014 12 10000 1.5 260 21:18 14.12.2020
4858 Clouds 17 1015 15 10000 1.5 240 20:43 14.12.2020
4859 Clear 17 1015 15 10000 2.8 175 20:24 14.12.2020
4860 Clouds 15 1016 17 10000 3.6 130 19:39 14.12.2020
4861 Clear 15 1017 20 10000 4.1 130 19:21 14.12.2020
4862 Clouds 13 1017 20 10000 4.6 140 18:42 14.12.2020
4863 Clear 12 1017 23 10000 4.6 130 18:22 14.12.2020
4864 Clouds 10 1017 24 10000 4.1 140 17:38 14.12.2020
4865 Clouds 8 1017 28 10000 5.1 160 17:19 14.12.2020
4866 Clouds 7 1017 28 10000 5.1 160 16:40 14.12.2020
4867 Clouds 7 1016 28 10000 5.1 220 16:22 14.12.2020
4868 Clouds 7 1017 26 10000 5.1 140 15:33 14.12.2020
4869 Clouds 7 1017 26 10000 5.1 140 15:33 14.12.2020
4870 Clouds 7 1017 26 10000 5.1 130 14:50 14.12.2020
4871 Clouds 7 1017 26 10000 5.1 130 14:29 14.12.2020
4872 Clouds 7 1017 28 10000 5.7 150 13:56 14.12.2020
4873 Clouds 6 1017 28 10000 5.7 150 13:34 14.12.2020
4874 Clear 6 1018 26 10000 7.2 150 12:56 14.12.2020
4875 Clear 6 1018 26 10000 7.2 150 12:32 14.12.2020
4876 Clear 7 1018 24 10000 5.1 130 11:56 14.12.2020
4877 Clear 7 1018 24 10000 6.7 120 11:23 14.12.2020
4878 Clear 8 1018 24 10000 6.7 120 10:28 14.12.2020
4879 Clear 8 1019 23 10000 7.2 120 09:53 14.12.2020
4880 Clear 8 1020 23 10000 4.6 120 08:57 14.12.2020
4881 Clear 8 1020 23 10000 4.6 120 08:39 14.12.2020
4882 Clear 8 1021 24 10000 4.6 110 07:59 14.12.2020
4883 Clear 9 1022 23 10000 4.6 130 07:19 14.12.2020
4884 Clear 9 1022 23 10000 4.6 130 06:42 14.12.2020
4885 Clear 11 1021 21 10000 4.1 100 03:57 14.12.2020
4886 Clear 11 1021 21 10000 4.1 100 03:57 14.12.2020
4887 Clear 15 1021 10 10000 3.1 130 00:58 14.12.2020
4888 Clear 15 1021 10 10000 3.1 130 00:39 14.12.2020
4889 Clear 15 1021 11 10000 5.7 150 00:20 14.12.2020
4890 Clear 16 1021 11 10000 5.7 150 23:44 13.12.2020
4891 Clear 16 1022 9 10000 8.2 210 22:57 13.12.2020
4892 Clear 15 1022 9 10000 8.2 210 22:39 13.12.2020
4893 Clear 15 1023 16 10000 2.6 160 22:18 13.12.2020
4894 Clear 15 1023 16 10000 2.6 160 21:41 13.12.2020
4895 Clear 14 1025 27 10000 4.1 80 20:55 13.12.2020
4896 Clear 13 1024 21 10000 2.6 170 20:25 13.12.2020
4897 Clear 12 1026 25 10000 2.6 80 19:47 13.12.2020
4898 Clear 11 1025 39 10000 4.1 130 19:24 13.12.2020
4899 Clear 10 1027 28 10000 2.1 110 18:54 13.12.2020
4900 Clear 9 1027 28 10000 2.1 110 18:36 13.12.2020
4901 Clear 9 1027 28 10000 2.1 110 18:18 13.12.2020
4902 Clear 7 1025 45 10000 3.1 190 17:44 13.12.2020
4903 Clear 7 1026 38 10000 2.83 90 17:18 13.12.2020
4904 Clear 5 1025 51 10000 2.83 90 16:44 13.12.2020
4905 Clear 4 1024 59 10000 2.6 220 16:21 13.12.2020
4906 Clear 4 1023 64 10000 3.1 260 15:45 13.12.2020
4907 Clear 4 1023 64 10000 3.1 260 15:26 13.12.2020
4908 Clear 4 1022 59 10000 2.6 260 14:46 13.12.2020
4909 Clear 5 1022 59 10000 2.6 260 14:28 13.12.2020
4910 Clear 5 1021 52 10000 3.1 20 13:48 13.12.2020
4911 Clear 5 1021 52 10000 3.1 20 13:30 13.12.2020
4912 Clear 5 1020 52 10000 3.6 360 12:55 13.12.2020
4913 Clear 5 1020 52 10000 3.6 360 12:24 13.12.2020
4914 Clear 5 1020 52 10000 3.6 360 12:24 13.12.2020
4915 Clear 6 1021 51 10000 1.79 9 11:53 13.12.2020
4916 Clear 7 1019 46 10000 4.6 360 11:28 13.12.2020
4917 Clear 8 1019 65 10000 2.1 300 10:42 13.12.2020
4918 Clear 8 1019 61 10000 3.1 240 10:18 13.12.2020
4919 Clouds 9 1018 57 10000 4.1 20 09:37 13.12.2020
4920 Clouds 10 1018 50 10000 3.6 10 08:47 13.12.2020
4921 Clouds 10 1018 50 10000 3.6 10 08:23 13.12.2020
4922 Clouds 13 1016 43 10000 4.1 20 05:50 13.12.2020
4923 Clear 15 1013 29 10000 3.1 10 02:43 13.12.2020
4924 Clear 16 1013 29 10000 2.24 0 01:59 13.12.2020
4925 Clear 16 1010 27 10000 1.79 109 01:33 13.12.2020
4926 Clear 18 1012 19 10000 5.1 20 00:33 13.12.2020
4927 Clear 19 1012 17 10000 5.1 20 23:33 12.12.2020
4928 Clear 19 1012 25 10000 1.5 70 22:58 12.12.2020
4929 Clear 19 1012 25 10000 1.5 70 22:28 12.12.2020
4930 Clear 18 1013 27 10000 3.1 70 21:46 12.12.2020
4931 Clear 18 1014 29 10000 3.6 190 21:19 12.12.2020
4932 Clear 18 1014 29 10000 3.6 190 20:43 12.12.2020
4933 Clear 17 1014 29 10000 3.6 190 20:19 12.12.2020
4934 Clear 17 1016 36 10000 5.1 170 19:51 12.12.2020
4935 Clear 16 1016 36 10000 5.1 170 19:33 12.12.2020
4936 Clear 16 1016 36 10000 5.1 170 19:33 12.12.2020
4937 Clear 15 1016 39 10000 1.34 187 18:52 12.12.2020
4938 Clear 14 1016 43 10000 3.1 160 18:33 12.12.2020
4939 Clear 13 1017 61 10000 4.1 130 17:59 12.12.2020
4940 Clear 12 1017 61 10000 4.1 130 17:40 12.12.2020
4941 Clouds 7 1016 65 10000 5.1 140 16:28 12.12.2020
4942 Clear 5 1016 75 10000 4.6 150 15:53 12.12.2020
4943 Clear 5 1016 75 10000 4.6 150 15:35 12.12.2020
4944 Clear 6 1016 80 10000 2.1 120 14:53 12.12.2020
4945 Clear 6 1016 81 10000 2.06 146 13:58 12.12.2020
4946 Clear 7 1016 81 10000 2.06 146 13:38 12.12.2020
4947 Clear 7 1016 75 10000 4.1 150 13:19 12.12.2020
4948 Clear 8 1016 75 10000 4.1 150 12:31 12.12.2020
4949 Clear 7 1017 75 10000 4.1 200 10:56 12.12.2020
4950 Clouds 8 1017 70 10000 3.6 220 09:50 12.12.2020
4951 Clouds 9 1017 70 10000 3.6 200 08:57 12.12.2020
4952 Clear 12 1018 62 10000 1.56 78 03:39 12.12.2020
4953 Clear 17 1017 39 10000 4.1 40 00:48 12.12.2020
4954 Clear 17 1017 42 10000 1.5 260 22:50 11.12.2020
4955 Clear 16 1020 51 10000 2.1 0 20:52 11.12.2020
4956 Clear 14 1021 71 10000 2.1 130 18:56 11.12.2020
4957 Clear 8 1019 87 10000 3.6 150 16:45 11.12.2020
4958 Clear 7 1018 93 10000 2.6 170 14:19 11.12.2020
4959 Clear 7 1018 93 10000 2.6 170 13:25 11.12.2020
4960 Clear 7 1018 93 10000 2.6 160 12:20 11.12.2020
4961 Clear 8 1018 93 10000 2.6 160 11:52 11.12.2020
4962 Clear 8 1018 93 10000 1.5 190 10:56 11.12.2020
4963 Clear 9 1018 93 10000 2.1 180 09:42 11.12.2020
4964 Clouds 11 1017 87 10000 1.83 260 06:25 11.12.2020
4965 Clouds 11 1017 87 10000 1.46 260 05:20 11.12.2020
4966 Clouds 12 1016 71 10000 1.5 50 02:38 11.12.2020
4967 Clouds 13 1015 71 10000 4.1 20 00:34 11.12.2020
4968 Clouds 13 1015 82 10000 3.6 30 22:56 10.12.2020
4969 Clouds 13 1016 82 10000 2.6 300 21:37 10.12.2020
4970 Rain 14 1016 77 10000 2.1 30 20:47 10.12.2020
4971 Clouds 13 1016 87 10000 2.6 320 19:46 10.12.2020
4972 Rain 13 1016 87 10000 2.1 360 19:21 10.12.2020
4973 Rain 12 1016 87 10000 3.1 350 18:44 10.12.2020
4974 Clouds 12 1015 76 10000 3.1 230 16:49 10.12.2020
4975 Clouds 12 1014 81 10000 5.1 240 15:50 10.12.2020
4976 Clouds 11 1014 87 10000 3.1 260 14:58 10.12.2020
4977 Clouds 11 1014 87 10000 3.1 260 14:37 10.12.2020
4978 Clouds 12 1013 81 10000 4.6 150 13:23 10.12.2020
4979 Rain 12 1015 93 10000 2.6 200 11:43 10.12.2020
4980 Drizzle 15 1015 51 10000 3.1 300 09:21 10.12.2020
4981 Clouds 16 1016 23 10000 3.1 310 07:59 10.12.2020
4982 Clouds 16 1016 25 10000 2.6 240 06:46 10.12.2020
4983 Clouds 19 1016 28 10000 0.4 216 03:55 10.12.2020
4984 Clouds 22 1016 13 10000 2.62 255 02:24 10.12.2020
4985 Clear 24 1015 17 10000 2.1 110 00:28 10.12.2020
4986 Clear 26 1017 19 10000 1.28 150 22:58 09.12.2020
4987 Clear 25 1020 16 10000 1.69 144 20:37 09.12.2020
4988 Clear 23 1022 16 10000 4.1 130 19:34 09.12.2020
4989 Clear 18 1022 18 10000 6.7 150 17:53 09.12.2020
4990 Clear 14 1022 29 10000 4.1 130 16:52 09.12.2020
4991 Clear 12 1022 29 10000 4.1 150 16:23 09.12.2020
4992 Clear 11 1022 29 10000 4.1 150 15:31 09.12.2020
4993 Clear 12 1022 27 10000 6.2 130 14:40 09.12.2020
4994 Clear 12 1022 25 10000 5.1 140 14:18 09.12.2020
4995 Clear 12 1022 24 10000 6.2 130 13:19 09.12.2020
4996 Clear 12 1022 24 10000 6.2 130 12:45 09.12.2020
4997 Clear 13 1022 22 10000 4.1 110 11:53 09.12.2020
4998 Clear 14 1023 19 10000 3.1 120 10:59 09.12.2020
4999 Clear 14 1023 17 10000 3.6 140 09:38 09.12.2020
5000 Clear 15 1023 18 10000 4.1 110 07:43 09.12.2020
5001 Clear 17 1023 20 10000 4.1 130 05:55 09.12.2020
5002 Clear 19 1022 16 10000 4.6 80 03:54 09.12.2020
5003 Clear 22 1021 14 10000 6.2 130 01:56 09.12.2020
5004 Clear 25 1020 14 10000 5.1 110 23:44 08.12.2020
5005 Clear 24 1021 13 10000 5.1 130 23:18 08.12.2020
5006 Clouds 24 1022 12 10000 4.6 80 21:30 08.12.2020
5007 Clear 22 1024 13 10000 3.1 70 19:40 08.12.2020
5008 Clear 21 1025 10 10000 8.7 130 18:59 08.12.2020
5009 Clear 19 1024 15 10000 4.1 130 17:56 08.12.2020
5010 Clear 13 1023 16 10000 6.2 150 15:54 08.12.2020
5011 Clear 13 1023 15 10000 5.1 160 14:31 08.12.2020
5012 Clear 13 1022 16 10000 5.7 150 13:35 08.12.2020
5013 Clear 13 1022 16 10000 4.6 140 12:29 08.12.2020
5014 Clear 13 1022 16 10000 4.1 150 11:51 08.12.2020
5015 Clear 13 1022 16 10000 3.6 140 10:47 08.12.2020
5016 Clear 13 1022 16 10000 3.6 140 10:28 08.12.2020
5017 Clear 14 1023 17 10000 3.6 110 08:39 08.12.2020
5018 Clear 15 1022 15 10000 3.6 100 07:18 08.12.2020
5019 Clear 18 1020 13 10000 4.6 80 03:42 08.12.2020
5020 Clear 22 1018 7 10000 8.7 130 00:47 08.12.2020
5021 Clear 22 1018 7 10000 8.7 130 00:22 08.12.2020
5022 Clear 23 1018 11 10000 7.2 110 22:40 07.12.2020
5023 Clear 23 1019 11 10000 10.8 140 21:51 07.12.2020
5024 Clear 23 1020 8 10000 10.8 120 20:31 07.12.2020
5025 Clear 20 1021 12 10000 3.1 130 18:43 07.12.2020
5026 Clear 17 1021 13 10000 7.2 150 17:28 07.12.2020
5027 Clear 15 1021 17 10000 4.1 110 16:54 07.12.2020
5028 Clear 11 1020 19 10000 5.7 130 15:30 07.12.2020
5029 Clear 11 1020 20 10000 3.6 110 14:51 07.12.2020
5030 Clear 11 1020 21 10000 3.1 110 14:18 07.12.2020
5031 Clear 11 1020 19 10000 4.6 110 13:21 07.12.2020
5032 Clear 8 1021 24 10000 6.2 130 11:44 07.12.2020
5033 Clear 8 1021 20 10000 3.6 150 11:19 07.12.2020
5034 Clear 11 1021 19 10000 4.6 140 09:42 07.12.2020
5035 Clear 10 1021 21 10000 2.27 90 08:21 07.12.2020
5036 Clear 9 1022 21 10000 3.6 150 06:29 07.12.2020
5037 Clear 12 1021 19 10000 1.5 340 04:48 07.12.2020
5038 Clear 17 1021 18 10000 0.45 0 01:55 07.12.2020
5039 Clear 22 1022 10 10000 2.6 340 23:50 06.12.2020
5040 Clear 22 1022 11 10000 1.5 360 22:25 06.12.2020
5041 Clear 21 1022 17 10000 1.34 99 20:56 06.12.2020
5042 Clear 20 1024 15 10000 1.5 10 20:34 06.12.2020
5043 Clear 19 1024 19 10000 0.45 333 19:54 06.12.2020
5044 Clear 15 1026 22 10000 2.02 116 18:33 06.12.2020
5045 Clear 4 1025 35 10000 1.5 170 16:52 06.12.2020
5046 Clear 4 1025 38 10000 1.5 180 14:58 06.12.2020
5047 Clear 5 1025 35 10000 2.6 150 13:45 06.12.2020
5048 Clear 6 1025 27 10000 3.1 150 12:51 06.12.2020
5049 Clear 6 1025 26 10000 2.6 170 11:59 06.12.2020
5050 Clear 7 1025 26 10000 2.6 170 11:34 06.12.2020
5051 Clear 7 1025 26 10000 2.6 140 10:47 06.12.2020
5052 Clear 7 1025 26 10000 3.6 160 09:57 06.12.2020
5053 Clear 7 1025 26 10000 3.1 160 08:29 06.12.2020
5054 Clear 9 1025 22 10000 2.6 140 06:47 06.12.2020
5055 Clear 15 1023 18 10000 0.89 0 01:47 06.12.2020
5056 Clear 18 1023 15 10000 1.34 0 00:41 06.12.2020
5057 Clear 19 1023 14 10000 1.79 333 00:23 06.12.2020
5058 Clear 19 1025 12 10000 2.6 340 22:46 05.12.2020
5059 Clear 19 1025 12 10000 2.6 340 22:20 05.12.2020
5060 Clear 19 1025 12 10000 2.02 39 21:48 05.12.2020
5061 Clear 19 1025 12 10000 1.79 56 21:25 05.12.2020
5062 Clear 15 1027 11 10000 1.29 96 19:21 05.12.2020
5063 Clear 14 1027 13 10000 1.5 310 18:40 05.12.2020
5064 Clear 10 1026 19 10000 1.83 103 17:29 05.12.2020
5065 Clear 4 1025 25 10000 3.1 150 16:30 05.12.2020
5066 Clear 4 1025 23 10000 3.6 140 15:47 05.12.2020
5067 Clear 4 1024 21 10000 4.1 150 14:24 05.12.2020
5068 Clear 5 1024 21 10000 4.1 130 12:20 05.12.2020
5069 Clear 6 1024 21 10000 4.1 130 11:40 05.12.2020
5070 Clear 6 1024 20 10000 3.6 130 10:31 05.12.2020
5071 Clear 6 1023 22 10000 2.6 180 07:48 05.12.2020
5072 Clear 8 1022 16 10000 2.1 220 06:28 05.12.2020
5073 Clear 11 1022 12 10000 0.53 30 03:44 05.12.2020
5074 Clear 18 1020 11 10000 1.34 60 23:52 04.12.2020
5075 Clear 17 1021 12 10000 4.1 30 22:24 04.12.2020
5076 Clear 15 1022 16 10000 2.1 330 20:24 04.12.2020
5077 Clear 12 1024 18 10000 2.16 93 18:53 04.12.2020
5078 Clear 11 1024 19 10000 2.14 94 18:18 04.12.2020
5079 Clear 8 1024 24 10000 2.16 87 17:29 04.12.2020
5080 Clear 3 1023 37 10000 1.5 230 15:39 04.12.2020
5081 Clear 4 1023 32 10000 1.5 280 13:40 04.12.2020
5082 Clear 4 1023 29 10000 2.1 210 13:21 04.12.2020
5083 Clear 4 1023 29 10000 2.1 210 12:49 04.12.2020
5084 Clear 6 1024 27 10000 2.6 80 10:40 04.12.2020
5085 Clear 6 1024 25 10000 5.1 120 09:46 04.12.2020
5086 Clear 7 1024 22 10000 2.1 70 06:43 04.12.2020
5087 Clear 7 1024 24 10000 2.99 89 05:59 04.12.2020
5088 Clear 11 1022 13 10000 6.2 80 01:56 04.12.2020
5089 Clear 14 1022 15 10000 8.7 60 22:52 03.12.2020
5090 Clear 14 1022 15 10000 8.7 60 22:27 03.12.2020
5091 Clear 13 1024 17 10000 11.8 60 20:49 03.12.2020
5092 Clear 12 1024 18 10000 12.9 60 19:29 03.12.2020
5093 Clear 11 1024 18 10000 9.8 70 18:51 03.12.2020
5094 Clear 10 1024 18 10000 10.3 90 17:41 03.12.2020
5095 Clear 9 1023 26 10000 12.9 60 17:18 03.12.2020
5096 Clear 8 1022 29 10000 7.7 60 15:52 03.12.2020
5097 Clear 7 1023 31 10000 6.2 70 15:30 03.12.2020
5098 Clear 8 1021 29 10000 6.2 60 14:35 03.12.2020
5099 Clear 8 1021 29 10000 6.2 70 13:36 03.12.2020
5100 Clear 8 1021 31 10000 8.2 70 12:26 03.12.2020
5101 Clear 9 1021 31 10000 12.9 70 11:24 03.12.2020
5102 Clear 9 1020 19 10000 10.8 70 09:33 03.12.2020
5103 Clear 11 1018 12 10000 5.7 90 05:23 03.12.2020
5104 Clear 13 1018 12 10000 4.1 310 02:45 03.12.2020
5105 Clear 17 1017 11 10000 6.2 310 00:57 03.12.2020
5106 Clear 19 1018 12 10000 3.1 300 22:47 02.12.2020
5107 Clear 19 1018 12 10000 3.1 300 22:26 02.12.2020
5108 Clear 18 1019 14 10000 3.1 330 21:18 02.12.2020
5109 Clear 17 1019 14 10000 3.1 330 20:44 02.12.2020
5110 Clear 17 1019 14 10000 3.1 330 20:26 02.12.2020
5111 Clear 14 1020 19 10000 2.37 81 18:37 02.12.2020
5112 Clear 13 1019 22 10000 0.45 338 17:45 02.12.2020
5113 Clear 11 1021 24 10000 1.5 170 17:27 02.12.2020
5114 Clear 5 1019 29 10000 2.11 78 15:21 02.12.2020
5115 Clear 5 1019 29 10000 2.6 160 12:45 02.12.2020
5116 Clear 6 1019 30 10000 3.6 150 10:29 02.12.2020
5117 Clear 6 1019 32 10000 3.6 140 09:22 02.12.2020
5118 Clear 11 1018 25 10000 0.91 25 04:39 02.12.2020
5119 Clear 20 1017 12 10000 3.6 300 22:21 01.12.2020
5120 Clear 19 1018 14 10000 1.5 360 21:41 01.12.2020
5121 Clear 17 1019 23 10000 0.45 163 19:35 01.12.2020
5122 Clear 13 1021 34 10000 0.54 205 17:58 01.12.2020
5123 Clear 8 1020 42 10000 4.1 140 16:36 01.12.2020
5124 Clear 6 1019 38 10000 4.1 160 13:39 01.12.2020
5125 Clear 7 1020 33 10000 4.1 150 12:25 01.12.2020
5126 Clear 8 1020 36 10000 4.6 160 11:27 01.12.2020
5127 Clear 8 1020 36 10000 3.6 150 10:39 01.12.2020
5128 Clear 10 1020 27 10000 3.6 130 08:21 01.12.2020
5129 Clear 10 1020 32 10000 4.1 120 06:50 01.12.2020
5130 Clear 17 1019 20 10000 0.45 0 01:53 01.12.2020
5131 Clear 20 1019 14 10000 3.1 100 00:56 01.12.2020
5132 Clear 21 1019 14 10000 5.1 110 23:21 30.11.2020
5133 Clear 21 1020 14 10000 7.2 110 22:45 30.11.2020
5134 Clear 21 1020 14 10000 7.2 110 22:25 30.11.2020
5135 Clear 20 1023 15 10000 9.8 120 20:57 30.11.2020
5136 Clear 18 1023 18 10000 11.8 130 19:42 30.11.2020
5137 Clear 15 1024 22 10000 3.6 110 18:24 30.11.2020
5138 Clear 15 1024 22 10000 3.6 110 17:48 30.11.2020
5139 Clear 13 1024 23 10000 9.8 120 16:55 30.11.2020
5140 Clear 11 1023 24 10000 3.6 120 15:59 30.11.2020
5141 Clear 11 1022 22 10000 4.1 120 14:47 30.11.2020
5142 Clear 12 1023 20 10000 4.1 100 13:53 30.11.2020
5143 Clear 12 1023 22 10000 4.1 120 12:26 30.11.2020
5144 Clear 12 1022 22 10000 4.6 120 11:58 30.11.2020
5145 Clear 13 1022 22 10000 4.1 110 10:26 30.11.2020
5146 Clear 13 1022 20 10000 4.6 110 09:50 30.11.2020
5147 Clear 13 1022 20 10000 2.1 130 07:18 30.11.2020
5148 Clear 21 1019 11 10000 5.1 360 00:41 30.11.2020
5149 Clear 22 1020 13 10000 4.1 10 21:52 29.11.2020
5150 Clear 22 1020 13 10000 4.1 10 21:31 29.11.2020
5151 Clear 19 1021 15 10000 5.1 120 19:58 29.11.2020
5152 Clear 9 1023 45 10000 2.52 111 17:47 29.11.2020
5153 Clear 7 1021 38 10000 2.33 93 16:24 29.11.2020
5154 Clear 5 1020 45 10000 1.29 76 13:23 29.11.2020
5155 Clear 6 1020 39 10000 2.1 150 11:41 29.11.2020
5156 Clear 6 1020 35 10000 2.1 170 10:34 29.11.2020
5157 Clear 7 1021 33 10000 3.6 150 08:38 29.11.2020
5158 Clear 9 1021 36 10000 1.5 210 06:32 29.11.2020
5159 Clear 19 1020 17 10000 2.1 40 23:52 28.11.2020
5160 Clear 19 1020 17 10000 2.6 30 22:56 28.11.2020
5161 Clear 17 1022 20 10000 4.1 110 20:47 28.11.2020
5162 Clear 16 1023 21 10000 6.7 130 19:48 28.11.2020
5163 Clear 15 1023 21 10000 6.7 130 19:22 28.11.2020
5164 Clear 14 1024 30 10000 3.6 120 18:44 28.11.2020
5165 Clear 11 1025 30 10000 2.97 91 17:47 28.11.2020
5166 Clear 6 1023 45 10000 2.1 130 16:44 28.11.2020
5167 Clear 4 1022 38 10000 2.13 96 14:54 28.11.2020
5168 Clear 4 1022 38 10000 4.1 160 12:35 28.11.2020
5169 Clear 5 1022 45 10000 2.1 180 10:36 28.11.2020
5170 Clear 7 1022 33 10000 2.1 210 06:42 28.11.2020
5171 Clear 9 1022 27 10000 1.44 358 03:32 28.11.2020
5172 Clear 12 1021 29 10000 0.89 0 01:50 28.11.2020
5173 Clear 15 1020 21 10000 4.19 308 22:56 27.11.2020
5174 Clear 15 1021 20 10000 2.6 0 21:33 27.11.2020
5175 Clear 14 1020 23 10000 0.89 286 20:31 27.11.2020
5176 Clear 13 1021 22 10000 2.6 200 19:25 27.11.2020
5177 Clear 12 1021 25 10000 1.5 160 18:44 27.11.2020
5178 Clouds 6 1018 48 10000 3.38 279 14:47 27.11.2020
5179 Clouds 6 1017 41 10000 3.1 190 13:26 27.11.2020
5180 Clear 6 1017 38 10000 3.1 220 12:47 27.11.2020
5181 Clear 7 1017 36 10000 2.6 200 11:47 27.11.2020
5182 Clear 7 1017 36 10000 2.6 160 10:50 27.11.2020
5183 Clear 8 1017 34 10000 2.6 130 09:57 27.11.2020
5184 Clear 10 1016 32 10000 0.45 279 07:26 27.11.2020
5185 Clear 22 1013 18 10000 0.89 279 22:28 26.11.2020
5186 Clear 22 1014 18 10000 0.89 42 21:56 26.11.2020
5187 Clear 21 1017 15 10000 1.58 277 20:59 26.11.2020
5188 Clear 18 1018 21 10000 3.6 120 18:59 26.11.2020
5189 Clear 15 1017 23 10000 0.45 192 17:52 26.11.2020
5190 Clear 7 1017 38 10000 4.6 150 14:57 26.11.2020
5191 Clear 6 1017 38 10000 3.6 140 13:42 26.11.2020
5192 Clear 6 1018 36 10000 4.6 140 12:42 26.11.2020
5193 Clear 7 1018 33 10000 3.6 160 11:44 26.11.2020
5194 Clear 8 1018 31 10000 4.1 140 10:35 26.11.2020
5195 Clear 8 1018 31 10000 2.6 160 09:48 26.11.2020
5196 Clear 9 1018 31 10000 2.6 160 09:29 26.11.2020
5197 Clear 9 1018 29 10000 3.1 160 08:39 26.11.2020
5198 Clear 11 1018 25 10000 3.1 170 06:49 26.11.2020
5199 Clear 22 1019 12 10000 3.6 330 22:59 25.11.2020
5200 Clear 21 1020 16 10000 2.6 240 20:43 25.11.2020
5201 Clear 20 1021 17 10000 1.5 110 19:46 25.11.2020
5202 Clear 16 1021 19 10000 1.91 155 18:28 25.11.2020
5203 Clear 9 1021 25 10000 4.1 150 16:43 25.11.2020
5204 Clear 6 1021 36 10000 4.6 140 15:38 25.11.2020
5205 Clear 7 1020 26 10000 5.1 150 13:56 25.11.2020
5206 Clear 7 1020 26 10000 5.1 150 13:37 25.11.2020
5207 Clear 8 1020 27 10000 4.1 140 11:44 25.11.2020
5208 Clear 8 1019 29 10000 3.1 150 11:18 25.11.2020
5209 Clear 8 1020 29 10000 3.6 140 09:18 25.11.2020
5210 Clear 9 1020 29 10000 3.6 140 08:41 25.11.2020
5211 Clear 13 1018 19 10000 2.1 340 03:59 25.11.2020
5212 Clear 16 1017 22 10000 3.38 317 01:53 25.11.2020
5213 Clear 19 1017 14 10000 4.6 270 00:23 25.11.2020
5214 Clear 19 1017 14 10000 4.6 290 23:52 24.11.2020
5215 Clear 20 1017 14 10000 4.6 290 23:33 24.11.2020
5216 Clear 19 1017 19 10000 5.1 330 21:51 24.11.2020
5217 Clear 19 1017 19 10000 4.1 260 21:29 24.11.2020
5218 Clear 19 1018 20 10000 5.7 320 20:40 24.11.2020
5219 Clear 17 1018 33 10000 4.1 270 18:40 24.11.2020
5220 Clear 15 1018 38 10000 2.6 200 17:30 24.11.2020
5221 Clear 14 1016 34 10000 1 180 16:45 24.11.2020
5222 Clear 13 1016 34 10000 1 180 16:27 24.11.2020
5223 Clear 12 1015 43 10000 2.6 250 15:54 24.11.2020
5224 Clear 11 1014 47 10000 3.68 255 15:18 24.11.2020
5225 Clear 11 1014 47 10000 3.57 252 14:33 24.11.2020
5226 Clear 12 1013 44 10000 2.1 360 12:45 24.11.2020
5227 Clear 12 1013 44 10000 2.1 360 12:22 24.11.2020
5228 Clear 13 1013 26 10000 2.6 210 11:38 24.11.2020
5229 Clear 13 1012 29 10000 3.1 210 10:39 24.11.2020
5230 Clear 13 1012 29 10000 5.1 210 10:19 24.11.2020
5231 Clear 14 1013 33 10000 3.25 217 09:35 24.11.2020
5232 Clear 16 1012 31 10000 4.1 190 07:37 24.11.2020
5233 Clear 18 1011 28 10000 3.1 250 04:19 24.11.2020
5234 Clear 26 1010 18 10000 6.2 260 22:29 23.11.2020
5235 Clear 26 1010 21 10000 3.6 270 21:36 23.11.2020
5236 Clear 26 1012 19 10000 6.7 230 20:50 23.11.2020
5237 Clear 25 1012 19 10000 6.7 230 20:26 23.11.2020
5238 Clear 24 1013 27 10000 1.5 110 19:20 23.11.2020
5239 Clear 19 1013 38 10000 2.1 180 17:25 23.11.2020
5240 Clear 14 1013 43 10000 1.5 160 16:28 23.11.2020
5241 Clear 12 1013 43 10000 4.6 140 14:48 23.11.2020
5242 Clear 13 1012 38 10000 2.1 150 13:20 23.11.2020
5243 Clear 14 1012 38 10000 2.1 150 12:37 23.11.2020
5244 Clear 14 1013 38 10000 3.6 180 11:48 23.11.2020
5245 Clear 14 1013 47 10000 2.6 160 11:21 23.11.2020
5246 Clear 15 1013 36 10000 3.6 150 09:32 23.11.2020
5247 Clear 16 1014 41 10000 3.6 150 08:49 23.11.2020
5248 Clear 17 1014 41 10000 2.1 150 07:28 23.11.2020
5249 Clear 27 1012 23 10000 4.6 310 00:38 23.11.2020
5250 Clouds 29 1012 16 10000 4.1 300 23:38 22.11.2020
5251 Clear 30 1014 18 10000 2.1 200 22:18 22.11.2020
5252 Clear 29 1015 23 10000 1.66 185 20:54 22.11.2020
5253 Clouds 27 1015 28 10000 0.45 167 19:58 22.11.2020
5254 Clear 25 1017 29 10000 2.1 190 18:54 22.11.2020
5255 Clear 20 1017 35 10000 4.1 180 17:26 22.11.2020
5256 Clear 15 1018 47 10000 3.6 170 15:53 22.11.2020
5257 Clear 14 1018 51 10000 3.1 160 14:39 22.11.2020
5258 Clear 15 1020 48 10000 3.6 150 12:50 22.11.2020
5259 Clear 14 1021 47 10000 2.6 160 12:18 22.11.2020
5260 Clear 15 1018 50 10000 1.5 170 11:21 22.11.2020
5261 Clear 15 1018 50 10000 3.1 140 10:45 22.11.2020
5262 Clear 15 1022 47 10000 3.1 150 09:32 22.11.2020
5263 Clouds 24 1017 30 10000 1.34 0 01:49 22.11.2020
5264 Clear 28 1018 23 10000 2.1 340 23:40 21.11.2020
5265 Clear 28 1018 30 10000 2.6 320 22:25 21.11.2020
5266 Clear 28 1019 24 10000 2.1 0 21:30 21.11.2020
5267 Clouds 27 1018 29 10000 0.89 279 20:35 21.11.2020
5268 Clouds 26 1019 29 10000 0.89 220 19:57 21.11.2020
5269 Clouds 26 1019 29 10000 0.89 217 19:36 21.11.2020
5270 Clear 23 1023 38 10000 3.1 180 18:28 21.11.2020
5271 Clear 21 1023 38 10000 3.1 180 17:26 21.11.2020
5272 Clear 17 1022 45 10000 2.6 160 16:39 21.11.2020
5273 Clear 14 1020 50 10000 4.1 150 15:22 21.11.2020
5274 Clear 14 1020 50 10000 4.1 140 14:43 21.11.2020
5275 Clear 14 1020 50 10000 4.1 140 14:21 21.11.2020
5276 Clear 16 1022 26 10000 3.1 160 12:29 21.11.2020
5277 Clear 16 1022 26 10000 3.1 160 11:58 21.11.2020
5278 Clear 16 1022 26 10000 3.6 150 10:41 21.11.2020
5279 Clear 17 1022 26 10000 3.1 150 09:59 21.11.2020
5280 Clear 18 1017 40 10000 3.1 160 08:51 21.11.2020
5281 Clear 20 1020 34 10000 3.6 190 06:34 21.11.2020
5282 Clear 21 1020 35 10000 1.5 350 04:39 21.11.2020
5283 Clouds 28 1018 27 10000 0.45 344 01:21 21.11.2020
5284 Clear 30 1019 22 10000 3.6 250 23:55 20.11.2020
5285 Clear 30 1019 27 10000 1.37 277 22:25 20.11.2020
5286 Clear 30 1021 20 10000 1.37 277 21:41 20.11.2020
5287 Clear 30 1021 20 10000 1.37 277 21:41 20.11.2020
5288 Clear 30 1021 20 10000 0.86 248 21:20 20.11.2020
5289 Clear 27 1022 22 10000 2.1 180 19:44 20.11.2020
5290 Clear 25 1022 44 10000 3.6 160 18:37 20.11.2020
5291 Clear 23 1022 31 10000 3.6 150 17:51 20.11.2020
5292 Clear 22 1022 31 10000 3.6 150 17:24 20.11.2020
5293 Clear 18 1023 41 10000 3.6 150 16:38 20.11.2020
5294 Clear 14 1021 26 10000 4.1 140 15:56 20.11.2020
5295 Clear 15 1021 47 10000 4.1 150 14:58 20.11.2020
5296 Clear 15 1021 26 10000 4.6 160 13:44 20.11.2020
5297 Clear 14 1021 26 10000 4.6 150 13:18 20.11.2020
5298 Clear 15 1021 26 10000 4.6 150 12:34 20.11.2020
5299 Clear 16 1021 38 10000 3.1 140 11:45 20.11.2020
5300 Clear 16 1021 36 10000 4.1 120 10:53 20.11.2020
5301 Clear 17 1020 36 10000 3.6 130 08:53 20.11.2020
5302 Clear 18 1020 36 10000 3.6 130 08:24 20.11.2020
5303 Clear 21 1020 26 10000 2.1 200 05:43 20.11.2020
5304 Clear 23 1020 22 10000 0.69 41 03:43 20.11.2020
5305 Clear 30 1019 16 10000 4.1 320 22:35 19.11.2020
5306 Clear 30 1020 19 10000 4.1 300 21:55 19.11.2020
5307 Clear 30 1020 19 10000 4.1 300 21:34 19.11.2020
5308 Clear 30 1021 20 10000 1.5 0 20:31 19.11.2020
5309 Clear 29 1021 22 10000 2.1 150 19:45 19.11.2020
5310 Clear 28 1021 22 10000 2.1 150 19:22 19.11.2020
5311 Clear 23 1021 30 10000 5.1 150 17:39 19.11.2020
5312 Clear 18 1020 34 10000 4.6 140 16:48 19.11.2020
5313 Clear 16 1020 41 10000 4.6 140 15:32 19.11.2020
5314 Clear 16 1020 41 10000 4.6 150 14:39 19.11.2020
5315 Clear 16 1019 41 10000 2.6 140 13:45 19.11.2020
5316 Clear 16 1019 38 10000 3.6 140 12:58 19.11.2020
5317 Clear 16 1019 38 10000 3.6 140 12:34 19.11.2020
5318 Clear 17 1019 36 10000 2.6 140 11:44 19.11.2020
5319 Clear 17 1019 36 10000 2.6 140 11:23 19.11.2020
5320 Clear 18 1019 34 10000 1.3 153 10:52 19.11.2020
5321 Clear 18 1020 36 10000 2.6 280 09:55 19.11.2020
5322 Clear 18 1020 36 10000 2.6 280 09:36 19.11.2020
5323 Clear 19 1019 30 10000 1.76 137 09:18 19.11.2020
5324 Clear 21 1019 30 10000 2.6 130 07:59 19.11.2020
5325 Clear 28 1017 23 10000 3.07 271 01:53 19.11.2020
5326 Clouds 30 1017 13 10000 5.7 280 00:56 19.11.2020
5327 Clear 32 1018 13 10000 3.1 330 23:47 18.11.2020
5328 Clear 32 1018 13 10000 3.1 330 23:24 18.11.2020
5329 Clear 32 1018 15 10000 6.7 290 22:30 18.11.2020
5330 Clear 32 1019 11 10000 2.27 274 21:45 18.11.2020
5331 Clear 32 1019 11 10000 1.16 269 21:27 18.11.2020
5332 Clear 31 1018 15 10000 0.89 59 20:40 18.11.2020
5333 Clear 30 1019 16 10000 0.89 144 19:45 18.11.2020
5334 Clear 30 1021 15 10000 1.46 217 19:24 18.11.2020
5335 Clear 28 1020 18 10000 0.45 139 18:48 18.11.2020
5336 Clear 25 1020 22 10000 0.45 178 17:52 18.11.2020
5337 Clear 19 1020 24 10000 3.6 130 16:58 18.11.2020
5338 Clear 20 1020 24 10000 3.6 130 16:21 18.11.2020
5339 Clear 16 1020 26 10000 4.6 140 14:43 18.11.2020
5340 Clear 16 1020 26 10000 4.6 140 14:25 18.11.2020
5341 Clear 18 1019 22 10000 5.7 150 13:29 18.11.2020
5342 Clear 18 1019 22 10000 5.7 150 12:44 18.11.2020
5343 Clear 18 1019 19 10000 5.1 140 11:57 18.11.2020
5344 Clouds 18 1019 22 10000 4.6 140 10:58 18.11.2020
5345 Clouds 18 1019 22 10000 4.6 140 10:30 18.11.2020
5346 Clear 20 1020 22 10000 4.1 130 08:43 18.11.2020
5347 Clouds 19 1020 23 10000 3.6 130 07:29 18.11.2020
5348 Clear 22 1019 17 10000 2.1 180 04:47 18.11.2020
5349 Clear 32 1018 31 10000 2.1 40 00:21 18.11.2020
5350 Clear 32 1019 16 10000 1.5 290 23:25 17.11.2020
5351 Clear 32 1018 17 10000 1.95 97 22:44 17.11.2020
5352 Clear 32 1018 17 10000 2.49 105 22:26 17.11.2020
5353 Clear 32 1020 10 10000 2.6 100 21:47 17.11.2020
5354 Clear 32 1020 8 10000 2.1 140 21:23 17.11.2020
5355 Clear 31 1021 9 10000 3.1 110 20:43 17.11.2020
5356 Clear 31 1021 9 10000 3.1 110 20:23 17.11.2020
5357 Clear 30 1021 11 10000 5.7 140 19:44 17.11.2020
5358 Clear 26 1022 12 10000 4.6 140 18:23 17.11.2020
5359 Clouds 23 1022 14 10000 3.1 140 17:28 17.11.2020
5360 Clouds 21 1021 16 10000 6.7 140 16:35 17.11.2020
5361 Clouds 19 1021 17 10000 5.7 170 15:57 17.11.2020
5362 Clouds 19 1021 17 10000 5.7 170 15:35 17.11.2020
5363 Clear 18 1020 16 10000 4.1 130 14:58 17.11.2020
5364 Clear 18 1020 16 10000 4.1 130 14:29 17.11.2020
5365 Clouds 18 1020 16 10000 9.3 140 13:45 17.11.2020
5366 Clouds 19 1020 16 10000 9.3 140 13:20 17.11.2020
5367 Clouds 19 1020 16 10000 6.7 150 12:41 17.11.2020
5368 Clear 19 1020 15 10000 4.6 130 11:44 17.11.2020
5369 Clear 18 1020 14 10000 2.6 130 10:56 17.11.2020
5370 Clear 20 1020 14 10000 2.6 130 10:36 17.11.2020
5371 Clear 20 1020 13 10000 6.2 120 09:51 17.11.2020
5372 Clear 20 1020 13 10000 6.2 120 09:30 17.11.2020
5373 Clear 20 1020 14 10000 5.1 140 08:25 17.11.2020
5374 Clear 20 1020 14 10000 5.1 160 07:50 17.11.2020
5375 Clear 20 1020 15 10000 3.6 190 06:59 17.11.2020
5376 Clear 23 1019 11 10000 3.6 120 04:20 17.11.2020
5377 Clear 25 1018 8 10000 4.6 80 02:54 17.11.2020
5378 Clear 28 1018 6 10000 4.6 80 01:31 17.11.2020
5379 Clear 31 1018 7 10000 4.1 110 00:56 17.11.2020
5380 Clear 32 1018 6 10000 3.6 130 23:50 16.11.2020
5381 Clear 32 1018 6 10000 3.6 130 23:29 16.11.2020
5382 Clear 32 1018 6 10000 4.6 140 22:48 16.11.2020
5383 Clear 31 1018 6 10000 4.6 140 22:21 16.11.2020
5384 Clear 31 1019 5 10000 5.7 120 21:47 16.11.2020
5385 Clear 31 1019 5 10000 5.7 120 21:25 16.11.2020
5386 Clear 30 1020 7 10000 4.6 130 20:50 16.11.2020
5387 Clear 30 1020 7 10000 4.6 130 20:24 16.11.2020
5388 Clear 28 1021 7 10000 2.6 110 19:38 16.11.2020
5389 Clear 27 1022 7 10000 8.2 120 19:19 16.11.2020
5390 Clear 26 1022 7 10000 6.2 150 18:39 16.11.2020
5391 Clear 23 1022 10 10000 6.2 140 17:50 16.11.2020
5392 Clear 21 1022 10 10000 5.7 120 17:21 16.11.2020
5393 Clear 18 1021 13 10000 7.2 150 16:54 16.11.2020
5394 Clear 17 1021 13 10000 7.2 150 16:28 16.11.2020
5395 Clear 12 1021 15 10000 6.2 140 15:57 16.11.2020
5396 Clear 12 1021 15 10000 6.2 140 15:37 16.11.2020
5397 Clear 11 1021 16 10000 6.2 150 15:19 16.11.2020
5398 Clear 12 1021 16 10000 6.2 150 14:28 16.11.2020
5399 Clear 13 1020 16 10000 5.1 150 13:31 16.11.2020
5400 Clear 12 1020 24 10000 4.1 160 12:33 16.11.2020
5401 Clear 12 1021 19 10000 4.6 160 11:44 16.11.2020
5402 Clear 13 1021 19 10000 4.6 160 11:25 16.11.2020
5403 Clear 14 1021 19 10000 5.1 140 10:48 16.11.2020
5404 Clear 12 1021 19 10000 5.1 140 10:26 16.11.2020
5405 Clear 13 1021 19 10000 2.77 90 09:56 16.11.2020
5406 Clear 13 1021 19 10000 2.77 90 09:37 16.11.2020
5407 Clear 13 1021 20 10000 2.34 82 08:49 16.11.2020
5408 Clear 13 1021 20 10000 2.21 84 08:26 16.11.2020
5409 Clear 14 1021 22 10000 2.6 130 07:36 16.11.2020
5410 Clear 14 1021 24 10000 3.6 140 06:47 16.11.2020
5411 Clear 15 1020 22 10000 3.6 160 05:50 16.11.2020
5412 Clear 17 1020 18 10000 3.1 200 04:33 16.11.2020
5413 Clear 22 1019 17 10000 1.79 0 01:46 16.11.2020
5414 Clear 22 1014 16 10000 3.13 151 01:46 16.11.2020
5415 Clear 25 1019 15 10000 1.34 296 00:53 16.11.2020
5416 Clear 27 1020 10 10000 4.1 350 23:33 15.11.2020
5417 Clear 27 1019 10 10000 1.5 50 22:58 15.11.2020
5418 Clear 27 1019 10 10000 1.5 50 22:27 15.11.2020
5419 Clear 26 1020 10 10000 3.1 80 22:00 15.11.2020
5420 Clear 26 1020 10 10000 3.1 80 21:36 15.11.2020
5421 Clear 26 1021 12 10000 1.5 90 21:18 15.11.2020
5422 Clear 25 1021 12 10000 1.5 90 20:40 15.11.2020
5423 Clear 24 1022 13 10000 1.5 50 19:57 15.11.2020
5424 Clear 24 1022 13 10000 1.5 50 19:57 15.11.2020
5425 Clear 23 1022 13 10000 1.5 50 19:39 15.11.2020
5426 Clear 23 1022 13 10000 1.5 50 19:39 15.11.2020
5427 Clear 22 1022 13 10000 1.5 50 19:20 15.11.2020
5428 Clear 21 1023 15 10000 3.21 96 18:45 15.11.2020
5429 Clear 19 1023 15 10000 3.08 107 18:25 15.11.2020
5430 Clear 15 1023 24 10000 3.08 107 17:58 15.11.2020
5431 Clear 13 1023 24 10000 3.08 107 17:39 15.11.2020
5432 Clear 12 1023 29 10000 2.2 99 17:20 15.11.2020
5433 Clear 9 1023 29 10000 2.2 99 16:41 15.11.2020
5434 Clear 10 1022 36 10000 3.6 160 16:19 15.11.2020
5435 Clear 6 1022 36 10000 3.6 160 15:43 15.11.2020
5436 Clear 6 1022 36 10000 3.6 160 15:24 15.11.2020
5437 Clear 6 1022 39 10000 2.6 90 14:53 15.11.2020
5438 Clear 6 1022 39 10000 2.6 90 14:26 15.11.2020
5439 Clear 9 1021 36 10000 1.57 86 13:43 15.11.2020
5440 Clear 9 1021 36 10000 1.3 85 13:21 15.11.2020
5441 Clear 9 1021 36 10000 4.1 180 12:46 15.11.2020
5442 Clear 9 1021 36 10000 4.1 180 12:46 15.11.2020
5443 Clear 9 1021 34 10000 4.1 150 12:19 15.11.2020
5444 Clear 9 1021 34 10000 4.1 150 11:44 15.11.2020
5445 Clear 9 1022 34 10000 0.72 85 11:19 15.11.2020
5446 Clear 10 1022 34 10000 0.72 85 10:51 15.11.2020
5447 Clear 10 1022 34 10000 0.72 85 10:30 15.11.2020
5448 Clear 9 1022 36 10000 3.1 130 09:52 15.11.2020
5449 Clear 8 1022 36 10000 3.1 130 09:32 15.11.2020
5450 Clear 10 1022 36 10000 0.98 86 08:55 15.11.2020
5451 Clear 9 1022 36 10000 0.98 86 08:32 15.11.2020
5452 Clear 11 1022 34 10000 3.6 130 07:44 15.11.2020
5453 Clear 12 1022 32 10000 3.1 150 06:25 15.11.2020
5454 Clear 14 1020 24 10000 3.6 320 04:53 15.11.2020
5455 Clear 19 1019 22 10000 1.34 0 01:37 15.11.2020
5456 Clear 21 1018 17 10000 4.1 320 00:30 15.11.2020
5457 Clear 22 1018 17 10000 5.1 320 23:44 14.11.2020
5458 Clear 22 1018 15 10000 4.1 320 22:54 14.11.2020
5459 Clear 22 1018 15 10000 4.1 320 22:33 14.11.2020
5460 Clear 22 1018 18 10000 3.6 330 21:56 14.11.2020
5461 Clear 22 1018 18 10000 3.6 330 21:37 14.11.2020
5462 Clear 22 1019 21 10000 2.6 300 21:19 14.11.2020
5463 Clear 22 1019 21 10000 2.6 300 20:37 14.11.2020
5464 Clear 21 1020 18 10000 2.6 0 20:19 14.11.2020
5465 Clear 21 1020 24 10000 1.5 0 19:36 14.11.2020
5466 Clear 20 1020 30 10000 0.89 314 18:57 14.11.2020
5467 Clear 19 1020 31 10000 0.45 350 18:38 14.11.2020
5468 Clear 18 1021 36 10000 1.5 30 18:20 14.11.2020
5469 Clear 17 1019 44 10000 0.5 264 17:42 14.11.2020
5470 Clear 16 1019 44 10000 1.15 178 17:23 14.11.2020
5471 Clear 13 1018 50 10000 2.1 180 16:51 14.11.2020
5472 Clear 12 1018 50 10000 2.1 180 16:26 14.11.2020
5473 Clear 7 1017 33 10000 4.6 140 15:53 14.11.2020
5474 Clear 8 1017 39 10000 4.6 140 15:30 14.11.2020
5475 Clear 8 1018 70 10000 1.5 100 14:50 14.11.2020
5476 Clear 8 1017 38 10000 3.6 130 14:28 14.11.2020
5477 Clear 8 1017 38 10000 3.6 130 13:49 14.11.2020
5478 Clear 9 1017 38 10000 3.6 130 13:27 14.11.2020
5479 Clear 10 1017 38 10000 1.07 133 12:49 14.11.2020
5480 Clear 10 1017 38 10000 1.07 133 12:49 14.11.2020
5481 Clear 10 1017 38 10000 0.84 135 12:30 14.11.2020
5482 Clear 10 1017 53 10000 4.1 150 11:48 14.11.2020
5483 Clear 10 1017 53 10000 4.1 150 11:30 14.11.2020
5484 Clear 10 1018 36 10000 4.1 140 10:51 14.11.2020
5485 Clear 10 1018 35 10000 4.1 140 10:27 14.11.2020
5486 Clear 10 1018 53 10000 0.68 181 09:58 14.11.2020
5487 Clear 11 1018 53 10000 0.68 181 09:39 14.11.2020
5488 Clear 11 1018 53 10000 0.5 204 09:21 14.11.2020
5489 Clear 11 1019 53 10000 3.6 140 08:40 14.11.2020
5490 Clear 11 1019 53 10000 4.1 150 07:55 14.11.2020
5491 Clear 11 1019 53 10000 4.1 150 07:36 14.11.2020
5492 Clear 12 1016 50 10000 3.1 150 06:37 14.11.2020
5493 Clear 12 1018 43 10000 3.6 150 06:19 14.11.2020
5494 Clear 15 1018 31 10000 0.54 232 04:30 14.11.2020
5495 Clear 20 1017 23 10000 4.1 330 01:25 14.11.2020
5496 Clear 23 1017 30 10000 1.5 310 23:54 13.11.2020
5497 Clear 23 1017 30 10000 1.5 310 23:33 13.11.2020
5498 Clouds 23 1017 30 10000 1.5 240 22:56 13.11.2020
5499 Clouds 22 1017 30 10000 1.5 240 22:38 13.11.2020
5500 Clouds 22 1018 32 10000 2.1 360 22:19 13.11.2020
5501 Clouds 22 1018 32 10000 2.1 360 21:42 13.11.2020
5502 Clear 22 1019 32 10000 1.5 310 21:22 13.11.2020
5503 Clouds 21 1014 34 10000 1.15 268 20:50 13.11.2020
5504 Clouds 21 1018 33 10000 0.45 163 20:23 13.11.2020
5505 Clouds 20 1019 32 10000 1.04 218 19:47 13.11.2020
5506 Clouds 19 1019 32 10000 0.88 200 19:24 13.11.2020
5507 Clouds 18 1020 36 10000 2.6 150 18:58 13.11.2020
5508 Clouds 17 1020 36 10000 2.6 150 18:30 13.11.2020
5509 Clear 17 1019 38 10000 3.6 130 17:43 13.11.2020
5510 Clear 17 1019 38 10000 3.6 130 17:43 13.11.2020
5511 Clear 16 1020 43 10000 3.1 170 17:20 13.11.2020
5512 Clear 14 1019 28 10000 3.6 140 16:50 13.11.2020
5513 Clear 13 1019 32 10000 3.6 140 16:25 13.11.2020
5514 Clear 8 1018 49 10000 1.31 137 15:55 13.11.2020
5515 Clear 9 1018 49 10000 1.31 137 15:32 13.11.2020
5516 Clear 9 1018 49 10000 3.1 130 14:52 13.11.2020
5517 Clear 10 1018 49 10000 3.1 130 14:28 13.11.2020
5518 Clear 9 1018 42 10000 4.1 130 13:54 13.11.2020
5519 Clear 10 1018 42 10000 4.1 130 13:29 13.11.2020
5520 Clear 10 1018 45 10000 4.6 140 12:52 13.11.2020
5521 Clear 9 1018 45 10000 4.6 140 12:27 13.11.2020
5522 Clear 9 1018 42 10000 3.6 170 11:56 13.11.2020
5523 Clear 9 1018 42 10000 3.6 170 11:37 13.11.2020
5524 Clear 9 1018 45 10000 3.1 160 10:59 13.11.2020
5525 Clear 9 1018 45 10000 3.1 160 10:40 13.11.2020
5526 Clear 9 1018 45 10000 3.1 160 10:22 13.11.2020
5527 Clear 10 1018 45 10000 4.1 150 09:44 13.11.2020
5528 Clear 9 1018 45 10000 4.1 150 09:24 13.11.2020
5529 Clear 9 1018 42 10000 2.6 140 08:52 13.11.2020
5530 Clear 10 1018 42 10000 2.6 140 08:21 13.11.2020
5531 Clear 11 1018 43 10000 3.1 140 07:47 13.11.2020
5532 Clear 10 1018 43 10000 3.1 140 07:26 13.11.2020
5533 Clear 11 1018 37 10000 2.6 160 06:50 13.11.2020
5534 Clear 11 1018 37 10000 2.6 180 06:20 13.11.2020
5535 Clear 12 1018 37 10000 2.6 180 05:39 13.11.2020
5536 Clouds 16 1016 25 10000 3.1 320 02:22 13.11.2020
5537 Clouds 18 1016 22 10000 4.1 320 01:36 13.11.2020
5538 Clouds 21 1016 19 10000 1.5 330 00:34 13.11.2020
5539 Clouds 21 1016 18 10000 2.6 330 23:43 12.11.2020
5540 Clouds 21 1016 19 10000 1.03 26 23:20 12.11.2020
5541 Clouds 21 1016 19 10000 1.03 26 22:52 12.11.2020
5542 Clouds 21 1016 19 10000 1.03 26 22:33 12.11.2020
5543 Clouds 21 1017 21 10000 0.5 359 21:56 12.11.2020
5544 Clouds 21 1017 21 10000 0.5 359 21:38 12.11.2020
5545 Clear 21 1018 18 10000 0.7 280 21:18 12.11.2020
5546 Clouds 21 1018 20 10000 0.7 280 20:40 12.11.2020
5547 Clouds 21 1018 20 10000 0.52 222 20:21 12.11.2020
5548 Clouds 20 1018 25 10000 0.45 197 19:50 12.11.2020
5549 Clouds 20 1019 23 10000 1.5 170 19:32 12.11.2020
5550 Clouds 18 1018 30 10000 0.45 199 18:52 12.11.2020
5551 Clouds 16 1019 28 10000 0.79 152 18:25 12.11.2020
5552 Clouds 15 1019 32 10000 0.79 152 17:59 12.11.2020
5553 Clouds 13 1019 32 10000 0.79 152 17:38 12.11.2020
5554 Clouds 12 1018 39 10000 3.1 160 17:20 12.11.2020
5555 Clouds 8 1018 39 10000 3.1 160 16:44 12.11.2020
5556 Clouds 8 1018 39 10000 3.1 160 16:22 12.11.2020
5557 Clear 6 1017 42 10000 1.5 100 15:42 12.11.2020
5558 Clear 6 1017 42 10000 1.5 100 15:23 12.11.2020
5559 Clear 6 1017 48 10000 3.1 160 14:47 12.11.2020
5560 Clear 6 1017 48 10000 3.1 160 14:27 12.11.2020
5561 Clear 6 1016 52 10000 4.1 150 13:57 12.11.2020
5562 Clear 7 1016 52 10000 4.1 150 13:37 12.11.2020
5563 Clear 7 1016 52 10000 3.6 140 13:18 12.11.2020
5564 Clear 7 1016 52 10000 3.6 140 12:43 12.11.2020
5565 Clear 7 1016 52 10000 3.6 140 12:21 12.11.2020
5566 Clear 7 1017 48 10000 3.1 160 11:50 12.11.2020
5567 Clear 7 1017 48 10000 3.1 160 11:29 12.11.2020
5568 Clear 7 1017 52 10000 3.1 160 10:44 12.11.2020
5569 Clear 7 1017 52 10000 3.1 160 10:25 12.11.2020
5570 Clear 8 1017 48 10000 2.6 180 09:49 12.11.2020
5571 Clear 8 1017 48 10000 2.6 180 09:23 12.11.2020
5572 Clear 8 1017 49 10000 2.6 130 08:57 12.11.2020
5573 Clear 9 1017 49 10000 2.6 130 08:57 12.11.2020
5574 Clear 9 1017 49 10000 2.6 130 08:39 12.11.2020
5575 Clear 9 1017 45 10000 3.1 170 08:19 12.11.2020
5576 Clear 9 1017 45 10000 3.1 170 07:50 12.11.2020
5577 Clear 9 1017 45 10000 3.1 170 07:22 12.11.2020
5578 Clear 10 1016 39 10000 0.12 173 06:50 12.11.2020
5579 Clear 11 1016 37 10000 1.07 249 05:35 12.11.2020
5580 Clear 14 1015 26 10000 2.6 330 03:23 12.11.2020
5581 Clear 15 1014 25 10000 3.6 290 02:41 12.11.2020
5582 Clear 20 1014 24 10000 3.6 310 23:59 11.11.2020
5583 Clear 21 1014 24 10000 3.6 310 23:25 11.11.2020
5584 Clear 21 1014 22 10000 3.1 310 22:59 11.11.2020
5585 Clear 21 1014 22 10000 3.1 310 22:39 11.11.2020
5586 Clear 21 1014 22 10000 3.1 310 22:21 11.11.2020
5587 Clear 20 1015 24 10000 1.5 210 21:43 11.11.2020
5588 Clear 20 1015 24 10000 1.5 210 21:25 11.11.2020
5589 Clear 20 1015 26 10000 1.34 0 20:59 11.11.2020
5590 Clear 20 1015 26 10000 0.45 0 20:40 11.11.2020
5591 Clear 19 1016 26 10000 0.89 208 20:21 11.11.2020
5592 Clear 18 1016 26 10000 0.89 217 19:49 11.11.2020
5593 Clear 17 1014 25 10000 0.97 216 19:31 11.11.2020
5594 Clear 15 1017 28 10000 0.45 0 18:54 11.11.2020
5595 Clear 14 1017 30 10000 2.1 120 18:33 11.11.2020
5596 Clear 10 1017 34 10000 1.85 141 17:43 11.11.2020
5597 Clear 11 1017 34 10000 2.05 124 17:23 11.11.2020
5598 Clear 5 1017 52 10000 2.1 160 16:55 11.11.2020
5599 Clear 5 1017 52 10000 2.1 160 16:34 11.11.2020
5600 Clear 3 1016 55 10000 0.7 100 15:52 11.11.2020
5601 Clear 5 1016 55 10000 0.68 104 15:27 11.11.2020
5602 Clear 3 1016 60 10000 2.6 150 14:59 11.11.2020
5603 Clear 3 1016 60 10000 2.6 150 14:38 11.11.2020
5604 Clear 3 1016 64 10000 2.6 140 13:57 11.11.2020
5605 Clear 3 1016 64 10000 2.6 140 13:57 11.11.2020
5606 Clear 4 1016 64 10000 2.6 140 13:38 11.11.2020
5607 Clear 4 1015 60 10000 3.1 140 12:50 11.11.2020
5608 Clear 5 1015 60 10000 3.1 140 12:21 11.11.2020
5609 Clear 4 1016 64 10000 2.1 170 11:50 11.11.2020
5610 Clear 4 1016 64 10000 2.1 170 11:30 11.11.2020
5611 Clear 5 1016 60 10000 2.1 160 10:43 11.11.2020
5612 Clear 3 1016 60 10000 2.1 160 10:24 11.11.2020
5613 Clear 6 1016 60 10000 4.1 140 09:49 11.11.2020
5614 Clear 6 1016 60 10000 4.1 140 09:28 11.11.2020
5615 Clear 6 1017 60 10000 3.6 140 08:51 11.11.2020
5616 Clear 7 1017 60 10000 3.6 140 08:30 11.11.2020
5617 Clear 7 1017 52 10000 3.6 170 07:58 11.11.2020
5618 Clear 7 1017 52 10000 3.6 170 07:39 11.11.2020
5619 Clear 8 1017 48 10000 2.6 160 06:30 11.11.2020
5620 Clear 8 1017 48 10000 2.6 160 06:30 11.11.2020
5621 Clear 10 1016 29 10000 2.6 290 04:47 11.11.2020
5622 Clear 13 1016 32 10000 1.79 300 01:35 11.11.2020
5623 Clear 15 1016 26 10000 4.6 330 00:54 11.11.2020
5624 Clear 16 1016 26 10000 4.6 330 00:22 11.11.2020
5625 Clear 16 1016 30 10000 3.6 330 23:25 10.11.2020
5626 Clear 16 1016 30 10000 4.1 290 22:59 10.11.2020
5627 Clear 16 1016 30 10000 4.1 290 22:37 10.11.2020
5628 Clear 16 1017 29 10000 3.6 330 22:19 10.11.2020
5629 Clear 16 1017 29 10000 3.6 330 22:19 10.11.2020
5630 Clear 16 1017 29 10000 3.6 330 21:40 10.11.2020
5631 Clear 16 1018 41 10000 2.1 340 21:22 10.11.2020
5632 Clear 15 1018 41 10000 2.1 340 20:43 10.11.2020
5633 Clear 15 1018 41 10000 2.1 340 20:23 10.11.2020
5634 Clear 14 1020 34 10000 2.1 20 19:57 10.11.2020
5635 Clear 14 1020 34 10000 2.1 20 19:39 10.11.2020
5636 Clear 13 1020 37 10000 2.1 20 19:20 10.11.2020
5637 Clear 12 1020 47 10000 0.68 352 18:41 10.11.2020
5638 Clear 12 1020 47 10000 0.74 75 18:21 10.11.2020
5639 Clear 10 1019 57 10000 0.74 75 17:47 10.11.2020
5640 Clear 10 1019 57 10000 1.24 104 17:28 10.11.2020
5641 Clouds 9 1021 50 10000 1.24 104 16:58 10.11.2020
5642 Clear 8 1019 70 10000 2.1 140 16:39 10.11.2020
5643 Clear 7 1019 70 10000 2.1 140 16:21 10.11.2020
5644 Clear 3 1019 50 10000 2.6 160 15:47 10.11.2020
5645 Clear 3 1019 56 10000 2.6 160 15:27 10.11.2020
5646 Clear 4 1019 56 10000 2.6 160 14:43 10.11.2020
5647 Clear 4 1019 80 10000 1.5 130 14:23 10.11.2020
5648 Clear 4 1019 80 10000 1.5 130 13:58 10.11.2020
5649 Clear 4 1019 80 10000 1.5 130 13:37 10.11.2020
5650 Clear 4 1019 80 10000 3.1 160 13:19 10.11.2020
5651 Clear 4 1019 80 10000 3.1 160 12:45 10.11.2020
5652 Clear 4 1019 80 10000 3.1 160 12:24 10.11.2020
5653 Clear 5 1019 80 10000 2.6 150 11:41 10.11.2020
5654 Clear 5 1019 80 10000 2.6 150 11:21 10.11.2020
5655 Clear 5 1019 75 10000 2.1 140 10:56 10.11.2020
5656 Clear 5 1019 75 10000 2.1 140 10:36 10.11.2020
5657 Clear 5 1019 80 10000 2.1 150 10:18 10.11.2020
5658 Clear 5 1019 80 10000 2.1 150 09:41 10.11.2020
5659 Clear 5 1019 80 10000 2.1 150 09:23 10.11.2020
5660 Clear 6 1019 80 10000 2.1 150 08:52 10.11.2020
5661 Clear 6 1019 80 10000 2.1 150 08:26 10.11.2020
5662 Clear 7 1020 75 10000 2.1 90 07:44 10.11.2020
5663 Clear 7 1020 75 10000 2.1 90 07:21 10.11.2020
5664 Clear 7 1020 70 10000 2.1 150 06:40 10.11.2020
5665 Clouds 8 1020 65 10000 1.5 130 05:41 10.11.2020
5666 Clear 8 1019 61 10000 2.1 330 04:49 10.11.2020
5667 Clouds 10 1018 48 10000 5.1 330 02:18 10.11.2020
5668 Clouds 12 1018 46 10000 5.1 330 01:25 10.11.2020
5669 Clouds 13 1017 50 10000 3.1 230 23:54 09.11.2020
5670 Clouds 13 1017 50 10000 3.1 230 23:24 09.11.2020
5671 Clouds 13 1017 54 10000 3.6 270 22:44 09.11.2020
5672 Clouds 13 1017 54 10000 3.6 270 22:23 09.11.2020
5673 Clouds 13 1017 57 10000 1.5 30 21:46 09.11.2020
5674 Clouds 12 1017 57 10000 1.5 30 21:27 09.11.2020
5675 Clouds 12 1018 47 10000 1.34 0 20:46 09.11.2020
5676 Clouds 12 1018 61 10000 3.81 321 20:24 09.11.2020
5677 Clouds 11 1018 58 10000 0.89 0 19:59 09.11.2020
5678 Clouds 11 1018 61 10000 0.89 0 19:40 09.11.2020
5679 Clouds 11 1018 66 10000 1.5 120 19:21 09.11.2020
5680 Drizzle 10 1018 75 10000 1.5 170 18:41 09.11.2020
5681 Drizzle 10 1018 75 10000 1.5 170 18:41 09.11.2020
5682 Clouds 9 1014 69 10000 2.76 321 18:20 09.11.2020
5683 Clouds 8 1017 81 10000 2.1 150 17:44 09.11.2020
5684 Clouds 8 1017 81 10000 2.1 150 17:26 09.11.2020
5685 Clouds 8 1016 75 10000 4.1 320 16:45 09.11.2020
5686 Clouds 7 1016 75 10000 4.1 320 16:26 09.11.2020
5687 Clouds 7 1015 81 10000 5.1 330 15:50 09.11.2020
5688 Clouds 7 1015 81 10000 5.1 330 15:30 09.11.2020
5689 Clouds 7 1015 81 10000 5.1 330 15:30 09.11.2020
5690 Clouds 7 1015 81 10000 5.7 330 14:56 09.11.2020
5691 Clouds 7 1015 93 10000 6.2 330 14:37 09.11.2020
5692 Clouds 7 1015 93 10000 5.7 320 14:19 09.11.2020
5693 Clouds 7 1015 93 10000 5.7 320 14:19 09.11.2020
5694 Mist 7 1014 93 9656 7.2 330 13:42 09.11.2020
5695 Mist 7 1013 87 10000 7.2 340 13:19 09.11.2020
5696 Rain 8 1014 76 10000 5.1 350 12:45 09.11.2020
5697 Rain 8 1014 86 10000 3.13 325 12:21 09.11.2020
5698 Clouds 10 1012 54 10000 7.7 210 11:43 09.11.2020
5699 Clouds 12 1012 58 10000 7.2 190 11:24 09.11.2020
5700 Clouds 12 1012 58 10000 7.2 190 10:58 09.11.2020
5701 Clouds 12 1012 58 10000 7.2 190 10:40 09.11.2020
5702 Clouds 12 1012 58 10000 7.2 190 10:21 09.11.2020
5703 Clouds 13 1012 47 10000 5.1 180 09:30 09.11.2020
5704 Clouds 13 1012 47 10000 5.1 200 08:55 09.11.2020
5705 Clouds 13 1012 47 10000 5.1 200 08:28 09.11.2020
5706 Clouds 13 1012 50 10000 2.6 180 07:57 09.11.2020
5707 Clouds 12 1012 50 10000 2.6 180 07:23 09.11.2020
5708 Clear 12 1012 43 10000 2.1 260 06:55 09.11.2020
5709 Clear 13 1012 54 10000 4.1 240 05:38 09.11.2020
5710 Clouds 18 1009 32 10000 7.7 250 01:59 09.11.2020
5711 Clouds 18 1009 32 10000 7.7 250 01:41 09.11.2020
5712 Clear 19 1009 36 10000 2.24 0 00:55 09.11.2020
5713 Clear 20 1009 32 10000 2.68 291 23:47 08.11.2020
5714 Clear 20 1008 33 10000 5.1 240 23:28 08.11.2020
5715 Clear 21 1008 33 10000 6.7 230 22:43 08.11.2020
5716 Clear 21 1008 31 10000 6.7 230 22:22 08.11.2020
5717 Clear 21 1008 22 10000 7.7 230 21:47 08.11.2020
5718 Clear 21 1008 22 10000 7.7 230 21:22 08.11.2020
5719 Clear 20 1009 24 10000 6.7 240 20:57 08.11.2020
5720 Clear 20 1010 29 10000 7.2 220 20:38 08.11.2020
5721 Clear 19 1010 24 10000 7.2 230 20:20 08.11.2020
5722 Clear 18 1011 39 10000 4.1 200 19:45 08.11.2020
5723 Clear 18 1011 39 10000 4.1 200 19:22 08.11.2020
5724 Clouds 17 1012 38 10000 2.6 120 18:57 08.11.2020
5725 Clouds 17 1012 38 10000 2.6 120 18:39 08.11.2020
5726 Clouds 16 1012 38 10000 2.6 120 18:20 08.11.2020
5727 Clear 15 1011 44 10000 3.91 170 17:42 08.11.2020
5728 Clear 14 1006 42 10000 0.89 339 17:20 08.11.2020
5729 Clear 13 1011 45 10000 0.45 200 16:57 08.11.2020
5730 Clear 13 1011 45 10000 0.45 200 16:57 08.11.2020
5731 Clear 13 1012 49 10000 0.89 0 16:38 08.11.2020
5732 Clear 11 1012 49 10000 1.5 140 16:19 08.11.2020
5733 Clear 10 1010 49 10000 2.4 157 15:45 08.11.2020
5734 Clear 9 1010 57 10000 1.14 177 15:26 08.11.2020
5735 Clear 8 1010 57 10000 3.1 170 14:43 08.11.2020
5736 Clear 8 1010 57 10000 3.1 170 14:23 08.11.2020
5737 Clear 9 1011 46 10000 1.5 270 13:56 08.11.2020
5738 Clear 9 1011 50 10000 0.88 222 13:25 08.11.2020
5739 Clouds 10 1011 50 10000 1.5 240 12:47 08.11.2020
5740 Clouds 10 1011 50 10000 1.5 240 12:29 08.11.2020
5741 Clear 10 1011 50 10000 0.45 294 11:59 08.11.2020
5742 Clouds 11 1010 46 10000 3.6 320 11:41 08.11.2020
5743 Clouds 11 1011 40 10000 3.6 320 11:22 08.11.2020
5744 Clouds 11 1010 43 10000 5.1 310 10:52 08.11.2020
5745 Clouds 12 1010 44 10000 6.2 320 10:20 08.11.2020
5746 Clouds 12 1010 44 10000 6.2 320 09:59 08.11.2020
5747 Clouds 12 1010 44 10000 6.2 320 09:41 08.11.2020
5748 Clouds 13 1010 41 10000 4.6 300 09:18 08.11.2020
5749 Clouds 13 1010 41 10000 4.6 300 08:42 08.11.2020
5750 Clouds 14 1010 41 10000 4.6 300 08:21 08.11.2020
5751 Clouds 14 1010 41 10000 4.6 300 08:21 08.11.2020
5752 Clouds 15 1009 48 10000 5.7 280 07:53 08.11.2020
5753 Clouds 15 1009 48 10000 5.7 280 07:30 08.11.2020
5754 Clouds 16 1009 45 10000 5.7 300 06:26 08.11.2020
5755 Clear 16 1009 44 10000 2.68 0 05:53 08.11.2020
5756 Clouds 17 1007 63 10000 4.6 310 04:50 08.11.2020
5757 Clouds 22 1004 38 10000 9.8 230 01:55 08.11.2020
5758 Clouds 24 1004 38 10000 12.9 230 01:19 08.11.2020
5759 Clouds 25 1004 38 10000 12.9 230 00:30 08.11.2020
5760 Clouds 25 1005 36 10000 9.3 210 23:50 07.11.2020
5761 Clouds 25 1005 36 10000 9.3 210 23:30 07.11.2020
5762 Clouds 25 1005 31 10000 13.9 200 22:47 07.11.2020
5763 Clouds 26 1005 31 10000 13.9 200 22:28 07.11.2020
5764 Clouds 26 1005 28 10000 10.3 230 21:56 07.11.2020
5765 Clouds 26 1005 28 10000 10.3 230 21:38 07.11.2020
5766 Drizzle 26 1005 28 10000 13.9 200 21:18 07.11.2020
5767 Clouds 26 1006 30 10000 3.13 163 20:44 07.11.2020
5768 Clouds 26 1006 30 10000 4.92 180 20:25 07.11.2020
5769 Clouds 26 1007 24 10000 9.3 210 19:45 07.11.2020
5770 Clouds 26 1007 24 10000 9.3 210 19:27 07.11.2020
5771 Clouds 26 1007 26 10000 9.3 180 18:43 07.11.2020
5772 Clouds 26 1007 26 10000 9.3 180 18:24 07.11.2020
5773 Clouds 26 1008 22 10000 8.7 190 17:47 07.11.2020
5774 Clouds 25 1008 22 10000 8.7 190 17:28 07.11.2020
5775 Clouds 24 1008 28 10000 7.7 190 16:46 07.11.2020
5776 Clouds 23 1008 28 10000 7.7 190 16:25 07.11.2020
5777 Clouds 23 1007 30 10000 4.1 130 15:57 07.11.2020
5778 Clouds 23 1007 30 10000 4.1 130 15:39 07.11.2020
5779 Clouds 23 1007 31 10000 4.6 140 15:19 07.11.2020
5780 Clouds 23 1007 31 10000 4.6 140 14:41 07.11.2020
5781 Clouds 23 1007 31 10000 4.6 140 14:41 07.11.2020
5782 Clouds 23 1008 23 10000 3.6 190 14:21 07.11.2020
5783 Clouds 24 1008 23 10000 3.6 190 13:46 07.11.2020
5784 Clouds 24 1007 30 10000 3.6 120 13:25 07.11.2020
5785 Clouds 23 1007 25 10000 3.6 150 12:40 07.11.2020
5786 Clouds 24 1008 25 10000 3.6 150 11:56 07.11.2020
5787 Clouds 24 1008 25 10000 3.6 150 11:37 07.11.2020
5788 Clouds 24 1008 22 10000 2.6 150 11:18 07.11.2020
5789 Clouds 24 1008 22 10000 2.6 150 10:42 07.11.2020
5790 Clouds 24 1008 22 10000 2.6 150 10:23 07.11.2020
5791 Clouds 25 1008 25 10000 3.22 146 09:49 07.11.2020
5792 Clouds 25 1008 24 10000 2.91 152 09:24 07.11.2020
5793 Clouds 24 1008 24 10000 1.5 150 08:51 07.11.2020
5794 Clouds 24 1008 24 10000 1.5 150 08:31 07.11.2020
5795 Clouds 24 1009 23 10000 3.1 230 07:48 07.11.2020
5796 Clouds 24 1009 20 10000 1.5 160 06:58 07.11.2020
5797 Clouds 25 1009 21 10000 1.5 160 06:37 07.11.2020
5798 Clouds 26 1008 15 10000 2.1 240 04:32 07.11.2020
5799 Clouds 29 1007 11 10000 4.1 260 02:53 07.11.2020
5800 Clouds 30 1007 11 10000 4.6 220 01:27 07.11.2020
5801 Clouds 30 1007 11 10000 4.6 220 01:27 07.11.2020
5802 Clouds 31 1007 11 10000 6.2 190 00:39 07.11.2020
5803 Clouds 32 1007 11 10000 7.7 220 23:45 06.11.2020
5804 Clouds 32 1008 11 10000 5.1 170 23:19 06.11.2020
5805 Clouds 32 1008 11 10000 5.1 170 22:40 06.11.2020
5806 Clouds 32 1008 11 10000 5.1 170 22:40 06.11.2020
5807 Clouds 32 1009 11 10000 5.1 140 22:18 06.11.2020
5808 Clouds 31 1009 11 10000 5.1 140 21:43 06.11.2020
5809 Clouds 31 1011 11 10000 4.6 170 21:21 06.11.2020
5810 Clouds 31 1011 11 10000 4.6 170 20:48 06.11.2020
5811 Clouds 31 1011 13 10000 6.2 140 20:20 06.11.2020
5812 Clouds 31 1010 14 10000 1.34 180 19:47 06.11.2020
5813 Clouds 30 1011 13 10000 6.2 140 19:29 06.11.2020
5814 Clouds 30 1012 14 10000 6.7 130 18:58 06.11.2020
5815 Clouds 29 1012 14 10000 6.7 130 18:40 06.11.2020
5816 Clear 29 1013 13 10000 2.6 160 18:19 06.11.2020
5817 Clouds 28 1012 14 10000 7.2 140 17:48 06.11.2020
5818 Clouds 27 1012 14 10000 7.2 140 17:25 06.11.2020
5819 Clouds 26 1012 15 10000 6.2 150 16:47 06.11.2020
5820 Clouds 25 1012 15 10000 6.2 150 16:24 06.11.2020
5821 Clouds 24 1012 16 10000 5.7 140 15:47 06.11.2020
5822 Clouds 23 1012 16 10000 5.7 140 15:27 06.11.2020
5823 Clouds 23 1012 16 10000 6.7 140 14:51 06.11.2020
5824 Clouds 23 1012 16 10000 6.7 140 14:24 06.11.2020
5825 Clear 23 1012 16 10000 3.6 170 13:44 06.11.2020
5826 Clear 23 1012 16 10000 4.1 180 13:23 06.11.2020
5827 Clear 23 1012 16 10000 4.1 180 12:44 06.11.2020
5828 Clear 24 1012 16 10000 4.1 180 12:23 06.11.2020
5829 Clear 24 1013 15 10000 4.1 150 11:43 06.11.2020
5830 Clear 24 1013 15 10000 4.1 150 11:24 06.11.2020
5831 Clear 24 1013 17 10000 4.6 140 10:39 06.11.2020
5832 Clear 25 1013 14 10000 9.3 130 10:19 06.11.2020
5833 Clear 24 1013 14 10000 9.3 130 09:48 06.11.2020
5834 Clear 24 1013 14 10000 9.3 130 09:21 06.11.2020
5835 Clear 25 1014 14 10000 7.2 130 08:49 06.11.2020
5836 Clear 25 1014 14 10000 7.2 130 08:28 06.11.2020
5837 Clear 25 1015 14 10000 5.7 110 07:49 06.11.2020
5838 Clear 26 1015 14 10000 5.7 110 07:30 06.11.2020
5839 Clear 25 1015 13 10000 3.6 110 06:51 06.11.2020
5840 Clear 26 1015 13 10000 4.1 120 05:44 06.11.2020
5841 Clear 27 1016 9 10000 5.7 90 03:46 06.11.2020
5842 Clear 32 1015 9 10000 7.7 140 00:48 06.11.2020
5843 Clear 33 1016 10 10000 6.7 140 00:19 06.11.2020
5844 Clear 34 1016 10 10000 6.7 140 23:30 05.11.2020
5845 Clear 34 1017 10 10000 6.2 80 22:57 05.11.2020
5846 Clear 33 1017 10 10000 6.2 80 22:37 05.11.2020
5847 Clear 33 1018 13 10000 8.2 110 22:18 05.11.2020
5848 Clear 33 1018 13 10000 8.2 110 21:43 05.11.2020
5849 Clear 33 1018 13 10000 8.2 110 21:43 05.11.2020
5850 Clear 33 1018 13 10000 8.2 110 21:21 05.11.2020
5851 Clear 33 1019 13 10000 8.7 130 20:48 05.11.2020
5852 Clear 32 1019 13 10000 8.7 130 20:28 05.11.2020
5853 Clear 32 1020 15 10000 10.3 130 19:59 05.11.2020
5854 Clear 32 1020 15 10000 10.3 130 19:40 05.11.2020
5855 Clear 32 1020 15 10000 10.3 130 19:22 05.11.2020
5856 Clear 31 1020 17 10000 5.7 120 18:45 05.11.2020
5857 Clear 30 1020 17 10000 5.7 120 18:26 05.11.2020
5858 Clear 29 1020 21 10000 1.34 168 17:52 05.11.2020
5859 Clear 27 1021 23 10000 0.89 0 17:29 05.11.2020
5860 Clear 26 1021 24 10000 4.1 150 16:58 05.11.2020
5861 Clear 25 1021 24 10000 4.1 150 16:40 05.11.2020
5862 Clear 23 1020 28 10000 0.89 42 16:19 05.11.2020
5863 Clear 20 1020 21 10000 4.6 150 15:43 05.11.2020
5864 Clear 19 1020 23 10000 4.6 150 15:21 05.11.2020
5865 Clear 18 1020 23 10000 2.1 190 14:45 05.11.2020
5866 Clear 17 1020 23 10000 2.1 190 14:25 05.11.2020
5867 Clear 17 1020 23 10000 3.1 170 13:42 05.11.2020
5868 Clear 16 1020 31 10000 3.6 190 13:23 05.11.2020
5869 Clear 17 1020 31 10000 3.6 190 12:50 05.11.2020
5870 Clear 17 1020 31 10000 3.6 190 12:25 05.11.2020
5871 Clear 16 1020 29 10000 2.6 77 11:54 05.11.2020
5872 Clear 17 1020 29 10000 2.18 82 11:28 05.11.2020
5873 Clear 17 1021 31 10000 4.1 150 10:53 05.11.2020
5874 Clear 17 1021 31 10000 4.1 150 10:33 05.11.2020
5875 Clear 17 1020 25 10000 3.1 140 09:59 05.11.2020
5876 Clear 18 1020 25 10000 3.1 140 09:41 05.11.2020
5877 Clear 18 1020 26 10000 3.1 140 09:21 05.11.2020
5878 Clear 18 1021 26 10000 3.1 130 08:43 05.11.2020
5879 Clear 18 1021 26 10000 3.1 130 08:25 05.11.2020
5880 Clear 19 1021 25 10000 3.1 160 07:29 05.11.2020
5881 Clear 20 1021 29 10000 4.1 140 06:52 05.11.2020
5882 Clear 20 1021 29 10000 4.1 140 06:34 05.11.2020
5883 Clear 23 1019 21 10000 3.6 320 04:19 05.11.2020
5884 Clear 29 1019 16 10000 5.7 330 01:22 05.11.2020
5885 Clear 31 1018 18 10000 2.68 300 00:29 05.11.2020
5886 Clear 32 1018 11 10000 3.1 300 23:44 04.11.2020
5887 Clear 32 1018 11 10000 3.1 300 23:44 04.11.2020
5888 Clear 32 1018 11 10000 3.1 300 23:25 04.11.2020
5889 Clear 32 1019 14 10000 2.1 290 22:45 04.11.2020
5890 Clear 32 1019 14 10000 2.1 290 22:23 04.11.2020
5891 Clear 31 1020 14 10000 2.1 0 21:48 04.11.2020
5892 Clear 31 1019 19 10000 1.56 276 21:29 04.11.2020
5893 Clear 31 1019 21 10000 1.34 290 20:56 04.11.2020
5894 Clear 30 1020 21 10000 2.1 300 20:38 04.11.2020
5895 Clear 30 1021 18 10000 1.5 0 20:19 04.11.2020
5896 Clear 29 1021 23 10000 1.01 251 19:44 04.11.2020
5897 Clear 29 1021 23 10000 1.01 251 19:44 04.11.2020
5898 Clear 29 1021 23 10000 1.01 251 19:44 04.11.2020
5899 Clear 29 1021 23 10000 1.01 251 19:44 04.11.2020
5900 Clear 28 1022 20 10000 0.5 208 19:26 04.11.2020
5901 Clear 27 1022 24 10000 0.5 208 18:44 04.11.2020
5902 Clouds 26 1021 27 10000 0.45 220 18:25 04.11.2020
5903 Clouds 25 1021 30 10000 0.89 221 17:56 04.11.2020
5904 Clouds 25 1020 30 10000 0.45 169 17:38 04.11.2020
5905 Clear 24 1022 30 10000 2.6 140 17:19 04.11.2020
5906 Clear 18 1021 34 10000 2.1 150 16:38 04.11.2020
5907 Clear 18 1020 41 10000 3.1 120 16:19 04.11.2020
5908 Clear 15 1020 41 10000 3.1 120 15:44 04.11.2020
5909 Clear 17 1020 41 10000 3.1 120 15:24 04.11.2020
5910 Clear 17 1020 41 10000 2.1 110 14:47 04.11.2020
5911 Clear 17 1020 41 10000 2.1 110 14:26 04.11.2020
5912 Clear 17 1019 41 10000 3.6 140 13:56 04.11.2020
5913 Clear 17 1019 41 10000 3.6 140 13:37 04.11.2020
5914 Clear 17 1019 39 10000 2.6 130 13:19 04.11.2020
5915 Clear 17 1019 39 10000 2.6 130 12:47 04.11.2020
5916 Clear 17 1019 39 10000 2.6 130 12:24 04.11.2020
5917 Clear 18 1019 36 10000 2.6 130 11:48 04.11.2020
5918 Clear 18 1019 36 10000 2.6 130 11:30 04.11.2020
5919 Clear 18 1019 36 10000 2.6 170 10:52 04.11.2020
5920 Clear 18 1019 36 10000 2.6 170 10:24 04.11.2020
5921 Clear 18 1019 34 10000 3.6 150 09:58 04.11.2020
5922 Clear 19 1019 34 10000 3.6 150 09:40 04.11.2020
5923 Clear 19 1019 34 10000 3.6 150 09:20 04.11.2020
5924 Clear 19 1019 32 10000 4.1 140 08:41 04.11.2020
5925 Clear 20 1019 28 10000 2.6 150 08:18 04.11.2020
5926 Clear 20 1019 28 10000 2.6 150 07:42 04.11.2020
5927 Clear 21 1019 28 10000 2.6 150 07:23 04.11.2020
5928 Clear 22 1018 32 10000 2.6 170 06:41 04.11.2020
5929 Clear 22 1018 30 10000 2.1 210 05:39 04.11.2020
5930 Clear 27 1016 15 10000 2.48 287 02:31 04.11.2020
5931 Clear 29 1016 11 10000 2.6 340 01:39 04.11.2020
5932 Clouds 32 1016 11 10000 2.6 10 00:25 04.11.2020
5933 Clear 33 1016 11 10000 2.1 80 23:30 03.11.2020
5934 Clouds 33 1017 10 10000 1 334 22:58 03.11.2020
5935 Clouds 33 1017 10 10000 1 334 22:39 03.11.2020
5936 Clouds 32 1018 11 10000 0.37 215 22:19 03.11.2020
5937 Clouds 32 1018 11 10000 0.37 215 21:43 03.11.2020
5938 Clouds 32 1018 11 10000 1.49 156 21:25 03.11.2020
5939 Clouds 32 1019 12 10000 1.5 90 20:49 03.11.2020
5940 Clouds 31 1019 12 10000 1.5 90 20:27 03.11.2020
5941 Clouds 31 1019 12 10000 1.5 90 20:27 03.11.2020
5942 Clear 31 1019 16 10000 3.6 130 19:57 03.11.2020
5943 Clear 30 1019 16 10000 3.6 130 19:38 03.11.2020
5944 Clear 30 1020 15 10000 2.1 170 19:19 03.11.2020
5945 Clear 28 1020 18 10000 4.6 120 18:41 03.11.2020
5946 Clear 27 1012 20 10000 1.79 355 18:19 03.11.2020
5947 Clear 26 1020 22 10000 5.7 140 17:47 03.11.2020
5948 Clear 24 1020 22 10000 5.7 140 17:29 03.11.2020
5949 Clear 23 1019 28 10000 0.45 172 16:52 03.11.2020
5950 Clear 21 1019 22 10000 6.7 130 16:31 03.11.2020
5951 Clear 20 1019 25 10000 5.1 150 15:58 03.11.2020
5952 Clear 19 1019 25 10000 5.1 150 15:40 03.11.2020
5953 Clear 18 1018 27 10000 6.7 140 15:19 03.11.2020
5954 Clear 18 1018 27 10000 6.7 140 14:43 03.11.2020
5955 Clear 18 1018 27 10000 6.7 140 14:25 03.11.2020
5956 Clear 19 1018 27 10000 7.2 140 13:42 03.11.2020
5957 Clear 19 1018 27 10000 7.2 140 13:21 03.11.2020
5958 Clear 19 1018 27 10000 3.1 130 12:47 03.11.2020
5959 Clear 19 1018 26 10000 3.1 130 12:26 03.11.2020
5960 Clear 20 1019 26 10000 4.6 130 11:47 03.11.2020
5961 Clear 20 1019 26 10000 4.6 130 11:26 03.11.2020
5962 Clouds 20 1019 26 10000 5.7 140 10:59 03.11.2020
5963 Clouds 21 1019 26 10000 5.7 140 10:38 03.11.2020
5964 Clouds 21 1019 25 10000 8.2 130 10:18 03.11.2020
5965 Clouds 21 1019 25 10000 8.2 130 09:45 03.11.2020
5966 Clouds 21 1019 24 10000 8.2 130 09:24 03.11.2020
5967 Clear 21 1019 24 10000 4.1 110 08:49 03.11.2020
5968 Clear 21 1019 23 10000 4.1 110 08:30 03.11.2020
5969 Clouds 22 1019 21 10000 3.1 110 07:41 03.11.2020
5970 Clouds 23 1019 20 10000 3.6 110 07:19 03.11.2020
5971 Clouds 23 1019 20 10000 3.6 110 06:22 03.11.2020
5972 Clear 24 1019 21 10000 3.6 110 04:34 03.11.2020
5973 Clouds 30 1018 16 10000 0.89 0 00:45 03.11.2020
5974 Clouds 31 1018 14 10000 1.34 61 00:24 03.11.2020
5975 Clouds 31 1020 12 10000 7.2 130 23:43 02.11.2020
5976 Clouds 31 1020 12 10000 7.2 130 23:22 02.11.2020
5977 Clear 31 1020 11 10000 8.2 140 22:43 02.11.2020
5978 Clear 31 1020 11 10000 8.2 140 22:24 02.11.2020
5979 Clouds 31 1021 11 10000 9.8 130 21:39 02.11.2020
5980 Clouds 31 1021 11 10000 9.8 130 21:21 02.11.2020
5981 Clear 31 1022 12 10000 9.8 130 20:56 02.11.2020
5982 Clear 31 1022 12 10000 9.8 130 20:38 02.11.2020
5983 Clear 30 1022 12 10000 9.3 120 20:18 02.11.2020
5984 Clear 30 1022 12 10000 9.3 120 20:18 02.11.2020
5985 Clear 30 1022 12 10000 9.3 120 19:43 02.11.2020
5986 Clear 30 1022 12 10000 9.3 120 19:25 02.11.2020
5987 Clouds 29 1023 15 10000 9.8 140 18:43 02.11.2020
5988 Clouds 27 1023 15 10000 9.8 140 18:22 02.11.2020
5989 Clear 27 1023 16 10000 3.1 110 17:58 02.11.2020
5990 Clear 27 1023 16 10000 3.1 110 17:40 02.11.2020
5991 Clouds 25 1023 20 10000 3.6 90 17:20 02.11.2020
5992 Clouds 24 1023 20 10000 3.6 90 16:43 02.11.2020
5993 Clouds 23 1023 20 10000 3.6 90 16:24 02.11.2020
5994 Clouds 22 1022 26 10000 5.1 140 15:44 02.11.2020
5995 Clouds 22 1022 27 10000 5.1 140 15:24 02.11.2020
5996 Clear 22 1022 27 10000 4.6 120 14:57 02.11.2020
5997 Clear 22 1022 27 10000 4.6 120 14:21 02.11.2020
5998 Clouds 21 1022 27 10000 5.7 140 13:58 02.11.2020
5999 Clouds 21 1022 27 10000 5.7 140 13:40 02.11.2020
6000 Clouds 21 1022 27 10000 5.7 140 13:21 02.11.2020
6001 Clouds 22 1022 28 10000 5.1 150 12:33 02.11.2020
6002 Clouds 22 1022 28 10000 3.1 140 11:59 02.11.2020
6003 Clouds 22 1022 28 10000 3.1 140 11:39 02.11.2020
6004 Clear 22 1022 21 10000 4.1 150 11:19 02.11.2020
6005 Clear 23 1022 21 10000 4.1 150 10:43 02.11.2020
6006 Clear 23 1022 21 10000 4.1 150 10:21 02.11.2020
6007 Clear 23 1022 20 10000 3.1 80 09:51 02.11.2020
6008 Clear 23 1022 20 10000 3.1 80 09:24 02.11.2020
6009 Clear 23 1022 26 10000 3.6 90 08:46 02.11.2020
6010 Clear 23 1022 25 10000 3.6 90 08:26 02.11.2020
6011 Clear 24 1022 25 10000 4.1 140 07:50 02.11.2020
6012 Clear 24 1023 20 10000 2.6 120 07:22 02.11.2020
6013 Clear 24 1023 20 10000 2.6 120 06:36 02.11.2020
6014 Clear 27 1022 15 10000 8.2 70 03:55 02.11.2020
6015 Clear 29 1021 13 10000 7.7 70 01:25 02.11.2020
6016 Clear 30 1021 11 10000 5.7 60 00:36 02.11.2020
6017 Clouds 31 1021 16 10000 8.2 60 23:44 01.11.2020
6018 Clouds 31 1021 15 10000 8.2 60 23:25 01.11.2020
6019 Clouds 31 1022 15 10000 5.1 80 22:47 01.11.2020
6020 Clouds 31 1022 15 10000 5.1 80 22:27 01.11.2020
6021 Clouds 31 1022 15 10000 6.2 70 21:59 01.11.2020
6022 Clouds 31 1022 15 10000 6.2 70 21:39 01.11.2020
6023 Clouds 31 1022 15 10000 6.2 70 21:21 01.11.2020
6024 Clear 30 1023 12 10000 6.2 70 20:42 01.11.2020
6025 Clear 30 1023 12 10000 6.2 70 20:42 01.11.2020
6026 Clear 30 1024 12 10000 7.2 100 20:24 01.11.2020
6027 Clear 30 1024 12 10000 9.3 140 19:44 01.11.2020
6028 Clear 29 1024 12 10000 9.3 140 19:26 01.11.2020
6029 Clouds 29 1024 12 10000 7.2 100 18:54 01.11.2020
6030 Clouds 29 1024 12 10000 5.7 130 18:36 01.11.2020
6031 Clear 28 1024 11 10000 7.7 110 18:18 01.11.2020
6032 Clear 28 1024 11 10000 7.7 110 18:18 01.11.2020
6033 Clouds 27 1024 14 10000 5.1 140 17:43 01.11.2020
6034 Clouds 26 1024 14 10000 5.1 140 17:24 01.11.2020
6035 Clouds 26 1024 14 10000 5.1 140 17:24 01.11.2020
6036 Clear 24 1023 17 10000 5.1 160 16:42 01.11.2020
6037 Clear 23 1023 17 10000 5.1 160 16:21 01.11.2020
6038 Clear 22 1023 19 10000 3.6 160 15:55 01.11.2020
6039 Clear 20 1023 19 10000 3.6 160 15:37 01.11.2020
6040 Clear 20 1023 19 10000 3.6 160 15:18 01.11.2020
6041 Clouds 20 1022 20 10000 5.1 140 14:45 01.11.2020
6042 Clouds 20 1022 20 10000 5.1 140 14:22 01.11.2020
6043 Clouds 19 1022 19 10000 5.1 150 13:49 01.11.2020
6044 Clouds 18 1022 19 10000 5.1 150 13:31 01.11.2020
6045 Clear 19 1021 18 10000 5.1 150 12:50 01.11.2020
6046 Clear 19 1021 18 10000 5.1 150 12:27 01.11.2020
6047 Clouds 18 1021 19 10000 3.6 130 11:55 01.11.2020
6048 Clouds 18 1021 19 10000 3.6 130 11:37 01.11.2020
6049 Clouds 19 1021 20 10000 2.6 90 11:18 01.11.2020
6050 Clouds 19 1021 20 10000 2.6 90 11:18 01.11.2020
6051 Clouds 19 1021 20 10000 2.6 90 10:40 01.11.2020
6052 Clouds 19 1021 20 10000 2.6 90 10:22 01.11.2020
6053 Clear 18 1021 20 10000 4.1 150 09:46 01.11.2020
6054 Clear 18 1021 19 10000 3.1 160 08:52 01.11.2020
6055 Clear 19 1021 19 10000 3.1 160 08:33 01.11.2020
6056 Clear 19 1021 17 10000 4.1 150 07:45 01.11.2020
6057 Clear 20 1021 22 10000 3.1 130 06:22 01.11.2020
6058 Clear 27 1018 9 10000 2.1 340 01:53 01.11.2020
6059 Clouds 29 1018 7 10000 3.6 320 00:55 01.11.2020
6060 Clear 31 1017 8 10000 4.1 300 23:42 31.10.2020
6061 Clear 31 1018 8 10000 2.1 320 23:19 31.10.2020
6062 Clear 31 1018 8 10000 2.1 320 22:43 31.10.2020
6063 Clear 31 1018 8 10000 2.1 320 22:23 31.10.2020
6064 Clear 31 1018 9 10000 1.5 140 21:46 31.10.2020
6065 Clear 31 1018 9 10000 1.5 140 21:21 31.10.2020
6066 Clear 30 1019 11 10000 0.74 145 20:41 31.10.2020
6067 Clouds 30 1012 13 10000 0.45 69 20:19 31.10.2020
6068 Clear 29 1020 14 10000 2.6 130 19:43 31.10.2020
6069 Clear 28 1020 14 10000 2.6 130 19:24 31.10.2020
6070 Clouds 27 1020 18 10000 0.45 196 18:52 31.10.2020
6071 Clear 26 1020 17 10000 2.6 190 18:34 31.10.2020
6072 Clear 23 1020 19 10000 3.6 190 17:43 31.10.2020
6073 Clear 22 1020 19 10000 3.6 190 17:24 31.10.2020
6074 Clear 18 1020 27 10000 3.6 150 16:53 31.10.2020
6075 Clear 18 1020 27 10000 3.6 150 16:33 31.10.2020
6076 Clear 13 1019 30 10000 3.6 150 15:54 31.10.2020
6077 Clear 14 1019 30 10000 3.6 150 15:25 31.10.2020
6078 Clouds 14 1019 28 10000 5.1 140 14:53 31.10.2020
6079 Clouds 14 1019 28 10000 5.1 140 14:31 31.10.2020
6080 Clouds 14 1018 30 10000 4.1 160 13:52 31.10.2020
6081 Clouds 13 1018 30 10000 4.1 160 13:28 31.10.2020
6082 Clear 14 1018 26 10000 4.1 160 12:55 31.10.2020
6083 Clouds 14 1018 26 10000 4.1 150 12:22 31.10.2020
6084 Clouds 15 1018 26 10000 4.1 150 11:41 31.10.2020
6085 Clouds 15 1018 26 10000 4.1 150 11:22 31.10.2020
6086 Clouds 14 1018 24 10000 1.28 116 10:42 31.10.2020
6087 Clear 15 1018 26 10000 2.1 110 09:57 31.10.2020
6088 Clear 15 1018 26 10000 2.1 110 09:37 31.10.2020
6089 Clouds 15 1018 24 10000 4.1 160 09:19 31.10.2020
6090 Clouds 16 1018 24 10000 4.1 160 08:26 31.10.2020
6091 Clear 17 1017 23 10000 3.1 150 07:42 31.10.2020
6092 Clear 17 1017 23 10000 3.1 150 07:23 31.10.2020
6093 Clear 18 1018 21 10000 3.1 130 06:36 31.10.2020
6094 Clear 22 1016 14 10000 4.6 310 03:49 31.10.2020
6095 Clouds 24 1015 17 10000 1.34 325 02:39 31.10.2020
6096 Clear 28 1015 10 10000 1.47 80 00:55 31.10.2020
6097 Clear 30 1015 9 10000 1.5 350 23:56 30.10.2020
6098 Clear 30 1015 9 10000 1.5 350 23:31 30.10.2020
6099 Clear 30 1016 8 10000 2.1 110 22:59 30.10.2020
6100 Clear 30 1016 8 10000 2.1 110 22:38 30.10.2020
6101 Clear 29 1016 8 10000 2.1 110 22:20 30.10.2020
6102 Clear 29 1017 12 10000 1.5 360 21:48 30.10.2020
6103 Clear 29 1017 12 10000 1.5 360 21:26 30.10.2020
6104 Clear 28 1018 13 10000 2.6 170 20:45 30.10.2020
6105 Clear 28 1018 13 10000 2.6 170 20:27 30.10.2020
6106 Clear 28 1019 15 10000 4.6 130 19:58 30.10.2020
6107 Clear 27 1019 15 10000 4.6 130 19:37 30.10.2020
6108 Clear 26 1019 15 10000 4.6 130 19:18 30.10.2020
6109 Clear 25 1019 20 10000 0.89 175 18:41 30.10.2020
6110 Clear 24 1019 20 10000 9.3 140 18:22 30.10.2020
6111 Clear 22 1019 24 10000 5.7 130 17:44 30.10.2020
6112 Clear 21 1020 20 10000 5.1 150 17:21 30.10.2020
6113 Clear 19 1019 27 10000 5.7 120 16:50 30.10.2020
6114 Clear 18 1019 27 10000 5.7 120 16:24 30.10.2020
6115 Clear 16 1019 33 10000 6.7 110 15:42 30.10.2020
6116 Clear 14 1019 33 10000 6.7 110 15:24 30.10.2020
6117 Clear 14 1019 35 10000 6.7 140 14:58 30.10.2020
6118 Clear 14 1019 35 10000 6.7 140 14:39 30.10.2020
6119 Clear 14 1019 35 10000 6.7 140 14:21 30.10.2020
6120 Clear 14 1019 35 10000 6.7 140 14:21 30.10.2020
6121 Clear 14 1019 35 10000 6.7 140 14:21 30.10.2020
6122 Clear 15 1018 33 10000 6.2 130 13:41 30.10.2020
6123 Clear 15 1018 35 10000 5.7 140 13:20 30.10.2020
6124 Clear 15 1018 35 10000 5.7 140 12:43 30.10.2020
6125 Clear 15 1018 33 10000 5.7 120 12:22 30.10.2020
6126 Clear 15 1018 33 10000 5.7 120 11:46 30.10.2020
6127 Clear 16 1018 29 10000 5.1 150 11:20 30.10.2020
6128 Clear 16 1018 29 10000 5.1 150 10:50 30.10.2020
6129 Clear 17 1018 29 10000 5.1 150 10:25 30.10.2020
6130 Clear 17 1018 27 10000 4.1 120 09:47 30.10.2020
6131 Clear 17 1018 27 10000 4.1 120 09:24 30.10.2020
6132 Clear 17 1019 22 10000 4.1 120 08:55 30.10.2020
6133 Clear 17 1018 28 10000 3.6 130 08:31 30.10.2020
6134 Clear 18 1019 25 10000 2.6 140 07:51 30.10.2020
6135 Clear 18 1019 25 10000 2.6 140 07:33 30.10.2020
6136 Clear 18 1018 27 10000 2.1 140 06:49 30.10.2020
6137 Clear 19 1018 25 10000 4.1 120 05:31 30.10.2020
6138 Clear 23 1016 16 10000 5.1 60 02:30 30.10.2020
6139 Clear 27 1016 12 10000 5.1 60 00:46 30.10.2020
6140 Clear 27 1017 11 10000 4.6 80 23:54 29.10.2020
6141 Clear 28 1017 11 10000 4.6 80 23:36 29.10.2020
6142 Clear 28 1017 11 10000 6.7 100 23:18 29.10.2020
6143 Clear 27 1017 11 10000 6.7 100 22:42 29.10.2020
6144 Clear 27 1017 11 10000 6.7 100 22:23 29.10.2020
6145 Clouds 27 1018 12 10000 6.7 140 21:40 29.10.2020
6146 Clouds 27 1018 12 10000 6.7 140 21:20 29.10.2020
6147 Clear 25 1019 15 10000 6.7 130 20:42 29.10.2020
6148 Clear 25 1020 13 10000 6.7 110 20:20 29.10.2020
6149 Clear 25 1020 16 10000 9.3 130 19:43 29.10.2020
6150 Clear 24 1020 16 10000 9.3 130 19:22 29.10.2020
6151 Clear 24 1020 17 10000 12.9 130 18:56 29.10.2020
6152 Clear 23 1020 17 10000 12.9 130 18:36 29.10.2020
6153 Clear 22 1021 14 10000 7.7 110 18:18 29.10.2020
6154 Clear 21 1020 19 10000 12.3 140 17:41 29.10.2020
6155 Clear 19 1021 17 10000 10.8 110 17:20 29.10.2020
6156 Clear 18 1021 20 10000 8.2 140 16:46 29.10.2020
6157 Clear 16 1021 20 10000 8.2 140 16:20 29.10.2020
6158 Clear 15 1020 22 10000 7.2 120 15:56 29.10.2020
6159 Clear 14 1020 22 10000 7.2 120 15:38 29.10.2020
6160 Clear 12 1019 28 10000 8.7 140 15:19 29.10.2020
6161 Clear 12 1019 28 10000 8.7 140 14:45 29.10.2020
6162 Clear 11 1019 27 10000 7.2 150 14:23 29.10.2020
6163 Clear 11 1019 27 10000 7.2 150 14:23 29.10.2020
6164 Clear 12 1019 27 10000 7.2 150 13:47 29.10.2020
6165 Clear 12 1019 27 10000 7.2 150 13:28 29.10.2020
6166 Clear 11 1018 27 10000 4.6 140 12:44 29.10.2020
6167 Clear 10 1018 27 10000 5.1 150 12:20 29.10.2020
6168 Clear 11 1018 27 10000 5.1 150 11:58 29.10.2020
6169 Clear 11 1018 27 10000 5.1 150 11:39 29.10.2020
6170 Clear 12 1018 27 10000 3.1 140 11:20 29.10.2020
6171 Clear 11 1018 27 10000 3.1 140 10:37 29.10.2020
6172 Clear 11 1018 27 10000 3.1 140 10:37 29.10.2020
6173 Clear 11 1018 32 10000 4.1 120 10:19 29.10.2020
6174 Clear 11 1018 32 10000 4.1 120 09:48 29.10.2020
6175 Clear 11 1018 32 10000 4.1 120 09:24 29.10.2020
6176 Clear 11 1018 30 10000 5.7 120 08:44 29.10.2020
6177 Clear 11 1018 30 10000 5.7 120 08:24 29.10.2020
6178 Clear 11 1019 31 10000 3.1 130 07:49 29.10.2020
6179 Clear 11 1019 31 10000 3.1 130 07:19 29.10.2020
6180 Clear 11 1019 30 10000 3.1 110 06:30 29.10.2020
6181 Clear 12 1018 29 10000 0.77 67 04:48 29.10.2020
6182 Clear 16 1017 24 10000 0.45 262 02:28 29.10.2020
6183 Clear 19 1014 18 10000 1.34 203 00:41 29.10.2020
6184 Clear 19 1016 18 10000 0.89 0 00:21 29.10.2020
6185 Clear 20 1016 18 10000 3.13 313 23:41 28.10.2020
6186 Clear 19 1014 17 10000 2.68 138 23:20 28.10.2020
6187 Clear 19 1016 20 10000 1.34 0 22:43 28.10.2020
6188 Clear 19 1016 20 10000 1.34 313 22:23 28.10.2020
6189 Clear 18 1017 21 10000 3.6 280 21:45 28.10.2020
6190 Clear 18 1018 18 10000 3.6 310 21:26 28.10.2020
6191 Clear 17 1020 21 10000 2.56 263 20:44 28.10.2020
6192 Clear 17 1020 21 10000 1.56 276 20:24 28.10.2020
6193 Clear 16 1019 28 10000 1.34 0 19:57 28.10.2020
6194 Clear 16 1019 30 10000 1.34 0 19:39 28.10.2020
6195 Clear 15 1019 28 10000 0.49 279 19:20 28.10.2020
6196 Clear 14 1020 34 10000 0.89 0 18:43 28.10.2020
6197 Clear 13 1021 34 10000 2.6 90 18:20 28.10.2020
6198 Clear 13 1021 34 10000 2.6 90 18:20 28.10.2020
6199 Clear 12 1020 43 10000 2.1 90 17:43 28.10.2020
6200 Clear 11 1021 42 10000 2.6 160 17:21 28.10.2020
6201 Clear 9 1021 50 10000 0.89 132 16:47 28.10.2020
6202 Clear 8 1020 52 10000 4.6 140 16:29 28.10.2020
6203 Clear 2 1020 60 10000 2.6 130 15:45 28.10.2020
6204 Clear 4 1020 59 10000 2.27 138 15:20 28.10.2020
6205 Clear 4 1021 54 10000 0.89 182 14:50 28.10.2020
6206 Clear 4 1019 60 10000 4.1 140 14:32 28.10.2020
6207 Clear 4 1021 53 10000 0.89 182 13:59 28.10.2020
6208 Clear 5 1021 53 10000 2.24 182 12:38 28.10.2020
6209 Clear 5 1021 53 10000 1.34 182 12:20 28.10.2020
6210 Clear 6 1021 54 10000 1.34 182 11:43 28.10.2020
6211 Clear 6 1019 56 10000 3.1 90 11:22 28.10.2020
6212 Clear 6 1021 54 10000 1.34 182 10:54 28.10.2020
6213 Clear 6 1019 52 10000 4.1 110 10:34 28.10.2020
6214 Clear 6 1019 52 10000 4.1 110 09:56 28.10.2020
6215 Clear 6 1019 52 10000 4.1 110 09:38 28.10.2020
6216 Clear 6 1019 52 10000 2.53 104 09:20 28.10.2020
6217 Clear 7 1019 52 10000 2.53 104 08:45 28.10.2020
6218 Clear 7 1019 52 10000 2.19 116 08:24 28.10.2020
6219 Clear 7 1019 49 10000 2.1 170 07:47 28.10.2020
6220 Clear 8 1019 49 10000 2.1 170 07:29 28.10.2020
6221 Clear 8 1019 49 10000 4.1 120 06:40 28.10.2020
6222 Clear 9 1019 46 10000 4.6 110 05:49 28.10.2020
6223 Clear 9 1019 44 10000 0.45 140 04:52 28.10.2020
6224 Clear 10 1018 40 10000 5.7 80 04:24 28.10.2020
6225 Clouds 11 1018 32 10000 3.1 320 02:25 28.10.2020
6226 Clear 13 1017 32 10000 4.6 340 00:51 28.10.2020
6227 Clouds 13 1016 35 10000 5.7 340 23:51 27.10.2020
6228 Clouds 13 1016 34 10000 2.6 40 23:23 27.10.2020
6229 Clouds 13 1016 34 10000 2.6 40 22:55 27.10.2020
6230 Clouds 13 1016 34 10000 2.6 40 22:37 27.10.2020
6231 Clouds 13 1016 34 10000 2.1 0 22:18 27.10.2020
6232 Clouds 13 1016 37 10000 1.5 10 21:54 27.10.2020
6233 Clouds 12 1016 37 10000 1.5 10 21:36 27.10.2020
6234 Clouds 12 1017 30 10000 3.1 70 21:18 27.10.2020
6235 Clouds 12 1017 34 10000 2.1 80 20:36 27.10.2020
6236 Clear 11 1017 34 10000 3.6 20 20:18 27.10.2020
6237 Clear 11 1017 29 10000 4.16 9 19:39 27.10.2020
6238 Clear 11 1017 29 10000 3.4 326 19:20 27.10.2020
6239 Clear 10 1017 22 10000 1.5 300 18:57 27.10.2020
6240 Clear 10 1017 22 10000 1.5 300 18:39 27.10.2020
6241 Clear 9 1017 22 10000 1.5 300 18:18 27.10.2020
6242 Clouds 8 1015 26 10000 2.6 260 17:42 27.10.2020
6243 Clouds 7 1016 26 10000 3.1 280 17:21 27.10.2020
6244 Clouds 5 1014 37 10000 1.5 180 16:48 27.10.2020
6245 Clouds 5 1014 37 10000 1.5 180 16:25 27.10.2020
6246 Clouds 3 1013 40 10000 2.1 160 15:47 27.10.2020
6247 Clear 3 1016 34 10000 0.89 26 15:29 27.10.2020
6248 Clear 2 1013 37 10000 1.5 130 14:55 27.10.2020
6249 Clear 2 1013 37 10000 1.5 130 14:36 27.10.2020
6250 Clear 2 1012 37 10000 3.1 210 14:18 27.10.2020
6251 Clear 2 1012 37 10000 3.1 210 13:32 27.10.2020
6252 Clear 3 1012 37 10000 2.6 90 12:57 27.10.2020
6253 Clear 3 1012 37 10000 2.6 90 12:37 27.10.2020
6254 Clear 3 1012 43 10000 2.6 200 12:19 27.10.2020
6255 Clear 3 1012 43 10000 2.6 200 11:42 27.10.2020
6256 Clear 3 1012 43 10000 2.6 200 11:22 27.10.2020
6257 Clear 4 1012 37 10000 3.6 150 10:46 27.10.2020
6258 Clear 4 1012 37 10000 3.6 150 10:24 27.10.2020
6259 Clear 4 1011 35 10000 3.6 160 09:44 27.10.2020
6260 Clear 5 1011 35 10000 3.6 160 09:23 27.10.2020
6261 Clear 5 1011 29 10000 2.6 200 08:36 27.10.2020
6262 Clear 6 1012 22 10000 2.1 220 08:18 27.10.2020
6263 Clear 6 1012 22 10000 2.1 220 07:42 27.10.2020
6264 Clear 6 1012 22 10000 2.1 220 07:24 27.10.2020
6265 Clear 8 1012 17 10000 2.6 280 06:22 27.10.2020
6266 Clear 8 1011 16 10000 4.6 290 05:51 27.10.2020
6267 Clear 9 1011 16 10000 4.6 290 05:32 27.10.2020
6268 Clear 9 1011 14 10000 4.6 290 04:44 27.10.2020
6269 Clouds 12 1011 12 10000 5.7 300 02:29 27.10.2020
6270 Clouds 15 1009 11 10000 8.7 320 00:51 27.10.2020
6271 Clouds 17 1009 12 10000 9.8 320 23:41 26.10.2020
6272 Clouds 18 1008 16 10000 7.2 340 23:19 26.10.2020
6273 Clouds 18 1008 16 10000 7.2 340 22:46 26.10.2020
6274 Clouds 19 1008 16 10000 7.2 340 22:21 26.10.2020
6275 Clouds 19 1010 22 10000 4.6 320 21:43 26.10.2020
6276 Clouds 19 1011 23 10000 7.7 320 21:20 26.10.2020
6277 Clouds 19 1011 23 10000 7.7 320 20:57 26.10.2020
6278 Clouds 19 1011 23 10000 7.7 320 20:38 26.10.2020
6279 Clouds 19 1011 36 10000 5.7 320 20:18 26.10.2020
6280 Clouds 18 1011 39 10000 7.7 300 19:46 26.10.2020
6281 Clouds 18 1011 39 10000 7.7 300 19:22 26.10.2020
6282 Clouds 18 1012 59 10000 4.6 310 18:44 26.10.2020
6283 Clouds 17 1012 59 10000 4.6 310 18:23 26.10.2020
6284 Clouds 16 1011 72 10000 5.7 300 17:55 26.10.2020
6285 Clouds 16 1011 72 10000 5.7 300 17:37 26.10.2020
6286 Rain 16 1011 72 10000 4.1 280 17:19 26.10.2020
6287 Clouds 16 1011 82 10000 1.5 220 16:40 26.10.2020
6288 Drizzle 16 1010 59 10000 3.6 250 16:21 26.10.2020
6289 Drizzle 16 1010 59 10000 3.6 250 15:41 26.10.2020
6290 Drizzle 16 1010 59 10000 3.6 250 15:20 26.10.2020
6291 Clouds 16 1009 59 10000 5.7 220 14:52 26.10.2020
6292 Clouds 16 1009 59 10000 5.7 220 14:30 26.10.2020
6293 Clouds 17 1009 63 10000 4.1 230 13:43 26.10.2020
6294 Clouds 17 1009 63 10000 4.1 230 13:24 26.10.2020
6295 Clouds 17 1009 63 10000 2.6 280 12:49 26.10.2020
6296 Clouds 16 1009 63 10000 2.6 280 12:27 26.10.2020
6297 Clouds 17 1009 63 10000 2.1 220 11:57 26.10.2020
6298 Clouds 17 1009 63 10000 2.1 220 11:37 26.10.2020
6299 Clear 16 1009 63 10000 3.1 220 11:19 26.10.2020
6300 Clear 16 1009 63 10000 3.1 220 10:43 26.10.2020
6301 Clear 16 1009 63 10000 3.1 220 10:25 26.10.2020
6302 Clear 17 1009 59 10000 4.1 240 09:48 26.10.2020
6303 Clear 17 1009 59 10000 4.1 240 09:48 26.10.2020
6304 Clear 17 1009 59 10000 4.1 240 09:25 26.10.2020
6305 Clear 18 1009 45 10000 5.7 260 08:46 26.10.2020
6306 Clear 19 1008 42 10000 2.6 260 07:58 26.10.2020
6307 Clear 19 1008 42 10000 2.6 260 07:38 26.10.2020
6308 Clear 20 1008 40 10000 2.6 270 06:49 26.10.2020
6309 Clouds 22 1008 28 10000 2.6 250 04:47 26.10.2020
6310 Clouds 23 1008 27 10000 3.6 230 04:18 26.10.2020
6311 Clouds 25 1007 25 10000 3.1 230 02:27 26.10.2020
6312 Clouds 26 1007 19 10000 6.2 230 01:29 26.10.2020
6313 Clouds 27 1008 19 10000 6.7 230 00:33 26.10.2020
6314 Clouds 27 1008 23 10000 9.3 240 23:42 25.10.2020
6315 Clouds 27 1008 18 10000 9.3 240 23:21 25.10.2020
6316 Clouds 27 1009 15 10000 7.2 270 22:41 25.10.2020
6317 Clouds 27 1009 15 10000 7.2 270 22:23 25.10.2020
6318 Clouds 27 1002 16 10000 4.02 95 21:45 25.10.2020
6319 Clouds 28 1009 17 10000 6.2 230 21:26 25.10.2020
6320 Clouds 29 1010 17 10000 6.7 210 20:57 25.10.2020
6321 Clouds 29 1010 17 10000 6.7 210 20:38 25.10.2020
6322 Clouds 28 1012 21 10000 4.6 220 20:19 25.10.2020
6323 Clouds 28 1012 21 10000 4.6 220 19:49 25.10.2020
6324 Clouds 28 1012 21 10000 4.6 220 19:24 25.10.2020
6325 Clear 27 1013 21 10000 7.7 200 18:55 25.10.2020
6326 Clouds 27 1012 25 10000 4.6 210 18:37 25.10.2020
6327 Clear 26 1013 21 10000 7.7 200 18:19 25.10.2020
6328 Clouds 24 1013 29 10000 2.6 200 17:39 25.10.2020
6329 Clouds 24 1013 29 10000 2.6 200 17:21 25.10.2020
6330 Clouds 23 1013 37 10000 1.5 150 16:58 25.10.2020
6331 Clouds 23 1013 37 10000 1.5 150 16:38 25.10.2020
6332 Clear 21 1013 34 10000 2.29 153 16:18 25.10.2020
6333 Clouds 20 1012 36 10000 1.5 160 15:46 25.10.2020
6334 Clouds 19 1012 36 10000 1.5 160 15:25 25.10.2020
6335 Clouds 19 1012 34 10000 3.1 110 14:46 25.10.2020
6336 Clouds 19 1012 34 10000 3.1 110 14:28 25.10.2020
6337 Clouds 19 1012 31 10000 2.1 120 13:43 25.10.2020
6338 Clouds 19 1012 31 10000 2.1 120 13:21 25.10.2020
6339 Clouds 19 1012 31 10000 2.1 150 12:49 25.10.2020
6340 Clouds 19 1012 31 10000 2.1 150 12:27 25.10.2020
6341 Clouds 19 1012 31 10000 2.1 150 12:27 25.10.2020
6342 Clear 19 1012 31 10000 2.1 140 11:55 25.10.2020
6343 Clear 19 1012 31 10000 2.1 140 11:37 25.10.2020
6344 Clear 19 1012 39 10000 2.6 150 11:18 25.10.2020
6345 Clear 19 1012 39 10000 2.6 150 10:44 25.10.2020
6346 Clear 19 1012 35 10000 2.6 150 10:25 25.10.2020
6347 Clear 19 1013 35 10000 3.6 150 09:48 25.10.2020
6348 Clear 20 1013 30 10000 3.6 150 09:20 25.10.2020
6349 Clear 20 1013 30 10000 2.6 150 08:47 25.10.2020
6350 Clear 20 1013 28 10000 2.6 150 08:29 25.10.2020
6351 Clear 20 1013 28 10000 2.6 170 07:50 25.10.2020
6352 Clear 21 1013 28 10000 2.6 170 07:32 25.10.2020
6353 Clear 21 1013 28 10000 2.6 170 06:50 25.10.2020
6354 Clear 22 1013 26 10000 3.1 170 05:47 25.10.2020
6355 Clear 23 1013 23 10000 1.5 170 04:52 25.10.2020
6356 Clear 28 1012 15 10000 4.1 340 02:59 25.10.2020
6357 Clear 31 1012 18 10000 4.1 360 01:20 25.10.2020
6358 Clear 31 1012 20 10000 2.6 350 00:47 25.10.2020
6359 Clear 31 1013 22 10000 3.6 360 00:19 25.10.2020
6360 Clear 31 1013 22 10000 3.6 360 23:43 24.10.2020
6361 Clear 31 1013 22 10000 3.6 360 23:24 24.10.2020
6362 Clear 31 1014 22 10000 3.43 272 22:42 24.10.2020
6363 Clear 31 1014 22 10000 2.45 263 22:24 24.10.2020
6364 Clouds 31 1015 19 10000 2.45 263 21:57 24.10.2020
6365 Clouds 30 1015 19 10000 2.45 263 21:38 24.10.2020
6366 Clouds 30 1015 19 10000 2.41 239 21:20 24.10.2020
6367 Clouds 30 1015 25 10000 0.89 200 20:46 24.10.2020
6368 Clouds 29 1016 26 10000 2.1 140 20:22 24.10.2020
6369 Clouds 28 1017 36 10000 2.45 214 19:45 24.10.2020
6370 Clouds 28 1017 36 10000 2.31 180 19:26 24.10.2020
6371 Clear 27 1017 44 10000 4.1 150 18:55 24.10.2020
6372 Clear 26 1017 44 10000 4.1 150 18:36 24.10.2020
6373 Clear 24 1017 46 10000 3.6 150 17:57 24.10.2020
6374 Clear 23 1017 46 10000 3.6 150 17:37 24.10.2020
6375 Clear 22 1017 46 10000 3.6 150 17:19 24.10.2020
6376 Clear 18 1017 48 10000 4.1 150 16:41 24.10.2020
6377 Clear 18 1016 48 10000 4.1 140 16:18 24.10.2020
6378 Clear 17 1016 48 10000 4.1 140 15:38 24.10.2020
6379 Clear 17 1016 48 10000 4.1 140 15:19 24.10.2020
6380 Clear 18 1016 42 10000 2.1 150 14:43 24.10.2020
6381 Clear 17 1016 42 10000 2.1 150 14:23 24.10.2020
6382 Clear 18 1016 39 10000 4.1 140 13:44 24.10.2020
6383 Clear 17 1016 39 10000 4.1 140 13:22 24.10.2020
6384 Clear 18 1016 36 10000 3.1 160 12:42 24.10.2020
6385 Clear 18 1016 36 10000 3.1 160 12:21 24.10.2020
6386 Clear 19 1017 34 10000 3.1 140 11:51 24.10.2020
6387 Clear 19 1017 34 10000 3.1 140 11:27 24.10.2020
6388 Clear 19 1017 32 10000 3.6 150 10:52 24.10.2020
6389 Clear 19 1017 32 10000 3.6 150 10:32 24.10.2020
6390 Clear 20 1016 32 10000 3.1 130 09:50 24.10.2020
6391 Clear 20 1016 32 10000 3.1 130 09:32 24.10.2020
6392 Clear 21 1016 32 10000 3.1 150 08:58 24.10.2020
6393 Clear 21 1016 32 10000 3.1 150 08:19 24.10.2020
6394 Clear 22 1016 26 10000 3.6 150 07:53 24.10.2020
6395 Clear 23 1016 26 10000 3.6 150 07:25 24.10.2020
6396 Clear 23 1016 25 10000 1.3 175 06:53 24.10.2020
6397 Clear 23 1016 25 10000 1.6 190 06:23 24.10.2020
6398 Clear 30 1014 15 10000 1.5 290 02:56 24.10.2020
6399 Clear 32 1014 21 10000 2.6 280 01:20 24.10.2020
6400 Clear 32 1014 21 10000 2.6 280 00:40 24.10.2020
6401 Clear 32 1014 21 10000 2.6 280 00:21 24.10.2020
6402 Clear 32 1014 20 10000 2.6 150 23:49 23.10.2020
6403 Clear 32 1014 20 10000 2.6 150 23:26 23.10.2020
6404 Clear 32 1015 18 10000 3.1 250 22:57 23.10.2020
6405 Clear 31 1015 18 10000 3.1 250 22:37 23.10.2020
6406 Clear 31 1015 18 10000 3.1 250 22:18 23.10.2020
6407 Clear 31 1015 21 10000 1.34 57 21:45 23.10.2020
6408 Clear 30 1016 23 10000 2.6 220 21:24 23.10.2020
6409 Clear 30 1016 26 10000 0.45 157 20:41 23.10.2020
6410 Clear 29 1017 30 10000 2.92 189 20:23 23.10.2020
6411 Clear 29 1016 35 10000 1.34 204 19:52 23.10.2020
6412 Clear 28 1017 39 10000 3.6 190 19:32 23.10.2020
6413 Clear 27 1017 41 10000 4.6 150 18:55 23.10.2020
6414 Clear 26 1017 41 10000 4.6 150 18:34 23.10.2020
6415 Clear 24 1017 46 10000 3.1 190 17:51 23.10.2020
6416 Clear 23 1017 46 10000 3.1 190 17:27 23.10.2020
6417 Clear 20 1016 48 10000 4.1 160 16:56 23.10.2020
6418 Clear 20 1016 48 10000 4.1 160 16:56 23.10.2020
6419 Clear 18 1016 48 10000 4.1 160 16:37 23.10.2020
6420 Clear 18 1016 48 10000 4.1 160 16:37 23.10.2020
6421 Clear 18 1015 48 10000 4.1 160 16:19 23.10.2020
6422 Clear 18 1015 48 10000 4.1 160 15:42 23.10.2020
6423 Clear 18 1015 48 10000 4.1 160 15:23 23.10.2020
6424 Clear 18 1015 45 10000 3.6 140 14:53 23.10.2020
6425 Clear 18 1015 45 10000 3.6 140 14:34 23.10.2020
6426 Clear 19 1014 39 10000 5.1 140 13:56 23.10.2020
6427 Clear 18 1014 39 10000 5.1 140 13:37 23.10.2020
6428 Clear 19 1014 34 10000 1.5 80 13:19 23.10.2020
6429 Clear 19 1014 34 10000 1.5 80 12:42 23.10.2020
6430 Clear 19 1014 34 10000 1.5 80 12:23 23.10.2020
6431 Clear 19 1015 34 10000 4.6 140 11:46 23.10.2020
6432 Clear 19 1015 34 10000 4.6 140 11:21 23.10.2020
6433 Clear 20 1014 34 10000 4.6 140 10:43 23.10.2020
6434 Clear 20 1014 34 10000 4.6 140 10:25 23.10.2020
6435 Clear 21 1014 32 10000 2.6 130 09:44 23.10.2020
6436 Clear 21 1014 32 10000 2.6 130 09:26 23.10.2020
6437 Clear 21 1014 26 10000 3.1 160 08:52 23.10.2020
6438 Clear 21 1014 26 10000 3.1 160 08:30 23.10.2020
6439 Clear 22 1014 24 10000 3.1 180 07:30 23.10.2020
6440 Clear 23 1013 30 10000 4.1 180 06:57 23.10.2020
6441 Clear 23 1013 19 10000 2.1 250 06:20 23.10.2020
6442 Clear 26 1012 19 10000 2.1 210 04:45 23.10.2020
6443 Clear 30 1011 15 10000 2.6 270 02:32 23.10.2020
6444 Clear 32 1011 15 10000 4.1 290 01:22 23.10.2020
6445 Clear 32 1011 14 10000 5.3 243 00:33 23.10.2020
6446 Clear 32 1011 18 10000 5.3 243 23:40 22.10.2020
6447 Clear 32 1012 18 10000 3.6 330 23:19 22.10.2020
6448 Clear 32 1012 18 10000 3.6 330 22:47 22.10.2020
6449 Clear 32 1012 18 10000 3.6 330 22:26 22.10.2020
6450 Clear 31 1013 17 10000 3.6 270 21:58 22.10.2020
6451 Clear 31 1013 17 10000 3.6 270 21:39 22.10.2020
6452 Clear 31 1014 15 10000 5.7 170 21:20 22.10.2020
6453 Clear 30 1014 18 10000 4.1 160 20:44 22.10.2020
6454 Clear 30 1014 18 10000 4.1 160 20:25 22.10.2020
6455 Clear 29 1014 20 10000 4.6 200 19:44 22.10.2020
6456 Clear 29 1014 20 10000 4.6 200 19:44 22.10.2020
6457 Clear 28 1014 20 10000 4.6 200 19:21 22.10.2020
6458 Clear 27 1014 22 10000 0.89 57 18:58 22.10.2020
6459 Clear 26 1014 22 10000 3.6 140 18:37 22.10.2020
6460 Clear 25 1015 23 10000 5.1 150 18:18 22.10.2020
6461 Clear 23 1013 29 10000 3.1 150 17:43 22.10.2020
6462 Clear 22 1013 31 10000 3.1 150 17:20 22.10.2020
6463 Clear 17 1013 31 10000 3.6 150 16:45 22.10.2020
6464 Clear 17 1013 35 10000 3.6 150 16:24 22.10.2020
6465 Clear 17 1012 29 10000 2.6 140 15:49 22.10.2020
6466 Clear 17 1012 29 10000 2.6 140 15:27 22.10.2020
6467 Clear 17 1012 29 10000 4.1 140 14:55 22.10.2020
6468 Clear 17 1012 29 10000 4.1 140 14:36 22.10.2020
6469 Clear 17 1012 29 10000 4.1 140 14:36 22.10.2020
6470 Clear 17 1012 27 10000 2.21 116 14:18 22.10.2020
6471 Clear 18 1012 27 10000 2.21 116 13:41 22.10.2020
6472 Clear 18 1012 27 10000 2.15 115 13:22 22.10.2020
6473 Clear 19 1012 25 10000 4.1 160 12:31 22.10.2020
6474 Clear 19 1012 24 10000 3.6 160 11:58 22.10.2020
6475 Clear 19 1012 24 10000 3.6 160 11:38 22.10.2020
6476 Clear 20 1012 24 10000 4.1 160 11:18 22.10.2020
6477 Clear 20 1012 24 10000 4.1 160 10:46 22.10.2020
6478 Clear 21 1012 24 10000 4.1 160 10:24 22.10.2020
6479 Clear 21 1012 21 10000 3.1 120 09:42 22.10.2020
6480 Clear 21 1012 19 10000 3.1 180 09:18 22.10.2020
6481 Clear 21 1012 19 10000 3.1 180 08:39 22.10.2020
6482 Clear 22 1012 17 10000 2.6 230 08:20 22.10.2020
6483 Clear 23 1012 17 10000 2.6 230 07:43 22.10.2020
6484 Clear 23 1011 15 10000 3.1 240 07:18 22.10.2020
6485 Clear 24 1011 15 10000 3.1 240 06:38 22.10.2020
6486 Clear 25 1012 13 10000 2.1 200 06:18 22.10.2020
6487 Clear 26 1012 13 10000 1.5 350 05:37 22.10.2020
6488 Clear 32 1009 10 10000 4.6 290 02:55 22.10.2020
6489 Clear 35 1010 7 10000 2.6 350 00:50 22.10.2020
6490 Clear 35 1011 7 10000 2.6 350 00:18 22.10.2020
6491 Clear 34 1011 7 10000 2.6 350 23:38 21.10.2020
6492 Clear 34 1012 7 10000 6.2 240 22:59 21.10.2020
6493 Clear 35 1012 7 10000 6.2 240 22:37 21.10.2020
6494 Clear 34 1013 9 10000 3.25 225 22:19 21.10.2020
6495 Clear 34 1013 9 10000 3.25 225 21:45 21.10.2020
6496 Clear 33 1013 7 10000 1.5 0 21:19 21.10.2020
6497 Clear 33 1014 8 10000 2.6 130 20:55 21.10.2020
6498 Clear 32 1014 8 10000 2.6 130 20:36 21.10.2020
6499 Clear 31 1014 8 10000 2.6 130 20:18 21.10.2020
6500 Clouds 30 1013 14 10000 0.89 200 19:40 21.10.2020
6501 Clouds 28 1013 15 10000 0.89 188 19:22 21.10.2020
6502 Clear 26 1014 16 10000 3.6 180 18:47 21.10.2020
6503 Clear 25 1014 16 10000 3.6 180 18:26 21.10.2020
6504 Clear 19 1014 18 10000 5.1 180 17:47 21.10.2020
6505 Clear 20 1014 18 10000 5.1 180 17:21 21.10.2020
6506 Clear 17 1013 20 10000 5.1 170 16:56 21.10.2020
6507 Clear 18 1013 20 10000 5.1 170 16:36 21.10.2020
6508 Clear 18 1013 20 10000 5.1 170 16:18 21.10.2020
6509 Clear 18 1013 21 10000 3.6 170 15:42 21.10.2020
6510 Clear 17 1013 21 10000 3.6 170 15:20 21.10.2020
6511 Clear 18 1013 20 10000 2.1 110 14:45 21.10.2020
6512 Clear 18 1013 20 10000 2.1 110 14:27 21.10.2020
6513 Clear 17 1012 21 10000 4.1 130 13:46 21.10.2020
6514 Clear 17 1012 21 10000 4.1 130 13:26 21.10.2020
6515 Clear 17 1013 18 10000 5.1 140 12:48 21.10.2020
6516 Clear 18 1013 18 10000 5.1 140 12:25 21.10.2020
6517 Clear 17 1013 18 10000 5.1 140 11:59 21.10.2020
6518 Clear 18 1013 18 10000 5.1 140 11:40 21.10.2020
6519 Clear 17 1013 18 10000 5.1 140 11:19 21.10.2020
6520 Clear 17 1013 20 10000 3.6 160 10:44 21.10.2020
6521 Clear 17 1013 20 10000 3.6 160 10:25 21.10.2020
6522 Clear 19 1012 19 10000 2.1 120 09:52 21.10.2020
6523 Clear 19 1012 19 10000 2.1 120 09:33 21.10.2020
6524 Clear 20 1012 19 10000 4.1 140 08:43 21.10.2020
6525 Clear 21 1012 19 10000 4.1 140 08:25 21.10.2020
6526 Clear 21 1012 16 10000 2.6 170 07:58 21.10.2020
6527 Clear 21 1012 16 10000 2.6 170 07:31 21.10.2020
6528 Clear 22 1012 17 10000 1.5 220 06:50 21.10.2020
6529 Clear 23 1012 17 10000 1.5 220 06:26 21.10.2020
6530 Clear 26 1011 12 10000 1.5 330 04:46 21.10.2020
6531 Clear 34 1011 7 10000 2.08 282 00:51 21.10.2020
6532 Clear 34 1012 7 10000 1.5 0 23:49 20.10.2020
6533 Clear 33 1013 10 10000 1.87 275 22:53 20.10.2020
6534 Clear 33 1013 8 10000 3.6 10 22:28 20.10.2020
6535 Clear 32 1014 10 10000 1.5 290 21:50 20.10.2020
6536 Clear 32 1014 10 10000 1.5 290 21:20 20.10.2020
6537 Clear 31 1013 15 10000 0.89 280 20:45 20.10.2020
6538 Clear 30 1014 14 10000 0.55 191 20:26 20.10.2020
6539 Clear 30 1014 16 10000 0.45 221 19:59 20.10.2020
6540 Clear 29 1015 15 10000 1.5 160 19:41 20.10.2020
6541 Clear 28 1015 15 10000 1.5 160 19:21 20.10.2020
6542 Clear 27 1007 18 10000 0.45 6 18:47 20.10.2020
6543 Clear 25 1015 19 10000 2.1 180 18:29 20.10.2020
6544 Clear 19 1014 21 10000 3.1 160 17:47 20.10.2020
6545 Clear 19 1014 21 10000 3.1 160 17:29 20.10.2020
6546 Clear 15 1014 26 10000 3.6 160 16:48 20.10.2020
6547 Clear 16 1014 26 10000 3.6 160 16:28 20.10.2020
6548 Clear 17 1014 26 10000 3.1 140 15:56 20.10.2020
6549 Clear 16 1014 26 10000 3.1 140 15:38 20.10.2020
6550 Clear 16 1014 26 10000 3.1 140 15:19 20.10.2020
6551 Clear 16 1013 26 10000 2.1 120 14:41 20.10.2020
6552 Clear 16 1013 26 10000 2.1 120 14:22 20.10.2020
6553 Clear 17 1013 23 10000 4.1 140 13:44 20.10.2020
6554 Clear 17 1013 23 10000 4.1 140 13:23 20.10.2020
6555 Clear 17 1014 23 10000 4.1 150 12:58 20.10.2020
6556 Clear 17 1014 23 10000 4.1 150 12:40 20.10.2020
6557 Clear 17 1014 23 10000 4.1 150 12:21 20.10.2020
6558 Clear 18 1014 22 10000 4.6 150 11:40 20.10.2020
6559 Clear 18 1014 22 10000 4.6 150 11:20 20.10.2020
6560 Clear 19 1014 22 10000 4.6 150 10:31 20.10.2020
6561 Clear 20 1014 20 10000 3.6 160 09:51 20.10.2020
6562 Clear 20 1014 20 10000 3.6 160 09:22 20.10.2020
6563 Clear 21 1014 19 10000 3.1 150 08:58 20.10.2020
6564 Clear 21 1014 19 10000 3.1 150 08:36 20.10.2020
6565 Clear 22 1014 19 10000 3.6 190 07:52 20.10.2020
6566 Clear 22 1014 19 10000 3.6 190 07:26 20.10.2020
6567 Clear 24 1014 17 10000 2.6 200 06:30 20.10.2020
6568 Clear 25 1013 15 10000 0.62 21 05:43 20.10.2020
6569 Clear 29 1013 11 10000 4.6 340 03:56 20.10.2020
6570 Clear 32 1013 8 10000 5.7 350 02:19 20.10.2020
6571 Clear 34 1013 8 10000 3.26 319 00:59 20.10.2020
6572 Clear 34 1013 8 10000 3.26 319 00:41 20.10.2020
6573 Clear 34 1013 8 10000 2.74 308 00:20 20.10.2020
6574 Clear 34 1014 7 10000 3.6 300 23:41 19.10.2020
6575 Clear 34 1014 7 10000 3.6 300 23:21 19.10.2020
6576 Clouds 33 1015 8 10000 1.5 10 22:43 19.10.2020
6577 Clouds 33 1015 8 10000 1.5 10 22:21 19.10.2020
6578 Clear 33 1017 8 10000 1.5 130 21:43 19.10.2020
6579 Clear 32 1017 8 10000 1.5 130 21:22 19.10.2020
6580 Clear 32 1017 9 10000 1.01 243 20:46 19.10.2020
6581 Clear 31 1017 9 10000 1.11 180 20:27 19.10.2020
6582 Clear 30 1017 12 10000 1.5 210 19:50 19.10.2020
6583 Clear 29 1017 12 10000 1.5 210 19:24 19.10.2020
6584 Clear 27 1017 13 10000 2.1 170 18:54 19.10.2020
6585 Clear 26 1017 13 10000 2.1 170 18:36 19.10.2020
6586 Clear 26 1017 13 10000 2.1 170 18:18 19.10.2020
6587 Clear 19 1017 18 10000 3.1 150 17:43 19.10.2020
6588 Clear 21 1017 18 10000 3.1 150 17:23 19.10.2020
6589 Clear 15 1016 22 10000 5.1 140 16:43 19.10.2020
6590 Clear 15 1016 22 10000 5.1 140 16:24 19.10.2020
6591 Clouds 15 1013 33 10000 1.34 109 15:43 19.10.2020
6592 Clouds 16 1015 24 10000 1.35 107 15:24 19.10.2020
6593 Clouds 16 1015 24 10000 1.35 107 14:51 19.10.2020
6594 Clouds 17 1015 23 10000 1.36 113 14:24 19.10.2020
6595 Clouds 16 1016 26 10000 1.36 113 13:52 19.10.2020
6596 Clouds 17 1015 20 10000 1.64 109 13:32 19.10.2020
6597 Clouds 18 1016 22 10000 1.37 122 12:51 19.10.2020
6598 Clouds 17 1011 22 10000 1.37 122 12:33 19.10.2020
6599 Clouds 17 1017 19 10000 1.13 127 11:51 19.10.2020
6600 Clear 18 1016 17 10000 4.1 150 11:26 19.10.2020
6601 Clear 19 1016 17 10000 4.1 150 10:56 19.10.2020
6602 Clear 19 1016 17 10000 4.1 150 10:38 19.10.2020
6603 Clear 20 1016 17 10000 1.5 110 10:19 19.10.2020
6604 Clear 19 1016 17 10000 1.5 110 09:42 19.10.2020
6605 Clear 20 1016 16 10000 4.1 170 09:19 19.10.2020
6606 Clear 20 1016 16 10000 4.1 170 08:48 19.10.2020
6607 Clear 21 1016 16 10000 4.1 170 08:23 19.10.2020
6608 Clear 22 1016 14 10000 3.1 160 07:39 19.10.2020
6609 Clear 22 1016 15 10000 2.6 200 07:18 19.10.2020
6610 Clear 23 1016 11 10000 0.8 322 06:18 19.10.2020
6611 Clear 28 1015 10 10000 3.1 350 03:48 19.10.2020
6612 Clear 32 1015 7 10000 3.6 10 02:23 19.10.2020
6613 Clear 34 1016 6 10000 3.1 300 00:49 19.10.2020
6614 Clear 34 1016 7 10000 2.6 260 00:20 19.10.2020
6615 Clear 34 1016 7 10000 2.6 260 23:45 18.10.2020
6616 Clear 34 1016 7 10000 2.6 260 23:24 18.10.2020
6617 Clear 33 1017 8 10000 3.43 290 22:48 18.10.2020
6618 Clear 33 1017 8 10000 2.83 281 22:22 18.10.2020
6619 Clear 33 1018 8 10000 1.5 270 21:53 18.10.2020
6620 Clear 32 1018 8 10000 1.5 270 21:30 18.10.2020
6621 Clear 32 1019 12 10000 1.5 250 20:58 18.10.2020
6622 Clear 31 1019 12 10000 1.5 250 20:39 18.10.2020
6623 Clear 31 1019 12 10000 1.5 250 20:19 18.10.2020
6624 Clear 29 1018 18 10000 0.89 190 19:42 18.10.2020
6625 Clear 29 1019 18 10000 1.5 190 19:22 18.10.2020
6626 Clear 27 1019 15 10000 3.6 150 18:48 18.10.2020
6627 Clear 26 1019 15 10000 3.6 150 18:25 18.10.2020
6628 Clear 21 1018 21 10000 3.6 170 17:43 18.10.2020
6629 Clear 18 1018 21 10000 3.6 170 17:25 18.10.2020
6630 Clear 16 1018 25 10000 4.1 140 16:45 18.10.2020
6631 Clear 17 1018 25 10000 4.1 140 16:26 18.10.2020
6632 Clear 16 1017 23 10000 2.6 130 15:57 18.10.2020
6633 Clear 17 1017 23 10000 2.6 130 15:39 18.10.2020
6634 Clear 16 1017 25 10000 3.6 160 15:19 18.10.2020
6635 Clear 17 1017 25 10000 3.6 160 14:50 18.10.2020
6636 Clear 17 1017 25 10000 3.6 160 14:28 18.10.2020
6637 Clear 17 1017 23 10000 3.1 150 13:55 18.10.2020
6638 Clear 17 1017 23 10000 3.1 150 13:37 18.10.2020
6639 Clear 18 1017 23 10000 3.6 170 13:18 18.10.2020
6640 Clear 18 1017 23 10000 3.6 170 12:41 18.10.2020
6641 Clear 18 1017 22 10000 3.1 150 12:20 18.10.2020
6642 Clear 18 1017 22 10000 3.1 150 11:41 18.10.2020
6643 Clear 18 1017 22 10000 3.1 150 11:22 18.10.2020
6644 Clear 20 1017 20 10000 2.6 150 10:40 18.10.2020
6645 Clear 20 1017 20 10000 2.6 150 10:40 18.10.2020
6646 Clear 20 1017 20 10000 2.6 150 10:20 18.10.2020
6647 Clear 21 1017 19 10000 3.1 170 09:50 18.10.2020
6648 Clear 21 1017 19 10000 3.1 170 09:23 18.10.2020
6649 Clear 21 1017 18 10000 3.1 200 08:57 18.10.2020
6650 Clear 21 1017 18 10000 3.1 200 08:37 18.10.2020
6651 Clear 22 1016 17 10000 3.6 190 08:19 18.10.2020
6652 Clear 25 1016 14 10000 2.6 230 06:57 18.10.2020
6653 Clear 28 1015 12 10000 4.1 310 04:44 18.10.2020
6654 Clear 33 1014 9 10000 6.2 320 02:56 18.10.2020
6655 Clear 35 1014 7 10000 7.2 320 01:39 18.10.2020
6656 Clear 36 1014 7 10000 5.7 310 00:50 18.10.2020
6657 Clear 36 1014 7 10000 5.7 310 00:32 18.10.2020
6658 Clear 36 1014 8 10000 3.6 290 23:45 17.10.2020
6659 Clear 35 1014 8 10000 3.6 290 23:22 17.10.2020
6660 Clear 35 1015 9 10000 4.17 285 22:59 17.10.2020
6661 Clear 35 1015 9 10000 4.17 285 22:40 17.10.2020
6662 Clear 35 1016 7 10000 2.1 0 22:19 17.10.2020
6663 Clear 34 1016 9 10000 1.5 270 21:44 17.10.2020
6664 Clear 34